<?xml version="1.0" encoding="UTF-8" standalone="no" ?>
<gpx xmlns="http://www.topografix.com/GPX/1/1" xmlns:xsi="http://www.w3.org/2001/XMLSchema-instance" xsi:schemaLocation="http://www.topografix.com/GPX/1/1 http://www.topografix.com/GPX/1/1/gpx.xsd" version="1.1" creator="VisuGPX - https://www.visugpx.com">
  <metadata>
    <name>Balade gym Marsannay du jeudi 08 Mars 2018</name>
    <desc><![CDATA[un petit tour dans les vignes entre Fixey et Gevrey]]></desc>
  </metadata>
  <trk>
    <name><![CDATA[Track]]></name>
    <trkseg>
      <trkpt lat="47.25018" lon="4.96923">
        <ele>300.97760009766</ele>
        <time>2018-03-08T09:02:30+0100</time>
      </trkpt>
      <trkpt lat="47.25013" lon="4.96926">
        <ele>294.74423217773</ele>
        <time>2018-03-08T09:02:33+0100</time>
      </trkpt>
      <trkpt lat="47.25013" lon="4.96926">
        <ele>293.10696411133</ele>
        <time>2018-03-08T09:02:36+0100</time>
      </trkpt>
      <trkpt lat="47.25002" lon="4.9693">
        <ele>299.51324462891</ele>
        <time>2018-03-08T09:02:39+0100</time>
      </trkpt>
      <trkpt lat="47.25002" lon="4.9693">
        <ele>303.47821044922</ele>
        <time>2018-03-08T09:02:42+0100</time>
      </trkpt>
      <trkpt lat="47.25002" lon="4.9693">
        <ele>308.26028442383</ele>
        <time>2018-03-08T09:02:45+0100</time>
      </trkpt>
      <trkpt lat="47.24999" lon="4.9692">
        <ele>310.55603027344</ele>
        <time>2018-03-08T09:02:48+0100</time>
      </trkpt>
      <trkpt lat="47.24999" lon="4.9692">
        <ele>313.19763183594</ele>
        <time>2018-03-08T09:02:51+0100</time>
      </trkpt>
      <trkpt lat="47.24999" lon="4.9692">
        <ele>315.59658813477</ele>
        <time>2018-03-08T09:02:54+0100</time>
      </trkpt>
      <trkpt lat="47.24999" lon="4.9692">
        <ele>318.275390625</ele>
        <time>2018-03-08T09:02:57+0100</time>
      </trkpt>
      <trkpt lat="47.24999" lon="4.9692">
        <ele>319.48080444336</ele>
        <time>2018-03-08T09:03:00+0100</time>
      </trkpt>
      <trkpt lat="47.24992" lon="4.96915">
        <ele>319.48947143555</ele>
        <time>2018-03-08T09:03:03+0100</time>
      </trkpt>
      <trkpt lat="47.24995" lon="4.96911">
        <ele>319.52478027344</ele>
        <time>2018-03-08T09:03:06+0100</time>
      </trkpt>
      <trkpt lat="47.24996" lon="4.96912">
        <ele>319.82095336914</ele>
        <time>2018-03-08T09:03:09+0100</time>
      </trkpt>
      <trkpt lat="47.24996" lon="4.96911">
        <ele>320.21350097656</ele>
        <time>2018-03-08T09:03:12+0100</time>
      </trkpt>
      <trkpt lat="47.24997" lon="4.9691">
        <ele>320.30624389648</ele>
        <time>2018-03-08T09:03:15+0100</time>
      </trkpt>
      <trkpt lat="47.24997" lon="4.96911">
        <ele>320.39572143555</ele>
        <time>2018-03-08T09:03:18+0100</time>
      </trkpt>
      <trkpt lat="47.24996" lon="4.96911">
        <ele>320.74728393555</ele>
        <time>2018-03-08T09:03:21+0100</time>
      </trkpt>
      <trkpt lat="47.24996" lon="4.96912">
        <ele>320.82571411133</ele>
        <time>2018-03-08T09:03:24+0100</time>
      </trkpt>
      <trkpt lat="47.24997" lon="4.96913">
        <ele>320.90710449219</ele>
        <time>2018-03-08T09:03:27+0100</time>
      </trkpt>
      <trkpt lat="47.24996" lon="4.96913">
        <ele>321.00030517578</ele>
        <time>2018-03-08T09:03:30+0100</time>
      </trkpt>
      <trkpt lat="47.24995" lon="4.96911">
        <ele>321.09423828125</ele>
        <time>2018-03-08T09:03:33+0100</time>
      </trkpt>
      <trkpt lat="47.24995" lon="4.96911">
        <ele>321.18389892578</ele>
        <time>2018-03-08T09:03:36+0100</time>
      </trkpt>
      <trkpt lat="47.24998" lon="4.96911">
        <ele>321.50952148438</ele>
        <time>2018-03-08T09:03:39+0100</time>
      </trkpt>
      <trkpt lat="47.24998" lon="4.96911">
        <ele>321.59133911133</ele>
        <time>2018-03-08T09:03:42+0100</time>
      </trkpt>
      <trkpt lat="47.24998" lon="4.96911">
        <ele>321.67568969727</ele>
        <time>2018-03-08T09:03:45+0100</time>
      </trkpt>
      <trkpt lat="47.24999" lon="4.96912">
        <ele>321.75970458984</ele>
        <time>2018-03-08T09:03:48+0100</time>
      </trkpt>
      <trkpt lat="47.24999" lon="4.96912">
        <ele>321.84454345703</ele>
        <time>2018-03-08T09:03:51+0100</time>
      </trkpt>
      <trkpt lat="47.24999" lon="4.96911">
        <ele>321.93591308594</ele>
        <time>2018-03-08T09:03:54+0100</time>
      </trkpt>
      <trkpt lat="47.24999" lon="4.9691">
        <ele>322.37338256836</ele>
        <time>2018-03-08T09:03:57+0100</time>
      </trkpt>
      <trkpt lat="47.24998" lon="4.96911">
        <ele>322.80786132812</ele>
        <time>2018-03-08T09:04:00+0100</time>
      </trkpt>
      <trkpt lat="47.24998" lon="4.96912">
        <ele>323.24227905273</ele>
        <time>2018-03-08T09:04:03+0100</time>
      </trkpt>
      <trkpt lat="47.24997" lon="4.96911">
        <ele>323.35327148438</ele>
        <time>2018-03-08T09:04:06+0100</time>
      </trkpt>
      <trkpt lat="47.24996" lon="4.96911">
        <ele>323.81234741211</ele>
        <time>2018-03-08T09:04:09+0100</time>
      </trkpt>
      <trkpt lat="47.24995" lon="4.9691">
        <ele>323.92483520508</ele>
        <time>2018-03-08T09:04:12+0100</time>
      </trkpt>
      <trkpt lat="47.24995" lon="4.9691">
        <ele>324.03332519531</ele>
        <time>2018-03-08T09:04:15+0100</time>
      </trkpt>
      <trkpt lat="47.24995" lon="4.9691">
        <ele>324.76583862305</ele>
        <time>2018-03-08T09:04:18+0100</time>
      </trkpt>
      <trkpt lat="47.24995" lon="4.96911">
        <ele>325.15759277344</ele>
        <time>2018-03-08T09:04:21+0100</time>
      </trkpt>
      <trkpt lat="47.24994" lon="4.96911">
        <ele>325.25061035156</ele>
        <time>2018-03-08T09:04:24+0100</time>
      </trkpt>
      <trkpt lat="47.24995" lon="4.9691">
        <ele>325.63464355469</ele>
        <time>2018-03-08T09:04:27+0100</time>
      </trkpt>
      <trkpt lat="47.24996" lon="4.9691">
        <ele>325.73251342773</ele>
        <time>2018-03-08T09:04:30+0100</time>
      </trkpt>
      <trkpt lat="47.24995" lon="4.96909">
        <ele>325.81634521484</ele>
        <time>2018-03-08T09:04:33+0100</time>
      </trkpt>
      <trkpt lat="47.24995" lon="4.96908">
        <ele>325.88171386719</ele>
        <time>2018-03-08T09:04:36+0100</time>
      </trkpt>
      <trkpt lat="47.24996" lon="4.96909">
        <ele>325.94393920898</ele>
        <time>2018-03-08T09:04:39+0100</time>
      </trkpt>
      <trkpt lat="47.24995" lon="4.9691">
        <ele>326.00393676758</ele>
        <time>2018-03-08T09:04:42+0100</time>
      </trkpt>
      <trkpt lat="47.24994" lon="4.9691">
        <ele>326.05319213867</ele>
        <time>2018-03-08T09:04:45+0100</time>
      </trkpt>
      <trkpt lat="47.24994" lon="4.96912">
        <ele>326.23742675781</ele>
        <time>2018-03-08T09:04:48+0100</time>
      </trkpt>
      <trkpt lat="47.24994" lon="4.96912">
        <ele>326.28002929688</ele>
        <time>2018-03-08T09:04:51+0100</time>
      </trkpt>
      <trkpt lat="47.24994" lon="4.96913">
        <ele>326.31964111328</ele>
        <time>2018-03-08T09:04:54+0100</time>
      </trkpt>
      <trkpt lat="47.24994" lon="4.96912">
        <ele>326.35861206055</ele>
        <time>2018-03-08T09:04:57+0100</time>
      </trkpt>
      <trkpt lat="47.24994" lon="4.96912">
        <ele>326.40078735352</ele>
        <time>2018-03-08T09:05:00+0100</time>
      </trkpt>
      <trkpt lat="47.24994" lon="4.96911">
        <ele>326.44738769531</ele>
        <time>2018-03-08T09:05:03+0100</time>
      </trkpt>
      <trkpt lat="47.24994" lon="4.96909">
        <ele>326.49914550781</ele>
        <time>2018-03-08T09:05:06+0100</time>
      </trkpt>
      <trkpt lat="47.24994" lon="4.9691">
        <ele>326.55014038086</ele>
        <time>2018-03-08T09:05:09+0100</time>
      </trkpt>
      <trkpt lat="47.24994" lon="4.96909">
        <ele>326.60217285156</ele>
        <time>2018-03-08T09:05:12+0100</time>
      </trkpt>
      <trkpt lat="47.24993" lon="4.96908">
        <ele>326.65649414062</ele>
        <time>2018-03-08T09:05:15+0100</time>
      </trkpt>
      <trkpt lat="47.24993" lon="4.96908">
        <ele>326.71337890625</ele>
        <time>2018-03-08T09:05:18+0100</time>
      </trkpt>
      <trkpt lat="47.24993" lon="4.96908">
        <ele>326.77261352539</ele>
        <time>2018-03-08T09:05:21+0100</time>
      </trkpt>
      <trkpt lat="47.24993" lon="4.96908">
        <ele>326.83193969727</ele>
        <time>2018-03-08T09:05:24+0100</time>
      </trkpt>
      <trkpt lat="47.24994" lon="4.96908">
        <ele>326.88400268555</ele>
        <time>2018-03-08T09:05:27+0100</time>
      </trkpt>
      <trkpt lat="47.24995" lon="4.96909">
        <ele>326.92687988281</ele>
        <time>2018-03-08T09:05:30+0100</time>
      </trkpt>
      <trkpt lat="47.24995" lon="4.96909">
        <ele>326.95950317383</ele>
        <time>2018-03-08T09:05:33+0100</time>
      </trkpt>
      <trkpt lat="47.24994" lon="4.9691">
        <ele>326.99362182617</ele>
        <time>2018-03-08T09:05:36+0100</time>
      </trkpt>
      <trkpt lat="47.24993" lon="4.9691">
        <ele>327.03717041016</ele>
        <time>2018-03-08T09:05:40+0100</time>
      </trkpt>
      <trkpt lat="47.24993" lon="4.9691">
        <ele>327.22842407227</ele>
        <time>2018-03-08T09:05:43+0100</time>
      </trkpt>
      <trkpt lat="47.24993" lon="4.9691">
        <ele>327.28009033203</ele>
        <time>2018-03-08T09:05:46+0100</time>
      </trkpt>
      <trkpt lat="47.24992" lon="4.9691">
        <ele>327.33529663086</ele>
        <time>2018-03-08T09:05:49+0100</time>
      </trkpt>
      <trkpt lat="47.24992" lon="4.9691">
        <ele>327.39453125</ele>
        <time>2018-03-08T09:05:52+0100</time>
      </trkpt>
      <trkpt lat="47.24992" lon="4.9691">
        <ele>327.45474243164</ele>
        <time>2018-03-08T09:05:55+0100</time>
      </trkpt>
      <trkpt lat="47.24992" lon="4.9691">
        <ele>327.68740844727</ele>
        <time>2018-03-08T09:05:58+0100</time>
      </trkpt>
      <trkpt lat="47.24993" lon="4.9691">
        <ele>327.73806762695</ele>
        <time>2018-03-08T09:06:01+0100</time>
      </trkpt>
      <trkpt lat="47.24993" lon="4.9691">
        <ele>328.06433105469</ele>
        <time>2018-03-08T09:06:04+0100</time>
      </trkpt>
      <trkpt lat="47.24993" lon="4.9691">
        <ele>328.11047363281</ele>
        <time>2018-03-08T09:06:07+0100</time>
      </trkpt>
      <trkpt lat="47.24993" lon="4.9691">
        <ele>328.15618896484</ele>
        <time>2018-03-08T09:06:10+0100</time>
      </trkpt>
      <trkpt lat="47.24993" lon="4.9691">
        <ele>328.19934082031</ele>
        <time>2018-03-08T09:06:13+0100</time>
      </trkpt>
      <trkpt lat="47.24993" lon="4.96909">
        <ele>328.24020385742</ele>
        <time>2018-03-08T09:06:16+0100</time>
      </trkpt>
      <trkpt lat="47.24994" lon="4.96909">
        <ele>328.27819824219</ele>
        <time>2018-03-08T09:06:19+0100</time>
      </trkpt>
      <trkpt lat="47.24995" lon="4.9691">
        <ele>328.6428527832</ele>
        <time>2018-03-08T09:06:22+0100</time>
      </trkpt>
      <trkpt lat="47.24996" lon="4.96911">
        <ele>328.68936157227</ele>
        <time>2018-03-08T09:06:25+0100</time>
      </trkpt>
      <trkpt lat="47.24995" lon="4.96911">
        <ele>328.87887573242</ele>
        <time>2018-03-08T09:06:28+0100</time>
      </trkpt>
      <trkpt lat="47.24995" lon="4.96911">
        <ele>329.05661010742</ele>
        <time>2018-03-08T09:06:31+0100</time>
      </trkpt>
      <trkpt lat="47.24995" lon="4.96911">
        <ele>329.24224853516</ele>
        <time>2018-03-08T09:06:34+0100</time>
      </trkpt>
      <trkpt lat="47.24995" lon="4.96911">
        <ele>329.29312133789</ele>
        <time>2018-03-08T09:06:37+0100</time>
      </trkpt>
      <trkpt lat="47.24995" lon="4.96911">
        <ele>329.49862670898</ele>
        <time>2018-03-08T09:06:40+0100</time>
      </trkpt>
      <trkpt lat="47.24994" lon="4.96911">
        <ele>329.82690429688</ele>
        <time>2018-03-08T09:06:43+0100</time>
      </trkpt>
      <trkpt lat="47.24994" lon="4.96911">
        <ele>330.130859375</ele>
        <time>2018-03-08T09:06:46+0100</time>
      </trkpt>
      <trkpt lat="47.24992" lon="4.96909">
        <ele>330.38262939453</ele>
        <time>2018-03-08T09:06:49+0100</time>
      </trkpt>
      <trkpt lat="47.24992" lon="4.96909">
        <ele>330.54693603516</ele>
        <time>2018-03-08T09:06:52+0100</time>
      </trkpt>
      <trkpt lat="47.24994" lon="4.9691">
        <ele>330.70288085938</ele>
        <time>2018-03-08T09:06:55+0100</time>
      </trkpt>
      <trkpt lat="47.24995" lon="4.96911">
        <ele>330.76388549805</ele>
        <time>2018-03-08T09:06:58+0100</time>
      </trkpt>
      <trkpt lat="47.24996" lon="4.96912">
        <ele>330.83056640625</ele>
        <time>2018-03-08T09:07:01+0100</time>
      </trkpt>
      <trkpt lat="47.24996" lon="4.96912">
        <ele>330.79916381836</ele>
        <time>2018-03-08T09:07:04+0100</time>
      </trkpt>
      <trkpt lat="47.24996" lon="4.96912">
        <ele>330.7548828125</ele>
        <time>2018-03-08T09:07:07+0100</time>
      </trkpt>
      <trkpt lat="47.24996" lon="4.96912">
        <ele>330.56420898438</ele>
        <time>2018-03-08T09:07:10+0100</time>
      </trkpt>
      <trkpt lat="47.24996" lon="4.96914">
        <ele>330.2292175293</ele>
        <time>2018-03-08T09:07:13+0100</time>
      </trkpt>
      <trkpt lat="47.24996" lon="4.96917">
        <ele>329.81723022461</ele>
        <time>2018-03-08T09:07:16+0100</time>
      </trkpt>
      <trkpt lat="47.24997" lon="4.96921">
        <ele>329.40682983398</ele>
        <time>2018-03-08T09:07:19+0100</time>
      </trkpt>
      <trkpt lat="47.24998" lon="4.96925">
        <ele>329.10159301758</ele>
        <time>2018-03-08T09:07:22+0100</time>
      </trkpt>
      <trkpt lat="47.24998" lon="4.96932">
        <ele>328.95336914062</ele>
        <time>2018-03-08T09:07:25+0100</time>
      </trkpt>
      <trkpt lat="47.24998" lon="4.96935">
        <ele>328.94912719727</ele>
        <time>2018-03-08T09:07:28+0100</time>
      </trkpt>
      <trkpt lat="47.24998" lon="4.96936">
        <ele>328.98208618164</ele>
        <time>2018-03-08T09:07:31+0100</time>
      </trkpt>
      <trkpt lat="47.24998" lon="4.96939">
        <ele>329.12948608398</ele>
        <time>2018-03-08T09:07:34+0100</time>
      </trkpt>
      <trkpt lat="47.24999" lon="4.96943">
        <ele>329.31964111328</ele>
        <time>2018-03-08T09:07:37+0100</time>
      </trkpt>
      <trkpt lat="47.25" lon="4.96947">
        <ele>329.44836425781</ele>
        <time>2018-03-08T09:07:40+0100</time>
      </trkpt>
      <trkpt lat="47.25001" lon="4.96952">
        <ele>329.44180297852</ele>
        <time>2018-03-08T09:07:43+0100</time>
      </trkpt>
      <trkpt lat="47.25001" lon="4.96955">
        <ele>329.36828613281</ele>
        <time>2018-03-08T09:07:46+0100</time>
      </trkpt>
      <trkpt lat="47.25002" lon="4.96959">
        <ele>329.19909667969</ele>
        <time>2018-03-08T09:07:49+0100</time>
      </trkpt>
      <trkpt lat="47.25002" lon="4.96963">
        <ele>329.01684570312</ele>
        <time>2018-03-08T09:07:52+0100</time>
      </trkpt>
      <trkpt lat="47.25003" lon="4.9697">
        <ele>328.75387573242</ele>
        <time>2018-03-08T09:07:55+0100</time>
      </trkpt>
      <trkpt lat="47.25004" lon="4.96973">
        <ele>328.39147949219</ele>
        <time>2018-03-08T09:07:58+0100</time>
      </trkpt>
      <trkpt lat="47.25004" lon="4.96979">
        <ele>328.01898193359</ele>
        <time>2018-03-08T09:08:01+0100</time>
      </trkpt>
      <trkpt lat="47.25006" lon="4.96985">
        <ele>327.76278686523</ele>
        <time>2018-03-08T09:08:04+0100</time>
      </trkpt>
      <trkpt lat="47.25005" lon="4.9699">
        <ele>327.51449584961</ele>
        <time>2018-03-08T09:08:07+0100</time>
      </trkpt>
      <trkpt lat="47.25006" lon="4.96994">
        <ele>327.25704956055</ele>
        <time>2018-03-08T09:08:10+0100</time>
      </trkpt>
      <trkpt lat="47.25006" lon="4.97003">
        <ele>327.10739135742</ele>
        <time>2018-03-08T09:08:13+0100</time>
      </trkpt>
      <trkpt lat="47.25006" lon="4.97009">
        <ele>326.97058105469</ele>
        <time>2018-03-08T09:08:16+0100</time>
      </trkpt>
      <trkpt lat="47.25006" lon="4.97011">
        <ele>326.80047607422</ele>
        <time>2018-03-08T09:08:19+0100</time>
      </trkpt>
      <trkpt lat="47.25007" lon="4.97016">
        <ele>326.56573486328</ele>
        <time>2018-03-08T09:08:22+0100</time>
      </trkpt>
      <trkpt lat="47.25008" lon="4.97021">
        <ele>326.31231689453</ele>
        <time>2018-03-08T09:08:25+0100</time>
      </trkpt>
      <trkpt lat="47.25007" lon="4.97026">
        <ele>326.01916503906</ele>
        <time>2018-03-08T09:08:28+0100</time>
      </trkpt>
      <trkpt lat="47.25005" lon="4.97031">
        <ele>325.7998046875</ele>
        <time>2018-03-08T09:08:31+0100</time>
      </trkpt>
      <trkpt lat="47.25001" lon="4.97034">
        <ele>325.54760742188</ele>
        <time>2018-03-08T09:08:34+0100</time>
      </trkpt>
      <trkpt lat="47.24999" lon="4.97035">
        <ele>325.19039916992</ele>
        <time>2018-03-08T09:08:37+0100</time>
      </trkpt>
      <trkpt lat="47.24999" lon="4.97033">
        <ele>324.77612304688</ele>
        <time>2018-03-08T09:08:40+0100</time>
      </trkpt>
      <trkpt lat="47.24998" lon="4.97033">
        <ele>324.23025512695</ele>
        <time>2018-03-08T09:08:43+0100</time>
      </trkpt>
      <trkpt lat="47.24994" lon="4.97033">
        <ele>323.90844726562</ele>
        <time>2018-03-08T09:08:46+0100</time>
      </trkpt>
      <trkpt lat="47.24993" lon="4.97033">
        <ele>323.95602416992</ele>
        <time>2018-03-08T09:08:49+0100</time>
      </trkpt>
      <trkpt lat="47.24987" lon="4.97033">
        <ele>324.18020629883</ele>
        <time>2018-03-08T09:08:52+0100</time>
      </trkpt>
      <trkpt lat="47.24983" lon="4.97032">
        <ele>324.47787475586</ele>
        <time>2018-03-08T09:08:55+0100</time>
      </trkpt>
      <trkpt lat="47.24981" lon="4.97033">
        <ele>324.85375976562</ele>
        <time>2018-03-08T09:08:58+0100</time>
      </trkpt>
      <trkpt lat="47.24976" lon="4.97032">
        <ele>325.15905761719</ele>
        <time>2018-03-08T09:09:01+0100</time>
      </trkpt>
      <trkpt lat="47.24969" lon="4.97031">
        <ele>325.30236816406</ele>
        <time>2018-03-08T09:09:04+0100</time>
      </trkpt>
      <trkpt lat="47.24967" lon="4.9703">
        <ele>325.34326171875</ele>
        <time>2018-03-08T09:09:07+0100</time>
      </trkpt>
      <trkpt lat="47.24965" lon="4.9703">
        <ele>325.41943359375</ele>
        <time>2018-03-08T09:09:10+0100</time>
      </trkpt>
      <trkpt lat="47.24961" lon="4.9703">
        <ele>325.52072143555</ele>
        <time>2018-03-08T09:09:13+0100</time>
      </trkpt>
      <trkpt lat="47.24957" lon="4.97029">
        <ele>325.56600952148</ele>
        <time>2018-03-08T09:09:16+0100</time>
      </trkpt>
      <trkpt lat="47.24953" lon="4.97027">
        <ele>325.52716064453</ele>
        <time>2018-03-08T09:09:19+0100</time>
      </trkpt>
      <trkpt lat="47.24949" lon="4.97026">
        <ele>325.42874145508</ele>
        <time>2018-03-08T09:09:22+0100</time>
      </trkpt>
      <trkpt lat="47.24945" lon="4.97025">
        <ele>325.23104858398</ele>
        <time>2018-03-08T09:09:25+0100</time>
      </trkpt>
      <trkpt lat="47.24942" lon="4.97023">
        <ele>325.00445556641</ele>
        <time>2018-03-08T09:09:28+0100</time>
      </trkpt>
      <trkpt lat="47.24939" lon="4.97023">
        <ele>324.78393554688</ele>
        <time>2018-03-08T09:09:31+0100</time>
      </trkpt>
      <trkpt lat="47.24938" lon="4.97022">
        <ele>324.61334228516</ele>
        <time>2018-03-08T09:09:34+0100</time>
      </trkpt>
      <trkpt lat="47.24934" lon="4.97021">
        <ele>324.46655273438</ele>
        <time>2018-03-08T09:09:37+0100</time>
      </trkpt>
      <trkpt lat="47.24932" lon="4.97019">
        <ele>324.32696533203</ele>
        <time>2018-03-08T09:09:40+0100</time>
      </trkpt>
      <trkpt lat="47.24928" lon="4.97018">
        <ele>324.20993041992</ele>
        <time>2018-03-08T09:09:43+0100</time>
      </trkpt>
      <trkpt lat="47.24925" lon="4.97016">
        <ele>324.03860473633</ele>
        <time>2018-03-08T09:09:46+0100</time>
      </trkpt>
      <trkpt lat="47.24922" lon="4.97015">
        <ele>323.87603759766</ele>
        <time>2018-03-08T09:09:49+0100</time>
      </trkpt>
      <trkpt lat="47.24917" lon="4.97013">
        <ele>323.71630859375</ele>
        <time>2018-03-08T09:09:52+0100</time>
      </trkpt>
      <trkpt lat="47.24913" lon="4.97012">
        <ele>323.54223632812</ele>
        <time>2018-03-08T09:09:55+0100</time>
      </trkpt>
      <trkpt lat="47.24909" lon="4.97011">
        <ele>323.29641723633</ele>
        <time>2018-03-08T09:09:58+0100</time>
      </trkpt>
      <trkpt lat="47.24906" lon="4.97009">
        <ele>323.00006103516</ele>
        <time>2018-03-08T09:10:01+0100</time>
      </trkpt>
      <trkpt lat="47.24902" lon="4.97008">
        <ele>322.63641357422</ele>
        <time>2018-03-08T09:10:04+0100</time>
      </trkpt>
      <trkpt lat="47.24899" lon="4.97006">
        <ele>322.25421142578</ele>
        <time>2018-03-08T09:10:07+0100</time>
      </trkpt>
      <trkpt lat="47.24897" lon="4.97005">
        <ele>321.89736938477</ele>
        <time>2018-03-08T09:10:10+0100</time>
      </trkpt>
      <trkpt lat="47.24893" lon="4.97003">
        <ele>321.56637573242</ele>
        <time>2018-03-08T09:10:13+0100</time>
      </trkpt>
      <trkpt lat="47.24889" lon="4.97002">
        <ele>321.21417236328</ele>
        <time>2018-03-08T09:10:16+0100</time>
      </trkpt>
      <trkpt lat="47.24886" lon="4.97">
        <ele>320.8522644043</ele>
        <time>2018-03-08T09:10:19+0100</time>
      </trkpt>
      <trkpt lat="47.24882" lon="4.96998">
        <ele>320.46548461914</ele>
        <time>2018-03-08T09:10:22+0100</time>
      </trkpt>
      <trkpt lat="47.24879" lon="4.96997">
        <ele>320.07788085938</ele>
        <time>2018-03-08T09:10:25+0100</time>
      </trkpt>
      <trkpt lat="47.24876" lon="4.96995">
        <ele>319.66265869141</ele>
        <time>2018-03-08T09:10:28+0100</time>
      </trkpt>
      <trkpt lat="47.24874" lon="4.96994">
        <ele>319.28784179688</ele>
        <time>2018-03-08T09:10:31+0100</time>
      </trkpt>
      <trkpt lat="47.24871" lon="4.96993">
        <ele>318.98870849609</ele>
        <time>2018-03-08T09:10:34+0100</time>
      </trkpt>
      <trkpt lat="47.24869" lon="4.96991">
        <ele>318.73080444336</ele>
        <time>2018-03-08T09:10:37+0100</time>
      </trkpt>
      <trkpt lat="47.24865" lon="4.96989">
        <ele>318.50973510742</ele>
        <time>2018-03-08T09:10:40+0100</time>
      </trkpt>
      <trkpt lat="47.24862" lon="4.96987">
        <ele>318.22381591797</ele>
        <time>2018-03-08T09:10:43+0100</time>
      </trkpt>
      <trkpt lat="47.24856" lon="4.96984">
        <ele>318.07458496094</ele>
        <time>2018-03-08T09:10:46+0100</time>
      </trkpt>
      <trkpt lat="47.24855" lon="4.96983">
        <ele>317.92315673828</ele>
        <time>2018-03-08T09:10:49+0100</time>
      </trkpt>
      <trkpt lat="47.24853" lon="4.96981">
        <ele>317.68676757812</ele>
        <time>2018-03-08T09:10:52+0100</time>
      </trkpt>
      <trkpt lat="47.2485" lon="4.96978">
        <ele>317.43908691406</ele>
        <time>2018-03-08T09:10:55+0100</time>
      </trkpt>
      <trkpt lat="47.24848" lon="4.96977">
        <ele>317.12567138672</ele>
        <time>2018-03-08T09:10:58+0100</time>
      </trkpt>
      <trkpt lat="47.24845" lon="4.96975">
        <ele>316.82513427734</ele>
        <time>2018-03-08T09:11:01+0100</time>
      </trkpt>
      <trkpt lat="47.24842" lon="4.96972">
        <ele>316.56076049805</ele>
        <time>2018-03-08T09:11:04+0100</time>
      </trkpt>
      <trkpt lat="47.24838" lon="4.9697">
        <ele>316.32626342773</ele>
        <time>2018-03-08T09:11:07+0100</time>
      </trkpt>
      <trkpt lat="47.24836" lon="4.96969">
        <ele>316.11486816406</ele>
        <time>2018-03-08T09:11:10+0100</time>
      </trkpt>
      <trkpt lat="47.24833" lon="4.96967">
        <ele>315.93481445312</ele>
        <time>2018-03-08T09:11:13+0100</time>
      </trkpt>
      <trkpt lat="47.2483" lon="4.96965">
        <ele>315.76348876953</ele>
        <time>2018-03-08T09:11:16+0100</time>
      </trkpt>
      <trkpt lat="47.24825" lon="4.96963">
        <ele>315.57421875</ele>
        <time>2018-03-08T09:11:19+0100</time>
      </trkpt>
      <trkpt lat="47.24821" lon="4.96961">
        <ele>315.40634155273</ele>
        <time>2018-03-08T09:11:22+0100</time>
      </trkpt>
      <trkpt lat="47.24818" lon="4.96959">
        <ele>315.22399902344</ele>
        <time>2018-03-08T09:11:25+0100</time>
      </trkpt>
      <trkpt lat="47.24817" lon="4.96959">
        <ele>315.08166503906</ele>
        <time>2018-03-08T09:11:28+0100</time>
      </trkpt>
      <trkpt lat="47.24814" lon="4.96957">
        <ele>315.02380371094</ele>
        <time>2018-03-08T09:11:31+0100</time>
      </trkpt>
      <trkpt lat="47.24809" lon="4.96955">
        <ele>315.00259399414</ele>
        <time>2018-03-08T09:11:34+0100</time>
      </trkpt>
      <trkpt lat="47.24803" lon="4.96953">
        <ele>314.83682250977</ele>
        <time>2018-03-08T09:11:37+0100</time>
      </trkpt>
      <trkpt lat="47.248" lon="4.96951">
        <ele>314.59338378906</ele>
        <time>2018-03-08T09:11:40+0100</time>
      </trkpt>
      <trkpt lat="47.24797" lon="4.96949">
        <ele>314.33551025391</ele>
        <time>2018-03-08T09:11:43+0100</time>
      </trkpt>
      <trkpt lat="47.24793" lon="4.96948">
        <ele>314.09240722656</ele>
        <time>2018-03-08T09:11:46+0100</time>
      </trkpt>
      <trkpt lat="47.24791" lon="4.96946">
        <ele>313.87185668945</ele>
        <time>2018-03-08T09:11:49+0100</time>
      </trkpt>
      <trkpt lat="47.24788" lon="4.96945">
        <ele>313.67611694336</ele>
        <time>2018-03-08T09:11:52+0100</time>
      </trkpt>
      <trkpt lat="47.24785" lon="4.96943">
        <ele>313.46728515625</ele>
        <time>2018-03-08T09:11:55+0100</time>
      </trkpt>
      <trkpt lat="47.24781" lon="4.96942">
        <ele>313.24655151367</ele>
        <time>2018-03-08T09:11:58+0100</time>
      </trkpt>
      <trkpt lat="47.24777" lon="4.9694">
        <ele>313.01614379883</ele>
        <time>2018-03-08T09:12:01+0100</time>
      </trkpt>
      <trkpt lat="47.24775" lon="4.96939">
        <ele>312.83560180664</ele>
        <time>2018-03-08T09:12:04+0100</time>
      </trkpt>
      <trkpt lat="47.24771" lon="4.96937">
        <ele>312.7239074707</ele>
        <time>2018-03-08T09:12:07+0100</time>
      </trkpt>
      <trkpt lat="47.24769" lon="4.96935">
        <ele>312.65982055664</ele>
        <time>2018-03-08T09:12:10+0100</time>
      </trkpt>
      <trkpt lat="47.24766" lon="4.96934">
        <ele>312.60678100586</ele>
        <time>2018-03-08T09:12:13+0100</time>
      </trkpt>
      <trkpt lat="47.24762" lon="4.96933">
        <ele>312.58032226562</ele>
        <time>2018-03-08T09:12:16+0100</time>
      </trkpt>
      <trkpt lat="47.24759" lon="4.96931">
        <ele>312.5461730957</ele>
        <time>2018-03-08T09:12:19+0100</time>
      </trkpt>
      <trkpt lat="47.24755" lon="4.96929">
        <ele>312.45422363281</ele>
        <time>2018-03-08T09:12:22+0100</time>
      </trkpt>
      <trkpt lat="47.24751" lon="4.96927">
        <ele>312.26525878906</ele>
        <time>2018-03-08T09:12:25+0100</time>
      </trkpt>
      <trkpt lat="47.24748" lon="4.96925">
        <ele>312.06314086914</ele>
        <time>2018-03-08T09:12:28+0100</time>
      </trkpt>
      <trkpt lat="47.24744" lon="4.96922">
        <ele>311.91247558594</ele>
        <time>2018-03-08T09:12:31+0100</time>
      </trkpt>
      <trkpt lat="47.24741" lon="4.9692">
        <ele>311.78598022461</ele>
        <time>2018-03-08T09:12:34+0100</time>
      </trkpt>
      <trkpt lat="47.24738" lon="4.96918">
        <ele>311.6457824707</ele>
        <time>2018-03-08T09:12:37+0100</time>
      </trkpt>
      <trkpt lat="47.24735" lon="4.96916">
        <ele>311.47299194336</ele>
        <time>2018-03-08T09:12:40+0100</time>
      </trkpt>
      <trkpt lat="47.24732" lon="4.96914">
        <ele>311.32998657227</ele>
        <time>2018-03-08T09:12:43+0100</time>
      </trkpt>
      <trkpt lat="47.2473" lon="4.96912">
        <ele>311.38458251953</ele>
        <time>2018-03-08T09:12:46+0100</time>
      </trkpt>
      <trkpt lat="47.24727" lon="4.96909">
        <ele>311.5325012207</ele>
        <time>2018-03-08T09:12:49+0100</time>
      </trkpt>
      <trkpt lat="47.24723" lon="4.96906">
        <ele>311.69686889648</ele>
        <time>2018-03-08T09:12:52+0100</time>
      </trkpt>
      <trkpt lat="47.24719" lon="4.96903">
        <ele>311.82769775391</ele>
        <time>2018-03-08T09:12:55+0100</time>
      </trkpt>
      <trkpt lat="47.24716" lon="4.969">
        <ele>311.94052124023</ele>
        <time>2018-03-08T09:12:58+0100</time>
      </trkpt>
      <trkpt lat="47.24712" lon="4.96897">
        <ele>312.03039550781</ele>
        <time>2018-03-08T09:13:01+0100</time>
      </trkpt>
      <trkpt lat="47.24711" lon="4.96894">
        <ele>312.13262939453</ele>
        <time>2018-03-08T09:13:04+0100</time>
      </trkpt>
      <trkpt lat="47.24708" lon="4.96891">
        <ele>312.21334838867</ele>
        <time>2018-03-08T09:13:07+0100</time>
      </trkpt>
      <trkpt lat="47.24706" lon="4.96889">
        <ele>312.29940795898</ele>
        <time>2018-03-08T09:13:10+0100</time>
      </trkpt>
      <trkpt lat="47.24703" lon="4.96885">
        <ele>312.43997192383</ele>
        <time>2018-03-08T09:13:13+0100</time>
      </trkpt>
      <trkpt lat="47.24699" lon="4.96882">
        <ele>312.4723815918</ele>
        <time>2018-03-08T09:13:16+0100</time>
      </trkpt>
      <trkpt lat="47.24697" lon="4.96879">
        <ele>312.47033691406</ele>
        <time>2018-03-08T09:13:19+0100</time>
      </trkpt>
      <trkpt lat="47.24695" lon="4.96877">
        <ele>312.50411987305</ele>
        <time>2018-03-08T09:13:22+0100</time>
      </trkpt>
      <trkpt lat="47.2469" lon="4.96874">
        <ele>312.50399780273</ele>
        <time>2018-03-08T09:13:25+0100</time>
      </trkpt>
      <trkpt lat="47.24686" lon="4.96873">
        <ele>312.45123291016</ele>
        <time>2018-03-08T09:13:28+0100</time>
      </trkpt>
      <trkpt lat="47.24682" lon="4.96871">
        <ele>312.45513916016</ele>
        <time>2018-03-08T09:13:31+0100</time>
      </trkpt>
      <trkpt lat="47.24679" lon="4.9687">
        <ele>312.52145385742</ele>
        <time>2018-03-08T09:13:34+0100</time>
      </trkpt>
      <trkpt lat="47.24677" lon="4.96869">
        <ele>312.62713623047</ele>
        <time>2018-03-08T09:13:37+0100</time>
      </trkpt>
      <trkpt lat="47.24675" lon="4.96869">
        <ele>312.73239135742</ele>
        <time>2018-03-08T09:13:40+0100</time>
      </trkpt>
      <trkpt lat="47.24672" lon="4.96868">
        <ele>312.78204345703</ele>
        <time>2018-03-08T09:13:43+0100</time>
      </trkpt>
      <trkpt lat="47.24669" lon="4.96868">
        <ele>312.77185058594</ele>
        <time>2018-03-08T09:13:46+0100</time>
      </trkpt>
      <trkpt lat="47.24667" lon="4.96868">
        <ele>312.72421264648</ele>
        <time>2018-03-08T09:13:49+0100</time>
      </trkpt>
      <trkpt lat="47.24663" lon="4.96868">
        <ele>312.66287231445</ele>
        <time>2018-03-08T09:13:52+0100</time>
      </trkpt>
      <trkpt lat="47.24658" lon="4.96869">
        <ele>312.70855712891</ele>
        <time>2018-03-08T09:13:55+0100</time>
      </trkpt>
      <trkpt lat="47.24655" lon="4.9687">
        <ele>312.70669555664</ele>
        <time>2018-03-08T09:13:58+0100</time>
      </trkpt>
      <trkpt lat="47.24653" lon="4.9687">
        <ele>312.73596191406</ele>
        <time>2018-03-08T09:14:01+0100</time>
      </trkpt>
      <trkpt lat="47.2465" lon="4.96872">
        <ele>312.84213256836</ele>
        <time>2018-03-08T09:14:04+0100</time>
      </trkpt>
      <trkpt lat="47.24646" lon="4.96874">
        <ele>312.99661254883</ele>
        <time>2018-03-08T09:14:07+0100</time>
      </trkpt>
      <trkpt lat="47.24642" lon="4.96875">
        <ele>313.19836425781</ele>
        <time>2018-03-08T09:14:10+0100</time>
      </trkpt>
      <trkpt lat="47.24639" lon="4.96877">
        <ele>313.40386962891</ele>
        <time>2018-03-08T09:14:13+0100</time>
      </trkpt>
      <trkpt lat="47.24636" lon="4.96879">
        <ele>313.62384033203</ele>
        <time>2018-03-08T09:14:16+0100</time>
      </trkpt>
      <trkpt lat="47.24633" lon="4.96881">
        <ele>313.82562255859</ele>
        <time>2018-03-08T09:14:19+0100</time>
      </trkpt>
      <trkpt lat="47.24632" lon="4.96883">
        <ele>314.0168762207</ele>
        <time>2018-03-08T09:14:22+0100</time>
      </trkpt>
      <trkpt lat="47.2463" lon="4.96884">
        <ele>314.20471191406</ele>
        <time>2018-03-08T09:14:25+0100</time>
      </trkpt>
      <trkpt lat="47.24628" lon="4.96886">
        <ele>314.39215087891</ele>
        <time>2018-03-08T09:14:28+0100</time>
      </trkpt>
      <trkpt lat="47.24626" lon="4.96888">
        <ele>314.52581787109</ele>
        <time>2018-03-08T09:14:31+0100</time>
      </trkpt>
      <trkpt lat="47.24623" lon="4.96888">
        <ele>314.61331176758</ele>
        <time>2018-03-08T09:14:34+0100</time>
      </trkpt>
      <trkpt lat="47.24621" lon="4.96887">
        <ele>314.72595214844</ele>
        <time>2018-03-08T09:14:37+0100</time>
      </trkpt>
      <trkpt lat="47.2462" lon="4.96884">
        <ele>314.85852050781</ele>
        <time>2018-03-08T09:14:40+0100</time>
      </trkpt>
      <trkpt lat="47.2462" lon="4.96879">
        <ele>314.98715209961</ele>
        <time>2018-03-08T09:14:43+0100</time>
      </trkpt>
      <trkpt lat="47.24619" lon="4.96876">
        <ele>315.10919189453</ele>
        <time>2018-03-08T09:14:46+0100</time>
      </trkpt>
      <trkpt lat="47.24619" lon="4.96875">
        <ele>315.20266723633</ele>
        <time>2018-03-08T09:14:49+0100</time>
      </trkpt>
      <trkpt lat="47.24619" lon="4.96871">
        <ele>315.29568481445</ele>
        <time>2018-03-08T09:14:52+0100</time>
      </trkpt>
      <trkpt lat="47.24619" lon="4.96869">
        <ele>315.47714233398</ele>
        <time>2018-03-08T09:14:55+0100</time>
      </trkpt>
      <trkpt lat="47.24619" lon="4.96861">
        <ele>315.71127319336</ele>
        <time>2018-03-08T09:14:58+0100</time>
      </trkpt>
      <trkpt lat="47.2462" lon="4.96855">
        <ele>315.96835327148</ele>
        <time>2018-03-08T09:15:01+0100</time>
      </trkpt>
      <trkpt lat="47.24621" lon="4.96849">
        <ele>316.24765014648</ele>
        <time>2018-03-08T09:15:04+0100</time>
      </trkpt>
      <trkpt lat="47.24621" lon="4.96844">
        <ele>316.53561401367</ele>
        <time>2018-03-08T09:15:07+0100</time>
      </trkpt>
      <trkpt lat="47.24621" lon="4.96839">
        <ele>316.83392333984</ele>
        <time>2018-03-08T09:15:10+0100</time>
      </trkpt>
      <trkpt lat="47.24621" lon="4.96834">
        <ele>317.11813354492</ele>
        <time>2018-03-08T09:15:13+0100</time>
      </trkpt>
      <trkpt lat="47.24622" lon="4.96829">
        <ele>317.40234375</ele>
        <time>2018-03-08T09:15:16+0100</time>
      </trkpt>
      <trkpt lat="47.24622" lon="4.96823">
        <ele>317.6071472168</ele>
        <time>2018-03-08T09:15:19+0100</time>
      </trkpt>
      <trkpt lat="47.24622" lon="4.96822">
        <ele>317.89315795898</ele>
        <time>2018-03-08T09:15:22+0100</time>
      </trkpt>
      <trkpt lat="47.24622" lon="4.96817">
        <ele>318.16354370117</ele>
        <time>2018-03-08T09:15:25+0100</time>
      </trkpt>
      <trkpt lat="47.24622" lon="4.96812">
        <ele>318.44076538086</ele>
        <time>2018-03-08T09:15:28+0100</time>
      </trkpt>
      <trkpt lat="47.24621" lon="4.96806">
        <ele>318.71862792969</ele>
        <time>2018-03-08T09:15:31+0100</time>
      </trkpt>
      <trkpt lat="47.24621" lon="4.96801">
        <ele>318.9919128418</ele>
        <time>2018-03-08T09:15:34+0100</time>
      </trkpt>
      <trkpt lat="47.24621" lon="4.96797">
        <ele>319.24319458008</ele>
        <time>2018-03-08T09:15:37+0100</time>
      </trkpt>
      <trkpt lat="47.2462" lon="4.96792">
        <ele>319.48190307617</ele>
        <time>2018-03-08T09:15:40+0100</time>
      </trkpt>
      <trkpt lat="47.2462" lon="4.96787">
        <ele>319.70867919922</ele>
        <time>2018-03-08T09:15:43+0100</time>
      </trkpt>
      <trkpt lat="47.2462" lon="4.96782">
        <ele>319.93795776367</ele>
        <time>2018-03-08T09:15:46+0100</time>
      </trkpt>
      <trkpt lat="47.2462" lon="4.96776">
        <ele>320.18154907227</ele>
        <time>2018-03-08T09:15:49+0100</time>
      </trkpt>
      <trkpt lat="47.24621" lon="4.9677">
        <ele>320.44534301758</ele>
        <time>2018-03-08T09:15:52+0100</time>
      </trkpt>
      <trkpt lat="47.24621" lon="4.96765">
        <ele>320.68096923828</ele>
        <time>2018-03-08T09:15:55+0100</time>
      </trkpt>
      <trkpt lat="47.24621" lon="4.9676">
        <ele>320.86987304688</ele>
        <time>2018-03-08T09:15:58+0100</time>
      </trkpt>
      <trkpt lat="47.2462" lon="4.96755">
        <ele>320.91412353516</ele>
        <time>2018-03-08T09:16:01+0100</time>
      </trkpt>
      <trkpt lat="47.24619" lon="4.96752">
        <ele>320.89791870117</ele>
        <time>2018-03-08T09:16:04+0100</time>
      </trkpt>
      <trkpt lat="47.24617" lon="4.9675">
        <ele>320.86242675781</ele>
        <time>2018-03-08T09:16:07+0100</time>
      </trkpt>
      <trkpt lat="47.24615" lon="4.96748">
        <ele>320.88876342773</ele>
        <time>2018-03-08T09:16:10+0100</time>
      </trkpt>
      <trkpt lat="47.24612" lon="4.96744">
        <ele>320.96783447266</ele>
        <time>2018-03-08T09:16:13+0100</time>
      </trkpt>
      <trkpt lat="47.24609" lon="4.96742">
        <ele>321.05758666992</ele>
        <time>2018-03-08T09:16:16+0100</time>
      </trkpt>
      <trkpt lat="47.24606" lon="4.96739">
        <ele>321.06832885742</ele>
        <time>2018-03-08T09:16:19+0100</time>
      </trkpt>
      <trkpt lat="47.24602" lon="4.96737">
        <ele>321.02770996094</ele>
        <time>2018-03-08T09:16:22+0100</time>
      </trkpt>
      <trkpt lat="47.246" lon="4.96735">
        <ele>320.92037963867</ele>
        <time>2018-03-08T09:16:25+0100</time>
      </trkpt>
      <trkpt lat="47.24597" lon="4.96734">
        <ele>320.81826782227</ele>
        <time>2018-03-08T09:16:28+0100</time>
      </trkpt>
      <trkpt lat="47.24594" lon="4.96732">
        <ele>320.7331237793</ele>
        <time>2018-03-08T09:16:31+0100</time>
      </trkpt>
      <trkpt lat="47.2459" lon="4.9673">
        <ele>320.61093139648</ele>
        <time>2018-03-08T09:16:34+0100</time>
      </trkpt>
      <trkpt lat="47.24587" lon="4.96728">
        <ele>320.50436401367</ele>
        <time>2018-03-08T09:16:37+0100</time>
      </trkpt>
      <trkpt lat="47.24583" lon="4.96726">
        <ele>320.37066650391</ele>
        <time>2018-03-08T09:16:40+0100</time>
      </trkpt>
      <trkpt lat="47.24579" lon="4.96723">
        <ele>320.3362121582</ele>
        <time>2018-03-08T09:16:43+0100</time>
      </trkpt>
      <trkpt lat="47.24576" lon="4.9672">
        <ele>320.47668457031</ele>
        <time>2018-03-08T09:16:46+0100</time>
      </trkpt>
      <trkpt lat="47.24574" lon="4.96715">
        <ele>320.57400512695</ele>
        <time>2018-03-08T09:16:49+0100</time>
      </trkpt>
      <trkpt lat="47.24573" lon="4.96712">
        <ele>320.59210205078</ele>
        <time>2018-03-08T09:16:52+0100</time>
      </trkpt>
      <trkpt lat="47.24572" lon="4.96708">
        <ele>320.57315063477</ele>
        <time>2018-03-08T09:16:55+0100</time>
      </trkpt>
      <trkpt lat="47.24571" lon="4.96704">
        <ele>320.49884033203</ele>
        <time>2018-03-08T09:16:58+0100</time>
      </trkpt>
      <trkpt lat="47.24572" lon="4.96701">
        <ele>320.49813842773</ele>
        <time>2018-03-08T09:17:01+0100</time>
      </trkpt>
      <trkpt lat="47.24571" lon="4.96696">
        <ele>320.53332519531</ele>
        <time>2018-03-08T09:17:04+0100</time>
      </trkpt>
      <trkpt lat="47.24571" lon="4.96694">
        <ele>320.61053466797</ele>
        <time>2018-03-08T09:17:07+0100</time>
      </trkpt>
      <trkpt lat="47.2457" lon="4.96689">
        <ele>320.73236083984</ele>
        <time>2018-03-08T09:17:10+0100</time>
      </trkpt>
      <trkpt lat="47.24569" lon="4.96686">
        <ele>320.90426635742</ele>
        <time>2018-03-08T09:17:13+0100</time>
      </trkpt>
      <trkpt lat="47.24568" lon="4.96681">
        <ele>321.15264892578</ele>
        <time>2018-03-08T09:17:16+0100</time>
      </trkpt>
      <trkpt lat="47.24568" lon="4.96679">
        <ele>321.43572998047</ele>
        <time>2018-03-08T09:17:19+0100</time>
      </trkpt>
      <trkpt lat="47.24567" lon="4.96675">
        <ele>321.77978515625</ele>
        <time>2018-03-08T09:17:22+0100</time>
      </trkpt>
      <trkpt lat="47.24567" lon="4.96671">
        <ele>322.08752441406</ele>
        <time>2018-03-08T09:17:25+0100</time>
      </trkpt>
      <trkpt lat="47.24565" lon="4.96668">
        <ele>322.43826293945</ele>
        <time>2018-03-08T09:17:28+0100</time>
      </trkpt>
      <trkpt lat="47.24564" lon="4.96664">
        <ele>322.84378051758</ele>
        <time>2018-03-08T09:17:31+0100</time>
      </trkpt>
      <trkpt lat="47.24563" lon="4.96661">
        <ele>323.25607299805</ele>
        <time>2018-03-08T09:17:34+0100</time>
      </trkpt>
      <trkpt lat="47.24559" lon="4.96659">
        <ele>323.67660522461</ele>
        <time>2018-03-08T09:17:37+0100</time>
      </trkpt>
      <trkpt lat="47.24557" lon="4.96655">
        <ele>324.13592529297</ele>
        <time>2018-03-08T09:17:40+0100</time>
      </trkpt>
      <trkpt lat="47.24556" lon="4.96654">
        <ele>324.60186767578</ele>
        <time>2018-03-08T09:17:43+0100</time>
      </trkpt>
      <trkpt lat="47.24555" lon="4.96654">
        <ele>325.12637329102</ele>
        <time>2018-03-08T09:17:46+0100</time>
      </trkpt>
      <trkpt lat="47.24554" lon="4.9665">
        <ele>325.6623840332</ele>
        <time>2018-03-08T09:17:49+0100</time>
      </trkpt>
      <trkpt lat="47.24553" lon="4.96648">
        <ele>326.20361328125</ele>
        <time>2018-03-08T09:17:52+0100</time>
      </trkpt>
      <trkpt lat="47.24551" lon="4.96646">
        <ele>326.72515869141</ele>
        <time>2018-03-08T09:17:55+0100</time>
      </trkpt>
      <trkpt lat="47.2455" lon="4.96644">
        <ele>327.31469726562</ele>
        <time>2018-03-08T09:17:58+0100</time>
      </trkpt>
      <trkpt lat="47.24549" lon="4.9664">
        <ele>327.88244628906</ele>
        <time>2018-03-08T09:18:01+0100</time>
      </trkpt>
      <trkpt lat="47.24549" lon="4.96637">
        <ele>328.35238647461</ele>
        <time>2018-03-08T09:18:04+0100</time>
      </trkpt>
      <trkpt lat="47.24548" lon="4.96635">
        <ele>328.79382324219</ele>
        <time>2018-03-08T09:18:07+0100</time>
      </trkpt>
      <trkpt lat="47.24545" lon="4.96632">
        <ele>329.24435424805</ele>
        <time>2018-03-08T09:18:10+0100</time>
      </trkpt>
      <trkpt lat="47.24544" lon="4.9663">
        <ele>329.70852661133</ele>
        <time>2018-03-08T09:18:13+0100</time>
      </trkpt>
      <trkpt lat="47.24543" lon="4.96626">
        <ele>330.21600341797</ele>
        <time>2018-03-08T09:18:16+0100</time>
      </trkpt>
      <trkpt lat="47.24543" lon="4.96621">
        <ele>330.65560913086</ele>
        <time>2018-03-08T09:18:19+0100</time>
      </trkpt>
      <trkpt lat="47.24544" lon="4.96617">
        <ele>330.99499511719</ele>
        <time>2018-03-08T09:18:22+0100</time>
      </trkpt>
      <trkpt lat="47.24542" lon="4.96613">
        <ele>331.28012084961</ele>
        <time>2018-03-08T09:18:25+0100</time>
      </trkpt>
      <trkpt lat="47.24539" lon="4.9661">
        <ele>331.53063964844</ele>
        <time>2018-03-08T09:18:28+0100</time>
      </trkpt>
      <trkpt lat="47.24537" lon="4.96608">
        <ele>331.81198120117</ele>
        <time>2018-03-08T09:18:31+0100</time>
      </trkpt>
      <trkpt lat="47.24534" lon="4.96604">
        <ele>332.11605834961</ele>
        <time>2018-03-08T09:18:34+0100</time>
      </trkpt>
      <trkpt lat="47.24533" lon="4.96601">
        <ele>332.43939208984</ele>
        <time>2018-03-08T09:18:37+0100</time>
      </trkpt>
      <trkpt lat="47.24532" lon="4.96596">
        <ele>332.69979858398</ele>
        <time>2018-03-08T09:18:40+0100</time>
      </trkpt>
      <trkpt lat="47.2453" lon="4.96593">
        <ele>332.92245483398</ele>
        <time>2018-03-08T09:18:43+0100</time>
      </trkpt>
      <trkpt lat="47.24532" lon="4.96589">
        <ele>333.23388671875</ele>
        <time>2018-03-08T09:18:46+0100</time>
      </trkpt>
      <trkpt lat="47.24532" lon="4.96584">
        <ele>333.81683349609</ele>
        <time>2018-03-08T09:18:49+0100</time>
      </trkpt>
      <trkpt lat="47.24533" lon="4.96581">
        <ele>334.47393798828</ele>
        <time>2018-03-08T09:18:52+0100</time>
      </trkpt>
      <trkpt lat="47.24531" lon="4.96578">
        <ele>335.18588256836</ele>
        <time>2018-03-08T09:18:55+0100</time>
      </trkpt>
      <trkpt lat="47.24529" lon="4.96577">
        <ele>335.85818481445</ele>
        <time>2018-03-08T09:18:58+0100</time>
      </trkpt>
      <trkpt lat="47.24528" lon="4.96576">
        <ele>336.51119995117</ele>
        <time>2018-03-08T09:19:01+0100</time>
      </trkpt>
      <trkpt lat="47.24527" lon="4.96574">
        <ele>337.2502746582</ele>
        <time>2018-03-08T09:19:04+0100</time>
      </trkpt>
      <trkpt lat="47.24526" lon="4.96571">
        <ele>337.81921386719</ele>
        <time>2018-03-08T09:19:07+0100</time>
      </trkpt>
      <trkpt lat="47.24524" lon="4.96569">
        <ele>338.61590576172</ele>
        <time>2018-03-08T09:19:10+0100</time>
      </trkpt>
      <trkpt lat="47.24522" lon="4.96567">
        <ele>339.48229980469</ele>
        <time>2018-03-08T09:19:13+0100</time>
      </trkpt>
      <trkpt lat="47.2452" lon="4.96565">
        <ele>340.32305908203</ele>
        <time>2018-03-08T09:19:15+0100</time>
      </trkpt>
      <trkpt lat="47.24519" lon="4.96561">
        <ele>341.09710693359</ele>
        <time>2018-03-08T09:19:18+0100</time>
      </trkpt>
      <trkpt lat="47.24519" lon="4.96558">
        <ele>341.75360107422</ele>
        <time>2018-03-08T09:19:21+0100</time>
      </trkpt>
      <trkpt lat="47.24517" lon="4.96554">
        <ele>342.35858154297</ele>
        <time>2018-03-08T09:19:24+0100</time>
      </trkpt>
      <trkpt lat="47.24518" lon="4.96553">
        <ele>342.88729858398</ele>
        <time>2018-03-08T09:19:27+0100</time>
      </trkpt>
      <trkpt lat="47.24518" lon="4.9655">
        <ele>343.46893310547</ele>
        <time>2018-03-08T09:19:30+0100</time>
      </trkpt>
      <trkpt lat="47.24516" lon="4.96545">
        <ele>344.06597900391</ele>
        <time>2018-03-08T09:19:33+0100</time>
      </trkpt>
      <trkpt lat="47.24517" lon="4.96543">
        <ele>344.55523681641</ele>
        <time>2018-03-08T09:19:36+0100</time>
      </trkpt>
      <trkpt lat="47.24517" lon="4.96541">
        <ele>344.9182434082</ele>
        <time>2018-03-08T09:19:39+0100</time>
      </trkpt>
      <trkpt lat="47.24516" lon="4.96538">
        <ele>345.17196655273</ele>
        <time>2018-03-08T09:19:42+0100</time>
      </trkpt>
      <trkpt lat="47.24516" lon="4.96535">
        <ele>345.69107055664</ele>
        <time>2018-03-08T09:19:45+0100</time>
      </trkpt>
      <trkpt lat="47.24518" lon="4.96532">
        <ele>346.33743286133</ele>
        <time>2018-03-08T09:19:48+0100</time>
      </trkpt>
      <trkpt lat="47.24519" lon="4.96528">
        <ele>346.98706054688</ele>
        <time>2018-03-08T09:19:51+0100</time>
      </trkpt>
      <trkpt lat="47.24518" lon="4.96524">
        <ele>347.62258911133</ele>
        <time>2018-03-08T09:19:54+0100</time>
      </trkpt>
      <trkpt lat="47.24517" lon="4.96522">
        <ele>348.00991821289</ele>
        <time>2018-03-08T09:19:57+0100</time>
      </trkpt>
      <trkpt lat="47.24516" lon="4.96522">
        <ele>348.06878662109</ele>
        <time>2018-03-08T09:20:00+0100</time>
      </trkpt>
      <trkpt lat="47.24517" lon="4.96521">
        <ele>348.41018676758</ele>
        <time>2018-03-08T09:20:03+0100</time>
      </trkpt>
      <trkpt lat="47.24518" lon="4.96519">
        <ele>348.67669677734</ele>
        <time>2018-03-08T09:20:06+0100</time>
      </trkpt>
      <trkpt lat="47.24518" lon="4.96518">
        <ele>348.74438476562</ele>
        <time>2018-03-08T09:20:09+0100</time>
      </trkpt>
      <trkpt lat="47.24516" lon="4.96516">
        <ele>348.62725830078</ele>
        <time>2018-03-08T09:20:12+0100</time>
      </trkpt>
      <trkpt lat="47.24515" lon="4.96508">
        <ele>348.54431152344</ele>
        <time>2018-03-08T09:20:15+0100</time>
      </trkpt>
      <trkpt lat="47.24507" lon="4.965">
        <ele>348.68545532227</ele>
        <time>2018-03-08T09:20:18+0100</time>
      </trkpt>
      <trkpt lat="47.24506" lon="4.96496">
        <ele>348.77835083008</ele>
        <time>2018-03-08T09:20:21+0100</time>
      </trkpt>
      <trkpt lat="47.24504" lon="4.96496">
        <ele>349.0075378418</ele>
        <time>2018-03-08T09:20:24+0100</time>
      </trkpt>
      <trkpt lat="47.24497" lon="4.96489">
        <ele>349.22180175781</ele>
        <time>2018-03-08T09:20:27+0100</time>
      </trkpt>
      <trkpt lat="47.2449" lon="4.96482">
        <ele>349.59689331055</ele>
        <time>2018-03-08T09:20:30+0100</time>
      </trkpt>
      <trkpt lat="47.24491" lon="4.96483">
        <ele>350.0390625</ele>
        <time>2018-03-08T09:20:33+0100</time>
      </trkpt>
      <trkpt lat="47.24486" lon="4.96487">
        <ele>350.50091552734</ele>
        <time>2018-03-08T09:20:36+0100</time>
      </trkpt>
      <trkpt lat="47.24484" lon="4.96489">
        <ele>351.11596679688</ele>
        <time>2018-03-08T09:20:39+0100</time>
      </trkpt>
      <trkpt lat="47.24483" lon="4.96491">
        <ele>351.56130981445</ele>
        <time>2018-03-08T09:20:42+0100</time>
      </trkpt>
      <trkpt lat="47.24482" lon="4.96492">
        <ele>352.06448364258</ele>
        <time>2018-03-08T09:20:45+0100</time>
      </trkpt>
      <trkpt lat="47.24481" lon="4.96493">
        <ele>352.43960571289</ele>
        <time>2018-03-08T09:20:48+0100</time>
      </trkpt>
      <trkpt lat="47.24478" lon="4.96494">
        <ele>352.77243041992</ele>
        <time>2018-03-08T09:20:51+0100</time>
      </trkpt>
      <trkpt lat="47.24478" lon="4.96495">
        <ele>353.00140380859</ele>
        <time>2018-03-08T09:20:54+0100</time>
      </trkpt>
      <trkpt lat="47.24477" lon="4.96495">
        <ele>353.14065551758</ele>
        <time>2018-03-08T09:20:57+0100</time>
      </trkpt>
      <trkpt lat="47.24474" lon="4.96497">
        <ele>353.52337646484</ele>
        <time>2018-03-08T09:21:00+0100</time>
      </trkpt>
      <trkpt lat="47.24471" lon="4.965">
        <ele>353.83068847656</ele>
        <time>2018-03-08T09:21:03+0100</time>
      </trkpt>
      <trkpt lat="47.24469" lon="4.96502">
        <ele>354.02319335938</ele>
        <time>2018-03-08T09:21:06+0100</time>
      </trkpt>
      <trkpt lat="47.24469" lon="4.96504">
        <ele>354.1061706543</ele>
        <time>2018-03-08T09:21:09+0100</time>
      </trkpt>
      <trkpt lat="47.24465" lon="4.96507">
        <ele>354.35220336914</ele>
        <time>2018-03-08T09:21:12+0100</time>
      </trkpt>
      <trkpt lat="47.24464" lon="4.96509">
        <ele>354.5905456543</ele>
        <time>2018-03-08T09:21:15+0100</time>
      </trkpt>
      <trkpt lat="47.24462" lon="4.96511">
        <ele>354.75259399414</ele>
        <time>2018-03-08T09:21:18+0100</time>
      </trkpt>
      <trkpt lat="47.24459" lon="4.96512">
        <ele>354.76864624023</ele>
        <time>2018-03-08T09:21:21+0100</time>
      </trkpt>
      <trkpt lat="47.24457" lon="4.96514">
        <ele>354.71557617188</ele>
        <time>2018-03-08T09:21:24+0100</time>
      </trkpt>
      <trkpt lat="47.24456" lon="4.96515">
        <ele>354.83453369141</ele>
        <time>2018-03-08T09:21:27+0100</time>
      </trkpt>
      <trkpt lat="47.24454" lon="4.96516">
        <ele>355.00177001953</ele>
        <time>2018-03-08T09:21:30+0100</time>
      </trkpt>
      <trkpt lat="47.24449" lon="4.96516">
        <ele>355.21755981445</ele>
        <time>2018-03-08T09:21:33+0100</time>
      </trkpt>
      <trkpt lat="47.24446" lon="4.96515">
        <ele>355.36434936523</ele>
        <time>2018-03-08T09:21:36+0100</time>
      </trkpt>
      <trkpt lat="47.24443" lon="4.96516">
        <ele>355.48538208008</ele>
        <time>2018-03-08T09:21:39+0100</time>
      </trkpt>
      <trkpt lat="47.24439" lon="4.96517">
        <ele>355.52420043945</ele>
        <time>2018-03-08T09:21:42+0100</time>
      </trkpt>
      <trkpt lat="47.24438" lon="4.96518">
        <ele>355.47595214844</ele>
        <time>2018-03-08T09:21:45+0100</time>
      </trkpt>
      <trkpt lat="47.24438" lon="4.96519">
        <ele>355.42733764648</ele>
        <time>2018-03-08T09:21:48+0100</time>
      </trkpt>
      <trkpt lat="47.24438" lon="4.96519">
        <ele>355.11791992188</ele>
        <time>2018-03-08T09:21:51+0100</time>
      </trkpt>
      <trkpt lat="47.24437" lon="4.96519">
        <ele>354.76519775391</ele>
        <time>2018-03-08T09:21:54+0100</time>
      </trkpt>
      <trkpt lat="47.24436" lon="4.96519">
        <ele>354.41632080078</ele>
        <time>2018-03-08T09:21:57+0100</time>
      </trkpt>
      <trkpt lat="47.24433" lon="4.96517">
        <ele>354.02969360352</ele>
        <time>2018-03-08T09:22:00+0100</time>
      </trkpt>
      <trkpt lat="47.24429" lon="4.96516">
        <ele>353.62847900391</ele>
        <time>2018-03-08T09:22:03+0100</time>
      </trkpt>
      <trkpt lat="47.24424" lon="4.96515">
        <ele>353.25073242188</ele>
        <time>2018-03-08T09:22:06+0100</time>
      </trkpt>
      <trkpt lat="47.24423" lon="4.96514">
        <ele>352.91384887695</ele>
        <time>2018-03-08T09:22:09+0100</time>
      </trkpt>
      <trkpt lat="47.24423" lon="4.96513">
        <ele>352.61968994141</ele>
        <time>2018-03-08T09:22:12+0100</time>
      </trkpt>
      <trkpt lat="47.24422" lon="4.96512">
        <ele>352.42266845703</ele>
        <time>2018-03-08T09:22:15+0100</time>
      </trkpt>
      <trkpt lat="47.24419" lon="4.9651">
        <ele>352.25122070312</ele>
        <time>2018-03-08T09:22:18+0100</time>
      </trkpt>
      <trkpt lat="47.24417" lon="4.9651">
        <ele>352.12268066406</ele>
        <time>2018-03-08T09:22:21+0100</time>
      </trkpt>
      <trkpt lat="47.24414" lon="4.96507">
        <ele>352.03811645508</ele>
        <time>2018-03-08T09:22:24+0100</time>
      </trkpt>
      <trkpt lat="47.24412" lon="4.96505">
        <ele>351.92297363281</ele>
        <time>2018-03-08T09:22:27+0100</time>
      </trkpt>
      <trkpt lat="47.24409" lon="4.96502">
        <ele>351.85827636719</ele>
        <time>2018-03-08T09:22:30+0100</time>
      </trkpt>
      <trkpt lat="47.24404" lon="4.96496">
        <ele>351.75845336914</ele>
        <time>2018-03-08T09:22:33+0100</time>
      </trkpt>
      <trkpt lat="47.24401" lon="4.96494">
        <ele>351.6321105957</ele>
        <time>2018-03-08T09:22:36+0100</time>
      </trkpt>
      <trkpt lat="47.244" lon="4.96493">
        <ele>351.54022216797</ele>
        <time>2018-03-08T09:22:39+0100</time>
      </trkpt>
      <trkpt lat="47.24399" lon="4.96491">
        <ele>351.53536987305</ele>
        <time>2018-03-08T09:22:42+0100</time>
      </trkpt>
      <trkpt lat="47.24396" lon="4.96487">
        <ele>351.59613037109</ele>
        <time>2018-03-08T09:22:45+0100</time>
      </trkpt>
      <trkpt lat="47.24396" lon="4.96485">
        <ele>351.63818359375</ele>
        <time>2018-03-08T09:22:48+0100</time>
      </trkpt>
      <trkpt lat="47.24396" lon="4.96483">
        <ele>351.67224121094</ele>
        <time>2018-03-08T09:22:51+0100</time>
      </trkpt>
      <trkpt lat="47.24396" lon="4.96481">
        <ele>351.73156738281</ele>
        <time>2018-03-08T09:22:54+0100</time>
      </trkpt>
      <trkpt lat="47.24393" lon="4.96478">
        <ele>351.86273193359</ele>
        <time>2018-03-08T09:22:57+0100</time>
      </trkpt>
      <trkpt lat="47.2439" lon="4.96478">
        <ele>352.03030395508</ele>
        <time>2018-03-08T09:23:00+0100</time>
      </trkpt>
      <trkpt lat="47.24388" lon="4.96477">
        <ele>352.20159912109</ele>
        <time>2018-03-08T09:23:03+0100</time>
      </trkpt>
      <trkpt lat="47.24386" lon="4.96475">
        <ele>352.36779785156</ele>
        <time>2018-03-08T09:23:06+0100</time>
      </trkpt>
      <trkpt lat="47.24384" lon="4.96474">
        <ele>352.46072387695</ele>
        <time>2018-03-08T09:23:09+0100</time>
      </trkpt>
      <trkpt lat="47.24378" lon="4.96471">
        <ele>352.47348022461</ele>
        <time>2018-03-08T09:23:12+0100</time>
      </trkpt>
      <trkpt lat="47.24374" lon="4.9647">
        <ele>352.50186157227</ele>
        <time>2018-03-08T09:23:15+0100</time>
      </trkpt>
      <trkpt lat="47.24372" lon="4.96469">
        <ele>352.65255737305</ele>
        <time>2018-03-08T09:23:18+0100</time>
      </trkpt>
      <trkpt lat="47.24372" lon="4.96467">
        <ele>352.89852905273</ele>
        <time>2018-03-08T09:23:21+0100</time>
      </trkpt>
      <trkpt lat="47.2437" lon="4.96464">
        <ele>353.16979980469</ele>
        <time>2018-03-08T09:23:24+0100</time>
      </trkpt>
      <trkpt lat="47.24367" lon="4.96459">
        <ele>353.50616455078</ele>
        <time>2018-03-08T09:23:27+0100</time>
      </trkpt>
      <trkpt lat="47.24364" lon="4.96453">
        <ele>353.75991821289</ele>
        <time>2018-03-08T09:23:30+0100</time>
      </trkpt>
      <trkpt lat="47.24364" lon="4.9645">
        <ele>353.98257446289</ele>
        <time>2018-03-08T09:23:33+0100</time>
      </trkpt>
      <trkpt lat="47.24364" lon="4.96449">
        <ele>354.24938964844</ele>
        <time>2018-03-08T09:23:36+0100</time>
      </trkpt>
      <trkpt lat="47.24364" lon="4.96448">
        <ele>354.48858642578</ele>
        <time>2018-03-08T09:23:39+0100</time>
      </trkpt>
      <trkpt lat="47.24363" lon="4.96447">
        <ele>354.68881225586</ele>
        <time>2018-03-08T09:23:42+0100</time>
      </trkpt>
      <trkpt lat="47.2436" lon="4.96444">
        <ele>354.88623046875</ele>
        <time>2018-03-08T09:23:45+0100</time>
      </trkpt>
      <trkpt lat="47.24358" lon="4.96442">
        <ele>355.14944458008</ele>
        <time>2018-03-08T09:23:48+0100</time>
      </trkpt>
      <trkpt lat="47.24356" lon="4.96439">
        <ele>355.46887207031</ele>
        <time>2018-03-08T09:23:51+0100</time>
      </trkpt>
      <trkpt lat="47.24355" lon="4.96438">
        <ele>355.85913085938</ele>
        <time>2018-03-08T09:23:54+0100</time>
      </trkpt>
      <trkpt lat="47.24354" lon="4.96435">
        <ele>356.31372070312</ele>
        <time>2018-03-08T09:23:57+0100</time>
      </trkpt>
      <trkpt lat="47.24351" lon="4.96431">
        <ele>356.84429931641</ele>
        <time>2018-03-08T09:24:00+0100</time>
      </trkpt>
      <trkpt lat="47.24349" lon="4.96425">
        <ele>357.35290527344</ele>
        <time>2018-03-08T09:24:03+0100</time>
      </trkpt>
      <trkpt lat="47.24348" lon="4.96421">
        <ele>357.67755126953</ele>
        <time>2018-03-08T09:24:06+0100</time>
      </trkpt>
      <trkpt lat="47.24346" lon="4.9642">
        <ele>358.13592529297</ele>
        <time>2018-03-08T09:24:09+0100</time>
      </trkpt>
      <trkpt lat="47.24346" lon="4.96419">
        <ele>358.6279296875</ele>
        <time>2018-03-08T09:24:12+0100</time>
      </trkpt>
      <trkpt lat="47.24346" lon="4.9642">
        <ele>359.18252563477</ele>
        <time>2018-03-08T09:24:15+0100</time>
      </trkpt>
      <trkpt lat="47.24345" lon="4.96417">
        <ele>359.76327514648</ele>
        <time>2018-03-08T09:24:18+0100</time>
      </trkpt>
      <trkpt lat="47.24345" lon="4.96413">
        <ele>360.30017089844</ele>
        <time>2018-03-08T09:24:21+0100</time>
      </trkpt>
      <trkpt lat="47.24344" lon="4.9641">
        <ele>360.83090209961</ele>
        <time>2018-03-08T09:24:24+0100</time>
      </trkpt>
      <trkpt lat="47.24342" lon="4.96407">
        <ele>361.38360595703</ele>
        <time>2018-03-08T09:24:27+0100</time>
      </trkpt>
      <trkpt lat="47.24341" lon="4.96405">
        <ele>361.93566894531</ele>
        <time>2018-03-08T09:24:30+0100</time>
      </trkpt>
      <trkpt lat="47.24341" lon="4.96404">
        <ele>362.52481079102</ele>
        <time>2018-03-08T09:24:33+0100</time>
      </trkpt>
      <trkpt lat="47.24339" lon="4.96402">
        <ele>363.10662841797</ele>
        <time>2018-03-08T09:24:36+0100</time>
      </trkpt>
      <trkpt lat="47.24339" lon="4.96401">
        <ele>363.65396118164</ele>
        <time>2018-03-08T09:24:39+0100</time>
      </trkpt>
      <trkpt lat="47.24339" lon="4.964">
        <ele>364.21105957031</ele>
        <time>2018-03-08T09:24:42+0100</time>
      </trkpt>
      <trkpt lat="47.24339" lon="4.96397">
        <ele>364.57357788086</ele>
        <time>2018-03-08T09:24:45+0100</time>
      </trkpt>
      <trkpt lat="47.24338" lon="4.96396">
        <ele>364.71783447266</ele>
        <time>2018-03-08T09:24:48+0100</time>
      </trkpt>
      <trkpt lat="47.24336" lon="4.96393">
        <ele>364.95401000977</ele>
        <time>2018-03-08T09:24:51+0100</time>
      </trkpt>
      <trkpt lat="47.24328" lon="4.96389">
        <ele>364.95721435547</ele>
        <time>2018-03-08T09:24:54+0100</time>
      </trkpt>
      <trkpt lat="47.24327" lon="4.96389">
        <ele>364.93765258789</ele>
        <time>2018-03-08T09:24:57+0100</time>
      </trkpt>
      <trkpt lat="47.24327" lon="4.96389">
        <ele>364.91058349609</ele>
        <time>2018-03-08T09:25:00+0100</time>
      </trkpt>
      <trkpt lat="47.24327" lon="4.96389">
        <ele>364.88565063477</ele>
        <time>2018-03-08T09:25:03+0100</time>
      </trkpt>
      <trkpt lat="47.24327" lon="4.96389">
        <ele>364.8606262207</ele>
        <time>2018-03-08T09:25:06+0100</time>
      </trkpt>
      <trkpt lat="47.24326" lon="4.96389">
        <ele>364.83248901367</ele>
        <time>2018-03-08T09:25:09+0100</time>
      </trkpt>
      <trkpt lat="47.24326" lon="4.96389">
        <ele>364.80059814453</ele>
        <time>2018-03-08T09:25:12+0100</time>
      </trkpt>
      <trkpt lat="47.24326" lon="4.9639">
        <ele>364.77185058594</ele>
        <time>2018-03-08T09:25:15+0100</time>
      </trkpt>
      <trkpt lat="47.24321" lon="4.96391">
        <ele>364.51235961914</ele>
        <time>2018-03-08T09:25:18+0100</time>
      </trkpt>
      <trkpt lat="47.24321" lon="4.96391">
        <ele>364.47933959961</ele>
        <time>2018-03-08T09:25:21+0100</time>
      </trkpt>
      <trkpt lat="47.24321" lon="4.96391">
        <ele>364.45101928711</ele>
        <time>2018-03-08T09:25:24+0100</time>
      </trkpt>
      <trkpt lat="47.24321" lon="4.96391">
        <ele>364.42651367188</ele>
        <time>2018-03-08T09:25:27+0100</time>
      </trkpt>
      <trkpt lat="47.24321" lon="4.96391">
        <ele>364.40280151367</ele>
        <time>2018-03-08T09:25:30+0100</time>
      </trkpt>
      <trkpt lat="47.24321" lon="4.96391">
        <ele>364.3796081543</ele>
        <time>2018-03-08T09:25:33+0100</time>
      </trkpt>
      <trkpt lat="47.24321" lon="4.96391">
        <ele>364.35882568359</ele>
        <time>2018-03-08T09:25:36+0100</time>
      </trkpt>
      <trkpt lat="47.24321" lon="4.96391">
        <ele>364.33776855469</ele>
        <time>2018-03-08T09:25:39+0100</time>
      </trkpt>
      <trkpt lat="47.24321" lon="4.96391">
        <ele>364.31814575195</ele>
        <time>2018-03-08T09:25:42+0100</time>
      </trkpt>
      <trkpt lat="47.24321" lon="4.96391">
        <ele>364.30319213867</ele>
        <time>2018-03-08T09:25:45+0100</time>
      </trkpt>
      <trkpt lat="47.24321" lon="4.96391">
        <ele>364.29498291016</ele>
        <time>2018-03-08T09:25:48+0100</time>
      </trkpt>
      <trkpt lat="47.24321" lon="4.96391">
        <ele>364.28350830078</ele>
        <time>2018-03-08T09:25:51+0100</time>
      </trkpt>
      <trkpt lat="47.24321" lon="4.96391">
        <ele>364.26898193359</ele>
        <time>2018-03-08T09:25:54+0100</time>
      </trkpt>
      <trkpt lat="47.24321" lon="4.96391">
        <ele>364.25048828125</ele>
        <time>2018-03-08T09:25:57+0100</time>
      </trkpt>
      <trkpt lat="47.24321" lon="4.96391">
        <ele>364.22961425781</ele>
        <time>2018-03-08T09:26:00+0100</time>
      </trkpt>
      <trkpt lat="47.2432" lon="4.96389">
        <ele>364.01763916016</ele>
        <time>2018-03-08T09:26:03+0100</time>
      </trkpt>
      <trkpt lat="47.24319" lon="4.96389">
        <ele>363.7854309082</ele>
        <time>2018-03-08T09:26:06+0100</time>
      </trkpt>
      <trkpt lat="47.24318" lon="4.96387">
        <ele>363.55297851562</ele>
        <time>2018-03-08T09:26:09+0100</time>
      </trkpt>
      <trkpt lat="47.24316" lon="4.96385">
        <ele>363.33346557617</ele>
        <time>2018-03-08T09:26:12+0100</time>
      </trkpt>
      <trkpt lat="47.24314" lon="4.96383">
        <ele>363.14431762695</ele>
        <time>2018-03-08T09:26:15+0100</time>
      </trkpt>
      <trkpt lat="47.24313" lon="4.9638">
        <ele>362.95413208008</ele>
        <time>2018-03-08T09:26:18+0100</time>
      </trkpt>
      <trkpt lat="47.24313" lon="4.96379">
        <ele>362.83163452148</ele>
        <time>2018-03-08T09:26:21+0100</time>
      </trkpt>
      <trkpt lat="47.2431" lon="4.96376">
        <ele>362.72882080078</ele>
        <time>2018-03-08T09:26:24+0100</time>
      </trkpt>
      <trkpt lat="47.24307" lon="4.96372">
        <ele>362.56536865234</ele>
        <time>2018-03-08T09:26:27+0100</time>
      </trkpt>
      <trkpt lat="47.24307" lon="4.96372">
        <ele>362.55163574219</ele>
        <time>2018-03-08T09:26:30+0100</time>
      </trkpt>
      <trkpt lat="47.24305" lon="4.96369">
        <ele>362.44155883789</ele>
        <time>2018-03-08T09:26:33+0100</time>
      </trkpt>
      <trkpt lat="47.24304" lon="4.96368">
        <ele>362.38809204102</ele>
        <time>2018-03-08T09:26:36+0100</time>
      </trkpt>
      <trkpt lat="47.24302" lon="4.96366">
        <ele>362.35986328125</ele>
        <time>2018-03-08T09:26:39+0100</time>
      </trkpt>
      <trkpt lat="47.24302" lon="4.96364">
        <ele>362.33615112305</ele>
        <time>2018-03-08T09:26:42+0100</time>
      </trkpt>
      <trkpt lat="47.243" lon="4.96361">
        <ele>362.35415649414</ele>
        <time>2018-03-08T09:26:45+0100</time>
      </trkpt>
      <trkpt lat="47.24302" lon="4.96359">
        <ele>362.36563110352</ele>
        <time>2018-03-08T09:26:48+0100</time>
      </trkpt>
      <trkpt lat="47.243" lon="4.96358">
        <ele>362.43041992188</ele>
        <time>2018-03-08T09:26:51+0100</time>
      </trkpt>
      <trkpt lat="47.243" lon="4.96358">
        <ele>362.48220825195</ele>
        <time>2018-03-08T09:26:54+0100</time>
      </trkpt>
      <trkpt lat="47.24298" lon="4.96357">
        <ele>362.57467651367</ele>
        <time>2018-03-08T09:26:57+0100</time>
      </trkpt>
      <trkpt lat="47.24296" lon="4.96355">
        <ele>362.6350402832</ele>
        <time>2018-03-08T09:27:00+0100</time>
      </trkpt>
      <trkpt lat="47.24295" lon="4.96355">
        <ele>362.83386230469</ele>
        <time>2018-03-08T09:27:03+0100</time>
      </trkpt>
      <trkpt lat="47.24294" lon="4.96354">
        <ele>363.0510559082</ele>
        <time>2018-03-08T09:27:06+0100</time>
      </trkpt>
      <trkpt lat="47.24292" lon="4.96354">
        <ele>363.23449707031</ele>
        <time>2018-03-08T09:27:09+0100</time>
      </trkpt>
      <trkpt lat="47.24291" lon="4.96355">
        <ele>363.31683349609</ele>
        <time>2018-03-08T09:27:12+0100</time>
      </trkpt>
      <trkpt lat="47.24289" lon="4.96355">
        <ele>363.50833129883</ele>
        <time>2018-03-08T09:27:15+0100</time>
      </trkpt>
      <trkpt lat="47.24286" lon="4.96355">
        <ele>363.67108154297</ele>
        <time>2018-03-08T09:27:18+0100</time>
      </trkpt>
      <trkpt lat="47.24281" lon="4.96357">
        <ele>363.82327270508</ele>
        <time>2018-03-08T09:27:21+0100</time>
      </trkpt>
      <trkpt lat="47.24278" lon="4.96358">
        <ele>364.05200195312</ele>
        <time>2018-03-08T09:27:24+0100</time>
      </trkpt>
      <trkpt lat="47.24277" lon="4.96359">
        <ele>364.17358398438</ele>
        <time>2018-03-08T09:27:27+0100</time>
      </trkpt>
      <trkpt lat="47.24277" lon="4.9636">
        <ele>364.23852539062</ele>
        <time>2018-03-08T09:27:30+0100</time>
      </trkpt>
      <trkpt lat="47.24276" lon="4.96361">
        <ele>364.30545043945</ele>
        <time>2018-03-08T09:27:33+0100</time>
      </trkpt>
      <trkpt lat="47.24277" lon="4.96361">
        <ele>364.3278503418</ele>
        <time>2018-03-08T09:27:36+0100</time>
      </trkpt>
      <trkpt lat="47.24277" lon="4.96362">
        <ele>364.33551025391</ele>
        <time>2018-03-08T09:27:39+0100</time>
      </trkpt>
      <trkpt lat="47.24277" lon="4.96363">
        <ele>364.39733886719</ele>
        <time>2018-03-08T09:27:42+0100</time>
      </trkpt>
      <trkpt lat="47.24275" lon="4.96363">
        <ele>364.44104003906</ele>
        <time>2018-03-08T09:27:45+0100</time>
      </trkpt>
      <trkpt lat="47.24271" lon="4.96365">
        <ele>364.47640991211</ele>
        <time>2018-03-08T09:27:48+0100</time>
      </trkpt>
      <trkpt lat="47.24268" lon="4.96365">
        <ele>364.52182006836</ele>
        <time>2018-03-08T09:27:51+0100</time>
      </trkpt>
      <trkpt lat="47.24264" lon="4.96366">
        <ele>364.53955078125</ele>
        <time>2018-03-08T09:27:54+0100</time>
      </trkpt>
      <trkpt lat="47.2426" lon="4.96364">
        <ele>364.56109619141</ele>
        <time>2018-03-08T09:27:57+0100</time>
      </trkpt>
      <trkpt lat="47.24258" lon="4.96363">
        <ele>364.60748291016</ele>
        <time>2018-03-08T09:28:00+0100</time>
      </trkpt>
      <trkpt lat="47.24255" lon="4.96361">
        <ele>364.66613769531</ele>
        <time>2018-03-08T09:28:03+0100</time>
      </trkpt>
      <trkpt lat="47.24254" lon="4.9636">
        <ele>364.68060302734</ele>
        <time>2018-03-08T09:28:06+0100</time>
      </trkpt>
      <trkpt lat="47.2425" lon="4.96357">
        <ele>364.69067382812</ele>
        <time>2018-03-08T09:28:09+0100</time>
      </trkpt>
      <trkpt lat="47.24244" lon="4.96353">
        <ele>364.6891784668</ele>
        <time>2018-03-08T09:28:12+0100</time>
      </trkpt>
      <trkpt lat="47.2424" lon="4.96351">
        <ele>364.6630859375</ele>
        <time>2018-03-08T09:28:15+0100</time>
      </trkpt>
      <trkpt lat="47.24238" lon="4.96349">
        <ele>364.59896850586</ele>
        <time>2018-03-08T09:28:18+0100</time>
      </trkpt>
      <trkpt lat="47.24237" lon="4.96348">
        <ele>364.58413696289</ele>
        <time>2018-03-08T09:28:21+0100</time>
      </trkpt>
      <trkpt lat="47.24237" lon="4.96349">
        <ele>364.56893920898</ele>
        <time>2018-03-08T09:28:24+0100</time>
      </trkpt>
      <trkpt lat="47.24236" lon="4.96349">
        <ele>364.50177001953</ele>
        <time>2018-03-08T09:28:27+0100</time>
      </trkpt>
      <trkpt lat="47.24234" lon="4.96348">
        <ele>364.39477539062</ele>
        <time>2018-03-08T09:28:30+0100</time>
      </trkpt>
      <trkpt lat="47.24229" lon="4.96347">
        <ele>364.29528808594</ele>
        <time>2018-03-08T09:28:33+0100</time>
      </trkpt>
      <trkpt lat="47.24229" lon="4.96347">
        <ele>364.27890014648</ele>
        <time>2018-03-08T09:28:36+0100</time>
      </trkpt>
      <trkpt lat="47.24227" lon="4.96346">
        <ele>364.18106079102</ele>
        <time>2018-03-08T09:28:39+0100</time>
      </trkpt>
      <trkpt lat="47.24225" lon="4.96346">
        <ele>364.08792114258</ele>
        <time>2018-03-08T09:28:42+0100</time>
      </trkpt>
      <trkpt lat="47.24224" lon="4.96346">
        <ele>364.00137329102</ele>
        <time>2018-03-08T09:28:45+0100</time>
      </trkpt>
      <trkpt lat="47.24219" lon="4.96344">
        <ele>363.91253662109</ele>
        <time>2018-03-08T09:28:48+0100</time>
      </trkpt>
      <trkpt lat="47.24216" lon="4.96343">
        <ele>363.80487060547</ele>
        <time>2018-03-08T09:28:51+0100</time>
      </trkpt>
      <trkpt lat="47.24214" lon="4.96342">
        <ele>363.68161010742</ele>
        <time>2018-03-08T09:28:54+0100</time>
      </trkpt>
      <trkpt lat="47.24211" lon="4.96341">
        <ele>363.55130004883</ele>
        <time>2018-03-08T09:28:57+0100</time>
      </trkpt>
      <trkpt lat="47.24211" lon="4.96341">
        <ele>363.50897216797</ele>
        <time>2018-03-08T09:29:00+0100</time>
      </trkpt>
      <trkpt lat="47.24212" lon="4.96341">
        <ele>363.45928955078</ele>
        <time>2018-03-08T09:29:03+0100</time>
      </trkpt>
      <trkpt lat="47.24213" lon="4.96341">
        <ele>363.35006713867</ele>
        <time>2018-03-08T09:29:06+0100</time>
      </trkpt>
      <trkpt lat="47.24212" lon="4.9634">
        <ele>363.33056640625</ele>
        <time>2018-03-08T09:29:09+0100</time>
      </trkpt>
      <trkpt lat="47.24212" lon="4.96339">
        <ele>363.23422241211</ele>
        <time>2018-03-08T09:29:12+0100</time>
      </trkpt>
      <trkpt lat="47.24211" lon="4.96339">
        <ele>363.08639526367</ele>
        <time>2018-03-08T09:29:15+0100</time>
      </trkpt>
      <trkpt lat="47.24207" lon="4.96336">
        <ele>362.86791992188</ele>
        <time>2018-03-08T09:29:18+0100</time>
      </trkpt>
      <trkpt lat="47.24204" lon="4.96334">
        <ele>362.75756835938</ele>
        <time>2018-03-08T09:29:21+0100</time>
      </trkpt>
      <trkpt lat="47.24199" lon="4.96332">
        <ele>362.54391479492</ele>
        <time>2018-03-08T09:29:24+0100</time>
      </trkpt>
      <trkpt lat="47.24197" lon="4.9633">
        <ele>362.40371704102</ele>
        <time>2018-03-08T09:29:27+0100</time>
      </trkpt>
      <trkpt lat="47.24193" lon="4.96328">
        <ele>361.95373535156</ele>
        <time>2018-03-08T09:29:30+0100</time>
      </trkpt>
      <trkpt lat="47.24185" lon="4.96326">
        <ele>361.60037231445</ele>
        <time>2018-03-08T09:29:33+0100</time>
      </trkpt>
      <trkpt lat="47.24177" lon="4.96323">
        <ele>361.3352355957</ele>
        <time>2018-03-08T09:29:36+0100</time>
      </trkpt>
      <trkpt lat="47.24172" lon="4.96321">
        <ele>361.09579467773</ele>
        <time>2018-03-08T09:29:39+0100</time>
      </trkpt>
      <trkpt lat="47.24167" lon="4.96318">
        <ele>360.84237670898</ele>
        <time>2018-03-08T09:29:42+0100</time>
      </trkpt>
      <trkpt lat="47.24165" lon="4.96317">
        <ele>360.58084106445</ele>
        <time>2018-03-08T09:29:45+0100</time>
      </trkpt>
      <trkpt lat="47.24164" lon="4.96318">
        <ele>360.42523193359</ele>
        <time>2018-03-08T09:29:48+0100</time>
      </trkpt>
      <trkpt lat="47.24162" lon="4.96318">
        <ele>360.31478881836</ele>
        <time>2018-03-08T09:29:51+0100</time>
      </trkpt>
      <trkpt lat="47.24158" lon="4.96316">
        <ele>360.2731628418</ele>
        <time>2018-03-08T09:29:54+0100</time>
      </trkpt>
      <trkpt lat="47.24155" lon="4.96314">
        <ele>360.28491210938</ele>
        <time>2018-03-08T09:29:57+0100</time>
      </trkpt>
      <trkpt lat="47.24154" lon="4.96314">
        <ele>360.2861328125</ele>
        <time>2018-03-08T09:30:00+0100</time>
      </trkpt>
      <trkpt lat="47.24152" lon="4.96312">
        <ele>360.28555297852</ele>
        <time>2018-03-08T09:30:03+0100</time>
      </trkpt>
      <trkpt lat="47.24151" lon="4.96311">
        <ele>360.27697753906</ele>
        <time>2018-03-08T09:30:06+0100</time>
      </trkpt>
      <trkpt lat="47.2415" lon="4.9631">
        <ele>360.27795410156</ele>
        <time>2018-03-08T09:30:09+0100</time>
      </trkpt>
      <trkpt lat="47.24148" lon="4.96307">
        <ele>360.27935791016</ele>
        <time>2018-03-08T09:30:12+0100</time>
      </trkpt>
      <trkpt lat="47.24148" lon="4.96307">
        <ele>360.27606201172</ele>
        <time>2018-03-08T09:30:15+0100</time>
      </trkpt>
      <trkpt lat="47.24148" lon="4.96306">
        <ele>360.26940917969</ele>
        <time>2018-03-08T09:30:18+0100</time>
      </trkpt>
      <trkpt lat="47.24147" lon="4.96305">
        <ele>360.26232910156</ele>
        <time>2018-03-08T09:30:21+0100</time>
      </trkpt>
      <trkpt lat="47.24145" lon="4.96302">
        <ele>360.21270751953</ele>
        <time>2018-03-08T09:30:24+0100</time>
      </trkpt>
      <trkpt lat="47.24145" lon="4.96301">
        <ele>360.19705200195</ele>
        <time>2018-03-08T09:30:27+0100</time>
      </trkpt>
      <trkpt lat="47.24148" lon="4.96299">
        <ele>359.8551940918</ele>
        <time>2018-03-08T09:30:30+0100</time>
      </trkpt>
      <trkpt lat="47.24151" lon="4.96298">
        <ele>359.49914550781</ele>
        <time>2018-03-08T09:30:33+0100</time>
      </trkpt>
      <trkpt lat="47.24154" lon="4.96297">
        <ele>359.43930053711</ele>
        <time>2018-03-08T09:30:36+0100</time>
      </trkpt>
      <trkpt lat="47.24155" lon="4.96297">
        <ele>359.03115844727</ele>
        <time>2018-03-08T09:30:39+0100</time>
      </trkpt>
      <trkpt lat="47.24155" lon="4.96296">
        <ele>358.53216552734</ele>
        <time>2018-03-08T09:30:42+0100</time>
      </trkpt>
      <trkpt lat="47.24155" lon="4.96294">
        <ele>358.11297607422</ele>
        <time>2018-03-08T09:30:45+0100</time>
      </trkpt>
      <trkpt lat="47.24153" lon="4.96291">
        <ele>357.78009033203</ele>
        <time>2018-03-08T09:30:48+0100</time>
      </trkpt>
      <trkpt lat="47.24153" lon="4.96289">
        <ele>357.53115844727</ele>
        <time>2018-03-08T09:30:51+0100</time>
      </trkpt>
      <trkpt lat="47.24152" lon="4.96287">
        <ele>357.35256958008</ele>
        <time>2018-03-08T09:30:54+0100</time>
      </trkpt>
      <trkpt lat="47.24151" lon="4.96284">
        <ele>357.24307250977</ele>
        <time>2018-03-08T09:30:57+0100</time>
      </trkpt>
      <trkpt lat="47.2415" lon="4.96282">
        <ele>357.20440673828</ele>
        <time>2018-03-08T09:31:00+0100</time>
      </trkpt>
      <trkpt lat="47.24148" lon="4.96279">
        <ele>357.22338867188</ele>
        <time>2018-03-08T09:31:03+0100</time>
      </trkpt>
      <trkpt lat="47.24148" lon="4.96277">
        <ele>357.27212524414</ele>
        <time>2018-03-08T09:31:06+0100</time>
      </trkpt>
      <trkpt lat="47.24146" lon="4.96273">
        <ele>357.39105224609</ele>
        <time>2018-03-08T09:31:09+0100</time>
      </trkpt>
      <trkpt lat="47.24145" lon="4.96271">
        <ele>357.50054931641</ele>
        <time>2018-03-08T09:31:12+0100</time>
      </trkpt>
      <trkpt lat="47.24144" lon="4.96267">
        <ele>357.70593261719</ele>
        <time>2018-03-08T09:31:15+0100</time>
      </trkpt>
      <trkpt lat="47.24143" lon="4.96262">
        <ele>357.94653320312</ele>
        <time>2018-03-08T09:31:18+0100</time>
      </trkpt>
      <trkpt lat="47.24143" lon="4.9626">
        <ele>358.06567382812</ele>
        <time>2018-03-08T09:31:21+0100</time>
      </trkpt>
      <trkpt lat="47.24142" lon="4.96256">
        <ele>358.38647460938</ele>
        <time>2018-03-08T09:31:24+0100</time>
      </trkpt>
      <trkpt lat="47.24142" lon="4.96253">
        <ele>358.63519287109</ele>
        <time>2018-03-08T09:31:27+0100</time>
      </trkpt>
      <trkpt lat="47.24141" lon="4.96249">
        <ele>359.01525878906</ele>
        <time>2018-03-08T09:31:30+0100</time>
      </trkpt>
      <trkpt lat="47.24141" lon="4.96245">
        <ele>359.42391967773</ele>
        <time>2018-03-08T09:31:33+0100</time>
      </trkpt>
      <trkpt lat="47.24141" lon="4.96241">
        <ele>359.84750366211</ele>
        <time>2018-03-08T09:31:36+0100</time>
      </trkpt>
      <trkpt lat="47.24141" lon="4.96237">
        <ele>360.26751708984</ele>
        <time>2018-03-08T09:31:39+0100</time>
      </trkpt>
      <trkpt lat="47.24141" lon="4.96234">
        <ele>360.67431640625</ele>
        <time>2018-03-08T09:31:42+0100</time>
      </trkpt>
      <trkpt lat="47.24141" lon="4.9623">
        <ele>360.83044433594</ele>
        <time>2018-03-08T09:31:45+0100</time>
      </trkpt>
      <trkpt lat="47.24141" lon="4.96229">
        <ele>361.11636352539</ele>
        <time>2018-03-08T09:31:48+0100</time>
      </trkpt>
      <trkpt lat="47.24141" lon="4.96228">
        <ele>361.4055480957</ele>
        <time>2018-03-08T09:31:51+0100</time>
      </trkpt>
      <trkpt lat="47.2414" lon="4.96222">
        <ele>361.82431030273</ele>
        <time>2018-03-08T09:31:54+0100</time>
      </trkpt>
      <trkpt lat="47.24141" lon="4.96206">
        <ele>362.25457763672</ele>
        <time>2018-03-08T09:31:57+0100</time>
      </trkpt>
      <trkpt lat="47.24138" lon="4.962">
        <ele>362.41864013672</ele>
        <time>2018-03-08T09:32:00+0100</time>
      </trkpt>
      <trkpt lat="47.24137" lon="4.96197">
        <ele>362.39837646484</ele>
        <time>2018-03-08T09:32:03+0100</time>
      </trkpt>
      <trkpt lat="47.24136" lon="4.96193">
        <ele>362.18673706055</ele>
        <time>2018-03-08T09:32:06+0100</time>
      </trkpt>
      <trkpt lat="47.24137" lon="4.96192">
        <ele>361.89819335938</ele>
        <time>2018-03-08T09:32:09+0100</time>
      </trkpt>
      <trkpt lat="47.24136" lon="4.96188">
        <ele>361.61087036133</ele>
        <time>2018-03-08T09:32:12+0100</time>
      </trkpt>
      <trkpt lat="47.24134" lon="4.96184">
        <ele>361.14898681641</ele>
        <time>2018-03-08T09:32:15+0100</time>
      </trkpt>
      <trkpt lat="47.24132" lon="4.96182">
        <ele>360.80166625977</ele>
        <time>2018-03-08T09:32:18+0100</time>
      </trkpt>
      <trkpt lat="47.24131" lon="4.9618">
        <ele>360.31457519531</ele>
        <time>2018-03-08T09:32:21+0100</time>
      </trkpt>
      <trkpt lat="47.2413" lon="4.96179">
        <ele>359.98025512695</ele>
        <time>2018-03-08T09:32:24+0100</time>
      </trkpt>
      <trkpt lat="47.24129" lon="4.96177">
        <ele>359.53298950195</ele>
        <time>2018-03-08T09:32:27+0100</time>
      </trkpt>
      <trkpt lat="47.24129" lon="4.96174">
        <ele>359.24041748047</ele>
        <time>2018-03-08T09:32:30+0100</time>
      </trkpt>
      <trkpt lat="47.24128" lon="4.96172">
        <ele>359.08618164062</ele>
        <time>2018-03-08T09:32:33+0100</time>
      </trkpt>
      <trkpt lat="47.24126" lon="4.96169">
        <ele>358.83554077148</ele>
        <time>2018-03-08T09:32:36+0100</time>
      </trkpt>
      <trkpt lat="47.24124" lon="4.96163">
        <ele>358.46960449219</ele>
        <time>2018-03-08T09:32:39+0100</time>
      </trkpt>
      <trkpt lat="47.24122" lon="4.96158">
        <ele>358.07690429688</ele>
        <time>2018-03-08T09:32:42+0100</time>
      </trkpt>
      <trkpt lat="47.2412" lon="4.96154">
        <ele>357.70230102539</ele>
        <time>2018-03-08T09:32:46+0100</time>
      </trkpt>
      <trkpt lat="47.2412" lon="4.96152">
        <ele>357.4694519043</ele>
        <time>2018-03-08T09:32:49+0100</time>
      </trkpt>
      <trkpt lat="47.24119" lon="4.9615">
        <ele>357.21548461914</ele>
        <time>2018-03-08T09:32:52+0100</time>
      </trkpt>
      <trkpt lat="47.24118" lon="4.96148">
        <ele>357.08880615234</ele>
        <time>2018-03-08T09:32:55+0100</time>
      </trkpt>
      <trkpt lat="47.24117" lon="4.96144">
        <ele>356.95211791992</ele>
        <time>2018-03-08T09:32:58+0100</time>
      </trkpt>
      <trkpt lat="47.24117" lon="4.96142">
        <ele>356.85968017578</ele>
        <time>2018-03-08T09:33:01+0100</time>
      </trkpt>
      <trkpt lat="47.24116" lon="4.96138">
        <ele>356.82525634766</ele>
        <time>2018-03-08T09:33:05+0100</time>
      </trkpt>
      <trkpt lat="47.24115" lon="4.96135">
        <ele>356.87274169922</ele>
        <time>2018-03-08T09:33:08+0100</time>
      </trkpt>
      <trkpt lat="47.24114" lon="4.9613">
        <ele>356.93908691406</ele>
        <time>2018-03-08T09:33:11+0100</time>
      </trkpt>
      <trkpt lat="47.24113" lon="4.96126">
        <ele>357.00714111328</ele>
        <time>2018-03-08T09:33:14+0100</time>
      </trkpt>
      <trkpt lat="47.24112" lon="4.96121">
        <ele>357.08538818359</ele>
        <time>2018-03-08T09:33:17+0100</time>
      </trkpt>
      <trkpt lat="47.24112" lon="4.96117">
        <ele>357.18753051758</ele>
        <time>2018-03-08T09:33:20+0100</time>
      </trkpt>
      <trkpt lat="47.24112" lon="4.96114">
        <ele>357.26354980469</ele>
        <time>2018-03-08T09:33:23+0100</time>
      </trkpt>
      <trkpt lat="47.24111" lon="4.96112">
        <ele>357.36874389648</ele>
        <time>2018-03-08T09:33:26+0100</time>
      </trkpt>
      <trkpt lat="47.24111" lon="4.96107">
        <ele>357.47219848633</ele>
        <time>2018-03-08T09:33:29+0100</time>
      </trkpt>
      <trkpt lat="47.24111" lon="4.96102">
        <ele>357.58453369141</ele>
        <time>2018-03-08T09:33:32+0100</time>
      </trkpt>
      <trkpt lat="47.24111" lon="4.96099">
        <ele>357.71017456055</ele>
        <time>2018-03-08T09:33:35+0100</time>
      </trkpt>
      <trkpt lat="47.24111" lon="4.96095">
        <ele>357.85073852539</ele>
        <time>2018-03-08T09:33:38+0100</time>
      </trkpt>
      <trkpt lat="47.2411" lon="4.96091">
        <ele>357.99749755859</ele>
        <time>2018-03-08T09:33:41+0100</time>
      </trkpt>
      <trkpt lat="47.2411" lon="4.96087">
        <ele>358.10934448242</ele>
        <time>2018-03-08T09:33:44+0100</time>
      </trkpt>
      <trkpt lat="47.24109" lon="4.96083">
        <ele>358.26132202148</ele>
        <time>2018-03-08T09:33:47+0100</time>
      </trkpt>
      <trkpt lat="47.24108" lon="4.9608">
        <ele>358.47583007812</ele>
        <time>2018-03-08T09:33:50+0100</time>
      </trkpt>
      <trkpt lat="47.24107" lon="4.96076">
        <ele>358.71643066406</ele>
        <time>2018-03-08T09:33:53+0100</time>
      </trkpt>
      <trkpt lat="47.24106" lon="4.9607">
        <ele>358.97473144531</ele>
        <time>2018-03-08T09:33:56+0100</time>
      </trkpt>
      <trkpt lat="47.24105" lon="4.96066">
        <ele>359.162109375</ele>
        <time>2018-03-08T09:33:59+0100</time>
      </trkpt>
      <trkpt lat="47.24104" lon="4.96062">
        <ele>359.43872070312</ele>
        <time>2018-03-08T09:34:02+0100</time>
      </trkpt>
      <trkpt lat="47.24103" lon="4.96056">
        <ele>359.67840576172</ele>
        <time>2018-03-08T09:34:05+0100</time>
      </trkpt>
      <trkpt lat="47.24102" lon="4.96052">
        <ele>359.92120361328</ele>
        <time>2018-03-08T09:34:08+0100</time>
      </trkpt>
      <trkpt lat="47.24101" lon="4.96049">
        <ele>360.17562866211</ele>
        <time>2018-03-08T09:34:11+0100</time>
      </trkpt>
      <trkpt lat="47.241" lon="4.96045">
        <ele>360.42785644531</ele>
        <time>2018-03-08T09:34:14+0100</time>
      </trkpt>
      <trkpt lat="47.241" lon="4.96041">
        <ele>360.67984008789</ele>
        <time>2018-03-08T09:34:17+0100</time>
      </trkpt>
      <trkpt lat="47.24099" lon="4.96036">
        <ele>360.93902587891</ele>
        <time>2018-03-08T09:34:20+0100</time>
      </trkpt>
      <trkpt lat="47.24099" lon="4.96032">
        <ele>361.11337280273</ele>
        <time>2018-03-08T09:34:23+0100</time>
      </trkpt>
      <trkpt lat="47.24098" lon="4.96028">
        <ele>361.35803222656</ele>
        <time>2018-03-08T09:34:26+0100</time>
      </trkpt>
      <trkpt lat="47.24098" lon="4.96022">
        <ele>361.59963989258</ele>
        <time>2018-03-08T09:34:29+0100</time>
      </trkpt>
      <trkpt lat="47.24098" lon="4.96019">
        <ele>361.8239440918</ele>
        <time>2018-03-08T09:34:32+0100</time>
      </trkpt>
      <trkpt lat="47.24098" lon="4.96016">
        <ele>361.95544433594</ele>
        <time>2018-03-08T09:34:35+0100</time>
      </trkpt>
      <trkpt lat="47.24098" lon="4.9601">
        <ele>362.0959777832</ele>
        <time>2018-03-08T09:34:38+0100</time>
      </trkpt>
      <trkpt lat="47.24097" lon="4.96006">
        <ele>362.22259521484</ele>
        <time>2018-03-08T09:34:41+0100</time>
      </trkpt>
      <trkpt lat="47.24096" lon="4.96002">
        <ele>362.35708618164</ele>
        <time>2018-03-08T09:34:44+0100</time>
      </trkpt>
      <trkpt lat="47.24096" lon="4.95998">
        <ele>362.44427490234</ele>
        <time>2018-03-08T09:34:47+0100</time>
      </trkpt>
      <trkpt lat="47.24096" lon="4.95994">
        <ele>362.5641784668</ele>
        <time>2018-03-08T09:34:50+0100</time>
      </trkpt>
      <trkpt lat="47.24095" lon="4.9599">
        <ele>362.66445922852</ele>
        <time>2018-03-08T09:34:53+0100</time>
      </trkpt>
      <trkpt lat="47.24095" lon="4.95988">
        <ele>362.71072387695</ele>
        <time>2018-03-08T09:34:56+0100</time>
      </trkpt>
      <trkpt lat="47.24095" lon="4.95985">
        <ele>362.76846313477</ele>
        <time>2018-03-08T09:34:59+0100</time>
      </trkpt>
      <trkpt lat="47.24095" lon="4.95982">
        <ele>362.81192016602</ele>
        <time>2018-03-08T09:35:02+0100</time>
      </trkpt>
      <trkpt lat="47.24094" lon="4.95977">
        <ele>362.82025146484</ele>
        <time>2018-03-08T09:35:05+0100</time>
      </trkpt>
      <trkpt lat="47.24094" lon="4.95974">
        <ele>362.79672241211</ele>
        <time>2018-03-08T09:35:08+0100</time>
      </trkpt>
      <trkpt lat="47.24094" lon="4.9597">
        <ele>362.78002929688</ele>
        <time>2018-03-08T09:35:11+0100</time>
      </trkpt>
      <trkpt lat="47.24093" lon="4.95967">
        <ele>362.78021240234</ele>
        <time>2018-03-08T09:35:14+0100</time>
      </trkpt>
      <trkpt lat="47.24093" lon="4.95962">
        <ele>362.78302001953</ele>
        <time>2018-03-08T09:35:17+0100</time>
      </trkpt>
      <trkpt lat="47.24093" lon="4.95958">
        <ele>362.83197021484</ele>
        <time>2018-03-08T09:35:20+0100</time>
      </trkpt>
      <trkpt lat="47.24093" lon="4.95954">
        <ele>362.90927124023</ele>
        <time>2018-03-08T09:35:23+0100</time>
      </trkpt>
      <trkpt lat="47.24093" lon="4.9595">
        <ele>362.98052978516</ele>
        <time>2018-03-08T09:35:26+0100</time>
      </trkpt>
      <trkpt lat="47.24092" lon="4.95948">
        <ele>363.02835083008</ele>
        <time>2018-03-08T09:35:29+0100</time>
      </trkpt>
      <trkpt lat="47.24093" lon="4.95946">
        <ele>363.09295654297</ele>
        <time>2018-03-08T09:35:32+0100</time>
      </trkpt>
      <trkpt lat="47.24092" lon="4.95944">
        <ele>363.12478637695</ele>
        <time>2018-03-08T09:35:35+0100</time>
      </trkpt>
      <trkpt lat="47.24093" lon="4.95943">
        <ele>363.12356567383</ele>
        <time>2018-03-08T09:35:38+0100</time>
      </trkpt>
      <trkpt lat="47.24093" lon="4.95942">
        <ele>363.14709472656</ele>
        <time>2018-03-08T09:35:41+0100</time>
      </trkpt>
      <trkpt lat="47.24093" lon="4.95941">
        <ele>363.1513671875</ele>
        <time>2018-03-08T09:35:44+0100</time>
      </trkpt>
      <trkpt lat="47.24093" lon="4.95941">
        <ele>363.15487670898</ele>
        <time>2018-03-08T09:35:47+0100</time>
      </trkpt>
      <trkpt lat="47.24093" lon="4.9594">
        <ele>363.15725708008</ele>
        <time>2018-03-08T09:35:50+0100</time>
      </trkpt>
      <trkpt lat="47.24092" lon="4.95939">
        <ele>363.1530456543</ele>
        <time>2018-03-08T09:35:53+0100</time>
      </trkpt>
      <trkpt lat="47.24094" lon="4.95934">
        <ele>363.04513549805</ele>
        <time>2018-03-08T09:35:56+0100</time>
      </trkpt>
      <trkpt lat="47.24094" lon="4.95929">
        <ele>362.98150634766</ele>
        <time>2018-03-08T09:35:59+0100</time>
      </trkpt>
      <trkpt lat="47.24094" lon="4.95926">
        <ele>362.97036743164</ele>
        <time>2018-03-08T09:36:02+0100</time>
      </trkpt>
      <trkpt lat="47.24094" lon="4.95926">
        <ele>362.95623779297</ele>
        <time>2018-03-08T09:36:05+0100</time>
      </trkpt>
      <trkpt lat="47.24094" lon="4.95926">
        <ele>362.93588256836</ele>
        <time>2018-03-08T09:36:08+0100</time>
      </trkpt>
      <trkpt lat="47.24094" lon="4.95925">
        <ele>362.90829467773</ele>
        <time>2018-03-08T09:36:11+0100</time>
      </trkpt>
      <trkpt lat="47.24094" lon="4.95925">
        <ele>362.87750244141</ele>
        <time>2018-03-08T09:36:14+0100</time>
      </trkpt>
      <trkpt lat="47.24094" lon="4.95924">
        <ele>362.84115600586</ele>
        <time>2018-03-08T09:36:17+0100</time>
      </trkpt>
      <trkpt lat="47.24094" lon="4.95924">
        <ele>362.79827880859</ele>
        <time>2018-03-08T09:36:20+0100</time>
      </trkpt>
      <trkpt lat="47.24094" lon="4.95923">
        <ele>362.74905395508</ele>
        <time>2018-03-08T09:36:23+0100</time>
      </trkpt>
      <trkpt lat="47.24094" lon="4.95922">
        <ele>362.6953125</ele>
        <time>2018-03-08T09:36:26+0100</time>
      </trkpt>
      <trkpt lat="47.24094" lon="4.95922">
        <ele>362.63568115234</ele>
        <time>2018-03-08T09:36:29+0100</time>
      </trkpt>
      <trkpt lat="47.24096" lon="4.9592">
        <ele>362.56677246094</ele>
        <time>2018-03-08T09:36:32+0100</time>
      </trkpt>
      <trkpt lat="47.24097" lon="4.95915">
        <ele>362.24835205078</ele>
        <time>2018-03-08T09:36:35+0100</time>
      </trkpt>
      <trkpt lat="47.24098" lon="4.95913">
        <ele>362.14874267578</ele>
        <time>2018-03-08T09:36:38+0100</time>
      </trkpt>
      <trkpt lat="47.24098" lon="4.95911">
        <ele>361.16839599609</ele>
        <time>2018-03-08T09:36:41+0100</time>
      </trkpt>
      <trkpt lat="47.24098" lon="4.9591">
        <ele>360.78634643555</ele>
        <time>2018-03-08T09:36:44+0100</time>
      </trkpt>
      <trkpt lat="47.24098" lon="4.95907">
        <ele>360.19540405273</ele>
        <time>2018-03-08T09:36:47+0100</time>
      </trkpt>
      <trkpt lat="47.24098" lon="4.95907">
        <ele>359.85922241211</ele>
        <time>2018-03-08T09:36:50+0100</time>
      </trkpt>
      <trkpt lat="47.24099" lon="4.95907">
        <ele>359.50634765625</ele>
        <time>2018-03-08T09:36:53+0100</time>
      </trkpt>
      <trkpt lat="47.24098" lon="4.95906">
        <ele>358.97937011719</ele>
        <time>2018-03-08T09:36:56+0100</time>
      </trkpt>
      <trkpt lat="47.24097" lon="4.95906">
        <ele>358.57598876953</ele>
        <time>2018-03-08T09:36:59+0100</time>
      </trkpt>
      <trkpt lat="47.24097" lon="4.95907">
        <ele>358.24990844727</ele>
        <time>2018-03-08T09:37:02+0100</time>
      </trkpt>
      <trkpt lat="47.24097" lon="4.95908">
        <ele>358.08020019531</ele>
        <time>2018-03-08T09:37:05+0100</time>
      </trkpt>
      <trkpt lat="47.24098" lon="4.95911">
        <ele>357.95391845703</ele>
        <time>2018-03-08T09:37:08+0100</time>
      </trkpt>
      <trkpt lat="47.24098" lon="4.95912">
        <ele>357.77136230469</ele>
        <time>2018-03-08T09:37:11+0100</time>
      </trkpt>
      <trkpt lat="47.24095" lon="4.95912">
        <ele>357.57730102539</ele>
        <time>2018-03-08T09:37:14+0100</time>
      </trkpt>
      <trkpt lat="47.24092" lon="4.95915">
        <ele>357.57299804688</ele>
        <time>2018-03-08T09:37:17+0100</time>
      </trkpt>
      <trkpt lat="47.24094" lon="4.95921">
        <ele>357.53668212891</ele>
        <time>2018-03-08T09:37:20+0100</time>
      </trkpt>
      <trkpt lat="47.24093" lon="4.95922">
        <ele>357.49838256836</ele>
        <time>2018-03-08T09:37:23+0100</time>
      </trkpt>
      <trkpt lat="47.24093" lon="4.95924">
        <ele>357.49725341797</ele>
        <time>2018-03-08T09:37:26+0100</time>
      </trkpt>
      <trkpt lat="47.2409" lon="4.95926">
        <ele>357.55865478516</ele>
        <time>2018-03-08T09:37:29+0100</time>
      </trkpt>
      <trkpt lat="47.24085" lon="4.9593">
        <ele>357.70919799805</ele>
        <time>2018-03-08T09:37:32+0100</time>
      </trkpt>
      <trkpt lat="47.24081" lon="4.95938">
        <ele>357.78146362305</ele>
        <time>2018-03-08T09:37:35+0100</time>
      </trkpt>
      <trkpt lat="47.24081" lon="4.95942">
        <ele>357.75991821289</ele>
        <time>2018-03-08T09:37:38+0100</time>
      </trkpt>
      <trkpt lat="47.2408" lon="4.95945">
        <ele>357.71615600586</ele>
        <time>2018-03-08T09:37:41+0100</time>
      </trkpt>
      <trkpt lat="47.24079" lon="4.95946">
        <ele>357.61505126953</ele>
        <time>2018-03-08T09:37:44+0100</time>
      </trkpt>
      <trkpt lat="47.24078" lon="4.95948">
        <ele>357.54870605469</ele>
        <time>2018-03-08T09:37:47+0100</time>
      </trkpt>
      <trkpt lat="47.24077" lon="4.95952">
        <ele>357.40899658203</ele>
        <time>2018-03-08T09:37:50+0100</time>
      </trkpt>
      <trkpt lat="47.24072" lon="4.95957">
        <ele>357.14950561523</ele>
        <time>2018-03-08T09:37:53+0100</time>
      </trkpt>
      <trkpt lat="47.24069" lon="4.9596">
        <ele>356.93020629883</ele>
        <time>2018-03-08T09:37:56+0100</time>
      </trkpt>
      <trkpt lat="47.24066" lon="4.95967">
        <ele>356.75405883789</ele>
        <time>2018-03-08T09:37:59+0100</time>
      </trkpt>
      <trkpt lat="47.24063" lon="4.95972">
        <ele>356.49264526367</ele>
        <time>2018-03-08T09:38:02+0100</time>
      </trkpt>
      <trkpt lat="47.24061" lon="4.95976">
        <ele>356.24490356445</ele>
        <time>2018-03-08T09:38:05+0100</time>
      </trkpt>
      <trkpt lat="47.2406" lon="4.9598">
        <ele>356.05172729492</ele>
        <time>2018-03-08T09:38:08+0100</time>
      </trkpt>
      <trkpt lat="47.24058" lon="4.95987">
        <ele>355.85931396484</ele>
        <time>2018-03-08T09:38:11+0100</time>
      </trkpt>
      <trkpt lat="47.24057" lon="4.95994">
        <ele>355.77340698242</ele>
        <time>2018-03-08T09:38:14+0100</time>
      </trkpt>
      <trkpt lat="47.24056" lon="4.96">
        <ele>355.77099609375</ele>
        <time>2018-03-08T09:38:17+0100</time>
      </trkpt>
      <trkpt lat="47.24055" lon="4.96008">
        <ele>355.89965820312</ele>
        <time>2018-03-08T09:38:20+0100</time>
      </trkpt>
      <trkpt lat="47.24054" lon="4.96012">
        <ele>356.10372924805</ele>
        <time>2018-03-08T09:38:23+0100</time>
      </trkpt>
      <trkpt lat="47.24054" lon="4.96015">
        <ele>356.26901245117</ele>
        <time>2018-03-08T09:38:26+0100</time>
      </trkpt>
      <trkpt lat="47.24055" lon="4.9602">
        <ele>356.44021606445</ele>
        <time>2018-03-08T09:38:29+0100</time>
      </trkpt>
      <trkpt lat="47.24056" lon="4.96024">
        <ele>356.53823852539</ele>
        <time>2018-03-08T09:38:32+0100</time>
      </trkpt>
      <trkpt lat="47.24056" lon="4.96029">
        <ele>356.57037353516</ele>
        <time>2018-03-08T09:38:35+0100</time>
      </trkpt>
      <trkpt lat="47.24056" lon="4.96037">
        <ele>356.6272277832</ele>
        <time>2018-03-08T09:38:38+0100</time>
      </trkpt>
      <trkpt lat="47.24056" lon="4.96042">
        <ele>356.66735839844</ele>
        <time>2018-03-08T09:38:41+0100</time>
      </trkpt>
      <trkpt lat="47.24057" lon="4.96044">
        <ele>356.64605712891</ele>
        <time>2018-03-08T09:38:44+0100</time>
      </trkpt>
      <trkpt lat="47.24058" lon="4.96047">
        <ele>356.62359619141</ele>
        <time>2018-03-08T09:38:47+0100</time>
      </trkpt>
      <trkpt lat="47.24058" lon="4.96052">
        <ele>356.58560180664</ele>
        <time>2018-03-08T09:38:50+0100</time>
      </trkpt>
      <trkpt lat="47.24059" lon="4.96055">
        <ele>356.50430297852</ele>
        <time>2018-03-08T09:38:53+0100</time>
      </trkpt>
      <trkpt lat="47.24058" lon="4.96059">
        <ele>356.36563110352</ele>
        <time>2018-03-08T09:38:56+0100</time>
      </trkpt>
      <trkpt lat="47.24058" lon="4.96062">
        <ele>356.18579101562</ele>
        <time>2018-03-08T09:38:59+0100</time>
      </trkpt>
      <trkpt lat="47.24059" lon="4.96068">
        <ele>355.955078125</ele>
        <time>2018-03-08T09:39:02+0100</time>
      </trkpt>
      <trkpt lat="47.24059" lon="4.96069">
        <ele>355.7321472168</ele>
        <time>2018-03-08T09:39:05+0100</time>
      </trkpt>
      <trkpt lat="47.2406" lon="4.96075">
        <ele>355.56344604492</ele>
        <time>2018-03-08T09:39:08+0100</time>
      </trkpt>
      <trkpt lat="47.24061" lon="4.96082">
        <ele>355.33770751953</ele>
        <time>2018-03-08T09:39:11+0100</time>
      </trkpt>
      <trkpt lat="47.24061" lon="4.96086">
        <ele>355.18414306641</ele>
        <time>2018-03-08T09:39:14+0100</time>
      </trkpt>
      <trkpt lat="47.24061" lon="4.96094">
        <ele>354.92379760742</ele>
        <time>2018-03-08T09:39:17+0100</time>
      </trkpt>
      <trkpt lat="47.24062" lon="4.96099">
        <ele>354.59527587891</ele>
        <time>2018-03-08T09:39:20+0100</time>
      </trkpt>
      <trkpt lat="47.24062" lon="4.96102">
        <ele>354.32391357422</ele>
        <time>2018-03-08T09:39:23+0100</time>
      </trkpt>
      <trkpt lat="47.24061" lon="4.96106">
        <ele>354.02438354492</ele>
        <time>2018-03-08T09:39:26+0100</time>
      </trkpt>
      <trkpt lat="47.2406" lon="4.96109">
        <ele>353.84970092773</ele>
        <time>2018-03-08T09:39:29+0100</time>
      </trkpt>
      <trkpt lat="47.24059" lon="4.96114">
        <ele>353.40899658203</ele>
        <time>2018-03-08T09:39:32+0100</time>
      </trkpt>
      <trkpt lat="47.24058" lon="4.96121">
        <ele>353.07730102539</ele>
        <time>2018-03-08T09:39:35+0100</time>
      </trkpt>
      <trkpt lat="47.24058" lon="4.96126">
        <ele>352.69372558594</ele>
        <time>2018-03-08T09:39:38+0100</time>
      </trkpt>
      <trkpt lat="47.24058" lon="4.96133">
        <ele>352.07611083984</ele>
        <time>2018-03-08T09:39:41+0100</time>
      </trkpt>
      <trkpt lat="47.24058" lon="4.96138">
        <ele>351.40942382812</ele>
        <time>2018-03-08T09:39:44+0100</time>
      </trkpt>
      <trkpt lat="47.24059" lon="4.96142">
        <ele>350.88665771484</ele>
        <time>2018-03-08T09:39:47+0100</time>
      </trkpt>
      <trkpt lat="47.24059" lon="4.96147">
        <ele>350.09191894531</ele>
        <time>2018-03-08T09:39:50+0100</time>
      </trkpt>
      <trkpt lat="47.24059" lon="4.9615">
        <ele>349.33438110352</ele>
        <time>2018-03-08T09:39:53+0100</time>
      </trkpt>
      <trkpt lat="47.24059" lon="4.96156">
        <ele>348.64721679688</ele>
        <time>2018-03-08T09:39:56+0100</time>
      </trkpt>
      <trkpt lat="47.24058" lon="4.96161">
        <ele>347.90139770508</ele>
        <time>2018-03-08T09:39:59+0100</time>
      </trkpt>
      <trkpt lat="47.24057" lon="4.96166">
        <ele>347.41497802734</ele>
        <time>2018-03-08T09:40:02+0100</time>
      </trkpt>
      <trkpt lat="47.24057" lon="4.9617">
        <ele>346.87725830078</ele>
        <time>2018-03-08T09:40:05+0100</time>
      </trkpt>
      <trkpt lat="47.24057" lon="4.96174">
        <ele>346.65145874023</ele>
        <time>2018-03-08T09:40:08+0100</time>
      </trkpt>
      <trkpt lat="47.24057" lon="4.96181">
        <ele>346.40780639648</ele>
        <time>2018-03-08T09:40:11+0100</time>
      </trkpt>
      <trkpt lat="47.24057" lon="4.96186">
        <ele>346.20843505859</ele>
        <time>2018-03-08T09:40:14+0100</time>
      </trkpt>
      <trkpt lat="47.24056" lon="4.96189">
        <ele>346.02395629883</ele>
        <time>2018-03-08T09:40:17+0100</time>
      </trkpt>
      <trkpt lat="47.24055" lon="4.96196">
        <ele>345.91580200195</ele>
        <time>2018-03-08T09:40:20+0100</time>
      </trkpt>
      <trkpt lat="47.24054" lon="4.96199">
        <ele>345.80282592773</ele>
        <time>2018-03-08T09:40:23+0100</time>
      </trkpt>
      <trkpt lat="47.24053" lon="4.96201">
        <ele>345.76159667969</ele>
        <time>2018-03-08T09:40:26+0100</time>
      </trkpt>
      <trkpt lat="47.24053" lon="4.96202">
        <ele>345.80877685547</ele>
        <time>2018-03-08T09:40:29+0100</time>
      </trkpt>
      <trkpt lat="47.24051" lon="4.96204">
        <ele>345.87377929688</ele>
        <time>2018-03-08T09:40:32+0100</time>
      </trkpt>
      <trkpt lat="47.24051" lon="4.96208">
        <ele>346.05120849609</ele>
        <time>2018-03-08T09:40:35+0100</time>
      </trkpt>
      <trkpt lat="47.24051" lon="4.9621">
        <ele>346.23132324219</ele>
        <time>2018-03-08T09:40:38+0100</time>
      </trkpt>
      <trkpt lat="47.2405" lon="4.96212">
        <ele>346.53106689453</ele>
        <time>2018-03-08T09:40:41+0100</time>
      </trkpt>
      <trkpt lat="47.2405" lon="4.96216">
        <ele>346.83804321289</ele>
        <time>2018-03-08T09:40:44+0100</time>
      </trkpt>
      <trkpt lat="47.2405" lon="4.9622">
        <ele>347.05911254883</ele>
        <time>2018-03-08T09:40:47+0100</time>
      </trkpt>
      <trkpt lat="47.2405" lon="4.96224">
        <ele>347.30654907227</ele>
        <time>2018-03-08T09:40:50+0100</time>
      </trkpt>
      <trkpt lat="47.2405" lon="4.96226">
        <ele>347.47439575195</ele>
        <time>2018-03-08T09:40:53+0100</time>
      </trkpt>
      <trkpt lat="47.2405" lon="4.96229">
        <ele>347.73278808594</ele>
        <time>2018-03-08T09:40:56+0100</time>
      </trkpt>
      <trkpt lat="47.24049" lon="4.96236">
        <ele>348.11224365234</ele>
        <time>2018-03-08T09:40:59+0100</time>
      </trkpt>
      <trkpt lat="47.24048" lon="4.96244">
        <ele>348.47616577148</ele>
        <time>2018-03-08T09:41:02+0100</time>
      </trkpt>
      <trkpt lat="47.24049" lon="4.96246">
        <ele>349.02612304688</ele>
        <time>2018-03-08T09:41:05+0100</time>
      </trkpt>
      <trkpt lat="47.24049" lon="4.96252">
        <ele>349.65283203125</ele>
        <time>2018-03-08T09:41:08+0100</time>
      </trkpt>
      <trkpt lat="47.2405" lon="4.96257">
        <ele>350.33999633789</ele>
        <time>2018-03-08T09:41:11+0100</time>
      </trkpt>
      <trkpt lat="47.2405" lon="4.96262">
        <ele>351.00192260742</ele>
        <time>2018-03-08T09:41:14+0100</time>
      </trkpt>
      <trkpt lat="47.2405" lon="4.96266">
        <ele>351.61676025391</ele>
        <time>2018-03-08T09:41:17+0100</time>
      </trkpt>
      <trkpt lat="47.24049" lon="4.9627">
        <ele>352.205078125</ele>
        <time>2018-03-08T09:41:20+0100</time>
      </trkpt>
      <trkpt lat="47.24049" lon="4.96272">
        <ele>352.75155639648</ele>
        <time>2018-03-08T09:41:23+0100</time>
      </trkpt>
      <trkpt lat="47.24051" lon="4.96276">
        <ele>353.26129150391</ele>
        <time>2018-03-08T09:41:26+0100</time>
      </trkpt>
      <trkpt lat="47.24052" lon="4.96282">
        <ele>353.666015625</ele>
        <time>2018-03-08T09:41:29+0100</time>
      </trkpt>
      <trkpt lat="47.24051" lon="4.96287">
        <ele>353.88952636719</ele>
        <time>2018-03-08T09:41:32+0100</time>
      </trkpt>
      <trkpt lat="47.24052" lon="4.96294">
        <ele>354.05981445312</ele>
        <time>2018-03-08T09:41:35+0100</time>
      </trkpt>
      <trkpt lat="47.24053" lon="4.96301">
        <ele>354.11569213867</ele>
        <time>2018-03-08T09:41:38+0100</time>
      </trkpt>
      <trkpt lat="47.24053" lon="4.96306">
        <ele>354.08364868164</ele>
        <time>2018-03-08T09:41:41+0100</time>
      </trkpt>
      <trkpt lat="47.24052" lon="4.96313">
        <ele>353.96472167969</ele>
        <time>2018-03-08T09:41:44+0100</time>
      </trkpt>
      <trkpt lat="47.24051" lon="4.96317">
        <ele>353.77578735352</ele>
        <time>2018-03-08T09:41:47+0100</time>
      </trkpt>
      <trkpt lat="47.2405" lon="4.96323">
        <ele>353.67889404297</ele>
        <time>2018-03-08T09:41:50+0100</time>
      </trkpt>
      <trkpt lat="47.24051" lon="4.96328">
        <ele>353.57238769531</ele>
        <time>2018-03-08T09:41:53+0100</time>
      </trkpt>
      <trkpt lat="47.24052" lon="4.96333">
        <ele>353.34344482422</ele>
        <time>2018-03-08T09:41:56+0100</time>
      </trkpt>
      <trkpt lat="47.24053" lon="4.96336">
        <ele>353.14590454102</ele>
        <time>2018-03-08T09:41:59+0100</time>
      </trkpt>
      <trkpt lat="47.24053" lon="4.96341">
        <ele>352.94714355469</ele>
        <time>2018-03-08T09:42:02+0100</time>
      </trkpt>
      <trkpt lat="47.24053" lon="4.96345">
        <ele>352.75720214844</ele>
        <time>2018-03-08T09:42:05+0100</time>
      </trkpt>
      <trkpt lat="47.24055" lon="4.96347">
        <ele>352.48928833008</ele>
        <time>2018-03-08T09:42:08+0100</time>
      </trkpt>
      <trkpt lat="47.24055" lon="4.96349">
        <ele>352.15921020508</ele>
        <time>2018-03-08T09:42:11+0100</time>
      </trkpt>
      <trkpt lat="47.24055" lon="4.96352">
        <ele>351.78637695312</ele>
        <time>2018-03-08T09:42:14+0100</time>
      </trkpt>
      <trkpt lat="47.24057" lon="4.96353">
        <ele>351.31301879883</ele>
        <time>2018-03-08T09:42:17+0100</time>
      </trkpt>
      <trkpt lat="47.24057" lon="4.96354">
        <ele>350.77767944336</ele>
        <time>2018-03-08T09:42:20+0100</time>
      </trkpt>
      <trkpt lat="47.24056" lon="4.96354">
        <ele>350.23965454102</ele>
        <time>2018-03-08T09:42:23+0100</time>
      </trkpt>
      <trkpt lat="47.24054" lon="4.96358">
        <ele>349.89358520508</ele>
        <time>2018-03-08T09:42:26+0100</time>
      </trkpt>
      <trkpt lat="47.24053" lon="4.9636">
        <ele>349.55419921875</ele>
        <time>2018-03-08T09:42:29+0100</time>
      </trkpt>
      <trkpt lat="47.24053" lon="4.96363">
        <ele>349.0920715332</ele>
        <time>2018-03-08T09:42:32+0100</time>
      </trkpt>
      <trkpt lat="47.24053" lon="4.96368">
        <ele>348.79556274414</ele>
        <time>2018-03-08T09:42:35+0100</time>
      </trkpt>
      <trkpt lat="47.24051" lon="4.96372">
        <ele>348.50051879883</ele>
        <time>2018-03-08T09:42:38+0100</time>
      </trkpt>
      <trkpt lat="47.24051" lon="4.96375">
        <ele>348.21340942383</ele>
        <time>2018-03-08T09:42:41+0100</time>
      </trkpt>
      <trkpt lat="47.2405" lon="4.96381">
        <ele>347.8359375</ele>
        <time>2018-03-08T09:42:44+0100</time>
      </trkpt>
      <trkpt lat="47.24049" lon="4.96384">
        <ele>347.57864379883</ele>
        <time>2018-03-08T09:42:47+0100</time>
      </trkpt>
      <trkpt lat="47.2405" lon="4.96387">
        <ele>347.24911499023</ele>
        <time>2018-03-08T09:42:50+0100</time>
      </trkpt>
      <trkpt lat="47.2405" lon="4.9639">
        <ele>347.20147705078</ele>
        <time>2018-03-08T09:42:53+0100</time>
      </trkpt>
      <trkpt lat="47.2405" lon="4.96392">
        <ele>347.11993408203</ele>
        <time>2018-03-08T09:42:56+0100</time>
      </trkpt>
      <trkpt lat="47.2405" lon="4.96393">
        <ele>347.01275634766</ele>
        <time>2018-03-08T09:42:59+0100</time>
      </trkpt>
      <trkpt lat="47.2405" lon="4.96393">
        <ele>346.88684082031</ele>
        <time>2018-03-08T09:43:02+0100</time>
      </trkpt>
      <trkpt lat="47.24051" lon="4.96397">
        <ele>345.97830200195</ele>
        <time>2018-03-08T09:43:05+0100</time>
      </trkpt>
      <trkpt lat="47.24053" lon="4.96403">
        <ele>345.05786132812</ele>
        <time>2018-03-08T09:43:08+0100</time>
      </trkpt>
      <trkpt lat="47.24053" lon="4.96403">
        <ele>344.92330932617</ele>
        <time>2018-03-08T09:43:11+0100</time>
      </trkpt>
      <trkpt lat="47.24054" lon="4.96404">
        <ele>344.8112487793</ele>
        <time>2018-03-08T09:43:14+0100</time>
      </trkpt>
      <trkpt lat="47.24056" lon="4.9641">
        <ele>344.48977661133</ele>
        <time>2018-03-08T09:43:17+0100</time>
      </trkpt>
      <trkpt lat="47.24057" lon="4.96413">
        <ele>344.45288085938</ele>
        <time>2018-03-08T09:43:20+0100</time>
      </trkpt>
      <trkpt lat="47.24057" lon="4.96414">
        <ele>344.43005371094</ele>
        <time>2018-03-08T09:43:23+0100</time>
      </trkpt>
      <trkpt lat="47.24057" lon="4.96414">
        <ele>344.40795898438</ele>
        <time>2018-03-08T09:43:26+0100</time>
      </trkpt>
      <trkpt lat="47.24057" lon="4.96414">
        <ele>344.37826538086</ele>
        <time>2018-03-08T09:43:29+0100</time>
      </trkpt>
      <trkpt lat="47.24057" lon="4.96414">
        <ele>344.33895874023</ele>
        <time>2018-03-08T09:43:32+0100</time>
      </trkpt>
      <trkpt lat="47.24057" lon="4.96415">
        <ele>344.29690551758</ele>
        <time>2018-03-08T09:43:35+0100</time>
      </trkpt>
      <trkpt lat="47.24057" lon="4.96415">
        <ele>344.24655151367</ele>
        <time>2018-03-08T09:43:38+0100</time>
      </trkpt>
      <trkpt lat="47.24057" lon="4.96415">
        <ele>344.18338012695</ele>
        <time>2018-03-08T09:43:41+0100</time>
      </trkpt>
      <trkpt lat="47.24057" lon="4.96415">
        <ele>344.11239624023</ele>
        <time>2018-03-08T09:43:44+0100</time>
      </trkpt>
      <trkpt lat="47.24057" lon="4.96415">
        <ele>344.03979492188</ele>
        <time>2018-03-08T09:43:47+0100</time>
      </trkpt>
      <trkpt lat="47.24057" lon="4.96416">
        <ele>343.96542358398</ele>
        <time>2018-03-08T09:43:50+0100</time>
      </trkpt>
      <trkpt lat="47.24057" lon="4.96416">
        <ele>343.88885498047</ele>
        <time>2018-03-08T09:43:53+0100</time>
      </trkpt>
      <trkpt lat="47.24056" lon="4.96416">
        <ele>343.81292724609</ele>
        <time>2018-03-08T09:43:56+0100</time>
      </trkpt>
      <trkpt lat="47.24056" lon="4.96416">
        <ele>343.73825073242</ele>
        <time>2018-03-08T09:43:59+0100</time>
      </trkpt>
      <trkpt lat="47.24056" lon="4.96416">
        <ele>343.6662902832</ele>
        <time>2018-03-08T09:44:02+0100</time>
      </trkpt>
      <trkpt lat="47.24056" lon="4.96416">
        <ele>343.58953857422</ele>
        <time>2018-03-08T09:44:05+0100</time>
      </trkpt>
      <trkpt lat="47.24056" lon="4.96416">
        <ele>343.50579833984</ele>
        <time>2018-03-08T09:44:08+0100</time>
      </trkpt>
      <trkpt lat="47.24056" lon="4.96416">
        <ele>343.416015625</ele>
        <time>2018-03-08T09:44:11+0100</time>
      </trkpt>
      <trkpt lat="47.24056" lon="4.96417">
        <ele>343.32928466797</ele>
        <time>2018-03-08T09:44:14+0100</time>
      </trkpt>
      <trkpt lat="47.24056" lon="4.96417">
        <ele>343.23873901367</ele>
        <time>2018-03-08T09:44:17+0100</time>
      </trkpt>
      <trkpt lat="47.24056" lon="4.96417">
        <ele>343.14797973633</ele>
        <time>2018-03-08T09:44:20+0100</time>
      </trkpt>
      <trkpt lat="47.24057" lon="4.96417">
        <ele>343.05645751953</ele>
        <time>2018-03-08T09:44:23+0100</time>
      </trkpt>
      <trkpt lat="47.24057" lon="4.96418">
        <ele>342.96588134766</ele>
        <time>2018-03-08T09:44:26+0100</time>
      </trkpt>
      <trkpt lat="47.24056" lon="4.96418">
        <ele>342.87747192383</ele>
        <time>2018-03-08T09:44:29+0100</time>
      </trkpt>
      <trkpt lat="47.24056" lon="4.96418">
        <ele>342.79000854492</ele>
        <time>2018-03-08T09:44:32+0100</time>
      </trkpt>
      <trkpt lat="47.24057" lon="4.96418">
        <ele>342.69717407227</ele>
        <time>2018-03-08T09:44:35+0100</time>
      </trkpt>
      <trkpt lat="47.24057" lon="4.96419">
        <ele>342.59759521484</ele>
        <time>2018-03-08T09:44:38+0100</time>
      </trkpt>
      <trkpt lat="47.24057" lon="4.96419">
        <ele>342.50122070312</ele>
        <time>2018-03-08T09:44:41+0100</time>
      </trkpt>
      <trkpt lat="47.24057" lon="4.96419">
        <ele>342.40991210938</ele>
        <time>2018-03-08T09:44:44+0100</time>
      </trkpt>
      <trkpt lat="47.24056" lon="4.96422">
        <ele>342.32998657227</ele>
        <time>2018-03-08T09:44:47+0100</time>
      </trkpt>
      <trkpt lat="47.24056" lon="4.96423">
        <ele>342.25332641602</ele>
        <time>2018-03-08T09:44:50+0100</time>
      </trkpt>
      <trkpt lat="47.24056" lon="4.96423">
        <ele>342.18023681641</ele>
        <time>2018-03-08T09:44:53+0100</time>
      </trkpt>
      <trkpt lat="47.24056" lon="4.96423">
        <ele>342.11016845703</ele>
        <time>2018-03-08T09:44:56+0100</time>
      </trkpt>
      <trkpt lat="47.24056" lon="4.96423">
        <ele>342.04187011719</ele>
        <time>2018-03-08T09:44:59+0100</time>
      </trkpt>
      <trkpt lat="47.24056" lon="4.96424">
        <ele>341.9787902832</ele>
        <time>2018-03-08T09:45:02+0100</time>
      </trkpt>
      <trkpt lat="47.24056" lon="4.96424">
        <ele>341.92050170898</ele>
        <time>2018-03-08T09:45:05+0100</time>
      </trkpt>
      <trkpt lat="47.24056" lon="4.96424">
        <ele>341.86599731445</ele>
        <time>2018-03-08T09:45:08+0100</time>
      </trkpt>
      <trkpt lat="47.24056" lon="4.96424">
        <ele>341.81463623047</ele>
        <time>2018-03-08T09:45:11+0100</time>
      </trkpt>
      <trkpt lat="47.24056" lon="4.96426">
        <ele>341.77041625977</ele>
        <time>2018-03-08T09:45:14+0100</time>
      </trkpt>
      <trkpt lat="47.24056" lon="4.96426">
        <ele>341.7331237793</ele>
        <time>2018-03-08T09:45:17+0100</time>
      </trkpt>
      <trkpt lat="47.24056" lon="4.96426">
        <ele>341.69866943359</ele>
        <time>2018-03-08T09:45:20+0100</time>
      </trkpt>
      <trkpt lat="47.24056" lon="4.96427">
        <ele>341.67010498047</ele>
        <time>2018-03-08T09:45:23+0100</time>
      </trkpt>
      <trkpt lat="47.24056" lon="4.96428">
        <ele>341.56552124023</ele>
        <time>2018-03-08T09:45:26+0100</time>
      </trkpt>
      <trkpt lat="47.24056" lon="4.96428">
        <ele>341.54333496094</ele>
        <time>2018-03-08T09:45:29+0100</time>
      </trkpt>
      <trkpt lat="47.24056" lon="4.96428">
        <ele>341.52087402344</ele>
        <time>2018-03-08T09:45:32+0100</time>
      </trkpt>
      <trkpt lat="47.24056" lon="4.96427">
        <ele>341.49609375</ele>
        <time>2018-03-08T09:45:35+0100</time>
      </trkpt>
      <trkpt lat="47.24056" lon="4.96427">
        <ele>341.46920776367</ele>
        <time>2018-03-08T09:45:38+0100</time>
      </trkpt>
      <trkpt lat="47.24055" lon="4.96426">
        <ele>341.36242675781</ele>
        <time>2018-03-08T09:45:41+0100</time>
      </trkpt>
      <trkpt lat="47.24053" lon="4.96424">
        <ele>341.12542724609</ele>
        <time>2018-03-08T09:45:44+0100</time>
      </trkpt>
      <trkpt lat="47.24052" lon="4.96422">
        <ele>340.85900878906</ele>
        <time>2018-03-08T09:45:47+0100</time>
      </trkpt>
      <trkpt lat="47.24052" lon="4.96422">
        <ele>340.47787475586</ele>
        <time>2018-03-08T09:45:50+0100</time>
      </trkpt>
      <trkpt lat="47.24051" lon="4.96422">
        <ele>340.15905761719</ele>
        <time>2018-03-08T09:45:53+0100</time>
      </trkpt>
      <trkpt lat="47.2405" lon="4.96422">
        <ele>339.84039306641</ele>
        <time>2018-03-08T09:45:56+0100</time>
      </trkpt>
      <trkpt lat="47.24049" lon="4.96423">
        <ele>339.35504150391</ele>
        <time>2018-03-08T09:45:59+0100</time>
      </trkpt>
      <trkpt lat="47.24048" lon="4.96425">
        <ele>338.85302734375</ele>
        <time>2018-03-08T09:46:02+0100</time>
      </trkpt>
      <trkpt lat="47.24047" lon="4.96426">
        <ele>338.484375</ele>
        <time>2018-03-08T09:46:05+0100</time>
      </trkpt>
      <trkpt lat="47.24047" lon="4.96426">
        <ele>338.12026977539</ele>
        <time>2018-03-08T09:46:07+0100</time>
      </trkpt>
      <trkpt lat="47.24046" lon="4.96427">
        <ele>337.921875</ele>
        <time>2018-03-08T09:46:10+0100</time>
      </trkpt>
      <trkpt lat="47.24047" lon="4.96427">
        <ele>337.70809936523</ele>
        <time>2018-03-08T09:46:13+0100</time>
      </trkpt>
      <trkpt lat="47.24046" lon="4.9643">
        <ele>337.36474609375</ele>
        <time>2018-03-08T09:46:16+0100</time>
      </trkpt>
      <trkpt lat="47.24046" lon="4.96433">
        <ele>337.32043457031</ele>
        <time>2018-03-08T09:46:19+0100</time>
      </trkpt>
      <trkpt lat="47.24046" lon="4.96433">
        <ele>337.08605957031</ele>
        <time>2018-03-08T09:46:22+0100</time>
      </trkpt>
      <trkpt lat="47.24046" lon="4.96432">
        <ele>337.01989746094</ele>
        <time>2018-03-08T09:46:25+0100</time>
      </trkpt>
      <trkpt lat="47.24046" lon="4.96432">
        <ele>336.52200317383</ele>
        <time>2018-03-08T09:46:28+0100</time>
      </trkpt>
      <trkpt lat="47.24046" lon="4.96432">
        <ele>336.0534362793</ele>
        <time>2018-03-08T09:46:31+0100</time>
      </trkpt>
      <trkpt lat="47.24046" lon="4.96433">
        <ele>335.43670654297</ele>
        <time>2018-03-08T09:46:34+0100</time>
      </trkpt>
      <trkpt lat="47.24046" lon="4.96433">
        <ele>334.86956787109</ele>
        <time>2018-03-08T09:46:37+0100</time>
      </trkpt>
      <trkpt lat="47.24046" lon="4.96434">
        <ele>334.48999023438</ele>
        <time>2018-03-08T09:46:40+0100</time>
      </trkpt>
      <trkpt lat="47.24046" lon="4.96436">
        <ele>333.92565917969</ele>
        <time>2018-03-08T09:46:43+0100</time>
      </trkpt>
      <trkpt lat="47.24046" lon="4.96439">
        <ele>333.36508178711</ele>
        <time>2018-03-08T09:46:46+0100</time>
      </trkpt>
      <trkpt lat="47.24046" lon="4.96442">
        <ele>332.94845581055</ele>
        <time>2018-03-08T09:46:49+0100</time>
      </trkpt>
      <trkpt lat="47.24046" lon="4.96447">
        <ele>332.52328491211</ele>
        <time>2018-03-08T09:46:52+0100</time>
      </trkpt>
      <trkpt lat="47.24046" lon="4.96451">
        <ele>331.94839477539</ele>
        <time>2018-03-08T09:46:55+0100</time>
      </trkpt>
      <trkpt lat="47.24046" lon="4.96455">
        <ele>331.4280090332</ele>
        <time>2018-03-08T09:46:58+0100</time>
      </trkpt>
      <trkpt lat="47.24045" lon="4.96457">
        <ele>330.99435424805</ele>
        <time>2018-03-08T09:47:01+0100</time>
      </trkpt>
      <trkpt lat="47.24045" lon="4.9646">
        <ele>330.63589477539</ele>
        <time>2018-03-08T09:47:04+0100</time>
      </trkpt>
      <trkpt lat="47.24044" lon="4.96463">
        <ele>330.33944702148</ele>
        <time>2018-03-08T09:47:07+0100</time>
      </trkpt>
      <trkpt lat="47.24044" lon="4.96466">
        <ele>330.08737182617</ele>
        <time>2018-03-08T09:47:10+0100</time>
      </trkpt>
      <trkpt lat="47.24044" lon="4.96469">
        <ele>329.90774536133</ele>
        <time>2018-03-08T09:47:13+0100</time>
      </trkpt>
      <trkpt lat="47.24044" lon="4.96474">
        <ele>329.79620361328</ele>
        <time>2018-03-08T09:47:16+0100</time>
      </trkpt>
      <trkpt lat="47.24044" lon="4.96479">
        <ele>329.7336730957</ele>
        <time>2018-03-08T09:47:19+0100</time>
      </trkpt>
      <trkpt lat="47.24044" lon="4.96481">
        <ele>329.69369506836</ele>
        <time>2018-03-08T09:47:22+0100</time>
      </trkpt>
      <trkpt lat="47.24044" lon="4.96484">
        <ele>329.69952392578</ele>
        <time>2018-03-08T09:47:25+0100</time>
      </trkpt>
      <trkpt lat="47.24044" lon="4.96488">
        <ele>329.78567504883</ele>
        <time>2018-03-08T09:47:28+0100</time>
      </trkpt>
      <trkpt lat="47.24045" lon="4.96493">
        <ele>329.89999389648</ele>
        <time>2018-03-08T09:47:31+0100</time>
      </trkpt>
      <trkpt lat="47.24045" lon="4.96497">
        <ele>330.14874267578</ele>
        <time>2018-03-08T09:47:34+0100</time>
      </trkpt>
      <trkpt lat="47.24046" lon="4.965">
        <ele>330.38464355469</ele>
        <time>2018-03-08T09:47:37+0100</time>
      </trkpt>
      <trkpt lat="47.24046" lon="4.96501">
        <ele>330.54995727539</ele>
        <time>2018-03-08T09:47:40+0100</time>
      </trkpt>
      <trkpt lat="47.24046" lon="4.96505">
        <ele>330.78094482422</ele>
        <time>2018-03-08T09:47:43+0100</time>
      </trkpt>
      <trkpt lat="47.24047" lon="4.96508">
        <ele>330.93490600586</ele>
        <time>2018-03-08T09:47:46+0100</time>
      </trkpt>
      <trkpt lat="47.24046" lon="4.96512">
        <ele>331.05160522461</ele>
        <time>2018-03-08T09:47:49+0100</time>
      </trkpt>
      <trkpt lat="47.24045" lon="4.96515">
        <ele>331.14462280273</ele>
        <time>2018-03-08T09:47:52+0100</time>
      </trkpt>
      <trkpt lat="47.24045" lon="4.96518">
        <ele>331.24319458008</ele>
        <time>2018-03-08T09:47:55+0100</time>
      </trkpt>
      <trkpt lat="47.24044" lon="4.96522">
        <ele>331.37322998047</ele>
        <time>2018-03-08T09:47:58+0100</time>
      </trkpt>
      <trkpt lat="47.24044" lon="4.96529">
        <ele>331.50729370117</ele>
        <time>2018-03-08T09:48:01+0100</time>
      </trkpt>
      <trkpt lat="47.24044" lon="4.96536">
        <ele>331.63766479492</ele>
        <time>2018-03-08T09:48:04+0100</time>
      </trkpt>
      <trkpt lat="47.24043" lon="4.96543">
        <ele>331.74682617188</ele>
        <time>2018-03-08T09:48:07+0100</time>
      </trkpt>
      <trkpt lat="47.24043" lon="4.96548">
        <ele>331.81820678711</ele>
        <time>2018-03-08T09:48:10+0100</time>
      </trkpt>
      <trkpt lat="47.24043" lon="4.96557">
        <ele>331.767578125</ele>
        <time>2018-03-08T09:48:13+0100</time>
      </trkpt>
      <trkpt lat="47.24042" lon="4.96565">
        <ele>331.67230224609</ele>
        <time>2018-03-08T09:48:16+0100</time>
      </trkpt>
      <trkpt lat="47.24042" lon="4.96568">
        <ele>331.49966430664</ele>
        <time>2018-03-08T09:48:19+0100</time>
      </trkpt>
      <trkpt lat="47.24042" lon="4.9657">
        <ele>331.28692626953</ele>
        <time>2018-03-08T09:48:22+0100</time>
      </trkpt>
      <trkpt lat="47.24042" lon="4.96573">
        <ele>331.04919433594</ele>
        <time>2018-03-08T09:48:25+0100</time>
      </trkpt>
      <trkpt lat="47.24041" lon="4.96577">
        <ele>330.81866455078</ele>
        <time>2018-03-08T09:48:28+0100</time>
      </trkpt>
      <trkpt lat="47.24041" lon="4.96579">
        <ele>330.64190673828</ele>
        <time>2018-03-08T09:48:31+0100</time>
      </trkpt>
      <trkpt lat="47.2404" lon="4.96584">
        <ele>330.51025390625</ele>
        <time>2018-03-08T09:48:34+0100</time>
      </trkpt>
      <trkpt lat="47.24038" lon="4.9659">
        <ele>330.35079956055</ele>
        <time>2018-03-08T09:48:37+0100</time>
      </trkpt>
      <trkpt lat="47.24036" lon="4.96595">
        <ele>330.13296508789</ele>
        <time>2018-03-08T09:48:40+0100</time>
      </trkpt>
      <trkpt lat="47.24035" lon="4.96599">
        <ele>329.88488769531</ele>
        <time>2018-03-08T09:48:43+0100</time>
      </trkpt>
      <trkpt lat="47.24033" lon="4.96602">
        <ele>329.60192871094</ele>
        <time>2018-03-08T09:48:46+0100</time>
      </trkpt>
      <trkpt lat="47.2403" lon="4.96605">
        <ele>329.31256103516</ele>
        <time>2018-03-08T09:48:49+0100</time>
      </trkpt>
      <trkpt lat="47.2403" lon="4.96607">
        <ele>329.18673706055</ele>
        <time>2018-03-08T09:48:52+0100</time>
      </trkpt>
      <trkpt lat="47.2403" lon="4.96607">
        <ele>329.15621948242</ele>
        <time>2018-03-08T09:48:55+0100</time>
      </trkpt>
      <trkpt lat="47.24029" lon="4.96609">
        <ele>328.88830566406</ele>
        <time>2018-03-08T09:48:58+0100</time>
      </trkpt>
      <trkpt lat="47.24028" lon="4.96611">
        <ele>328.62884521484</ele>
        <time>2018-03-08T09:49:01+0100</time>
      </trkpt>
      <trkpt lat="47.24027" lon="4.96612">
        <ele>328.34759521484</ele>
        <time>2018-03-08T09:49:04+0100</time>
      </trkpt>
      <trkpt lat="47.24026" lon="4.96614">
        <ele>328.03768920898</ele>
        <time>2018-03-08T09:49:07+0100</time>
      </trkpt>
      <trkpt lat="47.24025" lon="4.96616">
        <ele>327.71319580078</ele>
        <time>2018-03-08T09:49:10+0100</time>
      </trkpt>
      <trkpt lat="47.24023" lon="4.96618">
        <ele>327.37512207031</ele>
        <time>2018-03-08T09:49:13+0100</time>
      </trkpt>
      <trkpt lat="47.24021" lon="4.9662">
        <ele>327.04873657227</ele>
        <time>2018-03-08T09:49:16+0100</time>
      </trkpt>
      <trkpt lat="47.24019" lon="4.96622">
        <ele>326.72409057617</ele>
        <time>2018-03-08T09:49:19+0100</time>
      </trkpt>
      <trkpt lat="47.24018" lon="4.96625">
        <ele>326.39697265625</ele>
        <time>2018-03-08T09:49:22+0100</time>
      </trkpt>
      <trkpt lat="47.24016" lon="4.96628">
        <ele>326.06701660156</ele>
        <time>2018-03-08T09:49:25+0100</time>
      </trkpt>
      <trkpt lat="47.24013" lon="4.96631">
        <ele>325.75381469727</ele>
        <time>2018-03-08T09:49:28+0100</time>
      </trkpt>
      <trkpt lat="47.24011" lon="4.96633">
        <ele>325.4407043457</ele>
        <time>2018-03-08T09:49:31+0100</time>
      </trkpt>
      <trkpt lat="47.24008" lon="4.96637">
        <ele>325.15408325195</ele>
        <time>2018-03-08T09:49:34+0100</time>
      </trkpt>
      <trkpt lat="47.24006" lon="4.96639">
        <ele>324.88815307617</ele>
        <time>2018-03-08T09:49:37+0100</time>
      </trkpt>
      <trkpt lat="47.24004" lon="4.96641">
        <ele>324.65325927734</ele>
        <time>2018-03-08T09:49:40+0100</time>
      </trkpt>
      <trkpt lat="47.24002" lon="4.96642">
        <ele>324.45388793945</ele>
        <time>2018-03-08T09:49:43+0100</time>
      </trkpt>
      <trkpt lat="47.23999" lon="4.96644">
        <ele>324.27194213867</ele>
        <time>2018-03-08T09:49:46+0100</time>
      </trkpt>
      <trkpt lat="47.23998" lon="4.96644">
        <ele>324.0866394043</ele>
        <time>2018-03-08T09:49:49+0100</time>
      </trkpt>
      <trkpt lat="47.23997" lon="4.96645">
        <ele>323.87185668945</ele>
        <time>2018-03-08T09:49:52+0100</time>
      </trkpt>
      <trkpt lat="47.23994" lon="4.96646">
        <ele>323.658203125</ele>
        <time>2018-03-08T09:49:55+0100</time>
      </trkpt>
      <trkpt lat="47.23992" lon="4.96648">
        <ele>323.46145629883</ele>
        <time>2018-03-08T09:49:58+0100</time>
      </trkpt>
      <trkpt lat="47.23989" lon="4.9665">
        <ele>323.298828125</ele>
        <time>2018-03-08T09:50:01+0100</time>
      </trkpt>
      <trkpt lat="47.23985" lon="4.96652">
        <ele>323.14709472656</ele>
        <time>2018-03-08T09:50:04+0100</time>
      </trkpt>
      <trkpt lat="47.23982" lon="4.96654">
        <ele>323.01162719727</ele>
        <time>2018-03-08T09:50:07+0100</time>
      </trkpt>
      <trkpt lat="47.2398" lon="4.96657">
        <ele>322.87835693359</ele>
        <time>2018-03-08T09:50:10+0100</time>
      </trkpt>
      <trkpt lat="47.23978" lon="4.9666">
        <ele>322.74105834961</ele>
        <time>2018-03-08T09:50:13+0100</time>
      </trkpt>
      <trkpt lat="47.23976" lon="4.96664">
        <ele>322.58798217773</ele>
        <time>2018-03-08T09:50:16+0100</time>
      </trkpt>
      <trkpt lat="47.23973" lon="4.96668">
        <ele>322.39865112305</ele>
        <time>2018-03-08T09:50:19+0100</time>
      </trkpt>
      <trkpt lat="47.2397" lon="4.96672">
        <ele>322.17034912109</ele>
        <time>2018-03-08T09:50:22+0100</time>
      </trkpt>
      <trkpt lat="47.23968" lon="4.96675">
        <ele>321.91632080078</ele>
        <time>2018-03-08T09:50:25+0100</time>
      </trkpt>
      <trkpt lat="47.23966" lon="4.96677">
        <ele>321.72909545898</ele>
        <time>2018-03-08T09:50:28+0100</time>
      </trkpt>
      <trkpt lat="47.23963" lon="4.96678">
        <ele>321.49154663086</ele>
        <time>2018-03-08T09:50:31+0100</time>
      </trkpt>
      <trkpt lat="47.2396" lon="4.96678">
        <ele>321.28262329102</ele>
        <time>2018-03-08T09:50:34+0100</time>
      </trkpt>
      <trkpt lat="47.23955" lon="4.96677">
        <ele>321.13125610352</ele>
        <time>2018-03-08T09:50:37+0100</time>
      </trkpt>
      <trkpt lat="47.23951" lon="4.96674">
        <ele>321.02963256836</ele>
        <time>2018-03-08T09:50:40+0100</time>
      </trkpt>
      <trkpt lat="47.23946" lon="4.96671">
        <ele>320.94952392578</ele>
        <time>2018-03-08T09:50:43+0100</time>
      </trkpt>
      <trkpt lat="47.23944" lon="4.9667">
        <ele>320.92263793945</ele>
        <time>2018-03-08T09:50:46+0100</time>
      </trkpt>
      <trkpt lat="47.23943" lon="4.96669">
        <ele>320.91360473633</ele>
        <time>2018-03-08T09:50:49+0100</time>
      </trkpt>
      <trkpt lat="47.23944" lon="4.96669">
        <ele>320.89181518555</ele>
        <time>2018-03-08T09:50:52+0100</time>
      </trkpt>
      <trkpt lat="47.23943" lon="4.96669">
        <ele>320.86657714844</ele>
        <time>2018-03-08T09:50:55+0100</time>
      </trkpt>
      <trkpt lat="47.23943" lon="4.96669">
        <ele>320.83969116211</ele>
        <time>2018-03-08T09:50:58+0100</time>
      </trkpt>
      <trkpt lat="47.23944" lon="4.96669">
        <ele>320.71832275391</ele>
        <time>2018-03-08T09:51:01+0100</time>
      </trkpt>
      <trkpt lat="47.23943" lon="4.96668">
        <ele>320.3141784668</ele>
        <time>2018-03-08T09:51:04+0100</time>
      </trkpt>
      <trkpt lat="47.23941" lon="4.96666">
        <ele>320.05511474609</ele>
        <time>2018-03-08T09:51:07+0100</time>
      </trkpt>
      <trkpt lat="47.2394" lon="4.96665">
        <ele>320.01986694336</ele>
        <time>2018-03-08T09:51:10+0100</time>
      </trkpt>
      <trkpt lat="47.2394" lon="4.96665">
        <ele>319.98403930664</ele>
        <time>2018-03-08T09:51:13+0100</time>
      </trkpt>
      <trkpt lat="47.2394" lon="4.96665">
        <ele>319.94567871094</ele>
        <time>2018-03-08T09:51:16+0100</time>
      </trkpt>
      <trkpt lat="47.2394" lon="4.96665">
        <ele>319.90414428711</ele>
        <time>2018-03-08T09:51:19+0100</time>
      </trkpt>
      <trkpt lat="47.23939" lon="4.96665">
        <ele>319.86120605469</ele>
        <time>2018-03-08T09:51:22+0100</time>
      </trkpt>
      <trkpt lat="47.23939" lon="4.96664">
        <ele>319.82165527344</ele>
        <time>2018-03-08T09:51:25+0100</time>
      </trkpt>
      <trkpt lat="47.23939" lon="4.96664">
        <ele>319.78845214844</ele>
        <time>2018-03-08T09:51:28+0100</time>
      </trkpt>
      <trkpt lat="47.23938" lon="4.96663">
        <ele>319.75537109375</ele>
        <time>2018-03-08T09:51:31+0100</time>
      </trkpt>
      <trkpt lat="47.23938" lon="4.96662">
        <ele>319.72436523438</ele>
        <time>2018-03-08T09:51:34+0100</time>
      </trkpt>
      <trkpt lat="47.23938" lon="4.96662">
        <ele>319.69302368164</ele>
        <time>2018-03-08T09:51:37+0100</time>
      </trkpt>
      <trkpt lat="47.23938" lon="4.96662">
        <ele>319.66275024414</ele>
        <time>2018-03-08T09:51:40+0100</time>
      </trkpt>
      <trkpt lat="47.23938" lon="4.96662">
        <ele>319.6330871582</ele>
        <time>2018-03-08T09:51:43+0100</time>
      </trkpt>
      <trkpt lat="47.23938" lon="4.96662">
        <ele>319.28552246094</ele>
        <time>2018-03-08T09:51:46+0100</time>
      </trkpt>
      <trkpt lat="47.23938" lon="4.96661">
        <ele>318.89764404297</ele>
        <time>2018-03-08T09:51:49+0100</time>
      </trkpt>
      <trkpt lat="47.23937" lon="4.9666">
        <ele>318.54064941406</ele>
        <time>2018-03-08T09:51:52+0100</time>
      </trkpt>
      <trkpt lat="47.23934" lon="4.96657">
        <ele>318.1975402832</ele>
        <time>2018-03-08T09:51:55+0100</time>
      </trkpt>
      <trkpt lat="47.23932" lon="4.96655">
        <ele>317.87860107422</ele>
        <time>2018-03-08T09:51:58+0100</time>
      </trkpt>
      <trkpt lat="47.2393" lon="4.96654">
        <ele>317.55502319336</ele>
        <time>2018-03-08T09:52:01+0100</time>
      </trkpt>
      <trkpt lat="47.23927" lon="4.96652">
        <ele>317.23168945312</ele>
        <time>2018-03-08T09:52:04+0100</time>
      </trkpt>
      <trkpt lat="47.23925" lon="4.96652">
        <ele>316.89984130859</ele>
        <time>2018-03-08T09:52:07+0100</time>
      </trkpt>
      <trkpt lat="47.23922" lon="4.96651">
        <ele>316.58624267578</ele>
        <time>2018-03-08T09:52:10+0100</time>
      </trkpt>
      <trkpt lat="47.2392" lon="4.9665">
        <ele>316.27673339844</ele>
        <time>2018-03-08T09:52:13+0100</time>
      </trkpt>
      <trkpt lat="47.23918" lon="4.96648">
        <ele>315.96060180664</ele>
        <time>2018-03-08T09:52:16+0100</time>
      </trkpt>
      <trkpt lat="47.23917" lon="4.96647">
        <ele>315.64410400391</ele>
        <time>2018-03-08T09:52:19+0100</time>
      </trkpt>
      <trkpt lat="47.23915" lon="4.96645">
        <ele>315.3727722168</ele>
        <time>2018-03-08T09:52:22+0100</time>
      </trkpt>
      <trkpt lat="47.23913" lon="4.96642">
        <ele>315.13885498047</ele>
        <time>2018-03-08T09:52:25+0100</time>
      </trkpt>
      <trkpt lat="47.23911" lon="4.96639">
        <ele>314.94116210938</ele>
        <time>2018-03-08T09:52:28+0100</time>
      </trkpt>
      <trkpt lat="47.2391" lon="4.96636">
        <ele>314.77062988281</ele>
        <time>2018-03-08T09:52:31+0100</time>
      </trkpt>
      <trkpt lat="47.23909" lon="4.96634">
        <ele>314.63311767578</ele>
        <time>2018-03-08T09:52:34+0100</time>
      </trkpt>
      <trkpt lat="47.23907" lon="4.96631">
        <ele>314.52139282227</ele>
        <time>2018-03-08T09:52:37+0100</time>
      </trkpt>
      <trkpt lat="47.23906" lon="4.96629">
        <ele>314.43585205078</ele>
        <time>2018-03-08T09:52:40+0100</time>
      </trkpt>
      <trkpt lat="47.23905" lon="4.96627">
        <ele>314.37258911133</ele>
        <time>2018-03-08T09:52:43+0100</time>
      </trkpt>
      <trkpt lat="47.23903" lon="4.96624">
        <ele>314.34765625</ele>
        <time>2018-03-08T09:52:46+0100</time>
      </trkpt>
      <trkpt lat="47.23901" lon="4.96621">
        <ele>314.34490966797</ele>
        <time>2018-03-08T09:52:49+0100</time>
      </trkpt>
      <trkpt lat="47.239" lon="4.96617">
        <ele>314.37469482422</ele>
        <time>2018-03-08T09:52:52+0100</time>
      </trkpt>
      <trkpt lat="47.23898" lon="4.96614">
        <ele>314.44763183594</ele>
        <time>2018-03-08T09:52:55+0100</time>
      </trkpt>
      <trkpt lat="47.23896" lon="4.9661">
        <ele>314.56521606445</ele>
        <time>2018-03-08T09:52:58+0100</time>
      </trkpt>
      <trkpt lat="47.23894" lon="4.96605">
        <ele>314.71978759766</ele>
        <time>2018-03-08T09:53:01+0100</time>
      </trkpt>
      <trkpt lat="47.23892" lon="4.96601">
        <ele>314.88919067383</ele>
        <time>2018-03-08T09:53:04+0100</time>
      </trkpt>
      <trkpt lat="47.23891" lon="4.96598">
        <ele>315.06958007812</ele>
        <time>2018-03-08T09:53:07+0100</time>
      </trkpt>
      <trkpt lat="47.2389" lon="4.96596">
        <ele>315.25137329102</ele>
        <time>2018-03-08T09:53:10+0100</time>
      </trkpt>
      <trkpt lat="47.23888" lon="4.96592">
        <ele>315.42947387695</ele>
        <time>2018-03-08T09:53:13+0100</time>
      </trkpt>
      <trkpt lat="47.23887" lon="4.96588">
        <ele>315.60119628906</ele>
        <time>2018-03-08T09:53:16+0100</time>
      </trkpt>
      <trkpt lat="47.23886" lon="4.96585">
        <ele>315.76916503906</ele>
        <time>2018-03-08T09:53:19+0100</time>
      </trkpt>
      <trkpt lat="47.23884" lon="4.96582">
        <ele>315.93771362305</ele>
        <time>2018-03-08T09:53:22+0100</time>
      </trkpt>
      <trkpt lat="47.23883" lon="4.96578">
        <ele>316.10632324219</ele>
        <time>2018-03-08T09:53:25+0100</time>
      </trkpt>
      <trkpt lat="47.23882" lon="4.96575">
        <ele>316.26934814453</ele>
        <time>2018-03-08T09:53:28+0100</time>
      </trkpt>
      <trkpt lat="47.23881" lon="4.96571">
        <ele>316.43240356445</ele>
        <time>2018-03-08T09:53:31+0100</time>
      </trkpt>
      <trkpt lat="47.2388" lon="4.96569">
        <ele>316.5910949707</ele>
        <time>2018-03-08T09:53:34+0100</time>
      </trkpt>
      <trkpt lat="47.23879" lon="4.96566">
        <ele>316.75762939453</ele>
        <time>2018-03-08T09:53:37+0100</time>
      </trkpt>
      <trkpt lat="47.23878" lon="4.96564">
        <ele>316.91748046875</ele>
        <time>2018-03-08T09:53:40+0100</time>
      </trkpt>
      <trkpt lat="47.23877" lon="4.96561">
        <ele>317.06723022461</ele>
        <time>2018-03-08T09:53:43+0100</time>
      </trkpt>
      <trkpt lat="47.23876" lon="4.96559">
        <ele>317.20367431641</ele>
        <time>2018-03-08T09:53:46+0100</time>
      </trkpt>
      <trkpt lat="47.23875" lon="4.96557">
        <ele>317.33169555664</ele>
        <time>2018-03-08T09:53:49+0100</time>
      </trkpt>
      <trkpt lat="47.23874" lon="4.96555">
        <ele>317.45803833008</ele>
        <time>2018-03-08T09:53:52+0100</time>
      </trkpt>
      <trkpt lat="47.23873" lon="4.96555">
        <ele>317.56674194336</ele>
        <time>2018-03-08T09:53:55+0100</time>
      </trkpt>
      <trkpt lat="47.23871" lon="4.96552">
        <ele>317.69442749023</ele>
        <time>2018-03-08T09:53:58+0100</time>
      </trkpt>
      <trkpt lat="47.2387" lon="4.9655">
        <ele>317.83380126953</ele>
        <time>2018-03-08T09:54:01+0100</time>
      </trkpt>
      <trkpt lat="47.23869" lon="4.96548">
        <ele>317.96710205078</ele>
        <time>2018-03-08T09:54:04+0100</time>
      </trkpt>
      <trkpt lat="47.23868" lon="4.96546">
        <ele>318.10284423828</ele>
        <time>2018-03-08T09:54:07+0100</time>
      </trkpt>
      <trkpt lat="47.23867" lon="4.96544">
        <ele>318.27090454102</ele>
        <time>2018-03-08T09:54:10+0100</time>
      </trkpt>
      <trkpt lat="47.23866" lon="4.9654">
        <ele>318.45553588867</ele>
        <time>2018-03-08T09:54:13+0100</time>
      </trkpt>
      <trkpt lat="47.23865" lon="4.96537">
        <ele>318.63433837891</ele>
        <time>2018-03-08T09:54:16+0100</time>
      </trkpt>
      <trkpt lat="47.23864" lon="4.96534">
        <ele>318.82312011719</ele>
        <time>2018-03-08T09:54:19+0100</time>
      </trkpt>
      <trkpt lat="47.23863" lon="4.96533">
        <ele>319.00482177734</ele>
        <time>2018-03-08T09:54:22+0100</time>
      </trkpt>
      <trkpt lat="47.23862" lon="4.9653">
        <ele>319.2255859375</ele>
        <time>2018-03-08T09:54:25+0100</time>
      </trkpt>
      <trkpt lat="47.23861" lon="4.96527">
        <ele>319.46539306641</ele>
        <time>2018-03-08T09:54:28+0100</time>
      </trkpt>
      <trkpt lat="47.2386" lon="4.96523">
        <ele>319.73431396484</ele>
        <time>2018-03-08T09:54:31+0100</time>
      </trkpt>
      <trkpt lat="47.2386" lon="4.96519">
        <ele>320.01629638672</ele>
        <time>2018-03-08T09:54:34+0100</time>
      </trkpt>
      <trkpt lat="47.2386" lon="4.96517">
        <ele>320.29751586914</ele>
        <time>2018-03-08T09:54:37+0100</time>
      </trkpt>
      <trkpt lat="47.2386" lon="4.96515">
        <ele>320.56787109375</ele>
        <time>2018-03-08T09:54:40+0100</time>
      </trkpt>
      <trkpt lat="47.2386" lon="4.96512">
        <ele>320.83172607422</ele>
        <time>2018-03-08T09:54:43+0100</time>
      </trkpt>
      <trkpt lat="47.23859" lon="4.96509">
        <ele>321.10391235352</ele>
        <time>2018-03-08T09:54:46+0100</time>
      </trkpt>
      <trkpt lat="47.23859" lon="4.96507">
        <ele>321.36074829102</ele>
        <time>2018-03-08T09:54:49+0100</time>
      </trkpt>
      <trkpt lat="47.23859" lon="4.96504">
        <ele>321.62368774414</ele>
        <time>2018-03-08T09:54:52+0100</time>
      </trkpt>
      <trkpt lat="47.23859" lon="4.96502">
        <ele>321.88436889648</ele>
        <time>2018-03-08T09:54:55+0100</time>
      </trkpt>
      <trkpt lat="47.23859" lon="4.96498">
        <ele>322.12298583984</ele>
        <time>2018-03-08T09:54:58+0100</time>
      </trkpt>
      <trkpt lat="47.2386" lon="4.96498">
        <ele>322.14532470703</ele>
        <time>2018-03-08T09:55:01+0100</time>
      </trkpt>
      <trkpt lat="47.2386" lon="4.96498">
        <ele>322.16632080078</ele>
        <time>2018-03-08T09:55:04+0100</time>
      </trkpt>
      <trkpt lat="47.2386" lon="4.96497">
        <ele>322.18789672852</ele>
        <time>2018-03-08T09:55:07+0100</time>
      </trkpt>
      <trkpt lat="47.2386" lon="4.96497">
        <ele>322.20574951172</ele>
        <time>2018-03-08T09:55:10+0100</time>
      </trkpt>
      <trkpt lat="47.2386" lon="4.96497">
        <ele>322.22708129883</ele>
        <time>2018-03-08T09:55:13+0100</time>
      </trkpt>
      <trkpt lat="47.2386" lon="4.96495">
        <ele>322.42166137695</ele>
        <time>2018-03-08T09:55:16+0100</time>
      </trkpt>
      <trkpt lat="47.2386" lon="4.96495">
        <ele>322.62466430664</ele>
        <time>2018-03-08T09:55:19+0100</time>
      </trkpt>
      <trkpt lat="47.23859" lon="4.96493">
        <ele>322.92358398438</ele>
        <time>2018-03-08T09:55:22+0100</time>
      </trkpt>
      <trkpt lat="47.23859" lon="4.96492">
        <ele>323.22399902344</ele>
        <time>2018-03-08T09:55:25+0100</time>
      </trkpt>
      <trkpt lat="47.23859" lon="4.96489">
        <ele>323.51739501953</ele>
        <time>2018-03-08T09:55:28+0100</time>
      </trkpt>
      <trkpt lat="47.23858" lon="4.96487">
        <ele>323.80752563477</ele>
        <time>2018-03-08T09:55:31+0100</time>
      </trkpt>
      <trkpt lat="47.23858" lon="4.96483">
        <ele>324.00909423828</ele>
        <time>2018-03-08T09:55:34+0100</time>
      </trkpt>
      <trkpt lat="47.23857" lon="4.96479">
        <ele>324.31213378906</ele>
        <time>2018-03-08T09:55:37+0100</time>
      </trkpt>
      <trkpt lat="47.23857" lon="4.96477">
        <ele>324.64105224609</ele>
        <time>2018-03-08T09:55:40+0100</time>
      </trkpt>
      <trkpt lat="47.23857" lon="4.96476">
        <ele>324.78280639648</ele>
        <time>2018-03-08T09:55:43+0100</time>
      </trkpt>
      <trkpt lat="47.23857" lon="4.96476">
        <ele>325.16116333008</ele>
        <time>2018-03-08T09:55:46+0100</time>
      </trkpt>
      <trkpt lat="47.23857" lon="4.96475">
        <ele>325.20147705078</ele>
        <time>2018-03-08T09:55:49+0100</time>
      </trkpt>
      <trkpt lat="47.23857" lon="4.96475">
        <ele>325.36071777344</ele>
        <time>2018-03-08T09:55:52+0100</time>
      </trkpt>
      <trkpt lat="47.23856" lon="4.9647">
        <ele>325.65859985352</ele>
        <time>2018-03-08T09:55:55+0100</time>
      </trkpt>
      <trkpt lat="47.23855" lon="4.96465">
        <ele>326.09460449219</ele>
        <time>2018-03-08T09:55:58+0100</time>
      </trkpt>
      <trkpt lat="47.23855" lon="4.96464">
        <ele>326.39901733398</ele>
        <time>2018-03-08T09:56:01+0100</time>
      </trkpt>
      <trkpt lat="47.23855" lon="4.96464">
        <ele>326.44555664062</ele>
        <time>2018-03-08T09:56:04+0100</time>
      </trkpt>
      <trkpt lat="47.23855" lon="4.96464">
        <ele>326.49188232422</ele>
        <time>2018-03-08T09:56:07+0100</time>
      </trkpt>
      <trkpt lat="47.23855" lon="4.96461">
        <ele>326.96670532227</ele>
        <time>2018-03-08T09:56:10+0100</time>
      </trkpt>
      <trkpt lat="47.23855" lon="4.9646">
        <ele>327.01861572266</ele>
        <time>2018-03-08T09:56:13+0100</time>
      </trkpt>
      <trkpt lat="47.23855" lon="4.9646">
        <ele>327.07531738281</ele>
        <time>2018-03-08T09:56:16+0100</time>
      </trkpt>
      <trkpt lat="47.23854" lon="4.96459">
        <ele>327.13711547852</ele>
        <time>2018-03-08T09:56:19+0100</time>
      </trkpt>
      <trkpt lat="47.23854" lon="4.96459">
        <ele>327.20123291016</ele>
        <time>2018-03-08T09:56:22+0100</time>
      </trkpt>
      <trkpt lat="47.23855" lon="4.96457">
        <ele>327.43075561523</ele>
        <time>2018-03-08T09:56:25+0100</time>
      </trkpt>
      <trkpt lat="47.23855" lon="4.96454">
        <ele>327.82431030273</ele>
        <time>2018-03-08T09:56:28+0100</time>
      </trkpt>
      <trkpt lat="47.23855" lon="4.96452">
        <ele>328.05529785156</ele>
        <time>2018-03-08T09:56:31+0100</time>
      </trkpt>
      <trkpt lat="47.23854" lon="4.96452">
        <ele>328.19165039062</ele>
        <time>2018-03-08T09:56:34+0100</time>
      </trkpt>
      <trkpt lat="47.23854" lon="4.9645">
        <ele>328.33471679688</ele>
        <time>2018-03-08T09:56:37+0100</time>
      </trkpt>
      <trkpt lat="47.23853" lon="4.9645">
        <ele>328.37341308594</ele>
        <time>2018-03-08T09:56:40+0100</time>
      </trkpt>
      <trkpt lat="47.23853" lon="4.9645">
        <ele>328.41064453125</ele>
        <time>2018-03-08T09:56:43+0100</time>
      </trkpt>
      <trkpt lat="47.23853" lon="4.9645">
        <ele>328.44580078125</ele>
        <time>2018-03-08T09:56:46+0100</time>
      </trkpt>
      <trkpt lat="47.23853" lon="4.96449">
        <ele>328.48303222656</ele>
        <time>2018-03-08T09:56:49+0100</time>
      </trkpt>
      <trkpt lat="47.23853" lon="4.96449">
        <ele>328.51992797852</ele>
        <time>2018-03-08T09:56:52+0100</time>
      </trkpt>
      <trkpt lat="47.23853" lon="4.96449">
        <ele>328.55773925781</ele>
        <time>2018-03-08T09:56:55+0100</time>
      </trkpt>
      <trkpt lat="47.23852" lon="4.96448">
        <ele>328.58828735352</ele>
        <time>2018-03-08T09:56:58+0100</time>
      </trkpt>
      <trkpt lat="47.23852" lon="4.96448">
        <ele>328.61547851562</ele>
        <time>2018-03-08T09:57:01+0100</time>
      </trkpt>
      <trkpt lat="47.23852" lon="4.96448">
        <ele>328.64733886719</ele>
        <time>2018-03-08T09:57:04+0100</time>
      </trkpt>
      <trkpt lat="47.23852" lon="4.96448">
        <ele>328.68481445312</ele>
        <time>2018-03-08T09:57:07+0100</time>
      </trkpt>
      <trkpt lat="47.23852" lon="4.96448">
        <ele>328.72714233398</ele>
        <time>2018-03-08T09:57:10+0100</time>
      </trkpt>
      <trkpt lat="47.23852" lon="4.96448">
        <ele>328.77127075195</ele>
        <time>2018-03-08T09:57:13+0100</time>
      </trkpt>
      <trkpt lat="47.23852" lon="4.96448">
        <ele>328.81555175781</ele>
        <time>2018-03-08T09:57:16+0100</time>
      </trkpt>
      <trkpt lat="47.23852" lon="4.96448">
        <ele>328.85656738281</ele>
        <time>2018-03-08T09:57:19+0100</time>
      </trkpt>
      <trkpt lat="47.23851" lon="4.96445">
        <ele>329.27014160156</ele>
        <time>2018-03-08T09:57:22+0100</time>
      </trkpt>
      <trkpt lat="47.2385" lon="4.96443">
        <ele>329.65502929688</ele>
        <time>2018-03-08T09:57:25+0100</time>
      </trkpt>
      <trkpt lat="47.23849" lon="4.9644">
        <ele>330.02853393555</ele>
        <time>2018-03-08T09:57:28+0100</time>
      </trkpt>
      <trkpt lat="47.23847" lon="4.96437">
        <ele>330.38711547852</ele>
        <time>2018-03-08T09:57:31+0100</time>
      </trkpt>
      <trkpt lat="47.23846" lon="4.96434">
        <ele>330.72311401367</ele>
        <time>2018-03-08T09:57:34+0100</time>
      </trkpt>
      <trkpt lat="47.23844" lon="4.96432">
        <ele>331.04614257812</ele>
        <time>2018-03-08T09:57:37+0100</time>
      </trkpt>
      <trkpt lat="47.23843" lon="4.9643">
        <ele>331.35311889648</ele>
        <time>2018-03-08T09:57:40+0100</time>
      </trkpt>
      <trkpt lat="47.23841" lon="4.96426">
        <ele>331.65213012695</ele>
        <time>2018-03-08T09:57:43+0100</time>
      </trkpt>
      <trkpt lat="47.23839" lon="4.96422">
        <ele>331.94644165039</ele>
        <time>2018-03-08T09:57:46+0100</time>
      </trkpt>
      <trkpt lat="47.23838" lon="4.9642">
        <ele>332.2253112793</ele>
        <time>2018-03-08T09:57:49+0100</time>
      </trkpt>
      <trkpt lat="47.23836" lon="4.96418">
        <ele>332.48245239258</ele>
        <time>2018-03-08T09:57:52+0100</time>
      </trkpt>
      <trkpt lat="47.23835" lon="4.96415">
        <ele>332.72741699219</ele>
        <time>2018-03-08T09:57:55+0100</time>
      </trkpt>
      <trkpt lat="47.23833" lon="4.96412">
        <ele>332.99847412109</ele>
        <time>2018-03-08T09:57:58+0100</time>
      </trkpt>
      <trkpt lat="47.23832" lon="4.9641">
        <ele>333.25094604492</ele>
        <time>2018-03-08T09:58:01+0100</time>
      </trkpt>
      <trkpt lat="47.2383" lon="4.96408">
        <ele>333.44415283203</ele>
        <time>2018-03-08T09:58:04+0100</time>
      </trkpt>
      <trkpt lat="47.23827" lon="4.96405">
        <ele>333.6618347168</ele>
        <time>2018-03-08T09:58:07+0100</time>
      </trkpt>
      <trkpt lat="47.23825" lon="4.96402">
        <ele>333.90292358398</ele>
        <time>2018-03-08T09:58:10+0100</time>
      </trkpt>
      <trkpt lat="47.23823" lon="4.964">
        <ele>334.15267944336</ele>
        <time>2018-03-08T09:58:13+0100</time>
      </trkpt>
      <trkpt lat="47.2382" lon="4.96398">
        <ele>334.40716552734</ele>
        <time>2018-03-08T09:58:16+0100</time>
      </trkpt>
      <trkpt lat="47.23819" lon="4.96396">
        <ele>334.66180419922</ele>
        <time>2018-03-08T09:58:19+0100</time>
      </trkpt>
      <trkpt lat="47.23816" lon="4.96394">
        <ele>334.90505981445</ele>
        <time>2018-03-08T09:58:22+0100</time>
      </trkpt>
      <trkpt lat="47.23814" lon="4.96391">
        <ele>335.18487548828</ele>
        <time>2018-03-08T09:58:25+0100</time>
      </trkpt>
      <trkpt lat="47.23812" lon="4.96389">
        <ele>335.443359375</ele>
        <time>2018-03-08T09:58:28+0100</time>
      </trkpt>
      <trkpt lat="47.2381" lon="4.96387">
        <ele>335.69873046875</ele>
        <time>2018-03-08T09:58:31+0100</time>
      </trkpt>
      <trkpt lat="47.23809" lon="4.96384">
        <ele>335.93768310547</ele>
        <time>2018-03-08T09:58:34+0100</time>
      </trkpt>
      <trkpt lat="47.23808" lon="4.96382">
        <ele>336.14651489258</ele>
        <time>2018-03-08T09:58:37+0100</time>
      </trkpt>
      <trkpt lat="47.23807" lon="4.9638">
        <ele>336.33734130859</ele>
        <time>2018-03-08T09:58:40+0100</time>
      </trkpt>
      <trkpt lat="47.23805" lon="4.96377">
        <ele>336.53442382812</ele>
        <time>2018-03-08T09:58:43+0100</time>
      </trkpt>
      <trkpt lat="47.23805" lon="4.96375">
        <ele>336.69171142578</ele>
        <time>2018-03-08T09:58:46+0100</time>
      </trkpt>
      <trkpt lat="47.23804" lon="4.96373">
        <ele>336.82205200195</ele>
        <time>2018-03-08T09:58:49+0100</time>
      </trkpt>
      <trkpt lat="47.23803" lon="4.9637">
        <ele>336.953125</ele>
        <time>2018-03-08T09:58:52+0100</time>
      </trkpt>
      <trkpt lat="47.23802" lon="4.96367">
        <ele>337.10968017578</ele>
        <time>2018-03-08T09:58:55+0100</time>
      </trkpt>
      <trkpt lat="47.23802" lon="4.96366">
        <ele>337.1828918457</ele>
        <time>2018-03-08T09:58:58+0100</time>
      </trkpt>
      <trkpt lat="47.23801" lon="4.96364">
        <ele>337.38989257812</ele>
        <time>2018-03-08T09:59:01+0100</time>
      </trkpt>
      <trkpt lat="47.238" lon="4.96362">
        <ele>337.60458374023</ele>
        <time>2018-03-08T09:59:04+0100</time>
      </trkpt>
      <trkpt lat="47.23799" lon="4.9636">
        <ele>337.81600952148</ele>
        <time>2018-03-08T09:59:07+0100</time>
      </trkpt>
      <trkpt lat="47.23798" lon="4.96357">
        <ele>338.0022277832</ele>
        <time>2018-03-08T09:59:10+0100</time>
      </trkpt>
      <trkpt lat="47.23796" lon="4.96355">
        <ele>338.20858764648</ele>
        <time>2018-03-08T09:59:13+0100</time>
      </trkpt>
      <trkpt lat="47.23795" lon="4.96352">
        <ele>338.42645263672</ele>
        <time>2018-03-08T09:59:16+0100</time>
      </trkpt>
      <trkpt lat="47.23794" lon="4.9635">
        <ele>338.66815185547</ele>
        <time>2018-03-08T09:59:19+0100</time>
      </trkpt>
      <trkpt lat="47.23793" lon="4.96347">
        <ele>338.9045715332</ele>
        <time>2018-03-08T09:59:22+0100</time>
      </trkpt>
      <trkpt lat="47.23791" lon="4.96345">
        <ele>339.16577148438</ele>
        <time>2018-03-08T09:59:25+0100</time>
      </trkpt>
      <trkpt lat="47.2379" lon="4.96341">
        <ele>339.42218017578</ele>
        <time>2018-03-08T09:59:28+0100</time>
      </trkpt>
      <trkpt lat="47.23788" lon="4.96338">
        <ele>339.67059326172</ele>
        <time>2018-03-08T09:59:31+0100</time>
      </trkpt>
      <trkpt lat="47.23787" lon="4.96337">
        <ele>339.92910766602</ele>
        <time>2018-03-08T09:59:35+0100</time>
      </trkpt>
      <trkpt lat="47.23786" lon="4.96334">
        <ele>340.20010375977</ele>
        <time>2018-03-08T09:59:38+0100</time>
      </trkpt>
      <trkpt lat="47.23785" lon="4.96333">
        <ele>340.4856262207</ele>
        <time>2018-03-08T09:59:41+0100</time>
      </trkpt>
      <trkpt lat="47.23783" lon="4.96332">
        <ele>340.77886962891</ele>
        <time>2018-03-08T09:59:44+0100</time>
      </trkpt>
      <trkpt lat="47.23781" lon="4.96329">
        <ele>341.0725402832</ele>
        <time>2018-03-08T09:59:47+0100</time>
      </trkpt>
      <trkpt lat="47.23779" lon="4.96326">
        <ele>341.37405395508</ele>
        <time>2018-03-08T09:59:50+0100</time>
      </trkpt>
      <trkpt lat="47.23777" lon="4.96323">
        <ele>341.6692199707</ele>
        <time>2018-03-08T09:59:53+0100</time>
      </trkpt>
      <trkpt lat="47.23776" lon="4.96321">
        <ele>341.95373535156</ele>
        <time>2018-03-08T09:59:56+0100</time>
      </trkpt>
      <trkpt lat="47.23774" lon="4.96319">
        <ele>342.22991943359</ele>
        <time>2018-03-08T09:59:59+0100</time>
      </trkpt>
      <trkpt lat="47.23773" lon="4.96318">
        <ele>342.51498413086</ele>
        <time>2018-03-08T10:00:02+0100</time>
      </trkpt>
      <trkpt lat="47.23772" lon="4.96317">
        <ele>342.81848144531</ele>
        <time>2018-03-08T10:00:05+0100</time>
      </trkpt>
      <trkpt lat="47.2377" lon="4.96315">
        <ele>343.12506103516</ele>
        <time>2018-03-08T10:00:08+0100</time>
      </trkpt>
      <trkpt lat="47.23768" lon="4.96313">
        <ele>343.43881225586</ele>
        <time>2018-03-08T10:00:11+0100</time>
      </trkpt>
      <trkpt lat="47.23765" lon="4.9631">
        <ele>343.75100708008</ele>
        <time>2018-03-08T10:00:14+0100</time>
      </trkpt>
      <trkpt lat="47.23763" lon="4.96307">
        <ele>344.07092285156</ele>
        <time>2018-03-08T10:00:17+0100</time>
      </trkpt>
      <trkpt lat="47.23761" lon="4.96305">
        <ele>344.388671875</ele>
        <time>2018-03-08T10:00:20+0100</time>
      </trkpt>
      <trkpt lat="47.23759" lon="4.96304">
        <ele>344.72247314453</ele>
        <time>2018-03-08T10:00:23+0100</time>
      </trkpt>
      <trkpt lat="47.23756" lon="4.96301">
        <ele>345.05038452148</ele>
        <time>2018-03-08T10:00:26+0100</time>
      </trkpt>
      <trkpt lat="47.23754" lon="4.96299">
        <ele>345.37359619141</ele>
        <time>2018-03-08T10:00:29+0100</time>
      </trkpt>
      <trkpt lat="47.23752" lon="4.96297">
        <ele>345.6897277832</ele>
        <time>2018-03-08T10:00:32+0100</time>
      </trkpt>
      <trkpt lat="47.2375" lon="4.96295">
        <ele>346.00646972656</ele>
        <time>2018-03-08T10:00:35+0100</time>
      </trkpt>
      <trkpt lat="47.23749" lon="4.96293">
        <ele>346.32452392578</ele>
        <time>2018-03-08T10:00:38+0100</time>
      </trkpt>
      <trkpt lat="47.23746" lon="4.9629">
        <ele>346.66012573242</ele>
        <time>2018-03-08T10:00:41+0100</time>
      </trkpt>
      <trkpt lat="47.23744" lon="4.96288">
        <ele>346.98596191406</ele>
        <time>2018-03-08T10:00:44+0100</time>
      </trkpt>
      <trkpt lat="47.23742" lon="4.96285">
        <ele>347.31066894531</ele>
        <time>2018-03-08T10:00:47+0100</time>
      </trkpt>
      <trkpt lat="47.23741" lon="4.96283">
        <ele>347.62017822266</ele>
        <time>2018-03-08T10:00:50+0100</time>
      </trkpt>
      <trkpt lat="47.23739" lon="4.9628">
        <ele>347.92611694336</ele>
        <time>2018-03-08T10:00:53+0100</time>
      </trkpt>
      <trkpt lat="47.23737" lon="4.96277">
        <ele>348.23828125</ele>
        <time>2018-03-08T10:00:56+0100</time>
      </trkpt>
      <trkpt lat="47.23735" lon="4.96274">
        <ele>348.56109619141</ele>
        <time>2018-03-08T10:00:59+0100</time>
      </trkpt>
      <trkpt lat="47.23733" lon="4.96272">
        <ele>348.87979125977</ele>
        <time>2018-03-08T10:01:02+0100</time>
      </trkpt>
      <trkpt lat="47.23732" lon="4.96271">
        <ele>349.19787597656</ele>
        <time>2018-03-08T10:01:05+0100</time>
      </trkpt>
      <trkpt lat="47.2373" lon="4.9627">
        <ele>349.51370239258</ele>
        <time>2018-03-08T10:01:08+0100</time>
      </trkpt>
      <trkpt lat="47.23729" lon="4.96269">
        <ele>349.81552124023</ele>
        <time>2018-03-08T10:01:11+0100</time>
      </trkpt>
      <trkpt lat="47.23727" lon="4.96267">
        <ele>350.11492919922</ele>
        <time>2018-03-08T10:01:14+0100</time>
      </trkpt>
      <trkpt lat="47.23725" lon="4.96265">
        <ele>350.4040222168</ele>
        <time>2018-03-08T10:01:17+0100</time>
      </trkpt>
      <trkpt lat="47.23724" lon="4.96265">
        <ele>350.6943359375</ele>
        <time>2018-03-08T10:01:20+0100</time>
      </trkpt>
      <trkpt lat="47.23722" lon="4.96263">
        <ele>350.96282958984</ele>
        <time>2018-03-08T10:01:23+0100</time>
      </trkpt>
      <trkpt lat="47.2372" lon="4.96262">
        <ele>351.21704101562</ele>
        <time>2018-03-08T10:01:26+0100</time>
      </trkpt>
      <trkpt lat="47.23718" lon="4.96261">
        <ele>351.47268676758</ele>
        <time>2018-03-08T10:01:29+0100</time>
      </trkpt>
      <trkpt lat="47.23715" lon="4.96261">
        <ele>351.74993896484</ele>
        <time>2018-03-08T10:01:32+0100</time>
      </trkpt>
      <trkpt lat="47.23714" lon="4.9626">
        <ele>352.00158691406</ele>
        <time>2018-03-08T10:01:35+0100</time>
      </trkpt>
      <trkpt lat="47.23712" lon="4.96258">
        <ele>352.20758056641</ele>
        <time>2018-03-08T10:01:38+0100</time>
      </trkpt>
      <trkpt lat="47.2371" lon="4.96258">
        <ele>352.40505981445</ele>
        <time>2018-03-08T10:01:41+0100</time>
      </trkpt>
      <trkpt lat="47.23706" lon="4.96257">
        <ele>352.61270141602</ele>
        <time>2018-03-08T10:01:44+0100</time>
      </trkpt>
      <trkpt lat="47.23703" lon="4.96257">
        <ele>352.80471801758</ele>
        <time>2018-03-08T10:01:47+0100</time>
      </trkpt>
      <trkpt lat="47.23701" lon="4.96257">
        <ele>352.98004150391</ele>
        <time>2018-03-08T10:01:50+0100</time>
      </trkpt>
      <trkpt lat="47.23698" lon="4.96256">
        <ele>353.1637878418</ele>
        <time>2018-03-08T10:01:53+0100</time>
      </trkpt>
      <trkpt lat="47.23695" lon="4.96256">
        <ele>353.34219360352</ele>
        <time>2018-03-08T10:01:56+0100</time>
      </trkpt>
      <trkpt lat="47.23692" lon="4.96255">
        <ele>353.52053833008</ele>
        <time>2018-03-08T10:01:59+0100</time>
      </trkpt>
      <trkpt lat="47.23689" lon="4.96255">
        <ele>353.68688964844</ele>
        <time>2018-03-08T10:02:02+0100</time>
      </trkpt>
      <trkpt lat="47.23686" lon="4.96254">
        <ele>353.84594726562</ele>
        <time>2018-03-08T10:02:05+0100</time>
      </trkpt>
      <trkpt lat="47.23683" lon="4.96254">
        <ele>354.00082397461</ele>
        <time>2018-03-08T10:02:08+0100</time>
      </trkpt>
      <trkpt lat="47.23682" lon="4.96253">
        <ele>354.14663696289</ele>
        <time>2018-03-08T10:02:11+0100</time>
      </trkpt>
      <trkpt lat="47.23679" lon="4.96253">
        <ele>354.27145385742</ele>
        <time>2018-03-08T10:02:14+0100</time>
      </trkpt>
      <trkpt lat="47.23675" lon="4.96254">
        <ele>354.42184448242</ele>
        <time>2018-03-08T10:02:17+0100</time>
      </trkpt>
      <trkpt lat="47.23672" lon="4.96254">
        <ele>354.56567382812</ele>
        <time>2018-03-08T10:02:20+0100</time>
      </trkpt>
      <trkpt lat="47.2367" lon="4.96253">
        <ele>354.7106628418</ele>
        <time>2018-03-08T10:02:23+0100</time>
      </trkpt>
      <trkpt lat="47.23669" lon="4.96253">
        <ele>354.85260009766</ele>
        <time>2018-03-08T10:02:26+0100</time>
      </trkpt>
      <trkpt lat="47.23666" lon="4.96253">
        <ele>355.03302001953</ele>
        <time>2018-03-08T10:02:29+0100</time>
      </trkpt>
      <trkpt lat="47.23665" lon="4.96252">
        <ele>355.22079467773</ele>
        <time>2018-03-08T10:02:32+0100</time>
      </trkpt>
      <trkpt lat="47.23665" lon="4.96252">
        <ele>355.24230957031</ele>
        <time>2018-03-08T10:02:35+0100</time>
      </trkpt>
      <trkpt lat="47.23665" lon="4.96252">
        <ele>355.45474243164</ele>
        <time>2018-03-08T10:02:38+0100</time>
      </trkpt>
      <trkpt lat="47.23663" lon="4.96252">
        <ele>355.65728759766</ele>
        <time>2018-03-08T10:02:41+0100</time>
      </trkpt>
      <trkpt lat="47.23661" lon="4.96252">
        <ele>355.84561157227</ele>
        <time>2018-03-08T10:02:44+0100</time>
      </trkpt>
      <trkpt lat="47.23658" lon="4.96252">
        <ele>356.00006103516</ele>
        <time>2018-03-08T10:02:47+0100</time>
      </trkpt>
      <trkpt lat="47.23654" lon="4.96252">
        <ele>356.14352416992</ele>
        <time>2018-03-08T10:02:50+0100</time>
      </trkpt>
      <trkpt lat="47.23651" lon="4.96252">
        <ele>356.27593994141</ele>
        <time>2018-03-08T10:02:53+0100</time>
      </trkpt>
      <trkpt lat="47.23648" lon="4.96253">
        <ele>356.41073608398</ele>
        <time>2018-03-08T10:02:56+0100</time>
      </trkpt>
      <trkpt lat="47.23646" lon="4.96253">
        <ele>356.5530090332</ele>
        <time>2018-03-08T10:02:59+0100</time>
      </trkpt>
      <trkpt lat="47.23643" lon="4.96253">
        <ele>356.70172119141</ele>
        <time>2018-03-08T10:03:02+0100</time>
      </trkpt>
      <trkpt lat="47.23641" lon="4.96252">
        <ele>356.84124755859</ele>
        <time>2018-03-08T10:03:05+0100</time>
      </trkpt>
      <trkpt lat="47.2364" lon="4.96252">
        <ele>356.89608764648</ele>
        <time>2018-03-08T10:03:08+0100</time>
      </trkpt>
      <trkpt lat="47.2364" lon="4.96252">
        <ele>356.90725708008</ele>
        <time>2018-03-08T10:03:11+0100</time>
      </trkpt>
      <trkpt lat="47.2364" lon="4.96251">
        <ele>356.91711425781</ele>
        <time>2018-03-08T10:03:14+0100</time>
      </trkpt>
      <trkpt lat="47.2364" lon="4.96251">
        <ele>356.92138671875</ele>
        <time>2018-03-08T10:03:17+0100</time>
      </trkpt>
      <trkpt lat="47.2364" lon="4.96251">
        <ele>356.9091796875</ele>
        <time>2018-03-08T10:03:20+0100</time>
      </trkpt>
      <trkpt lat="47.23641" lon="4.9625">
        <ele>356.88900756836</ele>
        <time>2018-03-08T10:03:23+0100</time>
      </trkpt>
      <trkpt lat="47.23641" lon="4.9625">
        <ele>356.87493896484</ele>
        <time>2018-03-08T10:03:26+0100</time>
      </trkpt>
      <trkpt lat="47.2364" lon="4.9625">
        <ele>356.86129760742</ele>
        <time>2018-03-08T10:03:29+0100</time>
      </trkpt>
      <trkpt lat="47.2364" lon="4.9625">
        <ele>356.84432983398</ele>
        <time>2018-03-08T10:03:32+0100</time>
      </trkpt>
      <trkpt lat="47.2364" lon="4.9625">
        <ele>356.8244934082</ele>
        <time>2018-03-08T10:03:35+0100</time>
      </trkpt>
      <trkpt lat="47.2364" lon="4.9625">
        <ele>356.80422973633</ele>
        <time>2018-03-08T10:03:38+0100</time>
      </trkpt>
      <trkpt lat="47.2364" lon="4.9625">
        <ele>356.77230834961</ele>
        <time>2018-03-08T10:03:41+0100</time>
      </trkpt>
      <trkpt lat="47.23641" lon="4.9625">
        <ele>356.73254394531</ele>
        <time>2018-03-08T10:03:44+0100</time>
      </trkpt>
      <trkpt lat="47.23641" lon="4.9625">
        <ele>356.69448852539</ele>
        <time>2018-03-08T10:03:47+0100</time>
      </trkpt>
      <trkpt lat="47.23641" lon="4.9625">
        <ele>356.65609741211</ele>
        <time>2018-03-08T10:03:50+0100</time>
      </trkpt>
      <trkpt lat="47.23641" lon="4.9625">
        <ele>356.61657714844</ele>
        <time>2018-03-08T10:03:53+0100</time>
      </trkpt>
      <trkpt lat="47.23641" lon="4.9625">
        <ele>356.57818603516</ele>
        <time>2018-03-08T10:03:56+0100</time>
      </trkpt>
      <trkpt lat="47.23641" lon="4.9625">
        <ele>356.54235839844</ele>
        <time>2018-03-08T10:03:59+0100</time>
      </trkpt>
      <trkpt lat="47.2364" lon="4.9625">
        <ele>356.51092529297</ele>
        <time>2018-03-08T10:04:02+0100</time>
      </trkpt>
      <trkpt lat="47.2364" lon="4.9625">
        <ele>356.48596191406</ele>
        <time>2018-03-08T10:04:05+0100</time>
      </trkpt>
      <trkpt lat="47.2364" lon="4.9625">
        <ele>356.46728515625</ele>
        <time>2018-03-08T10:04:08+0100</time>
      </trkpt>
      <trkpt lat="47.2364" lon="4.9625">
        <ele>356.45657348633</ele>
        <time>2018-03-08T10:04:11+0100</time>
      </trkpt>
      <trkpt lat="47.2364" lon="4.9625">
        <ele>356.44982910156</ele>
        <time>2018-03-08T10:04:14+0100</time>
      </trkpt>
      <trkpt lat="47.2364" lon="4.9625">
        <ele>356.44354248047</ele>
        <time>2018-03-08T10:04:17+0100</time>
      </trkpt>
      <trkpt lat="47.2364" lon="4.9625">
        <ele>356.43936157227</ele>
        <time>2018-03-08T10:04:20+0100</time>
      </trkpt>
      <trkpt lat="47.2364" lon="4.9625">
        <ele>356.44110107422</ele>
        <time>2018-03-08T10:04:23+0100</time>
      </trkpt>
      <trkpt lat="47.2364" lon="4.9625">
        <ele>356.4475402832</ele>
        <time>2018-03-08T10:04:26+0100</time>
      </trkpt>
      <trkpt lat="47.2364" lon="4.9625">
        <ele>356.45349121094</ele>
        <time>2018-03-08T10:04:29+0100</time>
      </trkpt>
      <trkpt lat="47.2364" lon="4.9625">
        <ele>356.45489501953</ele>
        <time>2018-03-08T10:04:32+0100</time>
      </trkpt>
      <trkpt lat="47.2364" lon="4.9625">
        <ele>356.45385742188</ele>
        <time>2018-03-08T10:04:35+0100</time>
      </trkpt>
      <trkpt lat="47.2364" lon="4.9625">
        <ele>356.45343017578</ele>
        <time>2018-03-08T10:04:38+0100</time>
      </trkpt>
      <trkpt lat="47.2364" lon="4.9625">
        <ele>356.45321655273</ele>
        <time>2018-03-08T10:04:41+0100</time>
      </trkpt>
      <trkpt lat="47.23639" lon="4.9625">
        <ele>356.45071411133</ele>
        <time>2018-03-08T10:04:44+0100</time>
      </trkpt>
      <trkpt lat="47.23639" lon="4.9625">
        <ele>356.44696044922</ele>
        <time>2018-03-08T10:04:47+0100</time>
      </trkpt>
      <trkpt lat="47.23639" lon="4.9625">
        <ele>356.44036865234</ele>
        <time>2018-03-08T10:04:50+0100</time>
      </trkpt>
      <trkpt lat="47.23639" lon="4.9625">
        <ele>356.42529296875</ele>
        <time>2018-03-08T10:04:53+0100</time>
      </trkpt>
      <trkpt lat="47.23639" lon="4.9625">
        <ele>356.4001159668</ele>
        <time>2018-03-08T10:04:56+0100</time>
      </trkpt>
      <trkpt lat="47.2364" lon="4.9625">
        <ele>356.3703918457</ele>
        <time>2018-03-08T10:04:59+0100</time>
      </trkpt>
      <trkpt lat="47.2364" lon="4.9625">
        <ele>356.34127807617</ele>
        <time>2018-03-08T10:05:02+0100</time>
      </trkpt>
      <trkpt lat="47.2364" lon="4.96251">
        <ele>356.31988525391</ele>
        <time>2018-03-08T10:05:05+0100</time>
      </trkpt>
      <trkpt lat="47.2364" lon="4.96251">
        <ele>356.28610229492</ele>
        <time>2018-03-08T10:05:08+0100</time>
      </trkpt>
      <trkpt lat="47.2364" lon="4.96251">
        <ele>356.24932861328</ele>
        <time>2018-03-08T10:05:11+0100</time>
      </trkpt>
      <trkpt lat="47.23639" lon="4.96251">
        <ele>356.2414855957</ele>
        <time>2018-03-08T10:05:14+0100</time>
      </trkpt>
      <trkpt lat="47.23638" lon="4.96251">
        <ele>356.21548461914</ele>
        <time>2018-03-08T10:05:17+0100</time>
      </trkpt>
      <trkpt lat="47.23637" lon="4.96251">
        <ele>356.19174194336</ele>
        <time>2018-03-08T10:05:20+0100</time>
      </trkpt>
      <trkpt lat="47.23637" lon="4.96252">
        <ele>356.15649414062</ele>
        <time>2018-03-08T10:05:23+0100</time>
      </trkpt>
      <trkpt lat="47.23636" lon="4.96254">
        <ele>356.12380981445</ele>
        <time>2018-03-08T10:05:26+0100</time>
      </trkpt>
      <trkpt lat="47.23634" lon="4.96256">
        <ele>356.12438964844</ele>
        <time>2018-03-08T10:05:29+0100</time>
      </trkpt>
      <trkpt lat="47.23633" lon="4.96257">
        <ele>356.09698486328</ele>
        <time>2018-03-08T10:05:32+0100</time>
      </trkpt>
      <trkpt lat="47.23632" lon="4.96259">
        <ele>356.04843139648</ele>
        <time>2018-03-08T10:05:35+0100</time>
      </trkpt>
      <trkpt lat="47.23631" lon="4.96263">
        <ele>356.0290222168</ele>
        <time>2018-03-08T10:05:38+0100</time>
      </trkpt>
      <trkpt lat="47.2363" lon="4.96266">
        <ele>356.00421142578</ele>
        <time>2018-03-08T10:05:41+0100</time>
      </trkpt>
      <trkpt lat="47.2363" lon="4.96269">
        <ele>355.97653198242</ele>
        <time>2018-03-08T10:05:44+0100</time>
      </trkpt>
      <trkpt lat="47.23629" lon="4.96273">
        <ele>355.96981811523</ele>
        <time>2018-03-08T10:05:47+0100</time>
      </trkpt>
      <trkpt lat="47.23628" lon="4.96277">
        <ele>355.97598266602</ele>
        <time>2018-03-08T10:05:50+0100</time>
      </trkpt>
      <trkpt lat="47.23627" lon="4.96281">
        <ele>355.98852539062</ele>
        <time>2018-03-08T10:05:53+0100</time>
      </trkpt>
      <trkpt lat="47.23627" lon="4.96284">
        <ele>355.91009521484</ele>
        <time>2018-03-08T10:05:56+0100</time>
      </trkpt>
      <trkpt lat="47.23627" lon="4.96288">
        <ele>355.85278320312</ele>
        <time>2018-03-08T10:05:59+0100</time>
      </trkpt>
      <trkpt lat="47.23627" lon="4.96291">
        <ele>355.80191040039</ele>
        <time>2018-03-08T10:06:02+0100</time>
      </trkpt>
      <trkpt lat="47.23626" lon="4.96293">
        <ele>355.72271728516</ele>
        <time>2018-03-08T10:06:05+0100</time>
      </trkpt>
      <trkpt lat="47.23624" lon="4.96296">
        <ele>355.62548828125</ele>
        <time>2018-03-08T10:06:08+0100</time>
      </trkpt>
      <trkpt lat="47.2362" lon="4.96295">
        <ele>355.52014160156</ele>
        <time>2018-03-08T10:06:11+0100</time>
      </trkpt>
      <trkpt lat="47.23617" lon="4.96292">
        <ele>355.40625</ele>
        <time>2018-03-08T10:06:14+0100</time>
      </trkpt>
      <trkpt lat="47.23613" lon="4.96289">
        <ele>355.30111694336</ele>
        <time>2018-03-08T10:06:17+0100</time>
      </trkpt>
      <trkpt lat="47.2361" lon="4.96287">
        <ele>355.20950317383</ele>
        <time>2018-03-08T10:06:20+0100</time>
      </trkpt>
      <trkpt lat="47.23607" lon="4.96282">
        <ele>355.08642578125</ele>
        <time>2018-03-08T10:06:23+0100</time>
      </trkpt>
      <trkpt lat="47.23605" lon="4.96279">
        <ele>354.95593261719</ele>
        <time>2018-03-08T10:06:26+0100</time>
      </trkpt>
      <trkpt lat="47.23604" lon="4.96276">
        <ele>354.82571411133</ele>
        <time>2018-03-08T10:06:29+0100</time>
      </trkpt>
      <trkpt lat="47.23603" lon="4.96271">
        <ele>354.72128295898</ele>
        <time>2018-03-08T10:06:32+0100</time>
      </trkpt>
      <trkpt lat="47.23602" lon="4.96268">
        <ele>354.61871337891</ele>
        <time>2018-03-08T10:06:35+0100</time>
      </trkpt>
      <trkpt lat="47.23602" lon="4.96265">
        <ele>354.49169921875</ele>
        <time>2018-03-08T10:06:38+0100</time>
      </trkpt>
      <trkpt lat="47.23602" lon="4.96261">
        <ele>354.38034057617</ele>
        <time>2018-03-08T10:06:41+0100</time>
      </trkpt>
      <trkpt lat="47.23602" lon="4.96258">
        <ele>354.28198242188</ele>
        <time>2018-03-08T10:06:44+0100</time>
      </trkpt>
      <trkpt lat="47.23602" lon="4.96253">
        <ele>354.21200561523</ele>
        <time>2018-03-08T10:06:47+0100</time>
      </trkpt>
      <trkpt lat="47.23601" lon="4.96249">
        <ele>354.16635131836</ele>
        <time>2018-03-08T10:06:50+0100</time>
      </trkpt>
      <trkpt lat="47.236" lon="4.96247">
        <ele>354.11901855469</ele>
        <time>2018-03-08T10:06:53+0100</time>
      </trkpt>
      <trkpt lat="47.23598" lon="4.96244">
        <ele>354.05853271484</ele>
        <time>2018-03-08T10:06:56+0100</time>
      </trkpt>
      <trkpt lat="47.23595" lon="4.96242">
        <ele>353.97445678711</ele>
        <time>2018-03-08T10:06:59+0100</time>
      </trkpt>
      <trkpt lat="47.23594" lon="4.9624">
        <ele>353.86560058594</ele>
        <time>2018-03-08T10:07:02+0100</time>
      </trkpt>
      <trkpt lat="47.23591" lon="4.96239">
        <ele>353.74340820312</ele>
        <time>2018-03-08T10:07:05+0100</time>
      </trkpt>
      <trkpt lat="47.23589" lon="4.96237">
        <ele>353.58724975586</ele>
        <time>2018-03-08T10:07:08+0100</time>
      </trkpt>
      <trkpt lat="47.23586" lon="4.96237">
        <ele>353.43228149414</ele>
        <time>2018-03-08T10:07:11+0100</time>
      </trkpt>
      <trkpt lat="47.23585" lon="4.96237">
        <ele>353.37561035156</ele>
        <time>2018-03-08T10:07:14+0100</time>
      </trkpt>
      <trkpt lat="47.23585" lon="4.96237">
        <ele>353.36184692383</ele>
        <time>2018-03-08T10:07:17+0100</time>
      </trkpt>
      <trkpt lat="47.23584" lon="4.96237">
        <ele>353.31024169922</ele>
        <time>2018-03-08T10:07:20+0100</time>
      </trkpt>
      <trkpt lat="47.23584" lon="4.96236">
        <ele>353.19458007812</ele>
        <time>2018-03-08T10:07:23+0100</time>
      </trkpt>
      <trkpt lat="47.23584" lon="4.96235">
        <ele>352.95083618164</ele>
        <time>2018-03-08T10:07:26+0100</time>
      </trkpt>
      <trkpt lat="47.23583" lon="4.96234">
        <ele>352.927734375</ele>
        <time>2018-03-08T10:07:29+0100</time>
      </trkpt>
      <trkpt lat="47.23584" lon="4.96234">
        <ele>352.80981445312</ele>
        <time>2018-03-08T10:07:32+0100</time>
      </trkpt>
      <trkpt lat="47.23583" lon="4.96233">
        <ele>352.53887939453</ele>
        <time>2018-03-08T10:07:35+0100</time>
      </trkpt>
      <trkpt lat="47.23582" lon="4.96232">
        <ele>352.37106323242</ele>
        <time>2018-03-08T10:07:38+0100</time>
      </trkpt>
      <trkpt lat="47.23581" lon="4.96233">
        <ele>352.27728271484</ele>
        <time>2018-03-08T10:07:41+0100</time>
      </trkpt>
      <trkpt lat="47.23581" lon="4.96233">
        <ele>352.25100708008</ele>
        <time>2018-03-08T10:07:44+0100</time>
      </trkpt>
      <trkpt lat="47.23581" lon="4.96233">
        <ele>352.22482299805</ele>
        <time>2018-03-08T10:07:47+0100</time>
      </trkpt>
      <trkpt lat="47.23581" lon="4.96233">
        <ele>352.20471191406</ele>
        <time>2018-03-08T10:07:50+0100</time>
      </trkpt>
      <trkpt lat="47.23581" lon="4.96233">
        <ele>352.18600463867</ele>
        <time>2018-03-08T10:07:53+0100</time>
      </trkpt>
      <trkpt lat="47.23581" lon="4.96233">
        <ele>352.16271972656</ele>
        <time>2018-03-08T10:07:56+0100</time>
      </trkpt>
      <trkpt lat="47.23581" lon="4.96233">
        <ele>352.13125610352</ele>
        <time>2018-03-08T10:07:59+0100</time>
      </trkpt>
      <trkpt lat="47.23581" lon="4.96233">
        <ele>352.09100341797</ele>
        <time>2018-03-08T10:08:02+0100</time>
      </trkpt>
      <trkpt lat="47.23581" lon="4.96233">
        <ele>352.04611206055</ele>
        <time>2018-03-08T10:08:05+0100</time>
      </trkpt>
      <trkpt lat="47.23581" lon="4.96233">
        <ele>352.00003051758</ele>
        <time>2018-03-08T10:08:08+0100</time>
      </trkpt>
      <trkpt lat="47.23581" lon="4.96233">
        <ele>351.95211791992</ele>
        <time>2018-03-08T10:08:11+0100</time>
      </trkpt>
      <trkpt lat="47.23581" lon="4.96233">
        <ele>351.89984130859</ele>
        <time>2018-03-08T10:08:14+0100</time>
      </trkpt>
      <trkpt lat="47.23581" lon="4.96233">
        <ele>351.84912109375</ele>
        <time>2018-03-08T10:08:17+0100</time>
      </trkpt>
      <trkpt lat="47.23581" lon="4.96233">
        <ele>351.79730224609</ele>
        <time>2018-03-08T10:08:20+0100</time>
      </trkpt>
      <trkpt lat="47.23581" lon="4.96234">
        <ele>351.74685668945</ele>
        <time>2018-03-08T10:08:23+0100</time>
      </trkpt>
      <trkpt lat="47.23581" lon="4.96234">
        <ele>351.69186401367</ele>
        <time>2018-03-08T10:08:26+0100</time>
      </trkpt>
      <trkpt lat="47.23581" lon="4.96234">
        <ele>351.63305664062</ele>
        <time>2018-03-08T10:08:29+0100</time>
      </trkpt>
      <trkpt lat="47.23581" lon="4.96233">
        <ele>351.57507324219</ele>
        <time>2018-03-08T10:08:32+0100</time>
      </trkpt>
      <trkpt lat="47.23581" lon="4.96233">
        <ele>351.52029418945</ele>
        <time>2018-03-08T10:08:35+0100</time>
      </trkpt>
      <trkpt lat="47.23579" lon="4.96233">
        <ele>351.31954956055</ele>
        <time>2018-03-08T10:08:38+0100</time>
      </trkpt>
      <trkpt lat="47.23579" lon="4.96233">
        <ele>351.28698730469</ele>
        <time>2018-03-08T10:08:41+0100</time>
      </trkpt>
      <trkpt lat="47.23579" lon="4.96233">
        <ele>351.26168823242</ele>
        <time>2018-03-08T10:08:44+0100</time>
      </trkpt>
      <trkpt lat="47.23579" lon="4.96233">
        <ele>351.23889160156</ele>
        <time>2018-03-08T10:08:47+0100</time>
      </trkpt>
      <trkpt lat="47.23579" lon="4.96233">
        <ele>351.21633911133</ele>
        <time>2018-03-08T10:08:50+0100</time>
      </trkpt>
      <trkpt lat="47.23579" lon="4.96233">
        <ele>351.19305419922</ele>
        <time>2018-03-08T10:08:53+0100</time>
      </trkpt>
      <trkpt lat="47.23579" lon="4.96233">
        <ele>351.17172241211</ele>
        <time>2018-03-08T10:08:56+0100</time>
      </trkpt>
      <trkpt lat="47.23578" lon="4.96232">
        <ele>351.01196289062</ele>
        <time>2018-03-08T10:08:59+0100</time>
      </trkpt>
      <trkpt lat="47.23576" lon="4.96232">
        <ele>350.9108581543</ele>
        <time>2018-03-08T10:09:02+0100</time>
      </trkpt>
      <trkpt lat="47.23573" lon="4.96232">
        <ele>350.78753662109</ele>
        <time>2018-03-08T10:09:05+0100</time>
      </trkpt>
      <trkpt lat="47.23572" lon="4.96231">
        <ele>350.68026733398</ele>
        <time>2018-03-08T10:09:08+0100</time>
      </trkpt>
      <trkpt lat="47.2357" lon="4.96231">
        <ele>350.6003112793</ele>
        <time>2018-03-08T10:09:11+0100</time>
      </trkpt>
      <trkpt lat="47.23569" lon="4.96232">
        <ele>350.55825805664</ele>
        <time>2018-03-08T10:09:14+0100</time>
      </trkpt>
      <trkpt lat="47.23568" lon="4.96232">
        <ele>350.49072265625</ele>
        <time>2018-03-08T10:09:17+0100</time>
      </trkpt>
      <trkpt lat="47.23566" lon="4.96233">
        <ele>350.3603515625</ele>
        <time>2018-03-08T10:09:20+0100</time>
      </trkpt>
      <trkpt lat="47.23565" lon="4.96235">
        <ele>350.22906494141</ele>
        <time>2018-03-08T10:09:23+0100</time>
      </trkpt>
      <trkpt lat="47.23564" lon="4.96236">
        <ele>350.19158935547</ele>
        <time>2018-03-08T10:09:26+0100</time>
      </trkpt>
      <trkpt lat="47.23565" lon="4.96236">
        <ele>350.18325805664</ele>
        <time>2018-03-08T10:09:29+0100</time>
      </trkpt>
      <trkpt lat="47.23564" lon="4.96238">
        <ele>350.1223449707</ele>
        <time>2018-03-08T10:09:32+0100</time>
      </trkpt>
      <trkpt lat="47.23565" lon="4.96239">
        <ele>350.08969116211</ele>
        <time>2018-03-08T10:09:35+0100</time>
      </trkpt>
      <trkpt lat="47.23565" lon="4.9624">
        <ele>350.08993530273</ele>
        <time>2018-03-08T10:09:38+0100</time>
      </trkpt>
      <trkpt lat="47.23565" lon="4.96241">
        <ele>350.12457275391</ele>
        <time>2018-03-08T10:09:41+0100</time>
      </trkpt>
      <trkpt lat="47.23565" lon="4.96242">
        <ele>350.14169311523</ele>
        <time>2018-03-08T10:09:44+0100</time>
      </trkpt>
      <trkpt lat="47.23564" lon="4.96244">
        <ele>350.19192504883</ele>
        <time>2018-03-08T10:09:47+0100</time>
      </trkpt>
      <trkpt lat="47.23563" lon="4.96245">
        <ele>350.23297119141</ele>
        <time>2018-03-08T10:09:50+0100</time>
      </trkpt>
      <trkpt lat="47.23562" lon="4.96247">
        <ele>350.28073120117</ele>
        <time>2018-03-08T10:09:53+0100</time>
      </trkpt>
      <trkpt lat="47.2356" lon="4.96248">
        <ele>350.33657836914</ele>
        <time>2018-03-08T10:09:56+0100</time>
      </trkpt>
      <trkpt lat="47.23557" lon="4.96249">
        <ele>350.39334106445</ele>
        <time>2018-03-08T10:09:59+0100</time>
      </trkpt>
      <trkpt lat="47.23555" lon="4.9625">
        <ele>350.43615722656</ele>
        <time>2018-03-08T10:10:02+0100</time>
      </trkpt>
      <trkpt lat="47.23552" lon="4.9625">
        <ele>350.45803833008</ele>
        <time>2018-03-08T10:10:05+0100</time>
      </trkpt>
      <trkpt lat="47.2355" lon="4.96249">
        <ele>350.46429443359</ele>
        <time>2018-03-08T10:10:08+0100</time>
      </trkpt>
      <trkpt lat="47.23548" lon="4.96248">
        <ele>350.52908325195</ele>
        <time>2018-03-08T10:10:11+0100</time>
      </trkpt>
      <trkpt lat="47.23547" lon="4.96247">
        <ele>350.59106445312</ele>
        <time>2018-03-08T10:10:14+0100</time>
      </trkpt>
      <trkpt lat="47.23546" lon="4.96243">
        <ele>350.65463256836</ele>
        <time>2018-03-08T10:10:17+0100</time>
      </trkpt>
      <trkpt lat="47.23546" lon="4.96241">
        <ele>350.70199584961</ele>
        <time>2018-03-08T10:10:20+0100</time>
      </trkpt>
      <trkpt lat="47.23546" lon="4.96238">
        <ele>350.7536315918</ele>
        <time>2018-03-08T10:10:23+0100</time>
      </trkpt>
      <trkpt lat="47.23546" lon="4.96234">
        <ele>350.84121704102</ele>
        <time>2018-03-08T10:10:26+0100</time>
      </trkpt>
      <trkpt lat="47.23545" lon="4.9623">
        <ele>350.98233032227</ele>
        <time>2018-03-08T10:10:29+0100</time>
      </trkpt>
      <trkpt lat="47.23545" lon="4.96228">
        <ele>351.10873413086</ele>
        <time>2018-03-08T10:10:32+0100</time>
      </trkpt>
      <trkpt lat="47.23544" lon="4.96227">
        <ele>351.24917602539</ele>
        <time>2018-03-08T10:10:35+0100</time>
      </trkpt>
      <trkpt lat="47.23544" lon="4.96225">
        <ele>351.32846069336</ele>
        <time>2018-03-08T10:10:38+0100</time>
      </trkpt>
      <trkpt lat="47.23544" lon="4.96225">
        <ele>351.40365600586</ele>
        <time>2018-03-08T10:10:41+0100</time>
      </trkpt>
      <trkpt lat="47.23543" lon="4.96225">
        <ele>351.53375244141</ele>
        <time>2018-03-08T10:10:44+0100</time>
      </trkpt>
      <trkpt lat="47.23541" lon="4.96224">
        <ele>351.69372558594</ele>
        <time>2018-03-08T10:10:47+0100</time>
      </trkpt>
      <trkpt lat="47.23539" lon="4.96224">
        <ele>351.81927490234</ele>
        <time>2018-03-08T10:10:50+0100</time>
      </trkpt>
      <trkpt lat="47.23535" lon="4.96224">
        <ele>351.93215942383</ele>
        <time>2018-03-08T10:10:53+0100</time>
      </trkpt>
      <trkpt lat="47.23531" lon="4.96225">
        <ele>352.04339599609</ele>
        <time>2018-03-08T10:10:56+0100</time>
      </trkpt>
      <trkpt lat="47.23528" lon="4.96226">
        <ele>352.14889526367</ele>
        <time>2018-03-08T10:10:59+0100</time>
      </trkpt>
      <trkpt lat="47.23524" lon="4.96227">
        <ele>352.2223815918</ele>
        <time>2018-03-08T10:11:02+0100</time>
      </trkpt>
      <trkpt lat="47.23522" lon="4.96229">
        <ele>352.33471679688</ele>
        <time>2018-03-08T10:11:05+0100</time>
      </trkpt>
      <trkpt lat="47.23521" lon="4.9623">
        <ele>352.45370483398</ele>
        <time>2018-03-08T10:11:08+0100</time>
      </trkpt>
      <trkpt lat="47.23519" lon="4.96231">
        <ele>352.57391357422</ele>
        <time>2018-03-08T10:11:11+0100</time>
      </trkpt>
      <trkpt lat="47.23517" lon="4.96234">
        <ele>352.68728637695</ele>
        <time>2018-03-08T10:11:14+0100</time>
      </trkpt>
      <trkpt lat="47.23516" lon="4.96237">
        <ele>352.78179931641</ele>
        <time>2018-03-08T10:11:17+0100</time>
      </trkpt>
      <trkpt lat="47.23514" lon="4.9624">
        <ele>352.86444091797</ele>
        <time>2018-03-08T10:11:20+0100</time>
      </trkpt>
      <trkpt lat="47.23513" lon="4.96243">
        <ele>352.96420288086</ele>
        <time>2018-03-08T10:11:23+0100</time>
      </trkpt>
      <trkpt lat="47.23511" lon="4.96245">
        <ele>353.08041381836</ele>
        <time>2018-03-08T10:11:26+0100</time>
      </trkpt>
      <trkpt lat="47.2351" lon="4.96248">
        <ele>353.19030761719</ele>
        <time>2018-03-08T10:11:29+0100</time>
      </trkpt>
      <trkpt lat="47.23509" lon="4.9625">
        <ele>353.29473876953</ele>
        <time>2018-03-08T10:11:32+0100</time>
      </trkpt>
      <trkpt lat="47.23508" lon="4.96252">
        <ele>353.38656616211</ele>
        <time>2018-03-08T10:11:35+0100</time>
      </trkpt>
      <trkpt lat="47.23507" lon="4.96254">
        <ele>353.46417236328</ele>
        <time>2018-03-08T10:11:38+0100</time>
      </trkpt>
      <trkpt lat="47.23505" lon="4.96257">
        <ele>353.5139465332</ele>
        <time>2018-03-08T10:11:41+0100</time>
      </trkpt>
      <trkpt lat="47.23503" lon="4.96259">
        <ele>353.53375244141</ele>
        <time>2018-03-08T10:11:44+0100</time>
      </trkpt>
      <trkpt lat="47.23502" lon="4.9626">
        <ele>353.52618408203</ele>
        <time>2018-03-08T10:11:47+0100</time>
      </trkpt>
      <trkpt lat="47.235" lon="4.96262">
        <ele>353.49502563477</ele>
        <time>2018-03-08T10:11:50+0100</time>
      </trkpt>
      <trkpt lat="47.23498" lon="4.96264">
        <ele>353.45831298828</ele>
        <time>2018-03-08T10:11:53+0100</time>
      </trkpt>
      <trkpt lat="47.23496" lon="4.96266">
        <ele>353.40618896484</ele>
        <time>2018-03-08T10:11:56+0100</time>
      </trkpt>
      <trkpt lat="47.23493" lon="4.96268">
        <ele>353.35400390625</ele>
        <time>2018-03-08T10:11:59+0100</time>
      </trkpt>
      <trkpt lat="47.23491" lon="4.96269">
        <ele>353.29653930664</ele>
        <time>2018-03-08T10:12:02+0100</time>
      </trkpt>
      <trkpt lat="47.23489" lon="4.96272">
        <ele>353.24822998047</ele>
        <time>2018-03-08T10:12:05+0100</time>
      </trkpt>
      <trkpt lat="47.23488" lon="4.96274">
        <ele>353.22351074219</ele>
        <time>2018-03-08T10:12:08+0100</time>
      </trkpt>
      <trkpt lat="47.23485" lon="4.96277">
        <ele>353.18865966797</ele>
        <time>2018-03-08T10:12:11+0100</time>
      </trkpt>
      <trkpt lat="47.23484" lon="4.96278">
        <ele>353.13973999023</ele>
        <time>2018-03-08T10:12:14+0100</time>
      </trkpt>
      <trkpt lat="47.23481" lon="4.9628">
        <ele>353.09985351562</ele>
        <time>2018-03-08T10:12:17+0100</time>
      </trkpt>
      <trkpt lat="47.23477" lon="4.96282">
        <ele>353.03842163086</ele>
        <time>2018-03-08T10:12:20+0100</time>
      </trkpt>
      <trkpt lat="47.23474" lon="4.96284">
        <ele>352.97500610352</ele>
        <time>2018-03-08T10:12:23+0100</time>
      </trkpt>
      <trkpt lat="47.23472" lon="4.96284">
        <ele>352.91091918945</ele>
        <time>2018-03-08T10:12:26+0100</time>
      </trkpt>
      <trkpt lat="47.23468" lon="4.96285">
        <ele>352.83541870117</ele>
        <time>2018-03-08T10:12:28+0100</time>
      </trkpt>
      <trkpt lat="47.23466" lon="4.96285">
        <ele>352.75177001953</ele>
        <time>2018-03-08T10:12:31+0100</time>
      </trkpt>
      <trkpt lat="47.23463" lon="4.96285">
        <ele>352.65545654297</ele>
        <time>2018-03-08T10:12:34+0100</time>
      </trkpt>
      <trkpt lat="47.23461" lon="4.96285">
        <ele>352.54064941406</ele>
        <time>2018-03-08T10:12:37+0100</time>
      </trkpt>
      <trkpt lat="47.23458" lon="4.96286">
        <ele>352.41857910156</ele>
        <time>2018-03-08T10:12:40+0100</time>
      </trkpt>
      <trkpt lat="47.23454" lon="4.96286">
        <ele>352.27838134766</ele>
        <time>2018-03-08T10:12:43+0100</time>
      </trkpt>
      <trkpt lat="47.23452" lon="4.96286">
        <ele>352.11404418945</ele>
        <time>2018-03-08T10:12:46+0100</time>
      </trkpt>
      <trkpt lat="47.23449" lon="4.96287">
        <ele>351.93591308594</ele>
        <time>2018-03-08T10:12:49+0100</time>
      </trkpt>
      <trkpt lat="47.23446" lon="4.96287">
        <ele>351.74642944336</ele>
        <time>2018-03-08T10:12:52+0100</time>
      </trkpt>
      <trkpt lat="47.23443" lon="4.96287">
        <ele>351.53207397461</ele>
        <time>2018-03-08T10:12:55+0100</time>
      </trkpt>
      <trkpt lat="47.2344" lon="4.96287">
        <ele>351.30380249023</ele>
        <time>2018-03-08T10:12:58+0100</time>
      </trkpt>
      <trkpt lat="47.23436" lon="4.96287">
        <ele>351.05444335938</ele>
        <time>2018-03-08T10:13:01+0100</time>
      </trkpt>
      <trkpt lat="47.23434" lon="4.96287">
        <ele>350.78634643555</ele>
        <time>2018-03-08T10:13:04+0100</time>
      </trkpt>
      <trkpt lat="47.23431" lon="4.96287">
        <ele>350.50259399414</ele>
        <time>2018-03-08T10:13:07+0100</time>
      </trkpt>
      <trkpt lat="47.23427" lon="4.96286">
        <ele>350.22125244141</ele>
        <time>2018-03-08T10:13:10+0100</time>
      </trkpt>
      <trkpt lat="47.23424" lon="4.96287">
        <ele>349.94671630859</ele>
        <time>2018-03-08T10:13:13+0100</time>
      </trkpt>
      <trkpt lat="47.23421" lon="4.96287">
        <ele>349.66659545898</ele>
        <time>2018-03-08T10:13:16+0100</time>
      </trkpt>
      <trkpt lat="47.23419" lon="4.96288">
        <ele>349.37670898438</ele>
        <time>2018-03-08T10:13:19+0100</time>
      </trkpt>
      <trkpt lat="47.23416" lon="4.96288">
        <ele>349.0940246582</ele>
        <time>2018-03-08T10:13:22+0100</time>
      </trkpt>
      <trkpt lat="47.23414" lon="4.96289">
        <ele>348.81518554688</ele>
        <time>2018-03-08T10:13:25+0100</time>
      </trkpt>
      <trkpt lat="47.23411" lon="4.9629">
        <ele>348.54257202148</ele>
        <time>2018-03-08T10:13:28+0100</time>
      </trkpt>
      <trkpt lat="47.23409" lon="4.9629">
        <ele>348.27383422852</ele>
        <time>2018-03-08T10:13:31+0100</time>
      </trkpt>
      <trkpt lat="47.23408" lon="4.9629">
        <ele>348.01138305664</ele>
        <time>2018-03-08T10:13:34+0100</time>
      </trkpt>
      <trkpt lat="47.23406" lon="4.96291">
        <ele>347.74807739258</ele>
        <time>2018-03-08T10:13:37+0100</time>
      </trkpt>
      <trkpt lat="47.23404" lon="4.96291">
        <ele>347.4938659668</ele>
        <time>2018-03-08T10:13:40+0100</time>
      </trkpt>
      <trkpt lat="47.23401" lon="4.96292">
        <ele>347.24893188477</ele>
        <time>2018-03-08T10:13:43+0100</time>
      </trkpt>
      <trkpt lat="47.23398" lon="4.96293">
        <ele>347.01007080078</ele>
        <time>2018-03-08T10:13:46+0100</time>
      </trkpt>
      <trkpt lat="47.23395" lon="4.96294">
        <ele>346.77536010742</ele>
        <time>2018-03-08T10:13:49+0100</time>
      </trkpt>
      <trkpt lat="47.23393" lon="4.96294">
        <ele>346.54827880859</ele>
        <time>2018-03-08T10:13:52+0100</time>
      </trkpt>
      <trkpt lat="47.23392" lon="4.96294">
        <ele>346.3327331543</ele>
        <time>2018-03-08T10:13:55+0100</time>
      </trkpt>
      <trkpt lat="47.23391" lon="4.96294">
        <ele>346.13800048828</ele>
        <time>2018-03-08T10:13:58+0100</time>
      </trkpt>
      <trkpt lat="47.23388" lon="4.96295">
        <ele>345.95608520508</ele>
        <time>2018-03-08T10:14:01+0100</time>
      </trkpt>
      <trkpt lat="47.23386" lon="4.96295">
        <ele>345.77416992188</ele>
        <time>2018-03-08T10:14:04+0100</time>
      </trkpt>
      <trkpt lat="47.23383" lon="4.96296">
        <ele>345.5910949707</ele>
        <time>2018-03-08T10:14:07+0100</time>
      </trkpt>
      <trkpt lat="47.2338" lon="4.96297">
        <ele>345.39575195312</ele>
        <time>2018-03-08T10:14:10+0100</time>
      </trkpt>
      <trkpt lat="47.23376" lon="4.96298">
        <ele>345.17483520508</ele>
        <time>2018-03-08T10:14:13+0100</time>
      </trkpt>
      <trkpt lat="47.23373" lon="4.96299">
        <ele>344.94235229492</ele>
        <time>2018-03-08T10:14:16+0100</time>
      </trkpt>
      <trkpt lat="47.23369" lon="4.963">
        <ele>344.69326782227</ele>
        <time>2018-03-08T10:14:19+0100</time>
      </trkpt>
      <trkpt lat="47.23367" lon="4.963">
        <ele>344.44152832031</ele>
        <time>2018-03-08T10:14:22+0100</time>
      </trkpt>
      <trkpt lat="47.23364" lon="4.963">
        <ele>344.18533325195</ele>
        <time>2018-03-08T10:14:25+0100</time>
      </trkpt>
      <trkpt lat="47.23362" lon="4.96301">
        <ele>343.93112182617</ele>
        <time>2018-03-08T10:14:28+0100</time>
      </trkpt>
      <trkpt lat="47.2336" lon="4.96302">
        <ele>343.67541503906</ele>
        <time>2018-03-08T10:14:31+0100</time>
      </trkpt>
      <trkpt lat="47.23357" lon="4.96303">
        <ele>343.39239501953</ele>
        <time>2018-03-08T10:14:34+0100</time>
      </trkpt>
      <trkpt lat="47.23355" lon="4.96303">
        <ele>343.13226318359</ele>
        <time>2018-03-08T10:14:37+0100</time>
      </trkpt>
      <trkpt lat="47.23352" lon="4.96304">
        <ele>342.87670898438</ele>
        <time>2018-03-08T10:14:40+0100</time>
      </trkpt>
      <trkpt lat="47.23349" lon="4.96305">
        <ele>342.62838745117</ele>
        <time>2018-03-08T10:14:43+0100</time>
      </trkpt>
      <trkpt lat="47.23346" lon="4.96307">
        <ele>342.51962280273</ele>
        <time>2018-03-08T10:14:46+0100</time>
      </trkpt>
      <trkpt lat="47.23345" lon="4.96307">
        <ele>342.48812866211</ele>
        <time>2018-03-08T10:14:49+0100</time>
      </trkpt>
      <trkpt lat="47.23345" lon="4.96307">
        <ele>342.45104980469</ele>
        <time>2018-03-08T10:14:52+0100</time>
      </trkpt>
      <trkpt lat="47.23344" lon="4.96307">
        <ele>342.01547241211</ele>
        <time>2018-03-08T10:14:55+0100</time>
      </trkpt>
      <trkpt lat="47.23343" lon="4.96308">
        <ele>341.52777099609</ele>
        <time>2018-03-08T10:14:58+0100</time>
      </trkpt>
      <trkpt lat="47.23343" lon="4.96308">
        <ele>340.9426574707</ele>
        <time>2018-03-08T10:15:01+0100</time>
      </trkpt>
      <trkpt lat="47.23342" lon="4.96309">
        <ele>340.32577514648</ele>
        <time>2018-03-08T10:15:04+0100</time>
      </trkpt>
      <trkpt lat="47.23339" lon="4.96311">
        <ele>339.71621704102</ele>
        <time>2018-03-08T10:15:07+0100</time>
      </trkpt>
      <trkpt lat="47.23338" lon="4.96312">
        <ele>339.07205200195</ele>
        <time>2018-03-08T10:15:10+0100</time>
      </trkpt>
      <trkpt lat="47.23338" lon="4.96312">
        <ele>338.59359741211</ele>
        <time>2018-03-08T10:15:13+0100</time>
      </trkpt>
      <trkpt lat="47.23337" lon="4.96312">
        <ele>338.34191894531</ele>
        <time>2018-03-08T10:15:16+0100</time>
      </trkpt>
      <trkpt lat="47.23336" lon="4.96312">
        <ele>337.73648071289</ele>
        <time>2018-03-08T10:15:19+0100</time>
      </trkpt>
      <trkpt lat="47.23333" lon="4.96313">
        <ele>337.15631103516</ele>
        <time>2018-03-08T10:15:22+0100</time>
      </trkpt>
      <trkpt lat="47.23331" lon="4.96314">
        <ele>336.61328125</ele>
        <time>2018-03-08T10:15:25+0100</time>
      </trkpt>
      <trkpt lat="47.23329" lon="4.96316">
        <ele>336.1130065918</ele>
        <time>2018-03-08T10:15:28+0100</time>
      </trkpt>
      <trkpt lat="47.23327" lon="4.96317">
        <ele>335.64697265625</ele>
        <time>2018-03-08T10:15:31+0100</time>
      </trkpt>
      <trkpt lat="47.23324" lon="4.96319">
        <ele>335.19876098633</ele>
        <time>2018-03-08T10:15:34+0100</time>
      </trkpt>
      <trkpt lat="47.23322" lon="4.96321">
        <ele>334.78189086914</ele>
        <time>2018-03-08T10:15:37+0100</time>
      </trkpt>
      <trkpt lat="47.2332" lon="4.96322">
        <ele>334.4084777832</ele>
        <time>2018-03-08T10:15:40+0100</time>
      </trkpt>
      <trkpt lat="47.23318" lon="4.96324">
        <ele>334.06262207031</ele>
        <time>2018-03-08T10:15:43+0100</time>
      </trkpt>
      <trkpt lat="47.23316" lon="4.96325">
        <ele>333.72024536133</ele>
        <time>2018-03-08T10:15:46+0100</time>
      </trkpt>
      <trkpt lat="47.23313" lon="4.96328">
        <ele>333.41091918945</ele>
        <time>2018-03-08T10:15:49+0100</time>
      </trkpt>
      <trkpt lat="47.23311" lon="4.9633">
        <ele>333.12496948242</ele>
        <time>2018-03-08T10:15:52+0100</time>
      </trkpt>
      <trkpt lat="47.23309" lon="4.96331">
        <ele>332.87014770508</ele>
        <time>2018-03-08T10:15:55+0100</time>
      </trkpt>
      <trkpt lat="47.23307" lon="4.96334">
        <ele>332.65267944336</ele>
        <time>2018-03-08T10:15:58+0100</time>
      </trkpt>
      <trkpt lat="47.23304" lon="4.96339">
        <ele>332.51040649414</ele>
        <time>2018-03-08T10:16:01+0100</time>
      </trkpt>
      <trkpt lat="47.23302" lon="4.96341">
        <ele>332.29959106445</ele>
        <time>2018-03-08T10:16:04+0100</time>
      </trkpt>
      <trkpt lat="47.233" lon="4.96343">
        <ele>332.08831787109</ele>
        <time>2018-03-08T10:16:07+0100</time>
      </trkpt>
      <trkpt lat="47.23297" lon="4.96344">
        <ele>331.87060546875</ele>
        <time>2018-03-08T10:16:10+0100</time>
      </trkpt>
      <trkpt lat="47.23296" lon="4.96344">
        <ele>331.65908813477</ele>
        <time>2018-03-08T10:16:13+0100</time>
      </trkpt>
      <trkpt lat="47.23294" lon="4.96346">
        <ele>331.44677734375</ele>
        <time>2018-03-08T10:16:16+0100</time>
      </trkpt>
      <trkpt lat="47.23291" lon="4.96348">
        <ele>331.24822998047</ele>
        <time>2018-03-08T10:16:19+0100</time>
      </trkpt>
      <trkpt lat="47.23289" lon="4.96349">
        <ele>331.08108520508</ele>
        <time>2018-03-08T10:16:22+0100</time>
      </trkpt>
      <trkpt lat="47.23286" lon="4.9635">
        <ele>330.92910766602</ele>
        <time>2018-03-08T10:16:25+0100</time>
      </trkpt>
      <trkpt lat="47.23284" lon="4.96352">
        <ele>330.77532958984</ele>
        <time>2018-03-08T10:16:28+0100</time>
      </trkpt>
      <trkpt lat="47.23281" lon="4.96353">
        <ele>330.62945556641</ele>
        <time>2018-03-08T10:16:31+0100</time>
      </trkpt>
      <trkpt lat="47.23279" lon="4.96355">
        <ele>330.45523071289</ele>
        <time>2018-03-08T10:16:34+0100</time>
      </trkpt>
      <trkpt lat="47.23276" lon="4.96357">
        <ele>330.30160522461</ele>
        <time>2018-03-08T10:16:37+0100</time>
      </trkpt>
      <trkpt lat="47.23273" lon="4.96359">
        <ele>330.14724731445</ele>
        <time>2018-03-08T10:16:40+0100</time>
      </trkpt>
      <trkpt lat="47.2327" lon="4.9636">
        <ele>329.98852539062</ele>
        <time>2018-03-08T10:16:43+0100</time>
      </trkpt>
      <trkpt lat="47.23268" lon="4.96362">
        <ele>329.83743286133</ele>
        <time>2018-03-08T10:16:46+0100</time>
      </trkpt>
      <trkpt lat="47.23266" lon="4.96364">
        <ele>329.6796875</ele>
        <time>2018-03-08T10:16:49+0100</time>
      </trkpt>
      <trkpt lat="47.23264" lon="4.96365">
        <ele>329.48779296875</ele>
        <time>2018-03-08T10:16:52+0100</time>
      </trkpt>
      <trkpt lat="47.23263" lon="4.96364">
        <ele>329.39758300781</ele>
        <time>2018-03-08T10:16:55+0100</time>
      </trkpt>
      <trkpt lat="47.23261" lon="4.96364">
        <ele>329.32278442383</ele>
        <time>2018-03-08T10:16:58+0100</time>
      </trkpt>
      <trkpt lat="47.23259" lon="4.96365">
        <ele>329.23080444336</ele>
        <time>2018-03-08T10:17:01+0100</time>
      </trkpt>
      <trkpt lat="47.23257" lon="4.96367">
        <ele>329.13507080078</ele>
        <time>2018-03-08T10:17:04+0100</time>
      </trkpt>
      <trkpt lat="47.23254" lon="4.96369">
        <ele>329.02279663086</ele>
        <time>2018-03-08T10:17:07+0100</time>
      </trkpt>
      <trkpt lat="47.23252" lon="4.96371">
        <ele>328.90606689453</ele>
        <time>2018-03-08T10:17:10+0100</time>
      </trkpt>
      <trkpt lat="47.23248" lon="4.96373">
        <ele>328.77923583984</ele>
        <time>2018-03-08T10:17:13+0100</time>
      </trkpt>
      <trkpt lat="47.23245" lon="4.96374">
        <ele>328.63092041016</ele>
        <time>2018-03-08T10:17:16+0100</time>
      </trkpt>
      <trkpt lat="47.23243" lon="4.96375">
        <ele>328.46084594727</ele>
        <time>2018-03-08T10:17:19+0100</time>
      </trkpt>
      <trkpt lat="47.2324" lon="4.96376">
        <ele>328.26898193359</ele>
        <time>2018-03-08T10:17:22+0100</time>
      </trkpt>
      <trkpt lat="47.23237" lon="4.96377">
        <ele>328.07833862305</ele>
        <time>2018-03-08T10:17:25+0100</time>
      </trkpt>
      <trkpt lat="47.23235" lon="4.96378">
        <ele>327.87884521484</ele>
        <time>2018-03-08T10:17:28+0100</time>
      </trkpt>
      <trkpt lat="47.23233" lon="4.96379">
        <ele>327.68676757812</ele>
        <time>2018-03-08T10:17:31+0100</time>
      </trkpt>
      <trkpt lat="47.2323" lon="4.9638">
        <ele>327.50311279297</ele>
        <time>2018-03-08T10:17:34+0100</time>
      </trkpt>
      <trkpt lat="47.23227" lon="4.96382">
        <ele>327.33068847656</ele>
        <time>2018-03-08T10:17:37+0100</time>
      </trkpt>
      <trkpt lat="47.23224" lon="4.96383">
        <ele>327.19323730469</ele>
        <time>2018-03-08T10:17:40+0100</time>
      </trkpt>
      <trkpt lat="47.23222" lon="4.96383">
        <ele>327.0817565918</ele>
        <time>2018-03-08T10:17:43+0100</time>
      </trkpt>
      <trkpt lat="47.23219" lon="4.96384">
        <ele>326.9755859375</ele>
        <time>2018-03-08T10:17:46+0100</time>
      </trkpt>
      <trkpt lat="47.23216" lon="4.96384">
        <ele>326.87210083008</ele>
        <time>2018-03-08T10:17:49+0100</time>
      </trkpt>
      <trkpt lat="47.23214" lon="4.96385">
        <ele>326.75250244141</ele>
        <time>2018-03-08T10:17:52+0100</time>
      </trkpt>
      <trkpt lat="47.23211" lon="4.96385">
        <ele>326.60430908203</ele>
        <time>2018-03-08T10:17:55+0100</time>
      </trkpt>
      <trkpt lat="47.23209" lon="4.96386">
        <ele>326.41268920898</ele>
        <time>2018-03-08T10:17:58+0100</time>
      </trkpt>
      <trkpt lat="47.23207" lon="4.96387">
        <ele>326.18475341797</ele>
        <time>2018-03-08T10:18:01+0100</time>
      </trkpt>
      <trkpt lat="47.23205" lon="4.96388">
        <ele>325.93499755859</ele>
        <time>2018-03-08T10:18:04+0100</time>
      </trkpt>
      <trkpt lat="47.23203" lon="4.9639">
        <ele>325.65896606445</ele>
        <time>2018-03-08T10:18:07+0100</time>
      </trkpt>
      <trkpt lat="47.23201" lon="4.96392">
        <ele>325.35614013672</ele>
        <time>2018-03-08T10:18:10+0100</time>
      </trkpt>
      <trkpt lat="47.23199" lon="4.96393">
        <ele>325.06216430664</ele>
        <time>2018-03-08T10:18:13+0100</time>
      </trkpt>
      <trkpt lat="47.23196" lon="4.96394">
        <ele>324.76675415039</ele>
        <time>2018-03-08T10:18:16+0100</time>
      </trkpt>
      <trkpt lat="47.23194" lon="4.96396">
        <ele>324.46051025391</ele>
        <time>2018-03-08T10:18:19+0100</time>
      </trkpt>
      <trkpt lat="47.23191" lon="4.96397">
        <ele>324.13732910156</ele>
        <time>2018-03-08T10:18:22+0100</time>
      </trkpt>
      <trkpt lat="47.23189" lon="4.96398">
        <ele>323.80828857422</ele>
        <time>2018-03-08T10:18:25+0100</time>
      </trkpt>
      <trkpt lat="47.23187" lon="4.96399">
        <ele>323.48504638672</ele>
        <time>2018-03-08T10:18:28+0100</time>
      </trkpt>
      <trkpt lat="47.23184" lon="4.964">
        <ele>323.19555664062</ele>
        <time>2018-03-08T10:18:31+0100</time>
      </trkpt>
      <trkpt lat="47.23181" lon="4.96401">
        <ele>322.93450927734</ele>
        <time>2018-03-08T10:18:34+0100</time>
      </trkpt>
      <trkpt lat="47.23178" lon="4.96402">
        <ele>322.67163085938</ele>
        <time>2018-03-08T10:18:37+0100</time>
      </trkpt>
      <trkpt lat="47.23177" lon="4.96402">
        <ele>322.37994384766</ele>
        <time>2018-03-08T10:18:40+0100</time>
      </trkpt>
      <trkpt lat="47.23175" lon="4.96403">
        <ele>322.08209228516</ele>
        <time>2018-03-08T10:18:43+0100</time>
      </trkpt>
      <trkpt lat="47.23172" lon="4.96404">
        <ele>321.78866577148</ele>
        <time>2018-03-08T10:18:46+0100</time>
      </trkpt>
      <trkpt lat="47.2317" lon="4.96405">
        <ele>321.46762084961</ele>
        <time>2018-03-08T10:18:49+0100</time>
      </trkpt>
      <trkpt lat="47.23168" lon="4.96405">
        <ele>321.16970825195</ele>
        <time>2018-03-08T10:18:52+0100</time>
      </trkpt>
      <trkpt lat="47.23167" lon="4.96406">
        <ele>320.90802001953</ele>
        <time>2018-03-08T10:18:55+0100</time>
      </trkpt>
      <trkpt lat="47.23165" lon="4.96407">
        <ele>320.6589050293</ele>
        <time>2018-03-08T10:18:58+0100</time>
      </trkpt>
      <trkpt lat="47.23163" lon="4.96408">
        <ele>320.42974853516</ele>
        <time>2018-03-08T10:19:01+0100</time>
      </trkpt>
      <trkpt lat="47.2316" lon="4.96409">
        <ele>320.20413208008</ele>
        <time>2018-03-08T10:19:04+0100</time>
      </trkpt>
      <trkpt lat="47.23157" lon="4.96411">
        <ele>319.97378540039</ele>
        <time>2018-03-08T10:19:07+0100</time>
      </trkpt>
      <trkpt lat="47.23154" lon="4.96412">
        <ele>319.73123168945</ele>
        <time>2018-03-08T10:19:10+0100</time>
      </trkpt>
      <trkpt lat="47.23152" lon="4.96413">
        <ele>319.47314453125</ele>
        <time>2018-03-08T10:19:13+0100</time>
      </trkpt>
      <trkpt lat="47.2315" lon="4.96414">
        <ele>319.21713256836</ele>
        <time>2018-03-08T10:19:16+0100</time>
      </trkpt>
      <trkpt lat="47.23148" lon="4.96416">
        <ele>318.97354125977</ele>
        <time>2018-03-08T10:19:19+0100</time>
      </trkpt>
      <trkpt lat="47.23147" lon="4.96417">
        <ele>318.75408935547</ele>
        <time>2018-03-08T10:19:22+0100</time>
      </trkpt>
      <trkpt lat="47.23146" lon="4.96418">
        <ele>318.56594848633</ele>
        <time>2018-03-08T10:19:25+0100</time>
      </trkpt>
      <trkpt lat="47.23145" lon="4.96419">
        <ele>318.40576171875</ele>
        <time>2018-03-08T10:19:28+0100</time>
      </trkpt>
      <trkpt lat="47.23143" lon="4.96422">
        <ele>318.26690673828</ele>
        <time>2018-03-08T10:19:31+0100</time>
      </trkpt>
      <trkpt lat="47.23142" lon="4.96424">
        <ele>318.12216186523</ele>
        <time>2018-03-08T10:19:34+0100</time>
      </trkpt>
      <trkpt lat="47.23141" lon="4.96426">
        <ele>317.95751953125</ele>
        <time>2018-03-08T10:19:37+0100</time>
      </trkpt>
      <trkpt lat="47.2314" lon="4.96428">
        <ele>317.83200073242</ele>
        <time>2018-03-08T10:19:40+0100</time>
      </trkpt>
      <trkpt lat="47.23139" lon="4.96429">
        <ele>317.80661010742</ele>
        <time>2018-03-08T10:19:43+0100</time>
      </trkpt>
      <trkpt lat="47.23139" lon="4.96429">
        <ele>317.77526855469</ele>
        <time>2018-03-08T10:19:46+0100</time>
      </trkpt>
      <trkpt lat="47.23139" lon="4.9643">
        <ele>317.74075317383</ele>
        <time>2018-03-08T10:19:49+0100</time>
      </trkpt>
      <trkpt lat="47.23139" lon="4.9643">
        <ele>317.70532226562</ele>
        <time>2018-03-08T10:19:52+0100</time>
      </trkpt>
      <trkpt lat="47.23139" lon="4.9643">
        <ele>317.67010498047</ele>
        <time>2018-03-08T10:19:55+0100</time>
      </trkpt>
      <trkpt lat="47.23139" lon="4.9643">
        <ele>317.63980102539</ele>
        <time>2018-03-08T10:19:58+0100</time>
      </trkpt>
      <trkpt lat="47.23139" lon="4.96431">
        <ele>317.54104614258</ele>
        <time>2018-03-08T10:20:01+0100</time>
      </trkpt>
      <trkpt lat="47.23139" lon="4.96432">
        <ele>317.50622558594</ele>
        <time>2018-03-08T10:20:04+0100</time>
      </trkpt>
      <trkpt lat="47.23139" lon="4.96432">
        <ele>317.2038269043</ele>
        <time>2018-03-08T10:20:07+0100</time>
      </trkpt>
      <trkpt lat="47.23139" lon="4.96432">
        <ele>317.15963745117</ele>
        <time>2018-03-08T10:20:10+0100</time>
      </trkpt>
      <trkpt lat="47.23139" lon="4.96432">
        <ele>317.11654663086</ele>
        <time>2018-03-08T10:20:13+0100</time>
      </trkpt>
      <trkpt lat="47.23139" lon="4.96432">
        <ele>317.07586669922</ele>
        <time>2018-03-08T10:20:16+0100</time>
      </trkpt>
      <trkpt lat="47.23139" lon="4.96432">
        <ele>317.03811645508</ele>
        <time>2018-03-08T10:20:19+0100</time>
      </trkpt>
      <trkpt lat="47.23139" lon="4.96432">
        <ele>317.00143432617</ele>
        <time>2018-03-08T10:20:22+0100</time>
      </trkpt>
      <trkpt lat="47.23139" lon="4.96432">
        <ele>316.96578979492</ele>
        <time>2018-03-08T10:20:25+0100</time>
      </trkpt>
      <trkpt lat="47.23139" lon="4.96432">
        <ele>316.93020629883</ele>
        <time>2018-03-08T10:20:28+0100</time>
      </trkpt>
      <trkpt lat="47.23139" lon="4.96431">
        <ele>316.8962097168</ele>
        <time>2018-03-08T10:20:31+0100</time>
      </trkpt>
      <trkpt lat="47.23139" lon="4.96431">
        <ele>316.86303710938</ele>
        <time>2018-03-08T10:20:34+0100</time>
      </trkpt>
      <trkpt lat="47.23139" lon="4.96431">
        <ele>316.82931518555</ele>
        <time>2018-03-08T10:20:37+0100</time>
      </trkpt>
      <trkpt lat="47.23139" lon="4.96431">
        <ele>316.78665161133</ele>
        <time>2018-03-08T10:20:40+0100</time>
      </trkpt>
      <trkpt lat="47.23139" lon="4.96431">
        <ele>316.73297119141</ele>
        <time>2018-03-08T10:20:43+0100</time>
      </trkpt>
      <trkpt lat="47.23139" lon="4.96431">
        <ele>316.68170166016</ele>
        <time>2018-03-08T10:20:46+0100</time>
      </trkpt>
      <trkpt lat="47.23139" lon="4.96431">
        <ele>316.6321105957</ele>
        <time>2018-03-08T10:20:49+0100</time>
      </trkpt>
      <trkpt lat="47.23139" lon="4.96431">
        <ele>316.58297729492</ele>
        <time>2018-03-08T10:20:52+0100</time>
      </trkpt>
      <trkpt lat="47.23139" lon="4.96431">
        <ele>316.53265380859</ele>
        <time>2018-03-08T10:20:55+0100</time>
      </trkpt>
      <trkpt lat="47.23139" lon="4.96432">
        <ele>316.48202514648</ele>
        <time>2018-03-08T10:20:58+0100</time>
      </trkpt>
      <trkpt lat="47.23139" lon="4.96432">
        <ele>316.42721557617</ele>
        <time>2018-03-08T10:21:01+0100</time>
      </trkpt>
      <trkpt lat="47.23139" lon="4.96432">
        <ele>316.36926269531</ele>
        <time>2018-03-08T10:21:04+0100</time>
      </trkpt>
      <trkpt lat="47.23139" lon="4.96432">
        <ele>316.31259155273</ele>
        <time>2018-03-08T10:21:07+0100</time>
      </trkpt>
      <trkpt lat="47.23139" lon="4.96431">
        <ele>316.25527954102</ele>
        <time>2018-03-08T10:21:10+0100</time>
      </trkpt>
      <trkpt lat="47.23139" lon="4.96431">
        <ele>316.19845581055</ele>
        <time>2018-03-08T10:21:13+0100</time>
      </trkpt>
      <trkpt lat="47.23138" lon="4.96433">
        <ele>315.71365356445</ele>
        <time>2018-03-08T10:21:16+0100</time>
      </trkpt>
      <trkpt lat="47.23137" lon="4.96434">
        <ele>315.3137512207</ele>
        <time>2018-03-08T10:21:19+0100</time>
      </trkpt>
      <trkpt lat="47.23136" lon="4.96436">
        <ele>314.96383666992</ele>
        <time>2018-03-08T10:21:22+0100</time>
      </trkpt>
      <trkpt lat="47.23136" lon="4.96438">
        <ele>314.63299560547</ele>
        <time>2018-03-08T10:21:25+0100</time>
      </trkpt>
      <trkpt lat="47.23135" lon="4.9644">
        <ele>314.31396484375</ele>
        <time>2018-03-08T10:21:28+0100</time>
      </trkpt>
      <trkpt lat="47.23135" lon="4.96443">
        <ele>314.00570678711</ele>
        <time>2018-03-08T10:21:31+0100</time>
      </trkpt>
      <trkpt lat="47.23134" lon="4.96445">
        <ele>313.71752929688</ele>
        <time>2018-03-08T10:21:34+0100</time>
      </trkpt>
      <trkpt lat="47.23134" lon="4.96447">
        <ele>313.46502685547</ele>
        <time>2018-03-08T10:21:37+0100</time>
      </trkpt>
      <trkpt lat="47.23132" lon="4.9645">
        <ele>313.23547363281</ele>
        <time>2018-03-08T10:21:40+0100</time>
      </trkpt>
      <trkpt lat="47.23131" lon="4.96453">
        <ele>313.01727294922</ele>
        <time>2018-03-08T10:21:43+0100</time>
      </trkpt>
      <trkpt lat="47.23129" lon="4.96455">
        <ele>312.80133056641</ele>
        <time>2018-03-08T10:21:46+0100</time>
      </trkpt>
      <trkpt lat="47.23129" lon="4.96458">
        <ele>312.68334960938</ele>
        <time>2018-03-08T10:21:49+0100</time>
      </trkpt>
      <trkpt lat="47.2313" lon="4.96459">
        <ele>312.56619262695</ele>
        <time>2018-03-08T10:21:52+0100</time>
      </trkpt>
      <trkpt lat="47.23129" lon="4.96461">
        <ele>312.42929077148</ele>
        <time>2018-03-08T10:21:55+0100</time>
      </trkpt>
      <trkpt lat="47.23129" lon="4.96463">
        <ele>312.29370117188</ele>
        <time>2018-03-08T10:21:58+0100</time>
      </trkpt>
      <trkpt lat="47.23127" lon="4.96466">
        <ele>312.18359375</ele>
        <time>2018-03-08T10:22:01+0100</time>
      </trkpt>
      <trkpt lat="47.23126" lon="4.96468">
        <ele>312.10528564453</ele>
        <time>2018-03-08T10:22:04+0100</time>
      </trkpt>
      <trkpt lat="47.23124" lon="4.96471">
        <ele>312.04992675781</ele>
        <time>2018-03-08T10:22:07+0100</time>
      </trkpt>
      <trkpt lat="47.23122" lon="4.96474">
        <ele>312.01617431641</ele>
        <time>2018-03-08T10:22:10+0100</time>
      </trkpt>
      <trkpt lat="47.2312" lon="4.96477">
        <ele>311.99588012695</ele>
        <time>2018-03-08T10:22:13+0100</time>
      </trkpt>
      <trkpt lat="47.23119" lon="4.9648">
        <ele>311.98025512695</ele>
        <time>2018-03-08T10:22:16+0100</time>
      </trkpt>
      <trkpt lat="47.23118" lon="4.96483">
        <ele>311.98178100586</ele>
        <time>2018-03-08T10:22:19+0100</time>
      </trkpt>
      <trkpt lat="47.23116" lon="4.96487">
        <ele>311.98617553711</ele>
        <time>2018-03-08T10:22:22+0100</time>
      </trkpt>
      <trkpt lat="47.23114" lon="4.96491">
        <ele>311.998046875</ele>
        <time>2018-03-08T10:22:25+0100</time>
      </trkpt>
      <trkpt lat="47.23113" lon="4.96494">
        <ele>312.03033447266</ele>
        <time>2018-03-08T10:22:28+0100</time>
      </trkpt>
      <trkpt lat="47.23112" lon="4.96496">
        <ele>312.06930541992</ele>
        <time>2018-03-08T10:22:31+0100</time>
      </trkpt>
      <trkpt lat="47.23109" lon="4.96497">
        <ele>312.12850952148</ele>
        <time>2018-03-08T10:22:34+0100</time>
      </trkpt>
      <trkpt lat="47.23107" lon="4.96499">
        <ele>312.22402954102</ele>
        <time>2018-03-08T10:22:37+0100</time>
      </trkpt>
      <trkpt lat="47.23105" lon="4.965">
        <ele>312.35366821289</ele>
        <time>2018-03-08T10:22:40+0100</time>
      </trkpt>
      <trkpt lat="47.23102" lon="4.96502">
        <ele>312.529296875</ele>
        <time>2018-03-08T10:22:43+0100</time>
      </trkpt>
      <trkpt lat="47.23098" lon="4.96504">
        <ele>312.73797607422</ele>
        <time>2018-03-08T10:22:46+0100</time>
      </trkpt>
      <trkpt lat="47.23093" lon="4.96507">
        <ele>312.9375</ele>
        <time>2018-03-08T10:22:49+0100</time>
      </trkpt>
      <trkpt lat="47.2309" lon="4.9651">
        <ele>313.09454345703</ele>
        <time>2018-03-08T10:22:52+0100</time>
      </trkpt>
      <trkpt lat="47.23087" lon="4.96514">
        <ele>313.22113037109</ele>
        <time>2018-03-08T10:22:55+0100</time>
      </trkpt>
      <trkpt lat="47.23085" lon="4.96518">
        <ele>313.40982055664</ele>
        <time>2018-03-08T10:22:58+0100</time>
      </trkpt>
      <trkpt lat="47.23085" lon="4.96519">
        <ele>313.61560058594</ele>
        <time>2018-03-08T10:23:01+0100</time>
      </trkpt>
      <trkpt lat="47.23084" lon="4.96522">
        <ele>313.95867919922</ele>
        <time>2018-03-08T10:23:04+0100</time>
      </trkpt>
      <trkpt lat="47.23082" lon="4.96525">
        <ele>314.2041015625</ele>
        <time>2018-03-08T10:23:07+0100</time>
      </trkpt>
      <trkpt lat="47.23077" lon="4.96531">
        <ele>314.43569946289</ele>
        <time>2018-03-08T10:23:10+0100</time>
      </trkpt>
      <trkpt lat="47.23073" lon="4.96532">
        <ele>314.55990600586</ele>
        <time>2018-03-08T10:23:13+0100</time>
      </trkpt>
      <trkpt lat="47.23069" lon="4.96534">
        <ele>314.71417236328</ele>
        <time>2018-03-08T10:23:16+0100</time>
      </trkpt>
      <trkpt lat="47.23066" lon="4.96531">
        <ele>315.02172851562</ele>
        <time>2018-03-08T10:23:19+0100</time>
      </trkpt>
      <trkpt lat="47.23065" lon="4.9653">
        <ele>315.16366577148</ele>
        <time>2018-03-08T10:23:22+0100</time>
      </trkpt>
      <trkpt lat="47.23065" lon="4.9653">
        <ele>315.19750976562</ele>
        <time>2018-03-08T10:23:25+0100</time>
      </trkpt>
      <trkpt lat="47.23065" lon="4.96529">
        <ele>315.23159790039</ele>
        <time>2018-03-08T10:23:28+0100</time>
      </trkpt>
      <trkpt lat="47.23064" lon="4.96529">
        <ele>315.2633972168</ele>
        <time>2018-03-08T10:23:31+0100</time>
      </trkpt>
      <trkpt lat="47.23064" lon="4.96528">
        <ele>315.3782043457</ele>
        <time>2018-03-08T10:23:34+0100</time>
      </trkpt>
      <trkpt lat="47.23063" lon="4.96528">
        <ele>315.55895996094</ele>
        <time>2018-03-08T10:23:37+0100</time>
      </trkpt>
      <trkpt lat="47.23062" lon="4.96526">
        <ele>315.69671630859</ele>
        <time>2018-03-08T10:23:40+0100</time>
      </trkpt>
      <trkpt lat="47.2306" lon="4.96524">
        <ele>315.86480712891</ele>
        <time>2018-03-08T10:23:43+0100</time>
      </trkpt>
      <trkpt lat="47.23058" lon="4.96524">
        <ele>315.96405029297</ele>
        <time>2018-03-08T10:23:46+0100</time>
      </trkpt>
      <trkpt lat="47.23057" lon="4.96523">
        <ele>316.06192016602</ele>
        <time>2018-03-08T10:23:49+0100</time>
      </trkpt>
      <trkpt lat="47.23055" lon="4.96522">
        <ele>316.12738037109</ele>
        <time>2018-03-08T10:23:52+0100</time>
      </trkpt>
      <trkpt lat="47.23053" lon="4.96521">
        <ele>316.18087768555</ele>
        <time>2018-03-08T10:23:55+0100</time>
      </trkpt>
      <trkpt lat="47.2305" lon="4.96521">
        <ele>316.26556396484</ele>
        <time>2018-03-08T10:23:58+0100</time>
      </trkpt>
      <trkpt lat="47.23047" lon="4.96519">
        <ele>316.35174560547</ele>
        <time>2018-03-08T10:24:01+0100</time>
      </trkpt>
      <trkpt lat="47.23047" lon="4.96519">
        <ele>316.35464477539</ele>
        <time>2018-03-08T10:24:04+0100</time>
      </trkpt>
      <trkpt lat="47.23047" lon="4.96519">
        <ele>316.35296630859</ele>
        <time>2018-03-08T10:24:07+0100</time>
      </trkpt>
      <trkpt lat="47.23045" lon="4.96517">
        <ele>316.34411621094</ele>
        <time>2018-03-08T10:24:10+0100</time>
      </trkpt>
      <trkpt lat="47.23041" lon="4.96514">
        <ele>316.34973144531</ele>
        <time>2018-03-08T10:24:13+0100</time>
      </trkpt>
      <trkpt lat="47.23038" lon="4.96511">
        <ele>316.30142211914</ele>
        <time>2018-03-08T10:24:16+0100</time>
      </trkpt>
      <trkpt lat="47.23035" lon="4.96509">
        <ele>316.23901367188</ele>
        <time>2018-03-08T10:24:19+0100</time>
      </trkpt>
      <trkpt lat="47.2303" lon="4.96507">
        <ele>316.09323120117</ele>
        <time>2018-03-08T10:24:22+0100</time>
      </trkpt>
      <trkpt lat="47.23027" lon="4.96506">
        <ele>315.89688110352</ele>
        <time>2018-03-08T10:24:25+0100</time>
      </trkpt>
      <trkpt lat="47.23025" lon="4.96505">
        <ele>315.65084838867</ele>
        <time>2018-03-08T10:24:28+0100</time>
      </trkpt>
      <trkpt lat="47.23023" lon="4.96504">
        <ele>315.38845825195</ele>
        <time>2018-03-08T10:24:31+0100</time>
      </trkpt>
      <trkpt lat="47.23021" lon="4.96503">
        <ele>315.15335083008</ele>
        <time>2018-03-08T10:24:34+0100</time>
      </trkpt>
      <trkpt lat="47.23021" lon="4.96503">
        <ele>314.68685913086</ele>
        <time>2018-03-08T10:24:37+0100</time>
      </trkpt>
      <trkpt lat="47.23016" lon="4.96504">
        <ele>314.16897583008</ele>
        <time>2018-03-08T10:24:40+0100</time>
      </trkpt>
      <trkpt lat="47.23013" lon="4.96503">
        <ele>313.64251708984</ele>
        <time>2018-03-08T10:24:43+0100</time>
      </trkpt>
      <trkpt lat="47.23011" lon="4.96501">
        <ele>313.17446899414</ele>
        <time>2018-03-08T10:24:46+0100</time>
      </trkpt>
      <trkpt lat="47.23009" lon="4.96499">
        <ele>312.72174072266</ele>
        <time>2018-03-08T10:24:49+0100</time>
      </trkpt>
      <trkpt lat="47.23007" lon="4.96499">
        <ele>312.32363891602</ele>
        <time>2018-03-08T10:24:52+0100</time>
      </trkpt>
      <trkpt lat="47.23004" lon="4.96498">
        <ele>311.97052001953</ele>
        <time>2018-03-08T10:24:55+0100</time>
      </trkpt>
      <trkpt lat="47.23002" lon="4.96497">
        <ele>311.64477539062</ele>
        <time>2018-03-08T10:24:58+0100</time>
      </trkpt>
      <trkpt lat="47.22998" lon="4.96496">
        <ele>311.31774902344</ele>
        <time>2018-03-08T10:25:01+0100</time>
      </trkpt>
      <trkpt lat="47.22995" lon="4.96495">
        <ele>310.9895324707</ele>
        <time>2018-03-08T10:25:04+0100</time>
      </trkpt>
      <trkpt lat="47.22994" lon="4.96494">
        <ele>310.78070068359</ele>
        <time>2018-03-08T10:25:07+0100</time>
      </trkpt>
      <trkpt lat="47.22992" lon="4.96493">
        <ele>310.51333618164</ele>
        <time>2018-03-08T10:25:10+0100</time>
      </trkpt>
      <trkpt lat="47.2299" lon="4.96493">
        <ele>310.3571472168</ele>
        <time>2018-03-08T10:25:13+0100</time>
      </trkpt>
      <trkpt lat="47.22986" lon="4.96494">
        <ele>310.12948608398</ele>
        <time>2018-03-08T10:25:16+0100</time>
      </trkpt>
      <trkpt lat="47.22985" lon="4.96493">
        <ele>310.02374267578</ele>
        <time>2018-03-08T10:25:19+0100</time>
      </trkpt>
      <trkpt lat="47.22983" lon="4.96493">
        <ele>309.82501220703</ele>
        <time>2018-03-08T10:25:22+0100</time>
      </trkpt>
      <trkpt lat="47.2298" lon="4.96493">
        <ele>309.53573608398</ele>
        <time>2018-03-08T10:25:25+0100</time>
      </trkpt>
      <trkpt lat="47.22979" lon="4.96492">
        <ele>309.28518676758</ele>
        <time>2018-03-08T10:25:29+0100</time>
      </trkpt>
      <trkpt lat="47.22977" lon="4.96492">
        <ele>309.06594848633</ele>
        <time>2018-03-08T10:25:32+0100</time>
      </trkpt>
      <trkpt lat="47.22976" lon="4.96492">
        <ele>308.98205566406</ele>
        <time>2018-03-08T10:25:35+0100</time>
      </trkpt>
      <trkpt lat="47.22975" lon="4.96493">
        <ele>308.90969848633</ele>
        <time>2018-03-08T10:25:38+0100</time>
      </trkpt>
      <trkpt lat="47.22973" lon="4.96493">
        <ele>308.83605957031</ele>
        <time>2018-03-08T10:25:41+0100</time>
      </trkpt>
      <trkpt lat="47.2297" lon="4.96494">
        <ele>308.71365356445</ele>
        <time>2018-03-08T10:25:44+0100</time>
      </trkpt>
      <trkpt lat="47.22967" lon="4.96493">
        <ele>308.65093994141</ele>
        <time>2018-03-08T10:25:47+0100</time>
      </trkpt>
      <trkpt lat="47.22967" lon="4.96492">
        <ele>308.60412597656</ele>
        <time>2018-03-08T10:25:50+0100</time>
      </trkpt>
      <trkpt lat="47.22966" lon="4.96492">
        <ele>308.57550048828</ele>
        <time>2018-03-08T10:25:53+0100</time>
      </trkpt>
      <trkpt lat="47.22961" lon="4.96493">
        <ele>308.51861572266</ele>
        <time>2018-03-08T10:25:56+0100</time>
      </trkpt>
      <trkpt lat="47.22957" lon="4.96494">
        <ele>308.47991943359</ele>
        <time>2018-03-08T10:25:59+0100</time>
      </trkpt>
      <trkpt lat="47.22953" lon="4.96493">
        <ele>308.45397949219</ele>
        <time>2018-03-08T10:26:02+0100</time>
      </trkpt>
      <trkpt lat="47.22947" lon="4.96492">
        <ele>308.44165039062</ele>
        <time>2018-03-08T10:26:05+0100</time>
      </trkpt>
      <trkpt lat="47.22942" lon="4.9649">
        <ele>308.44009399414</ele>
        <time>2018-03-08T10:26:08+0100</time>
      </trkpt>
      <trkpt lat="47.22941" lon="4.9649">
        <ele>308.42633056641</ele>
        <time>2018-03-08T10:26:11+0100</time>
      </trkpt>
      <trkpt lat="47.2294" lon="4.96489">
        <ele>308.31262207031</ele>
        <time>2018-03-08T10:26:14+0100</time>
      </trkpt>
      <trkpt lat="47.22937" lon="4.9649">
        <ele>308.13558959961</ele>
        <time>2018-03-08T10:26:17+0100</time>
      </trkpt>
      <trkpt lat="47.22933" lon="4.96492">
        <ele>307.99243164062</ele>
        <time>2018-03-08T10:26:20+0100</time>
      </trkpt>
      <trkpt lat="47.22932" lon="4.96492">
        <ele>307.98004150391</ele>
        <time>2018-03-08T10:26:23+0100</time>
      </trkpt>
      <trkpt lat="47.22932" lon="4.96492">
        <ele>307.87139892578</ele>
        <time>2018-03-08T10:26:26+0100</time>
      </trkpt>
      <trkpt lat="47.22931" lon="4.96493">
        <ele>307.74728393555</ele>
        <time>2018-03-08T10:26:29+0100</time>
      </trkpt>
      <trkpt lat="47.2293" lon="4.96494">
        <ele>307.71649169922</ele>
        <time>2018-03-08T10:26:32+0100</time>
      </trkpt>
      <trkpt lat="47.22929" lon="4.96495">
        <ele>307.74011230469</ele>
        <time>2018-03-08T10:26:35+0100</time>
      </trkpt>
      <trkpt lat="47.22928" lon="4.96495">
        <ele>307.74896240234</ele>
        <time>2018-03-08T10:26:38+0100</time>
      </trkpt>
      <trkpt lat="47.22928" lon="4.96495">
        <ele>307.7512512207</ele>
        <time>2018-03-08T10:26:41+0100</time>
      </trkpt>
      <trkpt lat="47.22928" lon="4.96495">
        <ele>307.74197387695</ele>
        <time>2018-03-08T10:26:44+0100</time>
      </trkpt>
      <trkpt lat="47.22926" lon="4.96497">
        <ele>307.61605834961</ele>
        <time>2018-03-08T10:26:47+0100</time>
      </trkpt>
      <trkpt lat="47.22926" lon="4.96496">
        <ele>307.54476928711</ele>
        <time>2018-03-08T10:26:50+0100</time>
      </trkpt>
      <trkpt lat="47.22926" lon="4.96496">
        <ele>307.50598144531</ele>
        <time>2018-03-08T10:26:53+0100</time>
      </trkpt>
      <trkpt lat="47.22926" lon="4.96496">
        <ele>307.4638671875</ele>
        <time>2018-03-08T10:26:56+0100</time>
      </trkpt>
      <trkpt lat="47.22926" lon="4.96495">
        <ele>307.42294311523</ele>
        <time>2018-03-08T10:26:59+0100</time>
      </trkpt>
      <trkpt lat="47.22926" lon="4.96495">
        <ele>307.38540649414</ele>
        <time>2018-03-08T10:27:02+0100</time>
      </trkpt>
      <trkpt lat="47.22926" lon="4.96495">
        <ele>307.35015869141</ele>
        <time>2018-03-08T10:27:05+0100</time>
      </trkpt>
      <trkpt lat="47.22926" lon="4.96495">
        <ele>307.31411743164</ele>
        <time>2018-03-08T10:27:08+0100</time>
      </trkpt>
      <trkpt lat="47.22926" lon="4.96495">
        <ele>307.28350830078</ele>
        <time>2018-03-08T10:27:11+0100</time>
      </trkpt>
      <trkpt lat="47.22925" lon="4.96494">
        <ele>307.26315307617</ele>
        <time>2018-03-08T10:27:14+0100</time>
      </trkpt>
      <trkpt lat="47.22925" lon="4.96494">
        <ele>307.24420166016</ele>
        <time>2018-03-08T10:27:17+0100</time>
      </trkpt>
      <trkpt lat="47.22925" lon="4.96494">
        <ele>307.22131347656</ele>
        <time>2018-03-08T10:27:20+0100</time>
      </trkpt>
      <trkpt lat="47.22925" lon="4.96494">
        <ele>307.19668579102</ele>
        <time>2018-03-08T10:27:23+0100</time>
      </trkpt>
      <trkpt lat="47.22925" lon="4.96494">
        <ele>307.1711730957</ele>
        <time>2018-03-08T10:27:26+0100</time>
      </trkpt>
      <trkpt lat="47.22925" lon="4.96494">
        <ele>307.14822387695</ele>
        <time>2018-03-08T10:27:29+0100</time>
      </trkpt>
      <trkpt lat="47.22925" lon="4.96494">
        <ele>307.1301574707</ele>
        <time>2018-03-08T10:27:32+0100</time>
      </trkpt>
      <trkpt lat="47.22925" lon="4.96495">
        <ele>307.1194152832</ele>
        <time>2018-03-08T10:27:35+0100</time>
      </trkpt>
      <trkpt lat="47.22924" lon="4.96495">
        <ele>307.10940551758</ele>
        <time>2018-03-08T10:27:38+0100</time>
      </trkpt>
      <trkpt lat="47.22924" lon="4.96495">
        <ele>307.09564208984</ele>
        <time>2018-03-08T10:27:41+0100</time>
      </trkpt>
      <trkpt lat="47.22924" lon="4.96495">
        <ele>307.0751953125</ele>
        <time>2018-03-08T10:27:44+0100</time>
      </trkpt>
      <trkpt lat="47.22924" lon="4.96495">
        <ele>306.98318481445</ele>
        <time>2018-03-08T10:27:47+0100</time>
      </trkpt>
      <trkpt lat="47.22922" lon="4.965">
        <ele>306.8974609375</ele>
        <time>2018-03-08T10:27:50+0100</time>
      </trkpt>
      <trkpt lat="47.22922" lon="4.965">
        <ele>306.87551879883</ele>
        <time>2018-03-08T10:27:53+0100</time>
      </trkpt>
      <trkpt lat="47.22922" lon="4.96502">
        <ele>306.84957885742</ele>
        <time>2018-03-08T10:27:56+0100</time>
      </trkpt>
      <trkpt lat="47.22922" lon="4.96503">
        <ele>306.81982421875</ele>
        <time>2018-03-08T10:27:59+0100</time>
      </trkpt>
      <trkpt lat="47.22922" lon="4.96503">
        <ele>306.7907409668</ele>
        <time>2018-03-08T10:28:02+0100</time>
      </trkpt>
      <trkpt lat="47.22922" lon="4.96503">
        <ele>306.76177978516</ele>
        <time>2018-03-08T10:28:05+0100</time>
      </trkpt>
      <trkpt lat="47.22922" lon="4.96503">
        <ele>306.73120117188</ele>
        <time>2018-03-08T10:28:08+0100</time>
      </trkpt>
      <trkpt lat="47.22922" lon="4.96503">
        <ele>306.70529174805</ele>
        <time>2018-03-08T10:28:11+0100</time>
      </trkpt>
      <trkpt lat="47.22922" lon="4.96504">
        <ele>306.68139648438</ele>
        <time>2018-03-08T10:28:14+0100</time>
      </trkpt>
      <trkpt lat="47.22922" lon="4.96504">
        <ele>306.65716552734</ele>
        <time>2018-03-08T10:28:17+0100</time>
      </trkpt>
      <trkpt lat="47.22922" lon="4.96504">
        <ele>306.62750244141</ele>
        <time>2018-03-08T10:28:20+0100</time>
      </trkpt>
      <trkpt lat="47.22922" lon="4.96505">
        <ele>306.43389892578</ele>
        <time>2018-03-08T10:28:23+0100</time>
      </trkpt>
      <trkpt lat="47.22921" lon="4.96507">
        <ele>306.22622680664</ele>
        <time>2018-03-08T10:28:26+0100</time>
      </trkpt>
      <trkpt lat="47.22921" lon="4.96508">
        <ele>306.17050170898</ele>
        <time>2018-03-08T10:28:29+0100</time>
      </trkpt>
      <trkpt lat="47.22921" lon="4.96508">
        <ele>305.96649169922</ele>
        <time>2018-03-08T10:28:32+0100</time>
      </trkpt>
      <trkpt lat="47.2292" lon="4.96509">
        <ele>305.91928100586</ele>
        <time>2018-03-08T10:28:35+0100</time>
      </trkpt>
      <trkpt lat="47.2292" lon="4.96509">
        <ele>305.87359619141</ele>
        <time>2018-03-08T10:28:38+0100</time>
      </trkpt>
      <trkpt lat="47.2292" lon="4.96509">
        <ele>305.81442260742</ele>
        <time>2018-03-08T10:28:41+0100</time>
      </trkpt>
      <trkpt lat="47.2292" lon="4.96509">
        <ele>305.74645996094</ele>
        <time>2018-03-08T10:28:44+0100</time>
      </trkpt>
      <trkpt lat="47.2292" lon="4.96509">
        <ele>305.67816162109</ele>
        <time>2018-03-08T10:28:47+0100</time>
      </trkpt>
      <trkpt lat="47.2292" lon="4.96509">
        <ele>305.61181640625</ele>
        <time>2018-03-08T10:28:50+0100</time>
      </trkpt>
      <trkpt lat="47.2292" lon="4.96509">
        <ele>305.5478515625</ele>
        <time>2018-03-08T10:28:53+0100</time>
      </trkpt>
      <trkpt lat="47.2292" lon="4.96509">
        <ele>305.48348999023</ele>
        <time>2018-03-08T10:28:56+0100</time>
      </trkpt>
      <trkpt lat="47.2292" lon="4.96509">
        <ele>305.41827392578</ele>
        <time>2018-03-08T10:28:59+0100</time>
      </trkpt>
      <trkpt lat="47.22919" lon="4.96509">
        <ele>305.3528137207</ele>
        <time>2018-03-08T10:29:02+0100</time>
      </trkpt>
      <trkpt lat="47.22919" lon="4.96509">
        <ele>305.28921508789</ele>
        <time>2018-03-08T10:29:05+0100</time>
      </trkpt>
      <trkpt lat="47.2292" lon="4.96508">
        <ele>305.23300170898</ele>
        <time>2018-03-08T10:29:08+0100</time>
      </trkpt>
      <trkpt lat="47.2292" lon="4.96508">
        <ele>305.18063354492</ele>
        <time>2018-03-08T10:29:11+0100</time>
      </trkpt>
      <trkpt lat="47.2292" lon="4.96508">
        <ele>305.12921142578</ele>
        <time>2018-03-08T10:29:14+0100</time>
      </trkpt>
      <trkpt lat="47.2292" lon="4.96508">
        <ele>305.0817565918</ele>
        <time>2018-03-08T10:29:17+0100</time>
      </trkpt>
      <trkpt lat="47.2292" lon="4.96508">
        <ele>305.03579711914</ele>
        <time>2018-03-08T10:29:20+0100</time>
      </trkpt>
      <trkpt lat="47.2292" lon="4.96508">
        <ele>304.98977661133</ele>
        <time>2018-03-08T10:29:23+0100</time>
      </trkpt>
      <trkpt lat="47.2292" lon="4.96508">
        <ele>304.94342041016</ele>
        <time>2018-03-08T10:29:26+0100</time>
      </trkpt>
      <trkpt lat="47.2292" lon="4.96506">
        <ele>304.57791137695</ele>
        <time>2018-03-08T10:29:29+0100</time>
      </trkpt>
      <trkpt lat="47.2292" lon="4.96503">
        <ele>304.04968261719</ele>
        <time>2018-03-08T10:29:32+0100</time>
      </trkpt>
      <trkpt lat="47.22923" lon="4.965">
        <ele>303.58993530273</ele>
        <time>2018-03-08T10:29:35+0100</time>
      </trkpt>
      <trkpt lat="47.22926" lon="4.96498">
        <ele>303.2121887207</ele>
        <time>2018-03-08T10:29:38+0100</time>
      </trkpt>
      <trkpt lat="47.22929" lon="4.96497">
        <ele>302.90023803711</ele>
        <time>2018-03-08T10:29:41+0100</time>
      </trkpt>
      <trkpt lat="47.22932" lon="4.96496">
        <ele>302.62432861328</ele>
        <time>2018-03-08T10:29:44+0100</time>
      </trkpt>
      <trkpt lat="47.22935" lon="4.96494">
        <ele>302.39733886719</ele>
        <time>2018-03-08T10:29:47+0100</time>
      </trkpt>
      <trkpt lat="47.22938" lon="4.96493">
        <ele>302.22595214844</ele>
        <time>2018-03-08T10:29:50+0100</time>
      </trkpt>
      <trkpt lat="47.22939" lon="4.96492">
        <ele>302.06063842773</ele>
        <time>2018-03-08T10:29:53+0100</time>
      </trkpt>
      <trkpt lat="47.22941" lon="4.96491">
        <ele>301.87286376953</ele>
        <time>2018-03-08T10:29:56+0100</time>
      </trkpt>
      <trkpt lat="47.22942" lon="4.9649">
        <ele>301.67709350586</ele>
        <time>2018-03-08T10:29:59+0100</time>
      </trkpt>
      <trkpt lat="47.22943" lon="4.9649">
        <ele>301.48928833008</ele>
        <time>2018-03-08T10:30:02+0100</time>
      </trkpt>
      <trkpt lat="47.22945" lon="4.96489">
        <ele>301.31396484375</ele>
        <time>2018-03-08T10:30:05+0100</time>
      </trkpt>
      <trkpt lat="47.22946" lon="4.96488">
        <ele>301.15557861328</ele>
        <time>2018-03-08T10:30:08+0100</time>
      </trkpt>
      <trkpt lat="47.22948" lon="4.96487">
        <ele>301.00820922852</ele>
        <time>2018-03-08T10:30:11+0100</time>
      </trkpt>
      <trkpt lat="47.2295" lon="4.96486">
        <ele>300.86151123047</ele>
        <time>2018-03-08T10:30:14+0100</time>
      </trkpt>
      <trkpt lat="47.22952" lon="4.96485">
        <ele>300.74160766602</ele>
        <time>2018-03-08T10:30:17+0100</time>
      </trkpt>
      <trkpt lat="47.22953" lon="4.96486">
        <ele>300.6477355957</ele>
        <time>2018-03-08T10:30:20+0100</time>
      </trkpt>
      <trkpt lat="47.22955" lon="4.96485">
        <ele>300.56597900391</ele>
        <time>2018-03-08T10:30:23+0100</time>
      </trkpt>
      <trkpt lat="47.22955" lon="4.96483">
        <ele>300.52096557617</ele>
        <time>2018-03-08T10:30:26+0100</time>
      </trkpt>
      <trkpt lat="47.22956" lon="4.96483">
        <ele>300.51483154297</ele>
        <time>2018-03-08T10:30:29+0100</time>
      </trkpt>
      <trkpt lat="47.22956" lon="4.96484">
        <ele>300.51229858398</ele>
        <time>2018-03-08T10:30:32+0100</time>
      </trkpt>
      <trkpt lat="47.22958" lon="4.96484">
        <ele>300.5126953125</ele>
        <time>2018-03-08T10:30:35+0100</time>
      </trkpt>
      <trkpt lat="47.22958" lon="4.96484">
        <ele>300.51864624023</ele>
        <time>2018-03-08T10:30:38+0100</time>
      </trkpt>
      <trkpt lat="47.2296" lon="4.96485">
        <ele>300.52841186523</ele>
        <time>2018-03-08T10:30:41+0100</time>
      </trkpt>
      <trkpt lat="47.22963" lon="4.96485">
        <ele>300.51181030273</ele>
        <time>2018-03-08T10:30:44+0100</time>
      </trkpt>
      <trkpt lat="47.22965" lon="4.96485">
        <ele>300.48364257812</ele>
        <time>2018-03-08T10:30:47+0100</time>
      </trkpt>
      <trkpt lat="47.22968" lon="4.96486">
        <ele>300.44812011719</ele>
        <time>2018-03-08T10:30:50+0100</time>
      </trkpt>
      <trkpt lat="47.2297" lon="4.96485">
        <ele>300.41857910156</ele>
        <time>2018-03-08T10:30:53+0100</time>
      </trkpt>
      <trkpt lat="47.22971" lon="4.96484">
        <ele>300.38311767578</ele>
        <time>2018-03-08T10:30:56+0100</time>
      </trkpt>
      <trkpt lat="47.22972" lon="4.96485">
        <ele>300.3723449707</ele>
        <time>2018-03-08T10:30:59+0100</time>
      </trkpt>
      <trkpt lat="47.22974" lon="4.96485">
        <ele>300.42663574219</ele>
        <time>2018-03-08T10:31:02+0100</time>
      </trkpt>
      <trkpt lat="47.22977" lon="4.96485">
        <ele>300.5266418457</ele>
        <time>2018-03-08T10:31:05+0100</time>
      </trkpt>
      <trkpt lat="47.2298" lon="4.96485">
        <ele>300.64318847656</ele>
        <time>2018-03-08T10:31:08+0100</time>
      </trkpt>
      <trkpt lat="47.22982" lon="4.96486">
        <ele>300.74102783203</ele>
        <time>2018-03-08T10:31:11+0100</time>
      </trkpt>
      <trkpt lat="47.22985" lon="4.96487">
        <ele>300.83288574219</ele>
        <time>2018-03-08T10:31:14+0100</time>
      </trkpt>
      <trkpt lat="47.22988" lon="4.96488">
        <ele>300.90826416016</ele>
        <time>2018-03-08T10:31:17+0100</time>
      </trkpt>
      <trkpt lat="47.22989" lon="4.96487">
        <ele>300.92761230469</ele>
        <time>2018-03-08T10:31:20+0100</time>
      </trkpt>
      <trkpt lat="47.22991" lon="4.96487">
        <ele>300.97271728516</ele>
        <time>2018-03-08T10:31:23+0100</time>
      </trkpt>
      <trkpt lat="47.22994" lon="4.96487">
        <ele>301.037109375</ele>
        <time>2018-03-08T10:31:26+0100</time>
      </trkpt>
      <trkpt lat="47.22997" lon="4.96487">
        <ele>301.10946655273</ele>
        <time>2018-03-08T10:31:29+0100</time>
      </trkpt>
      <trkpt lat="47.23" lon="4.96487">
        <ele>301.16897583008</ele>
        <time>2018-03-08T10:31:32+0100</time>
      </trkpt>
      <trkpt lat="47.23002" lon="4.96488">
        <ele>301.23260498047</ele>
        <time>2018-03-08T10:31:35+0100</time>
      </trkpt>
      <trkpt lat="47.23005" lon="4.96489">
        <ele>301.29797363281</ele>
        <time>2018-03-08T10:31:38+0100</time>
      </trkpt>
      <trkpt lat="47.23009" lon="4.96493">
        <ele>301.38372802734</ele>
        <time>2018-03-08T10:31:41+0100</time>
      </trkpt>
      <trkpt lat="47.23013" lon="4.96496">
        <ele>301.49917602539</ele>
        <time>2018-03-08T10:31:44+0100</time>
      </trkpt>
      <trkpt lat="47.23015" lon="4.96499">
        <ele>301.6838684082</ele>
        <time>2018-03-08T10:31:47+0100</time>
      </trkpt>
      <trkpt lat="47.23018" lon="4.96502">
        <ele>301.84683227539</ele>
        <time>2018-03-08T10:31:50+0100</time>
      </trkpt>
      <trkpt lat="47.23022" lon="4.96503">
        <ele>301.94665527344</ele>
        <time>2018-03-08T10:31:53+0100</time>
      </trkpt>
      <trkpt lat="47.23026" lon="4.96503">
        <ele>301.94906616211</ele>
        <time>2018-03-08T10:31:56+0100</time>
      </trkpt>
      <trkpt lat="47.23029" lon="4.96502">
        <ele>302.0114440918</ele>
        <time>2018-03-08T10:31:59+0100</time>
      </trkpt>
      <trkpt lat="47.23031" lon="4.96502">
        <ele>302.21200561523</ele>
        <time>2018-03-08T10:32:02+0100</time>
      </trkpt>
      <trkpt lat="47.23034" lon="4.96504">
        <ele>302.45654296875</ele>
        <time>2018-03-08T10:32:05+0100</time>
      </trkpt>
      <trkpt lat="47.23038" lon="4.96507">
        <ele>302.80865478516</ele>
        <time>2018-03-08T10:32:08+0100</time>
      </trkpt>
      <trkpt lat="47.23041" lon="4.96508">
        <ele>303.18890380859</ele>
        <time>2018-03-08T10:32:11+0100</time>
      </trkpt>
      <trkpt lat="47.23044" lon="4.96509">
        <ele>303.56195068359</ele>
        <time>2018-03-08T10:32:14+0100</time>
      </trkpt>
      <trkpt lat="47.23047" lon="4.96511">
        <ele>303.92633056641</ele>
        <time>2018-03-08T10:32:17+0100</time>
      </trkpt>
      <trkpt lat="47.23048" lon="4.96513">
        <ele>304.17236328125</ele>
        <time>2018-03-08T10:32:20+0100</time>
      </trkpt>
      <trkpt lat="47.2305" lon="4.96515">
        <ele>304.51376342773</ele>
        <time>2018-03-08T10:32:23+0100</time>
      </trkpt>
      <trkpt lat="47.23051" lon="4.96516">
        <ele>304.73425292969</ele>
        <time>2018-03-08T10:32:26+0100</time>
      </trkpt>
      <trkpt lat="47.23052" lon="4.96518">
        <ele>304.99053955078</ele>
        <time>2018-03-08T10:32:29+0100</time>
      </trkpt>
      <trkpt lat="47.23058" lon="4.96522">
        <ele>305.14990234375</ele>
        <time>2018-03-08T10:32:32+0100</time>
      </trkpt>
      <trkpt lat="47.23061" lon="4.96527">
        <ele>305.21423339844</ele>
        <time>2018-03-08T10:32:35+0100</time>
      </trkpt>
      <trkpt lat="47.23064" lon="4.9653">
        <ele>305.25003051758</ele>
        <time>2018-03-08T10:32:38+0100</time>
      </trkpt>
      <trkpt lat="47.23065" lon="4.96532">
        <ele>305.26638793945</ele>
        <time>2018-03-08T10:32:41+0100</time>
      </trkpt>
      <trkpt lat="47.23066" lon="4.96532">
        <ele>305.32925415039</ele>
        <time>2018-03-08T10:32:44+0100</time>
      </trkpt>
      <trkpt lat="47.23067" lon="4.9653">
        <ele>305.42178344727</ele>
        <time>2018-03-08T10:32:47+0100</time>
      </trkpt>
      <trkpt lat="47.2307" lon="4.96525">
        <ele>305.53631591797</ele>
        <time>2018-03-08T10:32:50+0100</time>
      </trkpt>
      <trkpt lat="47.23073" lon="4.9652">
        <ele>305.67388916016</ele>
        <time>2018-03-08T10:32:53+0100</time>
      </trkpt>
      <trkpt lat="47.23076" lon="4.96517">
        <ele>305.83227539062</ele>
        <time>2018-03-08T10:32:56+0100</time>
      </trkpt>
      <trkpt lat="47.23079" lon="4.96515">
        <ele>306.00189208984</ele>
        <time>2018-03-08T10:32:59+0100</time>
      </trkpt>
      <trkpt lat="47.23083" lon="4.96515">
        <ele>306.17959594727</ele>
        <time>2018-03-08T10:33:02+0100</time>
      </trkpt>
      <trkpt lat="47.23086" lon="4.96514">
        <ele>306.34887695312</ele>
        <time>2018-03-08T10:33:05+0100</time>
      </trkpt>
      <trkpt lat="47.23089" lon="4.96513">
        <ele>306.57962036133</ele>
        <time>2018-03-08T10:33:08+0100</time>
      </trkpt>
      <trkpt lat="47.23092" lon="4.96513">
        <ele>306.84954833984</ele>
        <time>2018-03-08T10:33:11+0100</time>
      </trkpt>
      <trkpt lat="47.23095" lon="4.96511">
        <ele>307.12417602539</ele>
        <time>2018-03-08T10:33:14+0100</time>
      </trkpt>
      <trkpt lat="47.23098" lon="4.96509">
        <ele>307.39562988281</ele>
        <time>2018-03-08T10:33:17+0100</time>
      </trkpt>
      <trkpt lat="47.231" lon="4.96508">
        <ele>307.62664794922</ele>
        <time>2018-03-08T10:33:20+0100</time>
      </trkpt>
      <trkpt lat="47.231" lon="4.96508">
        <ele>307.65008544922</ele>
        <time>2018-03-08T10:33:23+0100</time>
      </trkpt>
      <trkpt lat="47.23102" lon="4.96506">
        <ele>307.88571166992</ele>
        <time>2018-03-08T10:33:26+0100</time>
      </trkpt>
      <trkpt lat="47.23104" lon="4.96503">
        <ele>308.06799316406</ele>
        <time>2018-03-08T10:33:29+0100</time>
      </trkpt>
      <trkpt lat="47.23106" lon="4.96502">
        <ele>308.21588134766</ele>
        <time>2018-03-08T10:33:32+0100</time>
      </trkpt>
      <trkpt lat="47.23108" lon="4.965">
        <ele>308.35372924805</ele>
        <time>2018-03-08T10:33:35+0100</time>
      </trkpt>
      <trkpt lat="47.23109" lon="4.96497">
        <ele>308.51040649414</ele>
        <time>2018-03-08T10:33:38+0100</time>
      </trkpt>
      <trkpt lat="47.23111" lon="4.96493">
        <ele>308.66094970703</ele>
        <time>2018-03-08T10:33:41+0100</time>
      </trkpt>
      <trkpt lat="47.23112" lon="4.96491">
        <ele>308.79370117188</ele>
        <time>2018-03-08T10:33:44+0100</time>
      </trkpt>
      <trkpt lat="47.23114" lon="4.96486">
        <ele>308.90960693359</ele>
        <time>2018-03-08T10:33:47+0100</time>
      </trkpt>
      <trkpt lat="47.23116" lon="4.96482">
        <ele>309.00311279297</ele>
        <time>2018-03-08T10:33:50+0100</time>
      </trkpt>
      <trkpt lat="47.23117" lon="4.96479">
        <ele>309.08419799805</ele>
        <time>2018-03-08T10:33:53+0100</time>
      </trkpt>
      <trkpt lat="47.23118" lon="4.96476">
        <ele>309.16256713867</ele>
        <time>2018-03-08T10:33:56+0100</time>
      </trkpt>
      <trkpt lat="47.23119" lon="4.96473">
        <ele>309.23699951172</ele>
        <time>2018-03-08T10:33:59+0100</time>
      </trkpt>
      <trkpt lat="47.23121" lon="4.96469">
        <ele>309.30706787109</ele>
        <time>2018-03-08T10:34:02+0100</time>
      </trkpt>
      <trkpt lat="47.23122" lon="4.96466">
        <ele>309.35681152344</ele>
        <time>2018-03-08T10:34:05+0100</time>
      </trkpt>
      <trkpt lat="47.23122" lon="4.96466">
        <ele>309.39279174805</ele>
        <time>2018-03-08T10:34:08+0100</time>
      </trkpt>
      <trkpt lat="47.23123" lon="4.96464">
        <ele>309.4440612793</ele>
        <time>2018-03-08T10:34:11+0100</time>
      </trkpt>
      <trkpt lat="47.23125" lon="4.96464">
        <ele>309.55892944336</ele>
        <time>2018-03-08T10:34:14+0100</time>
      </trkpt>
      <trkpt lat="47.23125" lon="4.96465">
        <ele>309.56784057617</ele>
        <time>2018-03-08T10:34:17+0100</time>
      </trkpt>
      <trkpt lat="47.23126" lon="4.96463">
        <ele>309.59414672852</ele>
        <time>2018-03-08T10:34:20+0100</time>
      </trkpt>
      <trkpt lat="47.23127" lon="4.96459">
        <ele>309.64590454102</ele>
        <time>2018-03-08T10:34:23+0100</time>
      </trkpt>
      <trkpt lat="47.23129" lon="4.96457">
        <ele>309.74426269531</ele>
        <time>2018-03-08T10:34:26+0100</time>
      </trkpt>
      <trkpt lat="47.23129" lon="4.96455">
        <ele>309.85971069336</ele>
        <time>2018-03-08T10:34:29+0100</time>
      </trkpt>
      <trkpt lat="47.2313" lon="4.96454">
        <ele>309.98818969727</ele>
        <time>2018-03-08T10:34:32+0100</time>
      </trkpt>
      <trkpt lat="47.23131" lon="4.96451">
        <ele>310.12689208984</ele>
        <time>2018-03-08T10:34:35+0100</time>
      </trkpt>
      <trkpt lat="47.23134" lon="4.96448">
        <ele>310.29156494141</ele>
        <time>2018-03-08T10:34:38+0100</time>
      </trkpt>
      <trkpt lat="47.23136" lon="4.96448">
        <ele>310.46105957031</ele>
        <time>2018-03-08T10:34:41+0100</time>
      </trkpt>
      <trkpt lat="47.23139" lon="4.96447">
        <ele>310.66278076172</ele>
        <time>2018-03-08T10:34:44+0100</time>
      </trkpt>
      <trkpt lat="47.23142" lon="4.96446">
        <ele>310.90985107422</ele>
        <time>2018-03-08T10:34:47+0100</time>
      </trkpt>
      <trkpt lat="47.23144" lon="4.96445">
        <ele>311.15979003906</ele>
        <time>2018-03-08T10:34:50+0100</time>
      </trkpt>
      <trkpt lat="47.23147" lon="4.96445">
        <ele>311.42956542969</ele>
        <time>2018-03-08T10:34:53+0100</time>
      </trkpt>
      <trkpt lat="47.2315" lon="4.96446">
        <ele>311.71017456055</ele>
        <time>2018-03-08T10:34:56+0100</time>
      </trkpt>
      <trkpt lat="47.23152" lon="4.96447">
        <ele>311.99215698242</ele>
        <time>2018-03-08T10:34:59+0100</time>
      </trkpt>
      <trkpt lat="47.23154" lon="4.96447">
        <ele>312.29531860352</ele>
        <time>2018-03-08T10:35:02+0100</time>
      </trkpt>
      <trkpt lat="47.23157" lon="4.96448">
        <ele>312.56869506836</ele>
        <time>2018-03-08T10:35:05+0100</time>
      </trkpt>
      <trkpt lat="47.2316" lon="4.96448">
        <ele>312.75448608398</ele>
        <time>2018-03-08T10:35:08+0100</time>
      </trkpt>
      <trkpt lat="47.23163" lon="4.96449">
        <ele>312.9216003418</ele>
        <time>2018-03-08T10:35:11+0100</time>
      </trkpt>
      <trkpt lat="47.23165" lon="4.9645">
        <ele>313.11346435547</ele>
        <time>2018-03-08T10:35:14+0100</time>
      </trkpt>
      <trkpt lat="47.23167" lon="4.96451">
        <ele>313.33184814453</ele>
        <time>2018-03-08T10:35:17+0100</time>
      </trkpt>
      <trkpt lat="47.2317" lon="4.96453">
        <ele>313.5637512207</ele>
        <time>2018-03-08T10:35:20+0100</time>
      </trkpt>
      <trkpt lat="47.23173" lon="4.96453">
        <ele>313.78689575195</ele>
        <time>2018-03-08T10:35:23+0100</time>
      </trkpt>
      <trkpt lat="47.23175" lon="4.96455">
        <ele>314.01232910156</ele>
        <time>2018-03-08T10:35:26+0100</time>
      </trkpt>
      <trkpt lat="47.23177" lon="4.96455">
        <ele>314.23162841797</ele>
        <time>2018-03-08T10:35:29+0100</time>
      </trkpt>
      <trkpt lat="47.23179" lon="4.96456">
        <ele>314.43856811523</ele>
        <time>2018-03-08T10:35:32+0100</time>
      </trkpt>
      <trkpt lat="47.23182" lon="4.96457">
        <ele>314.65197753906</ele>
        <time>2018-03-08T10:35:35+0100</time>
      </trkpt>
      <trkpt lat="47.23186" lon="4.96458">
        <ele>314.88848876953</ele>
        <time>2018-03-08T10:35:38+0100</time>
      </trkpt>
      <trkpt lat="47.23188" lon="4.96458">
        <ele>315.14077758789</ele>
        <time>2018-03-08T10:35:41+0100</time>
      </trkpt>
      <trkpt lat="47.23192" lon="4.96458">
        <ele>315.41806030273</ele>
        <time>2018-03-08T10:35:44+0100</time>
      </trkpt>
      <trkpt lat="47.23195" lon="4.96458">
        <ele>315.67639160156</ele>
        <time>2018-03-08T10:35:47+0100</time>
      </trkpt>
      <trkpt lat="47.23196" lon="4.9646">
        <ele>315.93316650391</ele>
        <time>2018-03-08T10:35:50+0100</time>
      </trkpt>
      <trkpt lat="47.23199" lon="4.96462">
        <ele>316.18634033203</ele>
        <time>2018-03-08T10:35:53+0100</time>
      </trkpt>
      <trkpt lat="47.23202" lon="4.96465">
        <ele>316.4216003418</ele>
        <time>2018-03-08T10:35:56+0100</time>
      </trkpt>
      <trkpt lat="47.23205" lon="4.96466">
        <ele>316.63684082031</ele>
        <time>2018-03-08T10:35:59+0100</time>
      </trkpt>
      <trkpt lat="47.23208" lon="4.96467">
        <ele>316.84634399414</ele>
        <time>2018-03-08T10:36:02+0100</time>
      </trkpt>
      <trkpt lat="47.23211" lon="4.96469">
        <ele>317.04190063477</ele>
        <time>2018-03-08T10:36:05+0100</time>
      </trkpt>
      <trkpt lat="47.23215" lon="4.9647">
        <ele>317.24594116211</ele>
        <time>2018-03-08T10:36:08+0100</time>
      </trkpt>
      <trkpt lat="47.23217" lon="4.96472">
        <ele>317.44882202148</ele>
        <time>2018-03-08T10:36:11+0100</time>
      </trkpt>
      <trkpt lat="47.23219" lon="4.96473">
        <ele>317.58743286133</ele>
        <time>2018-03-08T10:36:14+0100</time>
      </trkpt>
      <trkpt lat="47.2322" lon="4.96474">
        <ele>317.63171386719</ele>
        <time>2018-03-08T10:36:17+0100</time>
      </trkpt>
      <trkpt lat="47.23221" lon="4.96475">
        <ele>317.64086914062</ele>
        <time>2018-03-08T10:36:20+0100</time>
      </trkpt>
      <trkpt lat="47.23221" lon="4.96475">
        <ele>317.64776611328</ele>
        <time>2018-03-08T10:36:23+0100</time>
      </trkpt>
      <trkpt lat="47.23221" lon="4.96475">
        <ele>317.64810180664</ele>
        <time>2018-03-08T10:36:26+0100</time>
      </trkpt>
      <trkpt lat="47.23222" lon="4.96475">
        <ele>317.53652954102</ele>
        <time>2018-03-08T10:36:29+0100</time>
      </trkpt>
      <trkpt lat="47.23224" lon="4.96475">
        <ele>317.47607421875</ele>
        <time>2018-03-08T10:36:32+0100</time>
      </trkpt>
      <trkpt lat="47.23226" lon="4.96476">
        <ele>317.31457519531</ele>
        <time>2018-03-08T10:36:35+0100</time>
      </trkpt>
      <trkpt lat="47.23229" lon="4.96476">
        <ele>317.15560913086</ele>
        <time>2018-03-08T10:36:38+0100</time>
      </trkpt>
      <trkpt lat="47.23232" lon="4.96476">
        <ele>316.97045898438</ele>
        <time>2018-03-08T10:36:41+0100</time>
      </trkpt>
      <trkpt lat="47.23234" lon="4.96477">
        <ele>316.75888061523</ele>
        <time>2018-03-08T10:36:44+0100</time>
      </trkpt>
      <trkpt lat="47.23236" lon="4.96478">
        <ele>316.54046630859</ele>
        <time>2018-03-08T10:36:47+0100</time>
      </trkpt>
      <trkpt lat="47.2324" lon="4.9648">
        <ele>316.33197021484</ele>
        <time>2018-03-08T10:36:50+0100</time>
      </trkpt>
      <trkpt lat="47.23242" lon="4.9648">
        <ele>316.16860961914</ele>
        <time>2018-03-08T10:36:53+0100</time>
      </trkpt>
      <trkpt lat="47.23244" lon="4.9648">
        <ele>316.06536865234</ele>
        <time>2018-03-08T10:36:56+0100</time>
      </trkpt>
      <trkpt lat="47.23247" lon="4.96481">
        <ele>315.97982788086</ele>
        <time>2018-03-08T10:36:59+0100</time>
      </trkpt>
      <trkpt lat="47.23249" lon="4.96482">
        <ele>315.92565917969</ele>
        <time>2018-03-08T10:37:02+0100</time>
      </trkpt>
      <trkpt lat="47.23253" lon="4.96483">
        <ele>315.90335083008</ele>
        <time>2018-03-08T10:37:05+0100</time>
      </trkpt>
      <trkpt lat="47.23255" lon="4.96484">
        <ele>315.91253662109</ele>
        <time>2018-03-08T10:37:08+0100</time>
      </trkpt>
      <trkpt lat="47.23258" lon="4.96485">
        <ele>315.93661499023</ele>
        <time>2018-03-08T10:37:11+0100</time>
      </trkpt>
      <trkpt lat="47.23261" lon="4.96485">
        <ele>315.95788574219</ele>
        <time>2018-03-08T10:37:14+0100</time>
      </trkpt>
      <trkpt lat="47.23264" lon="4.96488">
        <ele>315.89813232422</ele>
        <time>2018-03-08T10:37:17+0100</time>
      </trkpt>
      <trkpt lat="47.23268" lon="4.96492">
        <ele>315.77505493164</ele>
        <time>2018-03-08T10:37:20+0100</time>
      </trkpt>
      <trkpt lat="47.23271" lon="4.96494">
        <ele>315.60537719727</ele>
        <time>2018-03-08T10:37:23+0100</time>
      </trkpt>
      <trkpt lat="47.23273" lon="4.96495">
        <ele>315.41323852539</ele>
        <time>2018-03-08T10:37:26+0100</time>
      </trkpt>
      <trkpt lat="47.23276" lon="4.96497">
        <ele>315.29156494141</ele>
        <time>2018-03-08T10:37:29+0100</time>
      </trkpt>
      <trkpt lat="47.23278" lon="4.96499">
        <ele>315.08261108398</ele>
        <time>2018-03-08T10:37:32+0100</time>
      </trkpt>
      <trkpt lat="47.23281" lon="4.965">
        <ele>314.84777832031</ele>
        <time>2018-03-08T10:37:35+0100</time>
      </trkpt>
      <trkpt lat="47.23282" lon="4.965">
        <ele>314.5832824707</ele>
        <time>2018-03-08T10:37:38+0100</time>
      </trkpt>
      <trkpt lat="47.23285" lon="4.96501">
        <ele>314.36248779297</ele>
        <time>2018-03-08T10:37:41+0100</time>
      </trkpt>
      <trkpt lat="47.23287" lon="4.96502">
        <ele>314.24087524414</ele>
        <time>2018-03-08T10:37:44+0100</time>
      </trkpt>
      <trkpt lat="47.2329" lon="4.96502">
        <ele>314.19317626953</ele>
        <time>2018-03-08T10:37:47+0100</time>
      </trkpt>
      <trkpt lat="47.23291" lon="4.96502">
        <ele>314.23275756836</ele>
        <time>2018-03-08T10:37:50+0100</time>
      </trkpt>
      <trkpt lat="47.23293" lon="4.96502">
        <ele>314.23556518555</ele>
        <time>2018-03-08T10:37:53+0100</time>
      </trkpt>
      <trkpt lat="47.23295" lon="4.96503">
        <ele>314.18618774414</ele>
        <time>2018-03-08T10:37:56+0100</time>
      </trkpt>
      <trkpt lat="47.23297" lon="4.96503">
        <ele>314.07489013672</ele>
        <time>2018-03-08T10:37:59+0100</time>
      </trkpt>
      <trkpt lat="47.233" lon="4.96505">
        <ele>313.99176025391</ele>
        <time>2018-03-08T10:38:02+0100</time>
      </trkpt>
      <trkpt lat="47.23303" lon="4.96507">
        <ele>313.88705444336</ele>
        <time>2018-03-08T10:38:05+0100</time>
      </trkpt>
      <trkpt lat="47.23306" lon="4.96507">
        <ele>313.76266479492</ele>
        <time>2018-03-08T10:38:08+0100</time>
      </trkpt>
      <trkpt lat="47.23307" lon="4.96508">
        <ele>313.60931396484</ele>
        <time>2018-03-08T10:38:11+0100</time>
      </trkpt>
      <trkpt lat="47.2331" lon="4.96509">
        <ele>313.44409179688</ele>
        <time>2018-03-08T10:38:14+0100</time>
      </trkpt>
      <trkpt lat="47.23314" lon="4.9651">
        <ele>313.29559326172</ele>
        <time>2018-03-08T10:38:17+0100</time>
      </trkpt>
      <trkpt lat="47.23316" lon="4.96512">
        <ele>313.17074584961</ele>
        <time>2018-03-08T10:38:20+0100</time>
      </trkpt>
      <trkpt lat="47.23319" lon="4.96513">
        <ele>312.99014282227</ele>
        <time>2018-03-08T10:38:22+0100</time>
      </trkpt>
      <trkpt lat="47.2332" lon="4.96514">
        <ele>312.845703125</ele>
        <time>2018-03-08T10:38:25+0100</time>
      </trkpt>
      <trkpt lat="47.23322" lon="4.96514">
        <ele>312.73303222656</ele>
        <time>2018-03-08T10:38:28+0100</time>
      </trkpt>
      <trkpt lat="47.23324" lon="4.96515">
        <ele>312.62854003906</ele>
        <time>2018-03-08T10:38:31+0100</time>
      </trkpt>
      <trkpt lat="47.23327" lon="4.96517">
        <ele>312.47418212891</ele>
        <time>2018-03-08T10:38:34+0100</time>
      </trkpt>
      <trkpt lat="47.23329" lon="4.96518">
        <ele>312.32189941406</ele>
        <time>2018-03-08T10:38:37+0100</time>
      </trkpt>
      <trkpt lat="47.2333" lon="4.96518">
        <ele>312.18865966797</ele>
        <time>2018-03-08T10:38:40+0100</time>
      </trkpt>
      <trkpt lat="47.23333" lon="4.96519">
        <ele>312.06256103516</ele>
        <time>2018-03-08T10:38:43+0100</time>
      </trkpt>
      <trkpt lat="47.23335" lon="4.9652">
        <ele>311.90881347656</ele>
        <time>2018-03-08T10:38:46+0100</time>
      </trkpt>
      <trkpt lat="47.23338" lon="4.96522">
        <ele>311.75131225586</ele>
        <time>2018-03-08T10:38:49+0100</time>
      </trkpt>
      <trkpt lat="47.2334" lon="4.96523">
        <ele>311.58499145508</ele>
        <time>2018-03-08T10:38:52+0100</time>
      </trkpt>
      <trkpt lat="47.23344" lon="4.96525">
        <ele>311.4455871582</ele>
        <time>2018-03-08T10:38:55+0100</time>
      </trkpt>
      <trkpt lat="47.23347" lon="4.96528">
        <ele>311.39929199219</ele>
        <time>2018-03-08T10:38:58+0100</time>
      </trkpt>
      <trkpt lat="47.2335" lon="4.96529">
        <ele>311.43374633789</ele>
        <time>2018-03-08T10:39:01+0100</time>
      </trkpt>
      <trkpt lat="47.23352" lon="4.9653">
        <ele>311.4501953125</ele>
        <time>2018-03-08T10:39:04+0100</time>
      </trkpt>
      <trkpt lat="47.23352" lon="4.96531">
        <ele>311.44705200195</ele>
        <time>2018-03-08T10:39:07+0100</time>
      </trkpt>
      <trkpt lat="47.23354" lon="4.96531">
        <ele>311.43301391602</ele>
        <time>2018-03-08T10:39:10+0100</time>
      </trkpt>
      <trkpt lat="47.23356" lon="4.96532">
        <ele>311.42803955078</ele>
        <time>2018-03-08T10:39:13+0100</time>
      </trkpt>
      <trkpt lat="47.23357" lon="4.96533">
        <ele>311.45333862305</ele>
        <time>2018-03-08T10:39:16+0100</time>
      </trkpt>
      <trkpt lat="47.23359" lon="4.96534">
        <ele>311.51287841797</ele>
        <time>2018-03-08T10:39:19+0100</time>
      </trkpt>
      <trkpt lat="47.23362" lon="4.96534">
        <ele>311.59167480469</ele>
        <time>2018-03-08T10:39:22+0100</time>
      </trkpt>
      <trkpt lat="47.23365" lon="4.96534">
        <ele>311.70544433594</ele>
        <time>2018-03-08T10:39:25+0100</time>
      </trkpt>
      <trkpt lat="47.23368" lon="4.96535">
        <ele>311.80126953125</ele>
        <time>2018-03-08T10:39:28+0100</time>
      </trkpt>
      <trkpt lat="47.2337" lon="4.96535">
        <ele>311.94714355469</ele>
        <time>2018-03-08T10:39:31+0100</time>
      </trkpt>
      <trkpt lat="47.23373" lon="4.96536">
        <ele>312.09805297852</ele>
        <time>2018-03-08T10:39:34+0100</time>
      </trkpt>
      <trkpt lat="47.23375" lon="4.96536">
        <ele>312.23498535156</ele>
        <time>2018-03-08T10:39:37+0100</time>
      </trkpt>
      <trkpt lat="47.23378" lon="4.96537">
        <ele>312.32870483398</ele>
        <time>2018-03-08T10:39:40+0100</time>
      </trkpt>
      <trkpt lat="47.23381" lon="4.96538">
        <ele>312.41989135742</ele>
        <time>2018-03-08T10:39:43+0100</time>
      </trkpt>
      <trkpt lat="47.23382" lon="4.96539">
        <ele>312.55325317383</ele>
        <time>2018-03-08T10:39:46+0100</time>
      </trkpt>
      <trkpt lat="47.23385" lon="4.96539">
        <ele>312.62664794922</ele>
        <time>2018-03-08T10:39:49+0100</time>
      </trkpt>
      <trkpt lat="47.23386" lon="4.9654">
        <ele>312.642578125</ele>
        <time>2018-03-08T10:39:52+0100</time>
      </trkpt>
      <trkpt lat="47.23389" lon="4.9654">
        <ele>312.61410522461</ele>
        <time>2018-03-08T10:39:55+0100</time>
      </trkpt>
      <trkpt lat="47.23391" lon="4.96542">
        <ele>312.60140991211</ele>
        <time>2018-03-08T10:39:58+0100</time>
      </trkpt>
      <trkpt lat="47.23393" lon="4.96541">
        <ele>312.64596557617</ele>
        <time>2018-03-08T10:40:01+0100</time>
      </trkpt>
      <trkpt lat="47.23395" lon="4.96541">
        <ele>312.74551391602</ele>
        <time>2018-03-08T10:40:04+0100</time>
      </trkpt>
      <trkpt lat="47.23398" lon="4.96542">
        <ele>312.87414550781</ele>
        <time>2018-03-08T10:40:07+0100</time>
      </trkpt>
      <trkpt lat="47.23401" lon="4.96544">
        <ele>312.99200439453</ele>
        <time>2018-03-08T10:40:10+0100</time>
      </trkpt>
      <trkpt lat="47.23403" lon="4.96544">
        <ele>313.07623291016</ele>
        <time>2018-03-08T10:40:13+0100</time>
      </trkpt>
      <trkpt lat="47.23405" lon="4.96545">
        <ele>313.17987060547</ele>
        <time>2018-03-08T10:40:16+0100</time>
      </trkpt>
      <trkpt lat="47.23409" lon="4.96547">
        <ele>313.26315307617</ele>
        <time>2018-03-08T10:40:19+0100</time>
      </trkpt>
      <trkpt lat="47.23414" lon="4.96549">
        <ele>313.31640625</ele>
        <time>2018-03-08T10:40:22+0100</time>
      </trkpt>
      <trkpt lat="47.23417" lon="4.96549">
        <ele>313.33847045898</ele>
        <time>2018-03-08T10:40:25+0100</time>
      </trkpt>
      <trkpt lat="47.23419" lon="4.96551">
        <ele>313.38284301758</ele>
        <time>2018-03-08T10:40:28+0100</time>
      </trkpt>
      <trkpt lat="47.23421" lon="4.9655">
        <ele>313.42532348633</ele>
        <time>2018-03-08T10:40:31+0100</time>
      </trkpt>
      <trkpt lat="47.23424" lon="4.9655">
        <ele>313.51281738281</ele>
        <time>2018-03-08T10:40:34+0100</time>
      </trkpt>
      <trkpt lat="47.23426" lon="4.9655">
        <ele>313.61572265625</ele>
        <time>2018-03-08T10:40:37+0100</time>
      </trkpt>
      <trkpt lat="47.23429" lon="4.9655">
        <ele>313.72830200195</ele>
        <time>2018-03-08T10:40:40+0100</time>
      </trkpt>
      <trkpt lat="47.23432" lon="4.9655">
        <ele>313.87753295898</ele>
        <time>2018-03-08T10:40:43+0100</time>
      </trkpt>
      <trkpt lat="47.23435" lon="4.96551">
        <ele>314.03552246094</ele>
        <time>2018-03-08T10:40:46+0100</time>
      </trkpt>
      <trkpt lat="47.23437" lon="4.96551">
        <ele>314.18356323242</ele>
        <time>2018-03-08T10:40:49+0100</time>
      </trkpt>
      <trkpt lat="47.2344" lon="4.96551">
        <ele>314.43402099609</ele>
        <time>2018-03-08T10:40:52+0100</time>
      </trkpt>
      <trkpt lat="47.23444" lon="4.96551">
        <ele>314.81887817383</ele>
        <time>2018-03-08T10:40:55+0100</time>
      </trkpt>
      <trkpt lat="47.23448" lon="4.96551">
        <ele>315.26354980469</ele>
        <time>2018-03-08T10:40:58+0100</time>
      </trkpt>
      <trkpt lat="47.23451" lon="4.96553">
        <ele>315.6611328125</ele>
        <time>2018-03-08T10:41:01+0100</time>
      </trkpt>
      <trkpt lat="47.23455" lon="4.96553">
        <ele>315.95837402344</ele>
        <time>2018-03-08T10:41:04+0100</time>
      </trkpt>
      <trkpt lat="47.23458" lon="4.96555">
        <ele>316.21347045898</ele>
        <time>2018-03-08T10:41:07+0100</time>
      </trkpt>
      <trkpt lat="47.23456" lon="4.96554">
        <ele>316.43460083008</ele>
        <time>2018-03-08T10:41:10+0100</time>
      </trkpt>
      <trkpt lat="47.23455" lon="4.96553">
        <ele>316.4729309082</ele>
        <time>2018-03-08T10:41:13+0100</time>
      </trkpt>
      <trkpt lat="47.23455" lon="4.96553">
        <ele>316.52499389648</ele>
        <time>2018-03-08T10:41:16+0100</time>
      </trkpt>
      <trkpt lat="47.23459" lon="4.96554">
        <ele>316.7008972168</ele>
        <time>2018-03-08T10:41:19+0100</time>
      </trkpt>
      <trkpt lat="47.23461" lon="4.96554">
        <ele>316.8381652832</ele>
        <time>2018-03-08T10:41:22+0100</time>
      </trkpt>
      <trkpt lat="47.23464" lon="4.96553">
        <ele>316.93405151367</ele>
        <time>2018-03-08T10:41:25+0100</time>
      </trkpt>
      <trkpt lat="47.23467" lon="4.96553">
        <ele>317.00762939453</ele>
        <time>2018-03-08T10:41:28+0100</time>
      </trkpt>
      <trkpt lat="47.23469" lon="4.96552">
        <ele>317.07833862305</ele>
        <time>2018-03-08T10:41:31+0100</time>
      </trkpt>
      <trkpt lat="47.23471" lon="4.96552">
        <ele>317.11972045898</ele>
        <time>2018-03-08T10:41:34+0100</time>
      </trkpt>
      <trkpt lat="47.23474" lon="4.96552">
        <ele>317.0764465332</ele>
        <time>2018-03-08T10:41:37+0100</time>
      </trkpt>
      <trkpt lat="47.23477" lon="4.96553">
        <ele>317.07455444336</ele>
        <time>2018-03-08T10:41:40+0100</time>
      </trkpt>
      <trkpt lat="47.23477" lon="4.96554">
        <ele>317.08929443359</ele>
        <time>2018-03-08T10:41:43+0100</time>
      </trkpt>
      <trkpt lat="47.23479" lon="4.96554">
        <ele>317.27688598633</ele>
        <time>2018-03-08T10:41:46+0100</time>
      </trkpt>
      <trkpt lat="47.23481" lon="4.96553">
        <ele>317.5989074707</ele>
        <time>2018-03-08T10:41:49+0100</time>
      </trkpt>
      <trkpt lat="47.23482" lon="4.96551">
        <ele>317.8388671875</ele>
        <time>2018-03-08T10:41:52+0100</time>
      </trkpt>
      <trkpt lat="47.23485" lon="4.96553">
        <ele>318.00616455078</ele>
        <time>2018-03-08T10:41:55+0100</time>
      </trkpt>
      <trkpt lat="47.23491" lon="4.96553">
        <ele>318.21200561523</ele>
        <time>2018-03-08T10:41:58+0100</time>
      </trkpt>
      <trkpt lat="47.23495" lon="4.96554">
        <ele>318.46520996094</ele>
        <time>2018-03-08T10:42:01+0100</time>
      </trkpt>
      <trkpt lat="47.23496" lon="4.96555">
        <ele>318.67581176758</ele>
        <time>2018-03-08T10:42:04+0100</time>
      </trkpt>
      <trkpt lat="47.235" lon="4.96556">
        <ele>318.85836791992</ele>
        <time>2018-03-08T10:42:07+0100</time>
      </trkpt>
      <trkpt lat="47.23502" lon="4.96556">
        <ele>319.0491027832</ele>
        <time>2018-03-08T10:42:10+0100</time>
      </trkpt>
      <trkpt lat="47.23505" lon="4.96557">
        <ele>319.19451904297</ele>
        <time>2018-03-08T10:42:13+0100</time>
      </trkpt>
      <trkpt lat="47.23508" lon="4.96558">
        <ele>319.27871704102</ele>
        <time>2018-03-08T10:42:16+0100</time>
      </trkpt>
      <trkpt lat="47.2351" lon="4.96558">
        <ele>319.345703125</ele>
        <time>2018-03-08T10:42:19+0100</time>
      </trkpt>
      <trkpt lat="47.23513" lon="4.96559">
        <ele>319.47540283203</ele>
        <time>2018-03-08T10:42:22+0100</time>
      </trkpt>
      <trkpt lat="47.23516" lon="4.9656">
        <ele>319.66680908203</ele>
        <time>2018-03-08T10:42:25+0100</time>
      </trkpt>
      <trkpt lat="47.23519" lon="4.96559">
        <ele>319.91107177734</ele>
        <time>2018-03-08T10:42:28+0100</time>
      </trkpt>
      <trkpt lat="47.23521" lon="4.96559">
        <ele>320.06762695312</ele>
        <time>2018-03-08T10:42:31+0100</time>
      </trkpt>
      <trkpt lat="47.23524" lon="4.96559">
        <ele>320.09008789062</ele>
        <time>2018-03-08T10:42:34+0100</time>
      </trkpt>
      <trkpt lat="47.23527" lon="4.9656">
        <ele>319.98736572266</ele>
        <time>2018-03-08T10:42:37+0100</time>
      </trkpt>
      <trkpt lat="47.23528" lon="4.96561">
        <ele>319.85766601562</ele>
        <time>2018-03-08T10:42:40+0100</time>
      </trkpt>
      <trkpt lat="47.23531" lon="4.96563">
        <ele>319.79483032227</ele>
        <time>2018-03-08T10:42:43+0100</time>
      </trkpt>
      <trkpt lat="47.23531" lon="4.96565">
        <ele>319.80484008789</ele>
        <time>2018-03-08T10:42:46+0100</time>
      </trkpt>
      <trkpt lat="47.23533" lon="4.96566">
        <ele>319.849609375</ele>
        <time>2018-03-08T10:42:49+0100</time>
      </trkpt>
      <trkpt lat="47.23535" lon="4.96566">
        <ele>319.85528564453</ele>
        <time>2018-03-08T10:42:52+0100</time>
      </trkpt>
      <trkpt lat="47.23535" lon="4.96564">
        <ele>319.78698730469</ele>
        <time>2018-03-08T10:42:55+0100</time>
      </trkpt>
      <trkpt lat="47.23536" lon="4.96563">
        <ele>319.66363525391</ele>
        <time>2018-03-08T10:42:58+0100</time>
      </trkpt>
      <trkpt lat="47.23541" lon="4.96567">
        <ele>319.5690612793</ele>
        <time>2018-03-08T10:43:01+0100</time>
      </trkpt>
      <trkpt lat="47.23539" lon="4.96564">
        <ele>319.49118041992</ele>
        <time>2018-03-08T10:43:04+0100</time>
      </trkpt>
      <trkpt lat="47.23541" lon="4.96564">
        <ele>319.52905273438</ele>
        <time>2018-03-08T10:43:07+0100</time>
      </trkpt>
      <trkpt lat="47.23546" lon="4.96565">
        <ele>319.82025146484</ele>
        <time>2018-03-08T10:43:10+0100</time>
      </trkpt>
      <trkpt lat="47.2355" lon="4.96566">
        <ele>320.20458984375</ele>
        <time>2018-03-08T10:43:13+0100</time>
      </trkpt>
      <trkpt lat="47.23554" lon="4.96567">
        <ele>320.57543945312</ele>
        <time>2018-03-08T10:43:16+0100</time>
      </trkpt>
      <trkpt lat="47.23556" lon="4.9657">
        <ele>320.9326171875</ele>
        <time>2018-03-08T10:43:19+0100</time>
      </trkpt>
      <trkpt lat="47.23559" lon="4.96573">
        <ele>321.22555541992</ele>
        <time>2018-03-08T10:43:22+0100</time>
      </trkpt>
      <trkpt lat="47.23561" lon="4.96574">
        <ele>321.47427368164</ele>
        <time>2018-03-08T10:43:25+0100</time>
      </trkpt>
      <trkpt lat="47.23564" lon="4.96577">
        <ele>321.58444213867</ele>
        <time>2018-03-08T10:43:28+0100</time>
      </trkpt>
      <trkpt lat="47.23564" lon="4.96577">
        <ele>321.68768310547</ele>
        <time>2018-03-08T10:43:31+0100</time>
      </trkpt>
      <trkpt lat="47.23566" lon="4.96578">
        <ele>321.68936157227</ele>
        <time>2018-03-08T10:43:34+0100</time>
      </trkpt>
      <trkpt lat="47.23567" lon="4.96578">
        <ele>321.66333007812</ele>
        <time>2018-03-08T10:43:37+0100</time>
      </trkpt>
      <trkpt lat="47.23568" lon="4.96578">
        <ele>321.6259765625</ele>
        <time>2018-03-08T10:43:40+0100</time>
      </trkpt>
      <trkpt lat="47.23569" lon="4.96579">
        <ele>321.56845092773</ele>
        <time>2018-03-08T10:43:43+0100</time>
      </trkpt>
      <trkpt lat="47.23574" lon="4.96582">
        <ele>321.47692871094</ele>
        <time>2018-03-08T10:43:46+0100</time>
      </trkpt>
      <trkpt lat="47.23574" lon="4.96581">
        <ele>321.3469543457</ele>
        <time>2018-03-08T10:43:49+0100</time>
      </trkpt>
      <trkpt lat="47.23574" lon="4.96581">
        <ele>321.16815185547</ele>
        <time>2018-03-08T10:43:52+0100</time>
      </trkpt>
      <trkpt lat="47.23582" lon="4.96586">
        <ele>321.07177734375</ele>
        <time>2018-03-08T10:43:55+0100</time>
      </trkpt>
      <trkpt lat="47.23587" lon="4.9659">
        <ele>321.11990356445</ele>
        <time>2018-03-08T10:43:58+0100</time>
      </trkpt>
      <trkpt lat="47.23588" lon="4.96591">
        <ele>321.11968994141</ele>
        <time>2018-03-08T10:44:01+0100</time>
      </trkpt>
      <trkpt lat="47.23587" lon="4.96588">
        <ele>321.1120300293</ele>
        <time>2018-03-08T10:44:04+0100</time>
      </trkpt>
      <trkpt lat="47.23586" lon="4.96587">
        <ele>321.00930786133</ele>
        <time>2018-03-08T10:44:07+0100</time>
      </trkpt>
      <trkpt lat="47.23591" lon="4.9659">
        <ele>320.87515258789</ele>
        <time>2018-03-08T10:44:10+0100</time>
      </trkpt>
      <trkpt lat="47.23596" lon="4.96595">
        <ele>320.80618286133</ele>
        <time>2018-03-08T10:44:13+0100</time>
      </trkpt>
      <trkpt lat="47.23601" lon="4.966">
        <ele>320.80169677734</ele>
        <time>2018-03-08T10:44:16+0100</time>
      </trkpt>
      <trkpt lat="47.23603" lon="4.96601">
        <ele>320.75714111328</ele>
        <time>2018-03-08T10:44:19+0100</time>
      </trkpt>
      <trkpt lat="47.23608" lon="4.96604">
        <ele>320.77703857422</ele>
        <time>2018-03-08T10:44:22+0100</time>
      </trkpt>
      <trkpt lat="47.2361" lon="4.96604">
        <ele>320.837890625</ele>
        <time>2018-03-08T10:44:25+0100</time>
      </trkpt>
      <trkpt lat="47.2361" lon="4.96604">
        <ele>320.87924194336</ele>
        <time>2018-03-08T10:44:28+0100</time>
      </trkpt>
      <trkpt lat="47.23614" lon="4.96606">
        <ele>320.80474853516</ele>
        <time>2018-03-08T10:44:31+0100</time>
      </trkpt>
      <trkpt lat="47.23616" lon="4.96608">
        <ele>320.77368164062</ele>
        <time>2018-03-08T10:44:34+0100</time>
      </trkpt>
      <trkpt lat="47.23618" lon="4.96609">
        <ele>320.76742553711</ele>
        <time>2018-03-08T10:44:37+0100</time>
      </trkpt>
      <trkpt lat="47.23619" lon="4.96609">
        <ele>320.75033569336</ele>
        <time>2018-03-08T10:44:40+0100</time>
      </trkpt>
      <trkpt lat="47.23623" lon="4.96611">
        <ele>320.60211181641</ele>
        <time>2018-03-08T10:44:43+0100</time>
      </trkpt>
      <trkpt lat="47.23624" lon="4.96611">
        <ele>320.40197753906</ele>
        <time>2018-03-08T10:44:46+0100</time>
      </trkpt>
      <trkpt lat="47.23626" lon="4.96612">
        <ele>320.34976196289</ele>
        <time>2018-03-08T10:44:49+0100</time>
      </trkpt>
      <trkpt lat="47.23628" lon="4.96612">
        <ele>320.39202880859</ele>
        <time>2018-03-08T10:44:52+0100</time>
      </trkpt>
      <trkpt lat="47.23631" lon="4.96613">
        <ele>320.32232666016</ele>
        <time>2018-03-08T10:44:55+0100</time>
      </trkpt>
      <trkpt lat="47.23635" lon="4.96614">
        <ele>320.20986938477</ele>
        <time>2018-03-08T10:44:58+0100</time>
      </trkpt>
      <trkpt lat="47.23639" lon="4.96616">
        <ele>320.01000976562</ele>
        <time>2018-03-08T10:45:01+0100</time>
      </trkpt>
      <trkpt lat="47.23642" lon="4.96617">
        <ele>319.76306152344</ele>
        <time>2018-03-08T10:45:04+0100</time>
      </trkpt>
      <trkpt lat="47.23645" lon="4.96618">
        <ele>319.43756103516</ele>
        <time>2018-03-08T10:45:07+0100</time>
      </trkpt>
      <trkpt lat="47.23649" lon="4.96619">
        <ele>319.16979980469</ele>
        <time>2018-03-08T10:45:10+0100</time>
      </trkpt>
      <trkpt lat="47.23651" lon="4.96618">
        <ele>318.8830871582</ele>
        <time>2018-03-08T10:45:13+0100</time>
      </trkpt>
      <trkpt lat="47.23654" lon="4.9662">
        <ele>318.54580688477</ele>
        <time>2018-03-08T10:45:16+0100</time>
      </trkpt>
      <trkpt lat="47.23659" lon="4.96622">
        <ele>318.2014465332</ele>
        <time>2018-03-08T10:45:19+0100</time>
      </trkpt>
      <trkpt lat="47.2366" lon="4.96622">
        <ele>317.86303710938</ele>
        <time>2018-03-08T10:45:22+0100</time>
      </trkpt>
      <trkpt lat="47.23661" lon="4.96622">
        <ele>317.54452514648</ele>
        <time>2018-03-08T10:45:25+0100</time>
      </trkpt>
      <trkpt lat="47.23663" lon="4.96622">
        <ele>317.24655151367</ele>
        <time>2018-03-08T10:45:28+0100</time>
      </trkpt>
      <trkpt lat="47.23667" lon="4.96624">
        <ele>317.06002807617</ele>
        <time>2018-03-08T10:45:31+0100</time>
      </trkpt>
      <trkpt lat="47.23667" lon="4.96624">
        <ele>316.90844726562</ele>
        <time>2018-03-08T10:45:34+0100</time>
      </trkpt>
      <trkpt lat="47.23669" lon="4.96625">
        <ele>316.79000854492</ele>
        <time>2018-03-08T10:45:37+0100</time>
      </trkpt>
      <trkpt lat="47.23671" lon="4.96626">
        <ele>316.70864868164</ele>
        <time>2018-03-08T10:45:40+0100</time>
      </trkpt>
      <trkpt lat="47.23674" lon="4.96628">
        <ele>316.65145874023</ele>
        <time>2018-03-08T10:45:43+0100</time>
      </trkpt>
      <trkpt lat="47.23679" lon="4.96631">
        <ele>316.60562133789</ele>
        <time>2018-03-08T10:45:46+0100</time>
      </trkpt>
      <trkpt lat="47.23684" lon="4.96635">
        <ele>316.61236572266</ele>
        <time>2018-03-08T10:45:49+0100</time>
      </trkpt>
      <trkpt lat="47.23687" lon="4.96636">
        <ele>316.63552856445</ele>
        <time>2018-03-08T10:45:52+0100</time>
      </trkpt>
      <trkpt lat="47.23688" lon="4.96635">
        <ele>316.69424438477</ele>
        <time>2018-03-08T10:45:55+0100</time>
      </trkpt>
      <trkpt lat="47.23689" lon="4.96635">
        <ele>316.74841308594</ele>
        <time>2018-03-08T10:45:58+0100</time>
      </trkpt>
      <trkpt lat="47.23691" lon="4.96635">
        <ele>316.7795715332</ele>
        <time>2018-03-08T10:46:01+0100</time>
      </trkpt>
      <trkpt lat="47.23693" lon="4.96635">
        <ele>316.76196289062</ele>
        <time>2018-03-08T10:46:04+0100</time>
      </trkpt>
      <trkpt lat="47.23697" lon="4.96636">
        <ele>316.70471191406</ele>
        <time>2018-03-08T10:46:07+0100</time>
      </trkpt>
      <trkpt lat="47.23699" lon="4.96637">
        <ele>316.62075805664</ele>
        <time>2018-03-08T10:46:10+0100</time>
      </trkpt>
      <trkpt lat="47.23702" lon="4.96638">
        <ele>316.55020141602</ele>
        <time>2018-03-08T10:46:13+0100</time>
      </trkpt>
      <trkpt lat="47.23706" lon="4.96639">
        <ele>316.5373840332</ele>
        <time>2018-03-08T10:46:16+0100</time>
      </trkpt>
      <trkpt lat="47.23708" lon="4.9664">
        <ele>316.52062988281</ele>
        <time>2018-03-08T10:46:19+0100</time>
      </trkpt>
      <trkpt lat="47.23711" lon="4.96642">
        <ele>316.55505371094</ele>
        <time>2018-03-08T10:46:22+0100</time>
      </trkpt>
      <trkpt lat="47.23714" lon="4.96643">
        <ele>316.63619995117</ele>
        <time>2018-03-08T10:46:25+0100</time>
      </trkpt>
      <trkpt lat="47.23716" lon="4.96644">
        <ele>316.70220947266</ele>
        <time>2018-03-08T10:46:28+0100</time>
      </trkpt>
      <trkpt lat="47.23719" lon="4.96643">
        <ele>316.74801635742</ele>
        <time>2018-03-08T10:46:31+0100</time>
      </trkpt>
      <trkpt lat="47.23721" lon="4.96645">
        <ele>316.71356201172</ele>
        <time>2018-03-08T10:46:34+0100</time>
      </trkpt>
      <trkpt lat="47.23725" lon="4.96648">
        <ele>316.63000488281</ele>
        <time>2018-03-08T10:46:37+0100</time>
      </trkpt>
      <trkpt lat="47.23728" lon="4.96651">
        <ele>316.43713378906</ele>
        <time>2018-03-08T10:46:40+0100</time>
      </trkpt>
      <trkpt lat="47.23731" lon="4.96653">
        <ele>316.1708984375</ele>
        <time>2018-03-08T10:46:43+0100</time>
      </trkpt>
      <trkpt lat="47.23734" lon="4.96654">
        <ele>315.90646362305</ele>
        <time>2018-03-08T10:46:46+0100</time>
      </trkpt>
      <trkpt lat="47.23736" lon="4.96655">
        <ele>315.69485473633</ele>
        <time>2018-03-08T10:46:49+0100</time>
      </trkpt>
      <trkpt lat="47.23739" lon="4.96657">
        <ele>315.55374145508</ele>
        <time>2018-03-08T10:46:52+0100</time>
      </trkpt>
      <trkpt lat="47.23744" lon="4.96662">
        <ele>315.48309326172</ele>
        <time>2018-03-08T10:46:55+0100</time>
      </trkpt>
      <trkpt lat="47.23744" lon="4.96661">
        <ele>315.41409301758</ele>
        <time>2018-03-08T10:46:58+0100</time>
      </trkpt>
      <trkpt lat="47.23746" lon="4.96662">
        <ele>315.30029296875</ele>
        <time>2018-03-08T10:47:01+0100</time>
      </trkpt>
      <trkpt lat="47.23748" lon="4.96663">
        <ele>315.19784545898</ele>
        <time>2018-03-08T10:47:04+0100</time>
      </trkpt>
      <trkpt lat="47.23751" lon="4.96664">
        <ele>315.10296630859</ele>
        <time>2018-03-08T10:47:07+0100</time>
      </trkpt>
      <trkpt lat="47.23755" lon="4.96665">
        <ele>315.01278686523</ele>
        <time>2018-03-08T10:47:10+0100</time>
      </trkpt>
      <trkpt lat="47.23758" lon="4.96667">
        <ele>314.94808959961</ele>
        <time>2018-03-08T10:47:13+0100</time>
      </trkpt>
      <trkpt lat="47.23761" lon="4.96669">
        <ele>314.89471435547</ele>
        <time>2018-03-08T10:47:16+0100</time>
      </trkpt>
      <trkpt lat="47.23766" lon="4.9667">
        <ele>314.71347045898</ele>
        <time>2018-03-08T10:47:20+0100</time>
      </trkpt>
      <trkpt lat="47.2377" lon="4.96671">
        <ele>314.52618408203</ele>
        <time>2018-03-08T10:47:23+0100</time>
      </trkpt>
      <trkpt lat="47.23773" lon="4.96673">
        <ele>314.32012939453</ele>
        <time>2018-03-08T10:47:26+0100</time>
      </trkpt>
      <trkpt lat="47.23776" lon="4.96674">
        <ele>314.1203918457</ele>
        <time>2018-03-08T10:47:29+0100</time>
      </trkpt>
      <trkpt lat="47.23779" lon="4.96674">
        <ele>313.93951416016</ele>
        <time>2018-03-08T10:47:32+0100</time>
      </trkpt>
      <trkpt lat="47.23782" lon="4.96674">
        <ele>313.80764770508</ele>
        <time>2018-03-08T10:47:35+0100</time>
      </trkpt>
      <trkpt lat="47.23785" lon="4.96675">
        <ele>313.65090942383</ele>
        <time>2018-03-08T10:47:38+0100</time>
      </trkpt>
      <trkpt lat="47.23788" lon="4.96676">
        <ele>313.41738891602</ele>
        <time>2018-03-08T10:47:41+0100</time>
      </trkpt>
      <trkpt lat="47.23791" lon="4.96677">
        <ele>313.24005126953</ele>
        <time>2018-03-08T10:47:44+0100</time>
      </trkpt>
      <trkpt lat="47.23795" lon="4.96678">
        <ele>313.06127929688</ele>
        <time>2018-03-08T10:47:47+0100</time>
      </trkpt>
      <trkpt lat="47.23798" lon="4.96676">
        <ele>312.85696411133</ele>
        <time>2018-03-08T10:47:50+0100</time>
      </trkpt>
      <trkpt lat="47.23799" lon="4.96673">
        <ele>312.73114013672</ele>
        <time>2018-03-08T10:47:53+0100</time>
      </trkpt>
      <trkpt lat="47.238" lon="4.9667">
        <ele>312.58749389648</ele>
        <time>2018-03-08T10:47:56+0100</time>
      </trkpt>
      <trkpt lat="47.23802" lon="4.96667">
        <ele>312.49942016602</ele>
        <time>2018-03-08T10:47:59+0100</time>
      </trkpt>
      <trkpt lat="47.23802" lon="4.96666">
        <ele>312.40762329102</ele>
        <time>2018-03-08T10:48:02+0100</time>
      </trkpt>
      <trkpt lat="47.23803" lon="4.96664">
        <ele>312.35684204102</ele>
        <time>2018-03-08T10:48:05+0100</time>
      </trkpt>
      <trkpt lat="47.23804" lon="4.96662">
        <ele>312.31900024414</ele>
        <time>2018-03-08T10:48:08+0100</time>
      </trkpt>
      <trkpt lat="47.23804" lon="4.96661">
        <ele>312.31451416016</ele>
        <time>2018-03-08T10:48:11+0100</time>
      </trkpt>
      <trkpt lat="47.23804" lon="4.96661">
        <ele>312.28344726562</ele>
        <time>2018-03-08T10:48:14+0100</time>
      </trkpt>
      <trkpt lat="47.23805" lon="4.96661">
        <ele>312.22598266602</ele>
        <time>2018-03-08T10:48:17+0100</time>
      </trkpt>
      <trkpt lat="47.23805" lon="4.9666">
        <ele>312.15335083008</ele>
        <time>2018-03-08T10:48:20+0100</time>
      </trkpt>
      <trkpt lat="47.23805" lon="4.9666">
        <ele>312.07940673828</ele>
        <time>2018-03-08T10:48:23+0100</time>
      </trkpt>
      <trkpt lat="47.23805" lon="4.96659">
        <ele>312.01251220703</ele>
        <time>2018-03-08T10:48:26+0100</time>
      </trkpt>
      <trkpt lat="47.23805" lon="4.96659">
        <ele>311.94317626953</ele>
        <time>2018-03-08T10:48:29+0100</time>
      </trkpt>
      <trkpt lat="47.23805" lon="4.9666">
        <ele>311.8932800293</ele>
        <time>2018-03-08T10:48:32+0100</time>
      </trkpt>
      <trkpt lat="47.23805" lon="4.9666">
        <ele>311.84487915039</ele>
        <time>2018-03-08T10:48:35+0100</time>
      </trkpt>
      <trkpt lat="47.23804" lon="4.9666">
        <ele>311.80758666992</ele>
        <time>2018-03-08T10:48:38+0100</time>
      </trkpt>
      <trkpt lat="47.23804" lon="4.9666">
        <ele>311.78659057617</ele>
        <time>2018-03-08T10:48:41+0100</time>
      </trkpt>
      <trkpt lat="47.23805" lon="4.96657">
        <ele>311.85717773438</ele>
        <time>2018-03-08T10:48:44+0100</time>
      </trkpt>
      <trkpt lat="47.23805" lon="4.96656">
        <ele>311.88171386719</ele>
        <time>2018-03-08T10:48:47+0100</time>
      </trkpt>
      <trkpt lat="47.23805" lon="4.96656">
        <ele>311.96011352539</ele>
        <time>2018-03-08T10:48:50+0100</time>
      </trkpt>
      <trkpt lat="47.23805" lon="4.96655">
        <ele>311.98062133789</ele>
        <time>2018-03-08T10:48:53+0100</time>
      </trkpt>
      <trkpt lat="47.23805" lon="4.96655">
        <ele>311.99877929688</ele>
        <time>2018-03-08T10:48:56+0100</time>
      </trkpt>
      <trkpt lat="47.23805" lon="4.96654">
        <ele>312.05767822266</ele>
        <time>2018-03-08T10:48:59+0100</time>
      </trkpt>
      <trkpt lat="47.23806" lon="4.96654">
        <ele>312.07733154297</ele>
        <time>2018-03-08T10:49:02+0100</time>
      </trkpt>
      <trkpt lat="47.23807" lon="4.96653">
        <ele>312.10650634766</ele>
        <time>2018-03-08T10:49:05+0100</time>
      </trkpt>
      <trkpt lat="47.23807" lon="4.96652">
        <ele>312.13305664062</ele>
        <time>2018-03-08T10:49:08+0100</time>
      </trkpt>
      <trkpt lat="47.23807" lon="4.96652">
        <ele>312.1579284668</ele>
        <time>2018-03-08T10:49:11+0100</time>
      </trkpt>
      <trkpt lat="47.23806" lon="4.96652">
        <ele>312.17559814453</ele>
        <time>2018-03-08T10:49:14+0100</time>
      </trkpt>
      <trkpt lat="47.23806" lon="4.96652">
        <ele>312.18865966797</ele>
        <time>2018-03-08T10:49:17+0100</time>
      </trkpt>
      <trkpt lat="47.23805" lon="4.96651">
        <ele>312.24771118164</ele>
        <time>2018-03-08T10:49:20+0100</time>
      </trkpt>
      <trkpt lat="47.23805" lon="4.96651">
        <ele>312.28540039062</ele>
        <time>2018-03-08T10:49:23+0100</time>
      </trkpt>
      <trkpt lat="47.23805" lon="4.9665">
        <ele>312.33154296875</ele>
        <time>2018-03-08T10:49:26+0100</time>
      </trkpt>
      <trkpt lat="47.23805" lon="4.96649">
        <ele>312.37075805664</ele>
        <time>2018-03-08T10:49:29+0100</time>
      </trkpt>
      <trkpt lat="47.23805" lon="4.9665">
        <ele>312.41165161133</ele>
        <time>2018-03-08T10:49:32+0100</time>
      </trkpt>
      <trkpt lat="47.23805" lon="4.9665">
        <ele>312.45065307617</ele>
        <time>2018-03-08T10:49:35+0100</time>
      </trkpt>
      <trkpt lat="47.23804" lon="4.96654">
        <ele>312.53805541992</ele>
        <time>2018-03-08T10:49:38+0100</time>
      </trkpt>
      <trkpt lat="47.23805" lon="4.96655">
        <ele>312.56497192383</ele>
        <time>2018-03-08T10:49:41+0100</time>
      </trkpt>
      <trkpt lat="47.23805" lon="4.96654">
        <ele>312.55670166016</ele>
        <time>2018-03-08T10:49:44+0100</time>
      </trkpt>
      <trkpt lat="47.23805" lon="4.96657">
        <ele>312.52954101562</ele>
        <time>2018-03-08T10:49:47+0100</time>
      </trkpt>
      <trkpt lat="47.23805" lon="4.96658">
        <ele>312.48071289062</ele>
        <time>2018-03-08T10:49:50+0100</time>
      </trkpt>
      <trkpt lat="47.23805" lon="4.96658">
        <ele>312.42483520508</ele>
        <time>2018-03-08T10:49:53+0100</time>
      </trkpt>
      <trkpt lat="47.23806" lon="4.96659">
        <ele>312.1608581543</ele>
        <time>2018-03-08T10:49:56+0100</time>
      </trkpt>
      <trkpt lat="47.23807" lon="4.9666">
        <ele>312.09228515625</ele>
        <time>2018-03-08T10:49:59+0100</time>
      </trkpt>
      <trkpt lat="47.23807" lon="4.9666">
        <ele>312.03659057617</ele>
        <time>2018-03-08T10:50:02+0100</time>
      </trkpt>
      <trkpt lat="47.23807" lon="4.96659">
        <ele>311.97863769531</ele>
        <time>2018-03-08T10:50:05+0100</time>
      </trkpt>
      <trkpt lat="47.23806" lon="4.96659">
        <ele>311.90335083008</ele>
        <time>2018-03-08T10:50:08+0100</time>
      </trkpt>
      <trkpt lat="47.23806" lon="4.96659">
        <ele>311.81661987305</ele>
        <time>2018-03-08T10:50:11+0100</time>
      </trkpt>
      <trkpt lat="47.23806" lon="4.96659">
        <ele>311.73587036133</ele>
        <time>2018-03-08T10:50:14+0100</time>
      </trkpt>
      <trkpt lat="47.23806" lon="4.96659">
        <ele>311.66598510742</ele>
        <time>2018-03-08T10:50:17+0100</time>
      </trkpt>
      <trkpt lat="47.23806" lon="4.96659">
        <ele>311.59481811523</ele>
        <time>2018-03-08T10:50:20+0100</time>
      </trkpt>
      <trkpt lat="47.23806" lon="4.96658">
        <ele>311.51995849609</ele>
        <time>2018-03-08T10:50:23+0100</time>
      </trkpt>
      <trkpt lat="47.23806" lon="4.96658">
        <ele>311.4485168457</ele>
        <time>2018-03-08T10:50:26+0100</time>
      </trkpt>
      <trkpt lat="47.23807" lon="4.96658">
        <ele>311.39096069336</ele>
        <time>2018-03-08T10:50:29+0100</time>
      </trkpt>
      <trkpt lat="47.23807" lon="4.96657">
        <ele>311.33822631836</ele>
        <time>2018-03-08T10:50:32+0100</time>
      </trkpt>
      <trkpt lat="47.23807" lon="4.96657">
        <ele>311.28851318359</ele>
        <time>2018-03-08T10:50:35+0100</time>
      </trkpt>
      <trkpt lat="47.23807" lon="4.96657">
        <ele>311.24392700195</ele>
        <time>2018-03-08T10:50:38+0100</time>
      </trkpt>
      <trkpt lat="47.23807" lon="4.96656">
        <ele>311.17776489258</ele>
        <time>2018-03-08T10:50:41+0100</time>
      </trkpt>
      <trkpt lat="47.23807" lon="4.96655">
        <ele>311.09085083008</ele>
        <time>2018-03-08T10:50:44+0100</time>
      </trkpt>
      <trkpt lat="47.23808" lon="4.96655">
        <ele>311.02484130859</ele>
        <time>2018-03-08T10:50:47+0100</time>
      </trkpt>
      <trkpt lat="47.23808" lon="4.96655">
        <ele>310.98522949219</ele>
        <time>2018-03-08T10:50:51+0100</time>
      </trkpt>
      <trkpt lat="47.23808" lon="4.96655">
        <ele>310.96249389648</ele>
        <time>2018-03-08T10:50:54+0100</time>
      </trkpt>
      <trkpt lat="47.23808" lon="4.96656">
        <ele>310.94140625</ele>
        <time>2018-03-08T10:50:57+0100</time>
      </trkpt>
      <trkpt lat="47.23808" lon="4.96656">
        <ele>310.92184448242</ele>
        <time>2018-03-08T10:51:00+0100</time>
      </trkpt>
      <trkpt lat="47.23808" lon="4.96656">
        <ele>310.89880371094</ele>
        <time>2018-03-08T10:51:03+0100</time>
      </trkpt>
      <trkpt lat="47.23808" lon="4.96656">
        <ele>310.88131713867</ele>
        <time>2018-03-08T10:51:06+0100</time>
      </trkpt>
      <trkpt lat="47.23808" lon="4.96656">
        <ele>310.87176513672</ele>
        <time>2018-03-08T10:51:09+0100</time>
      </trkpt>
      <trkpt lat="47.23808" lon="4.96656">
        <ele>310.85720825195</ele>
        <time>2018-03-08T10:51:12+0100</time>
      </trkpt>
      <trkpt lat="47.23808" lon="4.96656">
        <ele>310.87899780273</ele>
        <time>2018-03-08T10:51:15+0100</time>
      </trkpt>
      <trkpt lat="47.23808" lon="4.96656">
        <ele>310.94366455078</ele>
        <time>2018-03-08T10:51:18+0100</time>
      </trkpt>
      <trkpt lat="47.23808" lon="4.96656">
        <ele>311.03167724609</ele>
        <time>2018-03-08T10:51:21+0100</time>
      </trkpt>
      <trkpt lat="47.23808" lon="4.96656">
        <ele>311.12835693359</ele>
        <time>2018-03-08T10:51:24+0100</time>
      </trkpt>
      <trkpt lat="47.23808" lon="4.96656">
        <ele>311.22384643555</ele>
        <time>2018-03-08T10:51:27+0100</time>
      </trkpt>
      <trkpt lat="47.23807" lon="4.96656">
        <ele>311.31484985352</ele>
        <time>2018-03-08T10:51:30+0100</time>
      </trkpt>
      <trkpt lat="47.23807" lon="4.96656">
        <ele>311.41305541992</ele>
        <time>2018-03-08T10:51:33+0100</time>
      </trkpt>
      <trkpt lat="47.23808" lon="4.96656">
        <ele>311.50930786133</ele>
        <time>2018-03-08T10:51:36+0100</time>
      </trkpt>
      <trkpt lat="47.23808" lon="4.96656">
        <ele>311.60720825195</ele>
        <time>2018-03-08T10:51:39+0100</time>
      </trkpt>
      <trkpt lat="47.23808" lon="4.96656">
        <ele>311.70489501953</ele>
        <time>2018-03-08T10:51:42+0100</time>
      </trkpt>
      <trkpt lat="47.23808" lon="4.96656">
        <ele>311.79568481445</ele>
        <time>2018-03-08T10:51:45+0100</time>
      </trkpt>
      <trkpt lat="47.23808" lon="4.96656">
        <ele>311.88122558594</ele>
        <time>2018-03-08T10:51:48+0100</time>
      </trkpt>
      <trkpt lat="47.23808" lon="4.96655">
        <ele>311.96075439453</ele>
        <time>2018-03-08T10:51:51+0100</time>
      </trkpt>
      <trkpt lat="47.23808" lon="4.96655">
        <ele>312.01797485352</ele>
        <time>2018-03-08T10:51:54+0100</time>
      </trkpt>
      <trkpt lat="47.23808" lon="4.96655">
        <ele>312.07672119141</ele>
        <time>2018-03-08T10:51:57+0100</time>
      </trkpt>
      <trkpt lat="47.23808" lon="4.96656">
        <ele>312.15524291992</ele>
        <time>2018-03-08T10:52:00+0100</time>
      </trkpt>
      <trkpt lat="47.23808" lon="4.96656">
        <ele>312.21166992188</ele>
        <time>2018-03-08T10:52:03+0100</time>
      </trkpt>
      <trkpt lat="47.23808" lon="4.96656">
        <ele>312.19161987305</ele>
        <time>2018-03-08T10:52:06+0100</time>
      </trkpt>
      <trkpt lat="47.23808" lon="4.96658">
        <ele>312.13900756836</ele>
        <time>2018-03-08T10:52:09+0100</time>
      </trkpt>
      <trkpt lat="47.23809" lon="4.96659">
        <ele>312.07803344727</ele>
        <time>2018-03-08T10:52:12+0100</time>
      </trkpt>
      <trkpt lat="47.23808" lon="4.96659">
        <ele>312.00555419922</ele>
        <time>2018-03-08T10:52:15+0100</time>
      </trkpt>
      <trkpt lat="47.23808" lon="4.9666">
        <ele>311.93780517578</ele>
        <time>2018-03-08T10:52:18+0100</time>
      </trkpt>
      <trkpt lat="47.23808" lon="4.9666">
        <ele>311.88806152344</ele>
        <time>2018-03-08T10:52:21+0100</time>
      </trkpt>
      <trkpt lat="47.23808" lon="4.9666">
        <ele>311.84048461914</ele>
        <time>2018-03-08T10:52:24+0100</time>
      </trkpt>
      <trkpt lat="47.23807" lon="4.9666">
        <ele>311.81033325195</ele>
        <time>2018-03-08T10:52:27+0100</time>
      </trkpt>
      <trkpt lat="47.23807" lon="4.9666">
        <ele>311.80990600586</ele>
        <time>2018-03-08T10:52:30+0100</time>
      </trkpt>
      <trkpt lat="47.23807" lon="4.9666">
        <ele>311.79895019531</ele>
        <time>2018-03-08T10:52:33+0100</time>
      </trkpt>
      <trkpt lat="47.23807" lon="4.9666">
        <ele>311.7822265625</ele>
        <time>2018-03-08T10:52:36+0100</time>
      </trkpt>
      <trkpt lat="47.23807" lon="4.96661">
        <ele>311.7619934082</ele>
        <time>2018-03-08T10:52:39+0100</time>
      </trkpt>
      <trkpt lat="47.23807" lon="4.96661">
        <ele>311.69033813477</ele>
        <time>2018-03-08T10:52:42+0100</time>
      </trkpt>
      <trkpt lat="47.23806" lon="4.96661">
        <ele>311.6787109375</ele>
        <time>2018-03-08T10:52:45+0100</time>
      </trkpt>
      <trkpt lat="47.23806" lon="4.96661">
        <ele>311.66995239258</ele>
        <time>2018-03-08T10:52:48+0100</time>
      </trkpt>
      <trkpt lat="47.23806" lon="4.96661">
        <ele>311.64971923828</ele>
        <time>2018-03-08T10:52:51+0100</time>
      </trkpt>
      <trkpt lat="47.23806" lon="4.96661">
        <ele>311.61434936523</ele>
        <time>2018-03-08T10:52:54+0100</time>
      </trkpt>
      <trkpt lat="47.23806" lon="4.96661">
        <ele>311.5700378418</ele>
        <time>2018-03-08T10:52:57+0100</time>
      </trkpt>
      <trkpt lat="47.23806" lon="4.96661">
        <ele>311.53598022461</ele>
        <time>2018-03-08T10:53:00+0100</time>
      </trkpt>
      <trkpt lat="47.23806" lon="4.9666">
        <ele>311.51507568359</ele>
        <time>2018-03-08T10:53:03+0100</time>
      </trkpt>
      <trkpt lat="47.23806" lon="4.9666">
        <ele>311.49273681641</ele>
        <time>2018-03-08T10:53:06+0100</time>
      </trkpt>
      <trkpt lat="47.23806" lon="4.9666">
        <ele>311.48284912109</ele>
        <time>2018-03-08T10:53:09+0100</time>
      </trkpt>
      <trkpt lat="47.23806" lon="4.9666">
        <ele>311.48208618164</ele>
        <time>2018-03-08T10:53:12+0100</time>
      </trkpt>
      <trkpt lat="47.23806" lon="4.9666">
        <ele>311.47631835938</ele>
        <time>2018-03-08T10:53:15+0100</time>
      </trkpt>
      <trkpt lat="47.23806" lon="4.9666">
        <ele>311.47348022461</ele>
        <time>2018-03-08T10:53:18+0100</time>
      </trkpt>
      <trkpt lat="47.23806" lon="4.96661">
        <ele>311.48672485352</ele>
        <time>2018-03-08T10:53:21+0100</time>
      </trkpt>
      <trkpt lat="47.23806" lon="4.96661">
        <ele>311.50283813477</ele>
        <time>2018-03-08T10:53:24+0100</time>
      </trkpt>
      <trkpt lat="47.23806" lon="4.96661">
        <ele>311.52450561523</ele>
        <time>2018-03-08T10:53:27+0100</time>
      </trkpt>
      <trkpt lat="47.23806" lon="4.96661">
        <ele>311.52575683594</ele>
        <time>2018-03-08T10:53:30+0100</time>
      </trkpt>
      <trkpt lat="47.23806" lon="4.96661">
        <ele>311.50039672852</ele>
        <time>2018-03-08T10:53:33+0100</time>
      </trkpt>
      <trkpt lat="47.23806" lon="4.96661">
        <ele>311.45590209961</ele>
        <time>2018-03-08T10:53:36+0100</time>
      </trkpt>
      <trkpt lat="47.23806" lon="4.96661">
        <ele>311.41296386719</ele>
        <time>2018-03-08T10:53:39+0100</time>
      </trkpt>
      <trkpt lat="47.23806" lon="4.96661">
        <ele>311.41006469727</ele>
        <time>2018-03-08T10:53:42+0100</time>
      </trkpt>
      <trkpt lat="47.23806" lon="4.96661">
        <ele>311.42636108398</ele>
        <time>2018-03-08T10:53:45+0100</time>
      </trkpt>
      <trkpt lat="47.23807" lon="4.96661">
        <ele>311.44067382812</ele>
        <time>2018-03-08T10:53:48+0100</time>
      </trkpt>
      <trkpt lat="47.23807" lon="4.96662">
        <ele>311.45388793945</ele>
        <time>2018-03-08T10:53:51+0100</time>
      </trkpt>
      <trkpt lat="47.23807" lon="4.96662">
        <ele>311.44879150391</ele>
        <time>2018-03-08T10:53:54+0100</time>
      </trkpt>
      <trkpt lat="47.23807" lon="4.96662">
        <ele>311.41900634766</ele>
        <time>2018-03-08T10:53:57+0100</time>
      </trkpt>
      <trkpt lat="47.23807" lon="4.96662">
        <ele>311.37832641602</ele>
        <time>2018-03-08T10:54:00+0100</time>
      </trkpt>
      <trkpt lat="47.23807" lon="4.96662">
        <ele>311.32934570312</ele>
        <time>2018-03-08T10:54:03+0100</time>
      </trkpt>
      <trkpt lat="47.23807" lon="4.96662">
        <ele>311.29067993164</ele>
        <time>2018-03-08T10:54:06+0100</time>
      </trkpt>
      <trkpt lat="47.23807" lon="4.96662">
        <ele>311.27645874023</ele>
        <time>2018-03-08T10:54:09+0100</time>
      </trkpt>
      <trkpt lat="47.23807" lon="4.96661">
        <ele>311.28964233398</ele>
        <time>2018-03-08T10:54:12+0100</time>
      </trkpt>
      <trkpt lat="47.23807" lon="4.96661">
        <ele>311.31033325195</ele>
        <time>2018-03-08T10:54:15+0100</time>
      </trkpt>
      <trkpt lat="47.23807" lon="4.9666">
        <ele>311.31921386719</ele>
        <time>2018-03-08T10:54:18+0100</time>
      </trkpt>
      <trkpt lat="47.23807" lon="4.9666">
        <ele>311.32012939453</ele>
        <time>2018-03-08T10:54:21+0100</time>
      </trkpt>
      <trkpt lat="47.23807" lon="4.9666">
        <ele>311.32952880859</ele>
        <time>2018-03-08T10:54:24+0100</time>
      </trkpt>
      <trkpt lat="47.23807" lon="4.96659">
        <ele>311.35559082031</ele>
        <time>2018-03-08T10:54:27+0100</time>
      </trkpt>
      <trkpt lat="47.23807" lon="4.96659">
        <ele>311.40377807617</ele>
        <time>2018-03-08T10:54:30+0100</time>
      </trkpt>
      <trkpt lat="47.23806" lon="4.9666">
        <ele>311.47387695312</ele>
        <time>2018-03-08T10:54:33+0100</time>
      </trkpt>
      <trkpt lat="47.23806" lon="4.9666">
        <ele>311.56036376953</ele>
        <time>2018-03-08T10:54:36+0100</time>
      </trkpt>
      <trkpt lat="47.23806" lon="4.96661">
        <ele>311.66360473633</ele>
        <time>2018-03-08T10:54:39+0100</time>
      </trkpt>
      <trkpt lat="47.23806" lon="4.96661">
        <ele>311.77560424805</ele>
        <time>2018-03-08T10:54:42+0100</time>
      </trkpt>
      <trkpt lat="47.23806" lon="4.96661">
        <ele>311.89181518555</ele>
        <time>2018-03-08T10:54:45+0100</time>
      </trkpt>
      <trkpt lat="47.23806" lon="4.96661">
        <ele>312.00814819336</ele>
        <time>2018-03-08T10:54:48+0100</time>
      </trkpt>
      <trkpt lat="47.23806" lon="4.96661">
        <ele>312.12173461914</ele>
        <time>2018-03-08T10:54:51+0100</time>
      </trkpt>
      <trkpt lat="47.23806" lon="4.96661">
        <ele>312.22668457031</ele>
        <time>2018-03-08T10:54:54+0100</time>
      </trkpt>
      <trkpt lat="47.23805" lon="4.96661">
        <ele>312.32299804688</ele>
        <time>2018-03-08T10:54:57+0100</time>
      </trkpt>
      <trkpt lat="47.23805" lon="4.9666">
        <ele>312.41357421875</ele>
        <time>2018-03-08T10:55:00+0100</time>
      </trkpt>
      <trkpt lat="47.23805" lon="4.9666">
        <ele>312.50164794922</ele>
        <time>2018-03-08T10:55:03+0100</time>
      </trkpt>
      <trkpt lat="47.23805" lon="4.9666">
        <ele>312.59344482422</ele>
        <time>2018-03-08T10:55:06+0100</time>
      </trkpt>
      <trkpt lat="47.23804" lon="4.9666">
        <ele>312.69049072266</ele>
        <time>2018-03-08T10:55:09+0100</time>
      </trkpt>
      <trkpt lat="47.23804" lon="4.9666">
        <ele>312.79272460938</ele>
        <time>2018-03-08T10:55:12+0100</time>
      </trkpt>
      <trkpt lat="47.23804" lon="4.96659">
        <ele>312.89651489258</ele>
        <time>2018-03-08T10:55:15+0100</time>
      </trkpt>
      <trkpt lat="47.23804" lon="4.9666">
        <ele>313.01095581055</ele>
        <time>2018-03-08T10:55:18+0100</time>
      </trkpt>
      <trkpt lat="47.23803" lon="4.9666">
        <ele>313.13668823242</ele>
        <time>2018-03-08T10:55:21+0100</time>
      </trkpt>
      <trkpt lat="47.23802" lon="4.9666">
        <ele>313.92077636719</ele>
        <time>2018-03-08T10:55:24+0100</time>
      </trkpt>
      <trkpt lat="47.23804" lon="4.96652">
        <ele>314.58581542969</ele>
        <time>2018-03-08T10:55:27+0100</time>
      </trkpt>
      <trkpt lat="47.23805" lon="4.96649">
        <ele>314.75387573242</ele>
        <time>2018-03-08T10:55:30+0100</time>
      </trkpt>
      <trkpt lat="47.23806" lon="4.96648">
        <ele>314.81274414062</ele>
        <time>2018-03-08T10:55:33+0100</time>
      </trkpt>
      <trkpt lat="47.23808" lon="4.96647">
        <ele>314.70703125</ele>
        <time>2018-03-08T10:55:36+0100</time>
      </trkpt>
      <trkpt lat="47.2381" lon="4.96646">
        <ele>314.53271484375</ele>
        <time>2018-03-08T10:55:39+0100</time>
      </trkpt>
      <trkpt lat="47.23813" lon="4.96645">
        <ele>314.34411621094</ele>
        <time>2018-03-08T10:55:42+0100</time>
      </trkpt>
      <trkpt lat="47.23814" lon="4.96645">
        <ele>314.22378540039</ele>
        <time>2018-03-08T10:55:45+0100</time>
      </trkpt>
      <trkpt lat="47.23816" lon="4.96644">
        <ele>314.20483398438</ele>
        <time>2018-03-08T10:55:48+0100</time>
      </trkpt>
      <trkpt lat="47.23821" lon="4.96642">
        <ele>314.22204589844</ele>
        <time>2018-03-08T10:55:51+0100</time>
      </trkpt>
      <trkpt lat="47.23822" lon="4.96642">
        <ele>314.25396728516</ele>
        <time>2018-03-08T10:55:54+0100</time>
      </trkpt>
      <trkpt lat="47.23822" lon="4.96643">
        <ele>314.21212768555</ele>
        <time>2018-03-08T10:55:57+0100</time>
      </trkpt>
      <trkpt lat="47.23825" lon="4.96644">
        <ele>314.15347290039</ele>
        <time>2018-03-08T10:56:00+0100</time>
      </trkpt>
      <trkpt lat="47.23827" lon="4.96645">
        <ele>314.16912841797</ele>
        <time>2018-03-08T10:56:03+0100</time>
      </trkpt>
      <trkpt lat="47.23829" lon="4.96645">
        <ele>314.23330688477</ele>
        <time>2018-03-08T10:56:06+0100</time>
      </trkpt>
      <trkpt lat="47.23831" lon="4.96646">
        <ele>314.29412841797</ele>
        <time>2018-03-08T10:56:09+0100</time>
      </trkpt>
      <trkpt lat="47.23834" lon="4.96645">
        <ele>314.33630371094</ele>
        <time>2018-03-08T10:56:12+0100</time>
      </trkpt>
      <trkpt lat="47.23837" lon="4.96644">
        <ele>314.39163208008</ele>
        <time>2018-03-08T10:56:15+0100</time>
      </trkpt>
      <trkpt lat="47.23838" lon="4.96644">
        <ele>314.4235534668</ele>
        <time>2018-03-08T10:56:18+0100</time>
      </trkpt>
      <trkpt lat="47.2384" lon="4.96645">
        <ele>314.43756103516</ele>
        <time>2018-03-08T10:56:21+0100</time>
      </trkpt>
      <trkpt lat="47.23842" lon="4.96645">
        <ele>314.34298706055</ele>
        <time>2018-03-08T10:56:24+0100</time>
      </trkpt>
      <trkpt lat="47.23843" lon="4.96645">
        <ele>314.05572509766</ele>
        <time>2018-03-08T10:56:27+0100</time>
      </trkpt>
      <trkpt lat="47.23844" lon="4.9665">
        <ele>313.63619995117</ele>
        <time>2018-03-08T10:56:30+0100</time>
      </trkpt>
      <trkpt lat="47.23845" lon="4.96652">
        <ele>313.10321044922</ele>
        <time>2018-03-08T10:56:33+0100</time>
      </trkpt>
      <trkpt lat="47.23846" lon="4.96653">
        <ele>312.55560302734</ele>
        <time>2018-03-08T10:56:36+0100</time>
      </trkpt>
      <trkpt lat="47.23847" lon="4.96657">
        <ele>312.08734130859</ele>
        <time>2018-03-08T10:56:39+0100</time>
      </trkpt>
      <trkpt lat="47.23848" lon="4.9666">
        <ele>311.69250488281</ele>
        <time>2018-03-08T10:56:42+0100</time>
      </trkpt>
      <trkpt lat="47.23848" lon="4.96662">
        <ele>311.35293579102</ele>
        <time>2018-03-08T10:56:45+0100</time>
      </trkpt>
      <trkpt lat="47.23849" lon="4.96665">
        <ele>310.98822021484</ele>
        <time>2018-03-08T10:56:48+0100</time>
      </trkpt>
      <trkpt lat="47.23848" lon="4.96667">
        <ele>310.62084960938</ele>
        <time>2018-03-08T10:56:51+0100</time>
      </trkpt>
      <trkpt lat="47.23848" lon="4.96669">
        <ele>310.30752563477</ele>
        <time>2018-03-08T10:56:54+0100</time>
      </trkpt>
      <trkpt lat="47.2385" lon="4.96676">
        <ele>309.97872924805</ele>
        <time>2018-03-08T10:56:57+0100</time>
      </trkpt>
      <trkpt lat="47.23852" lon="4.96678">
        <ele>309.70495605469</ele>
        <time>2018-03-08T10:57:00+0100</time>
      </trkpt>
      <trkpt lat="47.23854" lon="4.96683">
        <ele>309.35583496094</ele>
        <time>2018-03-08T10:57:03+0100</time>
      </trkpt>
      <trkpt lat="47.23855" lon="4.96684">
        <ele>309.15240478516</ele>
        <time>2018-03-08T10:57:06+0100</time>
      </trkpt>
      <trkpt lat="47.23856" lon="4.96686">
        <ele>309.01550292969</ele>
        <time>2018-03-08T10:57:09+0100</time>
      </trkpt>
      <trkpt lat="47.23858" lon="4.96699">
        <ele>308.88528442383</ele>
        <time>2018-03-08T10:57:12+0100</time>
      </trkpt>
      <trkpt lat="47.23859" lon="4.96703">
        <ele>308.68597412109</ele>
        <time>2018-03-08T10:57:15+0100</time>
      </trkpt>
      <trkpt lat="47.23858" lon="4.96703">
        <ele>308.46435546875</ele>
        <time>2018-03-08T10:57:18+0100</time>
      </trkpt>
      <trkpt lat="47.23859" lon="4.96706">
        <ele>308.41394042969</ele>
        <time>2018-03-08T10:57:21+0100</time>
      </trkpt>
      <trkpt lat="47.23859" lon="4.96711">
        <ele>308.50469970703</ele>
        <time>2018-03-08T10:57:24+0100</time>
      </trkpt>
      <trkpt lat="47.23859" lon="4.96713">
        <ele>308.66104125977</ele>
        <time>2018-03-08T10:57:27+0100</time>
      </trkpt>
      <trkpt lat="47.23857" lon="4.96715">
        <ele>308.69488525391</ele>
        <time>2018-03-08T10:57:30+0100</time>
      </trkpt>
      <trkpt lat="47.23856" lon="4.96718">
        <ele>308.55279541016</ele>
        <time>2018-03-08T10:57:33+0100</time>
      </trkpt>
      <trkpt lat="47.23856" lon="4.96723">
        <ele>308.35586547852</ele>
        <time>2018-03-08T10:57:36+0100</time>
      </trkpt>
      <trkpt lat="47.23858" lon="4.96725">
        <ele>308.24520874023</ele>
        <time>2018-03-08T10:57:39+0100</time>
      </trkpt>
      <trkpt lat="47.23858" lon="4.9673">
        <ele>308.20858764648</ele>
        <time>2018-03-08T10:57:42+0100</time>
      </trkpt>
      <trkpt lat="47.23858" lon="4.96735">
        <ele>308.25286865234</ele>
        <time>2018-03-08T10:57:45+0100</time>
      </trkpt>
      <trkpt lat="47.23859" lon="4.96743">
        <ele>308.26229858398</ele>
        <time>2018-03-08T10:57:48+0100</time>
      </trkpt>
      <trkpt lat="47.23859" lon="4.96749">
        <ele>308.23861694336</ele>
        <time>2018-03-08T10:57:51+0100</time>
      </trkpt>
      <trkpt lat="47.23859" lon="4.96756">
        <ele>308.15789794922</ele>
        <time>2018-03-08T10:57:54+0100</time>
      </trkpt>
      <trkpt lat="47.23859" lon="4.9676">
        <ele>308.03567504883</ele>
        <time>2018-03-08T10:57:57+0100</time>
      </trkpt>
      <trkpt lat="47.23859" lon="4.96767">
        <ele>307.92031860352</ele>
        <time>2018-03-08T10:58:00+0100</time>
      </trkpt>
      <trkpt lat="47.23859" lon="4.96774">
        <ele>307.79183959961</ele>
        <time>2018-03-08T10:58:03+0100</time>
      </trkpt>
      <trkpt lat="47.23858" lon="4.96778">
        <ele>307.66445922852</ele>
        <time>2018-03-08T10:58:06+0100</time>
      </trkpt>
      <trkpt lat="47.23858" lon="4.96782">
        <ele>307.55657958984</ele>
        <time>2018-03-08T10:58:09+0100</time>
      </trkpt>
      <trkpt lat="47.23859" lon="4.96783">
        <ele>307.50253295898</ele>
        <time>2018-03-08T10:58:12+0100</time>
      </trkpt>
      <trkpt lat="47.23859" lon="4.96785">
        <ele>307.45919799805</ele>
        <time>2018-03-08T10:58:15+0100</time>
      </trkpt>
      <trkpt lat="47.2386" lon="4.96785">
        <ele>307.41192626953</ele>
        <time>2018-03-08T10:58:18+0100</time>
      </trkpt>
      <trkpt lat="47.23862" lon="4.96789">
        <ele>307.36535644531</ele>
        <time>2018-03-08T10:58:21+0100</time>
      </trkpt>
      <trkpt lat="47.23863" lon="4.9679">
        <ele>307.29403686523</ele>
        <time>2018-03-08T10:58:24+0100</time>
      </trkpt>
      <trkpt lat="47.23864" lon="4.96792">
        <ele>307.15432739258</ele>
        <time>2018-03-08T10:58:27+0100</time>
      </trkpt>
      <trkpt lat="47.23866" lon="4.96791">
        <ele>307.03540039062</ele>
        <time>2018-03-08T10:58:30+0100</time>
      </trkpt>
      <trkpt lat="47.23869" lon="4.96789">
        <ele>306.97103881836</ele>
        <time>2018-03-08T10:58:33+0100</time>
      </trkpt>
      <trkpt lat="47.23875" lon="4.96785">
        <ele>306.94891357422</ele>
        <time>2018-03-08T10:58:36+0100</time>
      </trkpt>
      <trkpt lat="47.23879" lon="4.96783">
        <ele>306.95205688477</ele>
        <time>2018-03-08T10:58:39+0100</time>
      </trkpt>
      <trkpt lat="47.23881" lon="4.96781">
        <ele>306.98364257812</ele>
        <time>2018-03-08T10:58:42+0100</time>
      </trkpt>
      <trkpt lat="47.23886" lon="4.96778">
        <ele>307.07489013672</ele>
        <time>2018-03-08T10:58:45+0100</time>
      </trkpt>
      <trkpt lat="47.23891" lon="4.96775">
        <ele>307.16522216797</ele>
        <time>2018-03-08T10:58:48+0100</time>
      </trkpt>
      <trkpt lat="47.23895" lon="4.96775">
        <ele>307.1936340332</ele>
        <time>2018-03-08T10:58:51+0100</time>
      </trkpt>
      <trkpt lat="47.23898" lon="4.96774">
        <ele>307.1696472168</ele>
        <time>2018-03-08T10:58:54+0100</time>
      </trkpt>
      <trkpt lat="47.23901" lon="4.96774">
        <ele>307.10153198242</ele>
        <time>2018-03-08T10:58:57+0100</time>
      </trkpt>
      <trkpt lat="47.23903" lon="4.96774">
        <ele>307.02874755859</ele>
        <time>2018-03-08T10:59:00+0100</time>
      </trkpt>
      <trkpt lat="47.23906" lon="4.96775">
        <ele>306.97961425781</ele>
        <time>2018-03-08T10:59:03+0100</time>
      </trkpt>
      <trkpt lat="47.23909" lon="4.96776">
        <ele>306.97012329102</ele>
        <time>2018-03-08T10:59:06+0100</time>
      </trkpt>
      <trkpt lat="47.23913" lon="4.96779">
        <ele>307.01055908203</ele>
        <time>2018-03-08T10:59:09+0100</time>
      </trkpt>
      <trkpt lat="47.23918" lon="4.96781">
        <ele>307.06002807617</ele>
        <time>2018-03-08T10:59:12+0100</time>
      </trkpt>
      <trkpt lat="47.2392" lon="4.96782">
        <ele>307.10513305664</ele>
        <time>2018-03-08T10:59:15+0100</time>
      </trkpt>
      <trkpt lat="47.23922" lon="4.96784">
        <ele>307.12985229492</ele>
        <time>2018-03-08T10:59:18+0100</time>
      </trkpt>
      <trkpt lat="47.23924" lon="4.96786">
        <ele>307.19104003906</ele>
        <time>2018-03-08T10:59:21+0100</time>
      </trkpt>
      <trkpt lat="47.23925" lon="4.96792">
        <ele>307.27276611328</ele>
        <time>2018-03-08T10:59:24+0100</time>
      </trkpt>
      <trkpt lat="47.23925" lon="4.96797">
        <ele>307.38912963867</ele>
        <time>2018-03-08T10:59:27+0100</time>
      </trkpt>
      <trkpt lat="47.23925" lon="4.96801">
        <ele>307.54748535156</ele>
        <time>2018-03-08T10:59:30+0100</time>
      </trkpt>
      <trkpt lat="47.23925" lon="4.96801">
        <ele>307.61520385742</ele>
        <time>2018-03-08T10:59:33+0100</time>
      </trkpt>
      <trkpt lat="47.23925" lon="4.96807">
        <ele>307.76840209961</ele>
        <time>2018-03-08T10:59:36+0100</time>
      </trkpt>
      <trkpt lat="47.23925" lon="4.96814">
        <ele>307.88552856445</ele>
        <time>2018-03-08T10:59:39+0100</time>
      </trkpt>
      <trkpt lat="47.23924" lon="4.96819">
        <ele>307.99301147461</ele>
        <time>2018-03-08T10:59:42+0100</time>
      </trkpt>
      <trkpt lat="47.23923" lon="4.96824">
        <ele>308.10577392578</ele>
        <time>2018-03-08T10:59:45+0100</time>
      </trkpt>
      <trkpt lat="47.23923" lon="4.96827">
        <ele>308.20892333984</ele>
        <time>2018-03-08T10:59:48+0100</time>
      </trkpt>
      <trkpt lat="47.23923" lon="4.96832">
        <ele>308.29278564453</ele>
        <time>2018-03-08T10:59:51+0100</time>
      </trkpt>
      <trkpt lat="47.23922" lon="4.96836">
        <ele>308.35848999023</ele>
        <time>2018-03-08T10:59:54+0100</time>
      </trkpt>
      <trkpt lat="47.23922" lon="4.96839">
        <ele>308.41387939453</ele>
        <time>2018-03-08T10:59:57+0100</time>
      </trkpt>
      <trkpt lat="47.23921" lon="4.96843">
        <ele>308.43209838867</ele>
        <time>2018-03-08T11:00:00+0100</time>
      </trkpt>
      <trkpt lat="47.2392" lon="4.96848">
        <ele>308.41363525391</ele>
        <time>2018-03-08T11:00:03+0100</time>
      </trkpt>
      <trkpt lat="47.2392" lon="4.96855">
        <ele>308.35147094727</ele>
        <time>2018-03-08T11:00:06+0100</time>
      </trkpt>
      <trkpt lat="47.2392" lon="4.96862">
        <ele>308.21710205078</ele>
        <time>2018-03-08T11:00:09+0100</time>
      </trkpt>
      <trkpt lat="47.23919" lon="4.96867">
        <ele>308.05920410156</ele>
        <time>2018-03-08T11:00:12+0100</time>
      </trkpt>
      <trkpt lat="47.23918" lon="4.96871">
        <ele>307.87292480469</ele>
        <time>2018-03-08T11:00:15+0100</time>
      </trkpt>
      <trkpt lat="47.23917" lon="4.96873">
        <ele>307.73684692383</ele>
        <time>2018-03-08T11:00:18+0100</time>
      </trkpt>
      <trkpt lat="47.23918" lon="4.96873">
        <ele>307.64865112305</ele>
        <time>2018-03-08T11:00:21+0100</time>
      </trkpt>
      <trkpt lat="47.23918" lon="4.96873">
        <ele>307.39724731445</ele>
        <time>2018-03-08T11:00:24+0100</time>
      </trkpt>
      <trkpt lat="47.23918" lon="4.96879">
        <ele>307.12774658203</ele>
        <time>2018-03-08T11:00:27+0100</time>
      </trkpt>
      <trkpt lat="47.2392" lon="4.96885">
        <ele>306.83572387695</ele>
        <time>2018-03-08T11:00:30+0100</time>
      </trkpt>
      <trkpt lat="47.23921" lon="4.96889">
        <ele>306.54244995117</ele>
        <time>2018-03-08T11:00:33+0100</time>
      </trkpt>
      <trkpt lat="47.23923" lon="4.96892">
        <ele>306.24914550781</ele>
        <time>2018-03-08T11:00:36+0100</time>
      </trkpt>
      <trkpt lat="47.23925" lon="4.96892">
        <ele>305.97961425781</ele>
        <time>2018-03-08T11:00:39+0100</time>
      </trkpt>
      <trkpt lat="47.23927" lon="4.96887">
        <ele>305.71032714844</ele>
        <time>2018-03-08T11:00:42+0100</time>
      </trkpt>
      <trkpt lat="47.2393" lon="4.96884">
        <ele>305.5029296875</ele>
        <time>2018-03-08T11:00:45+0100</time>
      </trkpt>
      <trkpt lat="47.23933" lon="4.96884">
        <ele>305.28427124023</ele>
        <time>2018-03-08T11:00:48+0100</time>
      </trkpt>
      <trkpt lat="47.23938" lon="4.96886">
        <ele>304.95657348633</ele>
        <time>2018-03-08T11:00:51+0100</time>
      </trkpt>
      <trkpt lat="47.23943" lon="4.96889">
        <ele>304.62585449219</ele>
        <time>2018-03-08T11:00:54+0100</time>
      </trkpt>
      <trkpt lat="47.23947" lon="4.96893">
        <ele>304.36776733398</ele>
        <time>2018-03-08T11:00:57+0100</time>
      </trkpt>
      <trkpt lat="47.2395" lon="4.96894">
        <ele>304.02545166016</ele>
        <time>2018-03-08T11:01:00+0100</time>
      </trkpt>
      <trkpt lat="47.23954" lon="4.96895">
        <ele>303.76733398438</ele>
        <time>2018-03-08T11:01:03+0100</time>
      </trkpt>
      <trkpt lat="47.23959" lon="4.96895">
        <ele>303.63366699219</ele>
        <time>2018-03-08T11:01:06+0100</time>
      </trkpt>
      <trkpt lat="47.23966" lon="4.96895">
        <ele>303.53527832031</ele>
        <time>2018-03-08T11:01:09+0100</time>
      </trkpt>
      <trkpt lat="47.23971" lon="4.96897">
        <ele>303.45297241211</ele>
        <time>2018-03-08T11:01:12+0100</time>
      </trkpt>
      <trkpt lat="47.23973" lon="4.96897">
        <ele>303.36505126953</ele>
        <time>2018-03-08T11:01:15+0100</time>
      </trkpt>
      <trkpt lat="47.23977" lon="4.96898">
        <ele>303.23779296875</ele>
        <time>2018-03-08T11:01:18+0100</time>
      </trkpt>
      <trkpt lat="47.2398" lon="4.96899">
        <ele>303.07403564453</ele>
        <time>2018-03-08T11:01:21+0100</time>
      </trkpt>
      <trkpt lat="47.23984" lon="4.96901">
        <ele>302.908203125</ele>
        <time>2018-03-08T11:01:24+0100</time>
      </trkpt>
      <trkpt lat="47.23986" lon="4.96903">
        <ele>302.73486328125</ele>
        <time>2018-03-08T11:01:27+0100</time>
      </trkpt>
      <trkpt lat="47.2399" lon="4.96904">
        <ele>302.57928466797</ele>
        <time>2018-03-08T11:01:30+0100</time>
      </trkpt>
      <trkpt lat="47.23994" lon="4.96906">
        <ele>302.43365478516</ele>
        <time>2018-03-08T11:01:33+0100</time>
      </trkpt>
      <trkpt lat="47.23997" lon="4.96907">
        <ele>302.30725097656</ele>
        <time>2018-03-08T11:01:36+0100</time>
      </trkpt>
      <trkpt lat="47.23999" lon="4.96908">
        <ele>302.18576049805</ele>
        <time>2018-03-08T11:01:39+0100</time>
      </trkpt>
      <trkpt lat="47.24002" lon="4.96909">
        <ele>302.03713989258</ele>
        <time>2018-03-08T11:01:42+0100</time>
      </trkpt>
      <trkpt lat="47.24003" lon="4.9691">
        <ele>301.86364746094</ele>
        <time>2018-03-08T11:01:45+0100</time>
      </trkpt>
      <trkpt lat="47.24006" lon="4.96912">
        <ele>301.68045043945</ele>
        <time>2018-03-08T11:01:48+0100</time>
      </trkpt>
      <trkpt lat="47.24009" lon="4.96913">
        <ele>301.51559448242</ele>
        <time>2018-03-08T11:01:51+0100</time>
      </trkpt>
      <trkpt lat="47.24012" lon="4.96915">
        <ele>301.35913085938</ele>
        <time>2018-03-08T11:01:54+0100</time>
      </trkpt>
      <trkpt lat="47.24015" lon="4.96916">
        <ele>301.20303344727</ele>
        <time>2018-03-08T11:01:57+0100</time>
      </trkpt>
      <trkpt lat="47.24018" lon="4.96917">
        <ele>301.07260131836</ele>
        <time>2018-03-08T11:02:00+0100</time>
      </trkpt>
      <trkpt lat="47.2402" lon="4.96918">
        <ele>300.92587280273</ele>
        <time>2018-03-08T11:02:03+0100</time>
      </trkpt>
      <trkpt lat="47.24023" lon="4.9692">
        <ele>300.78405761719</ele>
        <time>2018-03-08T11:02:06+0100</time>
      </trkpt>
      <trkpt lat="47.24026" lon="4.96921">
        <ele>300.65423583984</ele>
        <time>2018-03-08T11:02:09+0100</time>
      </trkpt>
      <trkpt lat="47.24028" lon="4.96922">
        <ele>300.49438476562</ele>
        <time>2018-03-08T11:02:12+0100</time>
      </trkpt>
      <trkpt lat="47.24031" lon="4.96923">
        <ele>300.33276367188</ele>
        <time>2018-03-08T11:02:15+0100</time>
      </trkpt>
      <trkpt lat="47.24034" lon="4.96925">
        <ele>300.15966796875</ele>
        <time>2018-03-08T11:02:18+0100</time>
      </trkpt>
      <trkpt lat="47.24037" lon="4.96926">
        <ele>300.01184082031</ele>
        <time>2018-03-08T11:02:21+0100</time>
      </trkpt>
      <trkpt lat="47.2404" lon="4.96927">
        <ele>299.86297607422</ele>
        <time>2018-03-08T11:02:24+0100</time>
      </trkpt>
      <trkpt lat="47.24042" lon="4.96928">
        <ele>299.73153686523</ele>
        <time>2018-03-08T11:02:27+0100</time>
      </trkpt>
      <trkpt lat="47.24044" lon="4.96928">
        <ele>299.57666015625</ele>
        <time>2018-03-08T11:02:30+0100</time>
      </trkpt>
      <trkpt lat="47.24046" lon="4.96928">
        <ele>299.40075683594</ele>
        <time>2018-03-08T11:02:33+0100</time>
      </trkpt>
      <trkpt lat="47.24048" lon="4.96929">
        <ele>299.21792602539</ele>
        <time>2018-03-08T11:02:36+0100</time>
      </trkpt>
      <trkpt lat="47.24051" lon="4.96929">
        <ele>299.02978515625</ele>
        <time>2018-03-08T11:02:39+0100</time>
      </trkpt>
      <trkpt lat="47.24053" lon="4.96928">
        <ele>298.83685302734</ele>
        <time>2018-03-08T11:02:42+0100</time>
      </trkpt>
      <trkpt lat="47.24056" lon="4.96928">
        <ele>298.62829589844</ele>
        <time>2018-03-08T11:02:45+0100</time>
      </trkpt>
      <trkpt lat="47.24059" lon="4.96928">
        <ele>298.41519165039</ele>
        <time>2018-03-08T11:02:48+0100</time>
      </trkpt>
      <trkpt lat="47.24061" lon="4.96928">
        <ele>298.22970581055</ele>
        <time>2018-03-08T11:02:51+0100</time>
      </trkpt>
      <trkpt lat="47.24064" lon="4.96928">
        <ele>298.03497314453</ele>
        <time>2018-03-08T11:02:54+0100</time>
      </trkpt>
      <trkpt lat="47.24067" lon="4.96928">
        <ele>297.87811279297</ele>
        <time>2018-03-08T11:02:57+0100</time>
      </trkpt>
      <trkpt lat="47.24069" lon="4.96928">
        <ele>297.71020507812</ele>
        <time>2018-03-08T11:03:00+0100</time>
      </trkpt>
      <trkpt lat="47.24072" lon="4.96927">
        <ele>297.57208251953</ele>
        <time>2018-03-08T11:03:03+0100</time>
      </trkpt>
      <trkpt lat="47.24074" lon="4.96927">
        <ele>297.49639892578</ele>
        <time>2018-03-08T11:03:06+0100</time>
      </trkpt>
      <trkpt lat="47.24077" lon="4.96927">
        <ele>297.4270324707</ele>
        <time>2018-03-08T11:03:09+0100</time>
      </trkpt>
      <trkpt lat="47.24079" lon="4.96927">
        <ele>297.37823486328</ele>
        <time>2018-03-08T11:03:12+0100</time>
      </trkpt>
      <trkpt lat="47.24082" lon="4.96927">
        <ele>297.34634399414</ele>
        <time>2018-03-08T11:03:15+0100</time>
      </trkpt>
      <trkpt lat="47.24083" lon="4.96927">
        <ele>297.33963012695</ele>
        <time>2018-03-08T11:03:17+0100</time>
      </trkpt>
      <trkpt lat="47.24086" lon="4.96927">
        <ele>297.32080078125</ele>
        <time>2018-03-08T11:03:20+0100</time>
      </trkpt>
      <trkpt lat="47.2409" lon="4.96926">
        <ele>297.32650756836</ele>
        <time>2018-03-08T11:03:23+0100</time>
      </trkpt>
      <trkpt lat="47.24093" lon="4.96925">
        <ele>297.34069824219</ele>
        <time>2018-03-08T11:03:26+0100</time>
      </trkpt>
      <trkpt lat="47.24096" lon="4.96926">
        <ele>297.32833862305</ele>
        <time>2018-03-08T11:03:29+0100</time>
      </trkpt>
      <trkpt lat="47.24099" lon="4.96926">
        <ele>297.34335327148</ele>
        <time>2018-03-08T11:03:32+0100</time>
      </trkpt>
      <trkpt lat="47.24101" lon="4.96926">
        <ele>297.38790893555</ele>
        <time>2018-03-08T11:03:35+0100</time>
      </trkpt>
      <trkpt lat="47.24106" lon="4.96925">
        <ele>297.49658203125</ele>
        <time>2018-03-08T11:03:38+0100</time>
      </trkpt>
      <trkpt lat="47.24109" lon="4.96925">
        <ele>297.8132019043</ele>
        <time>2018-03-08T11:03:41+0100</time>
      </trkpt>
      <trkpt lat="47.24112" lon="4.96925">
        <ele>298.2551574707</ele>
        <time>2018-03-08T11:03:44+0100</time>
      </trkpt>
      <trkpt lat="47.24113" lon="4.96925">
        <ele>298.54376220703</ele>
        <time>2018-03-08T11:03:47+0100</time>
      </trkpt>
      <trkpt lat="47.24114" lon="4.96926">
        <ele>298.79653930664</ele>
        <time>2018-03-08T11:03:50+0100</time>
      </trkpt>
      <trkpt lat="47.24115" lon="4.96927">
        <ele>298.77401733398</ele>
        <time>2018-03-08T11:03:53+0100</time>
      </trkpt>
      <trkpt lat="47.24117" lon="4.96927">
        <ele>298.61953735352</ele>
        <time>2018-03-08T11:03:56+0100</time>
      </trkpt>
      <trkpt lat="47.2412" lon="4.96929">
        <ele>298.46810913086</ele>
        <time>2018-03-08T11:03:59+0100</time>
      </trkpt>
      <trkpt lat="47.24124" lon="4.96929">
        <ele>298.39526367188</ele>
        <time>2018-03-08T11:04:02+0100</time>
      </trkpt>
      <trkpt lat="47.24127" lon="4.9693">
        <ele>298.32864379883</ele>
        <time>2018-03-08T11:04:05+0100</time>
      </trkpt>
      <trkpt lat="47.24129" lon="4.96932">
        <ele>298.21954345703</ele>
        <time>2018-03-08T11:04:08+0100</time>
      </trkpt>
      <trkpt lat="47.24132" lon="4.96933">
        <ele>298.09378051758</ele>
        <time>2018-03-08T11:04:11+0100</time>
      </trkpt>
      <trkpt lat="47.24134" lon="4.96934">
        <ele>297.98699951172</ele>
        <time>2018-03-08T11:04:14+0100</time>
      </trkpt>
      <trkpt lat="47.24135" lon="4.96934">
        <ele>297.90405273438</ele>
        <time>2018-03-08T11:04:17+0100</time>
      </trkpt>
      <trkpt lat="47.24138" lon="4.96934">
        <ele>297.83520507812</ele>
        <time>2018-03-08T11:04:20+0100</time>
      </trkpt>
      <trkpt lat="47.24142" lon="4.96937">
        <ele>297.69805908203</ele>
        <time>2018-03-08T11:04:23+0100</time>
      </trkpt>
      <trkpt lat="47.24143" lon="4.96939">
        <ele>297.53839111328</ele>
        <time>2018-03-08T11:04:26+0100</time>
      </trkpt>
      <trkpt lat="47.24147" lon="4.9694">
        <ele>297.36456298828</ele>
        <time>2018-03-08T11:04:29+0100</time>
      </trkpt>
      <trkpt lat="47.24148" lon="4.96941">
        <ele>297.21353149414</ele>
        <time>2018-03-08T11:04:32+0100</time>
      </trkpt>
      <trkpt lat="47.2415" lon="4.96941">
        <ele>297.12271118164</ele>
        <time>2018-03-08T11:04:35+0100</time>
      </trkpt>
      <trkpt lat="47.24152" lon="4.96943">
        <ele>297.1008605957</ele>
        <time>2018-03-08T11:04:38+0100</time>
      </trkpt>
      <trkpt lat="47.24154" lon="4.96943">
        <ele>297.10873413086</ele>
        <time>2018-03-08T11:04:41+0100</time>
      </trkpt>
      <trkpt lat="47.24156" lon="4.96943">
        <ele>297.02655029297</ele>
        <time>2018-03-08T11:04:44+0100</time>
      </trkpt>
      <trkpt lat="47.24158" lon="4.96943">
        <ele>296.88305664062</ele>
        <time>2018-03-08T11:04:47+0100</time>
      </trkpt>
      <trkpt lat="47.2416" lon="4.96944">
        <ele>296.72796630859</ele>
        <time>2018-03-08T11:04:50+0100</time>
      </trkpt>
      <trkpt lat="47.24163" lon="4.96944">
        <ele>296.57553100586</ele>
        <time>2018-03-08T11:04:53+0100</time>
      </trkpt>
      <trkpt lat="47.24167" lon="4.96943">
        <ele>296.49975585938</ele>
        <time>2018-03-08T11:04:56+0100</time>
      </trkpt>
      <trkpt lat="47.24169" lon="4.96943">
        <ele>296.41452026367</ele>
        <time>2018-03-08T11:04:59+0100</time>
      </trkpt>
      <trkpt lat="47.2417" lon="4.96944">
        <ele>296.20349121094</ele>
        <time>2018-03-08T11:05:02+0100</time>
      </trkpt>
      <trkpt lat="47.24171" lon="4.96945">
        <ele>295.83041381836</ele>
        <time>2018-03-08T11:05:05+0100</time>
      </trkpt>
      <trkpt lat="47.24174" lon="4.96946">
        <ele>295.37661743164</ele>
        <time>2018-03-08T11:05:08+0100</time>
      </trkpt>
      <trkpt lat="47.24178" lon="4.96947">
        <ele>294.97842407227</ele>
        <time>2018-03-08T11:05:11+0100</time>
      </trkpt>
      <trkpt lat="47.2418" lon="4.96949">
        <ele>294.61245727539</ele>
        <time>2018-03-08T11:05:14+0100</time>
      </trkpt>
      <trkpt lat="47.24183" lon="4.9695">
        <ele>294.27972412109</ele>
        <time>2018-03-08T11:05:17+0100</time>
      </trkpt>
      <trkpt lat="47.24185" lon="4.9695">
        <ele>293.93237304688</ele>
        <time>2018-03-08T11:05:20+0100</time>
      </trkpt>
      <trkpt lat="47.24188" lon="4.96953">
        <ele>293.60198974609</ele>
        <time>2018-03-08T11:05:23+0100</time>
      </trkpt>
      <trkpt lat="47.24191" lon="4.96955">
        <ele>293.26034545898</ele>
        <time>2018-03-08T11:05:26+0100</time>
      </trkpt>
      <trkpt lat="47.24194" lon="4.96958">
        <ele>293.07699584961</ele>
        <time>2018-03-08T11:05:29+0100</time>
      </trkpt>
      <trkpt lat="47.24197" lon="4.96959">
        <ele>293.02499389648</ele>
        <time>2018-03-08T11:05:32+0100</time>
      </trkpt>
      <trkpt lat="47.24198" lon="4.9696">
        <ele>292.92596435547</ele>
        <time>2018-03-08T11:05:35+0100</time>
      </trkpt>
      <trkpt lat="47.242" lon="4.9696">
        <ele>292.75216674805</ele>
        <time>2018-03-08T11:05:38+0100</time>
      </trkpt>
      <trkpt lat="47.24203" lon="4.9696">
        <ele>292.55514526367</ele>
        <time>2018-03-08T11:05:41+0100</time>
      </trkpt>
      <trkpt lat="47.24205" lon="4.96961">
        <ele>292.51663208008</ele>
        <time>2018-03-08T11:05:44+0100</time>
      </trkpt>
      <trkpt lat="47.24206" lon="4.96962">
        <ele>292.44692993164</ele>
        <time>2018-03-08T11:05:47+0100</time>
      </trkpt>
      <trkpt lat="47.24209" lon="4.96962">
        <ele>292.33499145508</ele>
        <time>2018-03-08T11:05:50+0100</time>
      </trkpt>
      <trkpt lat="47.24212" lon="4.96963">
        <ele>292.29586791992</ele>
        <time>2018-03-08T11:05:53+0100</time>
      </trkpt>
      <trkpt lat="47.24214" lon="4.96965">
        <ele>292.30062866211</ele>
        <time>2018-03-08T11:05:56+0100</time>
      </trkpt>
      <trkpt lat="47.24216" lon="4.96965">
        <ele>292.33959960938</ele>
        <time>2018-03-08T11:05:59+0100</time>
      </trkpt>
      <trkpt lat="47.24218" lon="4.96966">
        <ele>292.40121459961</ele>
        <time>2018-03-08T11:06:02+0100</time>
      </trkpt>
      <trkpt lat="47.24222" lon="4.96967">
        <ele>292.52215576172</ele>
        <time>2018-03-08T11:06:05+0100</time>
      </trkpt>
      <trkpt lat="47.24226" lon="4.96967">
        <ele>292.91775512695</ele>
        <time>2018-03-08T11:06:08+0100</time>
      </trkpt>
      <trkpt lat="47.24229" lon="4.96968">
        <ele>293.47018432617</ele>
        <time>2018-03-08T11:06:11+0100</time>
      </trkpt>
      <trkpt lat="47.24231" lon="4.96969">
        <ele>293.9944152832</ele>
        <time>2018-03-08T11:06:14+0100</time>
      </trkpt>
      <trkpt lat="47.24233" lon="4.96969">
        <ele>294.27038574219</ele>
        <time>2018-03-08T11:06:17+0100</time>
      </trkpt>
      <trkpt lat="47.24236" lon="4.96971">
        <ele>294.48858642578</ele>
        <time>2018-03-08T11:06:20+0100</time>
      </trkpt>
      <trkpt lat="47.24239" lon="4.96972">
        <ele>294.72842407227</ele>
        <time>2018-03-08T11:06:23+0100</time>
      </trkpt>
      <trkpt lat="47.24242" lon="4.96973">
        <ele>294.9635925293</ele>
        <time>2018-03-08T11:06:26+0100</time>
      </trkpt>
      <trkpt lat="47.24244" lon="4.96974">
        <ele>295.19400024414</ele>
        <time>2018-03-08T11:06:29+0100</time>
      </trkpt>
      <trkpt lat="47.24247" lon="4.96975">
        <ele>295.44213867188</ele>
        <time>2018-03-08T11:06:32+0100</time>
      </trkpt>
      <trkpt lat="47.24248" lon="4.96976">
        <ele>295.67358398438</ele>
        <time>2018-03-08T11:06:35+0100</time>
      </trkpt>
      <trkpt lat="47.2425" lon="4.96976">
        <ele>295.88073730469</ele>
        <time>2018-03-08T11:06:38+0100</time>
      </trkpt>
      <trkpt lat="47.24252" lon="4.96976">
        <ele>296.06262207031</ele>
        <time>2018-03-08T11:06:41+0100</time>
      </trkpt>
      <trkpt lat="47.24254" lon="4.96977">
        <ele>296.26321411133</ele>
        <time>2018-03-08T11:06:44+0100</time>
      </trkpt>
      <trkpt lat="47.24256" lon="4.96978">
        <ele>296.49337768555</ele>
        <time>2018-03-08T11:06:47+0100</time>
      </trkpt>
      <trkpt lat="47.24259" lon="4.96979">
        <ele>296.72686767578</ele>
        <time>2018-03-08T11:06:50+0100</time>
      </trkpt>
      <trkpt lat="47.24261" lon="4.9698">
        <ele>296.9524230957</ele>
        <time>2018-03-08T11:06:53+0100</time>
      </trkpt>
      <trkpt lat="47.24263" lon="4.96981">
        <ele>297.15692138672</ele>
        <time>2018-03-08T11:06:56+0100</time>
      </trkpt>
      <trkpt lat="47.24266" lon="4.96981">
        <ele>297.38116455078</ele>
        <time>2018-03-08T11:06:59+0100</time>
      </trkpt>
      <trkpt lat="47.24268" lon="4.96982">
        <ele>297.64416503906</ele>
        <time>2018-03-08T11:07:02+0100</time>
      </trkpt>
      <trkpt lat="47.2427" lon="4.96982">
        <ele>297.93041992188</ele>
        <time>2018-03-08T11:07:05+0100</time>
      </trkpt>
      <trkpt lat="47.24272" lon="4.96982">
        <ele>298.19555664062</ele>
        <time>2018-03-08T11:07:08+0100</time>
      </trkpt>
      <trkpt lat="47.24274" lon="4.96982">
        <ele>298.43557739258</ele>
        <time>2018-03-08T11:07:11+0100</time>
      </trkpt>
      <trkpt lat="47.24277" lon="4.96982">
        <ele>298.66418457031</ele>
        <time>2018-03-08T11:07:14+0100</time>
      </trkpt>
      <trkpt lat="47.24279" lon="4.96983">
        <ele>298.87683105469</ele>
        <time>2018-03-08T11:07:17+0100</time>
      </trkpt>
      <trkpt lat="47.24281" lon="4.96982">
        <ele>299.06323242188</ele>
        <time>2018-03-08T11:07:20+0100</time>
      </trkpt>
      <trkpt lat="47.24284" lon="4.96983">
        <ele>299.24438476562</ele>
        <time>2018-03-08T11:07:23+0100</time>
      </trkpt>
      <trkpt lat="47.24285" lon="4.96983">
        <ele>299.45806884766</ele>
        <time>2018-03-08T11:07:26+0100</time>
      </trkpt>
      <trkpt lat="47.24288" lon="4.96984">
        <ele>299.63336181641</ele>
        <time>2018-03-08T11:07:29+0100</time>
      </trkpt>
      <trkpt lat="47.24291" lon="4.96985">
        <ele>299.75357055664</ele>
        <time>2018-03-08T11:07:32+0100</time>
      </trkpt>
      <trkpt lat="47.24293" lon="4.96985">
        <ele>299.86978149414</ele>
        <time>2018-03-08T11:07:35+0100</time>
      </trkpt>
      <trkpt lat="47.24296" lon="4.96986">
        <ele>300.01611328125</ele>
        <time>2018-03-08T11:07:38+0100</time>
      </trkpt>
      <trkpt lat="47.24299" lon="4.96986">
        <ele>300.19561767578</ele>
        <time>2018-03-08T11:07:41+0100</time>
      </trkpt>
      <trkpt lat="47.24302" lon="4.96989">
        <ele>300.40985107422</ele>
        <time>2018-03-08T11:07:44+0100</time>
      </trkpt>
      <trkpt lat="47.24305" lon="4.96991">
        <ele>300.61831665039</ele>
        <time>2018-03-08T11:07:47+0100</time>
      </trkpt>
      <trkpt lat="47.24308" lon="4.96991">
        <ele>300.80599975586</ele>
        <time>2018-03-08T11:07:50+0100</time>
      </trkpt>
      <trkpt lat="47.2431" lon="4.96991">
        <ele>301.00845336914</ele>
        <time>2018-03-08T11:07:53+0100</time>
      </trkpt>
      <trkpt lat="47.24313" lon="4.96992">
        <ele>301.19622802734</ele>
        <time>2018-03-08T11:07:56+0100</time>
      </trkpt>
      <trkpt lat="47.24316" lon="4.96993">
        <ele>301.52313232422</ele>
        <time>2018-03-08T11:07:59+0100</time>
      </trkpt>
      <trkpt lat="47.24318" lon="4.96992">
        <ele>301.89102172852</ele>
        <time>2018-03-08T11:08:02+0100</time>
      </trkpt>
      <trkpt lat="47.2432" lon="4.96991">
        <ele>302.23922729492</ele>
        <time>2018-03-08T11:08:05+0100</time>
      </trkpt>
      <trkpt lat="47.24324" lon="4.96993">
        <ele>302.48165893555</ele>
        <time>2018-03-08T11:08:08+0100</time>
      </trkpt>
      <trkpt lat="47.24326" lon="4.96993">
        <ele>302.60260009766</ele>
        <time>2018-03-08T11:08:11+0100</time>
      </trkpt>
      <trkpt lat="47.24328" lon="4.96994">
        <ele>302.72891235352</ele>
        <time>2018-03-08T11:08:14+0100</time>
      </trkpt>
      <trkpt lat="47.2433" lon="4.96995">
        <ele>302.83288574219</ele>
        <time>2018-03-08T11:08:17+0100</time>
      </trkpt>
      <trkpt lat="47.2433" lon="4.96995">
        <ele>302.83670043945</ele>
        <time>2018-03-08T11:08:20+0100</time>
      </trkpt>
      <trkpt lat="47.24329" lon="4.96996">
        <ele>302.72082519531</ele>
        <time>2018-03-08T11:08:23+0100</time>
      </trkpt>
      <trkpt lat="47.2433" lon="4.96996">
        <ele>302.45111083984</ele>
        <time>2018-03-08T11:08:26+0100</time>
      </trkpt>
      <trkpt lat="47.2433" lon="4.96997">
        <ele>302.06292724609</ele>
        <time>2018-03-08T11:08:29+0100</time>
      </trkpt>
      <trkpt lat="47.24331" lon="4.96997">
        <ele>301.63949584961</ele>
        <time>2018-03-08T11:08:32+0100</time>
      </trkpt>
      <trkpt lat="47.24332" lon="4.96997">
        <ele>301.26858520508</ele>
        <time>2018-03-08T11:08:35+0100</time>
      </trkpt>
      <trkpt lat="47.24334" lon="4.96995">
        <ele>301.14273071289</ele>
        <time>2018-03-08T11:08:38+0100</time>
      </trkpt>
      <trkpt lat="47.24334" lon="4.96995">
        <ele>301.11410522461</ele>
        <time>2018-03-08T11:08:41+0100</time>
      </trkpt>
      <trkpt lat="47.24335" lon="4.96994">
        <ele>301.0944519043</ele>
        <time>2018-03-08T11:08:44+0100</time>
      </trkpt>
      <trkpt lat="47.24335" lon="4.96994">
        <ele>301.01571655273</ele>
        <time>2018-03-08T11:08:47+0100</time>
      </trkpt>
      <trkpt lat="47.24335" lon="4.96994">
        <ele>300.81576538086</ele>
        <time>2018-03-08T11:08:50+0100</time>
      </trkpt>
      <trkpt lat="47.24335" lon="4.96994">
        <ele>300.77600097656</ele>
        <time>2018-03-08T11:08:53+0100</time>
      </trkpt>
      <trkpt lat="47.24335" lon="4.96995">
        <ele>300.72937011719</ele>
        <time>2018-03-08T11:08:56+0100</time>
      </trkpt>
      <trkpt lat="47.24335" lon="4.96995">
        <ele>300.68142700195</ele>
        <time>2018-03-08T11:08:59+0100</time>
      </trkpt>
      <trkpt lat="47.24335" lon="4.96995">
        <ele>300.63381958008</ele>
        <time>2018-03-08T11:09:02+0100</time>
      </trkpt>
      <trkpt lat="47.24335" lon="4.96995">
        <ele>300.59320068359</ele>
        <time>2018-03-08T11:09:05+0100</time>
      </trkpt>
      <trkpt lat="47.24335" lon="4.96995">
        <ele>300.54843139648</ele>
        <time>2018-03-08T11:09:08+0100</time>
      </trkpt>
      <trkpt lat="47.24335" lon="4.96995">
        <ele>300.49774169922</ele>
        <time>2018-03-08T11:09:11+0100</time>
      </trkpt>
      <trkpt lat="47.24335" lon="4.96995">
        <ele>300.43978881836</ele>
        <time>2018-03-08T11:09:14+0100</time>
      </trkpt>
      <trkpt lat="47.24335" lon="4.96995">
        <ele>300.37365722656</ele>
        <time>2018-03-08T11:09:17+0100</time>
      </trkpt>
      <trkpt lat="47.24335" lon="4.96995">
        <ele>300.30331420898</ele>
        <time>2018-03-08T11:09:20+0100</time>
      </trkpt>
      <trkpt lat="47.24335" lon="4.96995">
        <ele>300.23056030273</ele>
        <time>2018-03-08T11:09:23+0100</time>
      </trkpt>
      <trkpt lat="47.24335" lon="4.96995">
        <ele>299.95034790039</ele>
        <time>2018-03-08T11:09:26+0100</time>
      </trkpt>
      <trkpt lat="47.24335" lon="4.96995">
        <ele>299.88726806641</ele>
        <time>2018-03-08T11:09:29+0100</time>
      </trkpt>
      <trkpt lat="47.24335" lon="4.96995">
        <ele>299.82983398438</ele>
        <time>2018-03-08T11:09:32+0100</time>
      </trkpt>
      <trkpt lat="47.24335" lon="4.96995">
        <ele>299.41030883789</ele>
        <time>2018-03-08T11:09:35+0100</time>
      </trkpt>
      <trkpt lat="47.24335" lon="4.96996">
        <ele>298.72817993164</ele>
        <time>2018-03-08T11:09:38+0100</time>
      </trkpt>
      <trkpt lat="47.24336" lon="4.96995">
        <ele>298.07876586914</ele>
        <time>2018-03-08T11:09:41+0100</time>
      </trkpt>
      <trkpt lat="47.24337" lon="4.96997">
        <ele>297.53900146484</ele>
        <time>2018-03-08T11:09:44+0100</time>
      </trkpt>
      <trkpt lat="47.24338" lon="4.96997">
        <ele>297.07489013672</ele>
        <time>2018-03-08T11:09:47+0100</time>
      </trkpt>
      <trkpt lat="47.2434" lon="4.96995">
        <ele>296.57208251953</ele>
        <time>2018-03-08T11:09:50+0100</time>
      </trkpt>
      <trkpt lat="47.24342" lon="4.96993">
        <ele>296.13491821289</ele>
        <time>2018-03-08T11:09:53+0100</time>
      </trkpt>
      <trkpt lat="47.24343" lon="4.96993">
        <ele>295.7317199707</ele>
        <time>2018-03-08T11:09:56+0100</time>
      </trkpt>
      <trkpt lat="47.24346" lon="4.96991">
        <ele>295.38647460938</ele>
        <time>2018-03-08T11:09:59+0100</time>
      </trkpt>
      <trkpt lat="47.24347" lon="4.96991">
        <ele>295.0485534668</ele>
        <time>2018-03-08T11:10:02+0100</time>
      </trkpt>
      <trkpt lat="47.2435" lon="4.96989">
        <ele>294.78125</ele>
        <time>2018-03-08T11:10:05+0100</time>
      </trkpt>
      <trkpt lat="47.2435" lon="4.9699">
        <ele>294.56390380859</ele>
        <time>2018-03-08T11:10:08+0100</time>
      </trkpt>
      <trkpt lat="47.24352" lon="4.96989">
        <ele>294.34066772461</ele>
        <time>2018-03-08T11:10:11+0100</time>
      </trkpt>
      <trkpt lat="47.24353" lon="4.96989">
        <ele>294.12893676758</ele>
        <time>2018-03-08T11:10:14+0100</time>
      </trkpt>
      <trkpt lat="47.24355" lon="4.96989">
        <ele>293.94076538086</ele>
        <time>2018-03-08T11:10:17+0100</time>
      </trkpt>
      <trkpt lat="47.24358" lon="4.96987">
        <ele>293.74072265625</ele>
        <time>2018-03-08T11:10:20+0100</time>
      </trkpt>
      <trkpt lat="47.2436" lon="4.96985">
        <ele>293.50756835938</ele>
        <time>2018-03-08T11:10:23+0100</time>
      </trkpt>
      <trkpt lat="47.24361" lon="4.96983">
        <ele>293.18286132812</ele>
        <time>2018-03-08T11:10:26+0100</time>
      </trkpt>
      <trkpt lat="47.24363" lon="4.96981">
        <ele>292.80624389648</ele>
        <time>2018-03-08T11:10:29+0100</time>
      </trkpt>
      <trkpt lat="47.24364" lon="4.9698">
        <ele>292.45056152344</ele>
        <time>2018-03-08T11:10:32+0100</time>
      </trkpt>
      <trkpt lat="47.24366" lon="4.96977">
        <ele>292.16049194336</ele>
        <time>2018-03-08T11:10:35+0100</time>
      </trkpt>
      <trkpt lat="47.24369" lon="4.96976">
        <ele>291.94534301758</ele>
        <time>2018-03-08T11:10:38+0100</time>
      </trkpt>
      <trkpt lat="47.24371" lon="4.96975">
        <ele>291.79272460938</ele>
        <time>2018-03-08T11:10:41+0100</time>
      </trkpt>
      <trkpt lat="47.24373" lon="4.96974">
        <ele>291.66784667969</ele>
        <time>2018-03-08T11:10:44+0100</time>
      </trkpt>
      <trkpt lat="47.24375" lon="4.96971">
        <ele>291.5280456543</ele>
        <time>2018-03-08T11:10:47+0100</time>
      </trkpt>
      <trkpt lat="47.24377" lon="4.9697">
        <ele>291.46774291992</ele>
        <time>2018-03-08T11:10:50+0100</time>
      </trkpt>
      <trkpt lat="47.24379" lon="4.96968">
        <ele>291.4729309082</ele>
        <time>2018-03-08T11:10:53+0100</time>
      </trkpt>
      <trkpt lat="47.24382" lon="4.96965">
        <ele>291.44689941406</ele>
        <time>2018-03-08T11:10:56+0100</time>
      </trkpt>
      <trkpt lat="47.24384" lon="4.96961">
        <ele>291.44561767578</ele>
        <time>2018-03-08T11:10:59+0100</time>
      </trkpt>
      <trkpt lat="47.24385" lon="4.9696">
        <ele>291.45620727539</ele>
        <time>2018-03-08T11:11:02+0100</time>
      </trkpt>
      <trkpt lat="47.24388" lon="4.96957">
        <ele>291.46417236328</ele>
        <time>2018-03-08T11:11:05+0100</time>
      </trkpt>
      <trkpt lat="47.24389" lon="4.96955">
        <ele>291.47387695312</ele>
        <time>2018-03-08T11:11:08+0100</time>
      </trkpt>
      <trkpt lat="47.24393" lon="4.96952">
        <ele>291.44555664062</ele>
        <time>2018-03-08T11:11:11+0100</time>
      </trkpt>
      <trkpt lat="47.24396" lon="4.96948">
        <ele>291.36822509766</ele>
        <time>2018-03-08T11:11:14+0100</time>
      </trkpt>
      <trkpt lat="47.24398" lon="4.96947">
        <ele>291.23007202148</ele>
        <time>2018-03-08T11:11:17+0100</time>
      </trkpt>
      <trkpt lat="47.244" lon="4.96946">
        <ele>291.09494018555</ele>
        <time>2018-03-08T11:11:20+0100</time>
      </trkpt>
      <trkpt lat="47.24402" lon="4.96946">
        <ele>290.96298217773</ele>
        <time>2018-03-08T11:11:23+0100</time>
      </trkpt>
      <trkpt lat="47.24405" lon="4.96945">
        <ele>290.84118652344</ele>
        <time>2018-03-08T11:11:26+0100</time>
      </trkpt>
      <trkpt lat="47.24407" lon="4.96942">
        <ele>290.69689941406</ele>
        <time>2018-03-08T11:11:29+0100</time>
      </trkpt>
      <trkpt lat="47.24408" lon="4.96941">
        <ele>290.48654174805</ele>
        <time>2018-03-08T11:11:32+0100</time>
      </trkpt>
      <trkpt lat="47.2441" lon="4.9694">
        <ele>290.22036743164</ele>
        <time>2018-03-08T11:11:35+0100</time>
      </trkpt>
      <trkpt lat="47.24412" lon="4.96939">
        <ele>289.97985839844</ele>
        <time>2018-03-08T11:11:38+0100</time>
      </trkpt>
      <trkpt lat="47.24413" lon="4.96939">
        <ele>289.82321166992</ele>
        <time>2018-03-08T11:11:41+0100</time>
      </trkpt>
      <trkpt lat="47.24414" lon="4.96938">
        <ele>289.71997070312</ele>
        <time>2018-03-08T11:11:44+0100</time>
      </trkpt>
      <trkpt lat="47.24417" lon="4.96937">
        <ele>289.57376098633</ele>
        <time>2018-03-08T11:11:47+0100</time>
      </trkpt>
      <trkpt lat="47.24421" lon="4.96935">
        <ele>289.54788208008</ele>
        <time>2018-03-08T11:11:50+0100</time>
      </trkpt>
      <trkpt lat="47.24424" lon="4.96936">
        <ele>289.6252746582</ele>
        <time>2018-03-08T11:11:53+0100</time>
      </trkpt>
      <trkpt lat="47.24427" lon="4.96936">
        <ele>289.73275756836</ele>
        <time>2018-03-08T11:11:56+0100</time>
      </trkpt>
      <trkpt lat="47.24431" lon="4.96937">
        <ele>290.15032958984</ele>
        <time>2018-03-08T11:11:59+0100</time>
      </trkpt>
      <trkpt lat="47.24433" lon="4.96938">
        <ele>290.40548706055</ele>
        <time>2018-03-08T11:12:02+0100</time>
      </trkpt>
      <trkpt lat="47.24434" lon="4.96938">
        <ele>290.73599243164</ele>
        <time>2018-03-08T11:12:05+0100</time>
      </trkpt>
      <trkpt lat="47.24435" lon="4.96937">
        <ele>291.08865356445</ele>
        <time>2018-03-08T11:12:08+0100</time>
      </trkpt>
      <trkpt lat="47.24437" lon="4.96938">
        <ele>292.05905151367</ele>
        <time>2018-03-08T11:12:11+0100</time>
      </trkpt>
      <trkpt lat="47.24439" lon="4.96939">
        <ele>292.72381591797</ele>
        <time>2018-03-08T11:12:14+0100</time>
      </trkpt>
      <trkpt lat="47.24439" lon="4.9694">
        <ele>293.10726928711</ele>
        <time>2018-03-08T11:12:17+0100</time>
      </trkpt>
      <trkpt lat="47.24441" lon="4.96941">
        <ele>294.03692626953</ele>
        <time>2018-03-08T11:12:20+0100</time>
      </trkpt>
      <trkpt lat="47.24441" lon="4.96941">
        <ele>294.13284301758</ele>
        <time>2018-03-08T11:12:23+0100</time>
      </trkpt>
      <trkpt lat="47.24441" lon="4.96941">
        <ele>294.21362304688</ele>
        <time>2018-03-08T11:12:26+0100</time>
      </trkpt>
      <trkpt lat="47.24441" lon="4.96941">
        <ele>294.27307128906</ele>
        <time>2018-03-08T11:12:29+0100</time>
      </trkpt>
      <trkpt lat="47.24441" lon="4.96941">
        <ele>294.32064819336</ele>
        <time>2018-03-08T11:12:32+0100</time>
      </trkpt>
      <trkpt lat="47.24441" lon="4.96941">
        <ele>294.60137939453</ele>
        <time>2018-03-08T11:12:35+0100</time>
      </trkpt>
      <trkpt lat="47.24443" lon="4.96942">
        <ele>295.03323364258</ele>
        <time>2018-03-08T11:12:38+0100</time>
      </trkpt>
      <trkpt lat="47.24445" lon="4.96943">
        <ele>295.46948242188</ele>
        <time>2018-03-08T11:12:41+0100</time>
      </trkpt>
      <trkpt lat="47.24448" lon="4.96946">
        <ele>295.90786743164</ele>
        <time>2018-03-08T11:12:44+0100</time>
      </trkpt>
      <trkpt lat="47.2445" lon="4.96946">
        <ele>296.31228637695</ele>
        <time>2018-03-08T11:12:47+0100</time>
      </trkpt>
      <trkpt lat="47.24452" lon="4.96948">
        <ele>296.62902832031</ele>
        <time>2018-03-08T11:12:50+0100</time>
      </trkpt>
      <trkpt lat="47.24452" lon="4.96949">
        <ele>296.91857910156</ele>
        <time>2018-03-08T11:12:53+0100</time>
      </trkpt>
      <trkpt lat="47.24453" lon="4.9695">
        <ele>297.14218139648</ele>
        <time>2018-03-08T11:12:56+0100</time>
      </trkpt>
      <trkpt lat="47.24453" lon="4.96951">
        <ele>297.17309570312</ele>
        <time>2018-03-08T11:12:59+0100</time>
      </trkpt>
      <trkpt lat="47.24453" lon="4.96953">
        <ele>297.34274291992</ele>
        <time>2018-03-08T11:13:02+0100</time>
      </trkpt>
      <trkpt lat="47.24454" lon="4.96955">
        <ele>297.52514648438</ele>
        <time>2018-03-08T11:13:05+0100</time>
      </trkpt>
      <trkpt lat="47.24453" lon="4.96959">
        <ele>297.63208007812</ele>
        <time>2018-03-08T11:13:08+0100</time>
      </trkpt>
      <trkpt lat="47.24453" lon="4.96962">
        <ele>297.68698120117</ele>
        <time>2018-03-08T11:13:11+0100</time>
      </trkpt>
      <trkpt lat="47.24453" lon="4.96966">
        <ele>297.66302490234</ele>
        <time>2018-03-08T11:13:14+0100</time>
      </trkpt>
      <trkpt lat="47.24453" lon="4.96967">
        <ele>297.55661010742</ele>
        <time>2018-03-08T11:13:17+0100</time>
      </trkpt>
      <trkpt lat="47.24453" lon="4.96968">
        <ele>297.34722900391</ele>
        <time>2018-03-08T11:13:20+0100</time>
      </trkpt>
      <trkpt lat="47.24455" lon="4.96968">
        <ele>296.91110229492</ele>
        <time>2018-03-08T11:13:23+0100</time>
      </trkpt>
      <trkpt lat="47.24456" lon="4.96967">
        <ele>296.43368530273</ele>
        <time>2018-03-08T11:13:26+0100</time>
      </trkpt>
      <trkpt lat="47.24457" lon="4.96968">
        <ele>295.92013549805</ele>
        <time>2018-03-08T11:13:29+0100</time>
      </trkpt>
      <trkpt lat="47.24459" lon="4.96968">
        <ele>295.4162902832</ele>
        <time>2018-03-08T11:13:32+0100</time>
      </trkpt>
      <trkpt lat="47.24462" lon="4.9697">
        <ele>294.95443725586</ele>
        <time>2018-03-08T11:13:35+0100</time>
      </trkpt>
      <trkpt lat="47.24465" lon="4.96971">
        <ele>294.54846191406</ele>
        <time>2018-03-08T11:13:38+0100</time>
      </trkpt>
      <trkpt lat="47.24466" lon="4.96971">
        <ele>294.201171875</ele>
        <time>2018-03-08T11:13:41+0100</time>
      </trkpt>
      <trkpt lat="47.24467" lon="4.96971">
        <ele>294.01428222656</ele>
        <time>2018-03-08T11:13:44+0100</time>
      </trkpt>
      <trkpt lat="47.24469" lon="4.96971">
        <ele>294.03955078125</ele>
        <time>2018-03-08T11:13:47+0100</time>
      </trkpt>
      <trkpt lat="47.24471" lon="4.96971">
        <ele>294.23101806641</ele>
        <time>2018-03-08T11:13:50+0100</time>
      </trkpt>
      <trkpt lat="47.24473" lon="4.96971">
        <ele>294.587890625</ele>
        <time>2018-03-08T11:13:53+0100</time>
      </trkpt>
      <trkpt lat="47.24476" lon="4.96971">
        <ele>295.03845214844</ele>
        <time>2018-03-08T11:13:56+0100</time>
      </trkpt>
      <trkpt lat="47.2448" lon="4.96971">
        <ele>295.56774902344</ele>
        <time>2018-03-08T11:13:59+0100</time>
      </trkpt>
      <trkpt lat="47.24482" lon="4.96972">
        <ele>296.14129638672</ele>
        <time>2018-03-08T11:14:02+0100</time>
      </trkpt>
      <trkpt lat="47.24486" lon="4.96971">
        <ele>296.65478515625</ele>
        <time>2018-03-08T11:14:05+0100</time>
      </trkpt>
      <trkpt lat="47.2449" lon="4.96969">
        <ele>297.09338378906</ele>
        <time>2018-03-08T11:14:08+0100</time>
      </trkpt>
      <trkpt lat="47.24493" lon="4.96969">
        <ele>297.47775268555</ele>
        <time>2018-03-08T11:14:11+0100</time>
      </trkpt>
      <trkpt lat="47.24495" lon="4.9697">
        <ele>297.80313110352</ele>
        <time>2018-03-08T11:14:14+0100</time>
      </trkpt>
      <trkpt lat="47.24498" lon="4.9697">
        <ele>298.07046508789</ele>
        <time>2018-03-08T11:14:17+0100</time>
      </trkpt>
      <trkpt lat="47.245" lon="4.96971">
        <ele>298.2897644043</ele>
        <time>2018-03-08T11:14:20+0100</time>
      </trkpt>
      <trkpt lat="47.24502" lon="4.96973">
        <ele>298.48602294922</ele>
        <time>2018-03-08T11:14:23+0100</time>
      </trkpt>
      <trkpt lat="47.24503" lon="4.96974">
        <ele>298.65069580078</ele>
        <time>2018-03-08T11:14:26+0100</time>
      </trkpt>
      <trkpt lat="47.24505" lon="4.96975">
        <ele>298.79513549805</ele>
        <time>2018-03-08T11:14:29+0100</time>
      </trkpt>
      <trkpt lat="47.24508" lon="4.96976">
        <ele>298.90112304688</ele>
        <time>2018-03-08T11:14:32+0100</time>
      </trkpt>
      <trkpt lat="47.24511" lon="4.96977">
        <ele>299.02420043945</ele>
        <time>2018-03-08T11:14:35+0100</time>
      </trkpt>
      <trkpt lat="47.24515" lon="4.96979">
        <ele>299.16394042969</ele>
        <time>2018-03-08T11:14:38+0100</time>
      </trkpt>
      <trkpt lat="47.24517" lon="4.96981">
        <ele>299.2236328125</ele>
        <time>2018-03-08T11:14:41+0100</time>
      </trkpt>
      <trkpt lat="47.24521" lon="4.96982">
        <ele>299.29577636719</ele>
        <time>2018-03-08T11:14:44+0100</time>
      </trkpt>
      <trkpt lat="47.24523" lon="4.96982">
        <ele>299.36526489258</ele>
        <time>2018-03-08T11:14:47+0100</time>
      </trkpt>
      <trkpt lat="47.24525" lon="4.96983">
        <ele>299.42297363281</ele>
        <time>2018-03-08T11:14:50+0100</time>
      </trkpt>
      <trkpt lat="47.24527" lon="4.96985">
        <ele>299.47100830078</ele>
        <time>2018-03-08T11:14:53+0100</time>
      </trkpt>
      <trkpt lat="47.24527" lon="4.96987">
        <ele>299.51525878906</ele>
        <time>2018-03-08T11:14:56+0100</time>
      </trkpt>
      <trkpt lat="47.24528" lon="4.96988">
        <ele>299.53659057617</ele>
        <time>2018-03-08T11:14:59+0100</time>
      </trkpt>
      <trkpt lat="47.24529" lon="4.96988">
        <ele>299.6614074707</ele>
        <time>2018-03-08T11:15:02+0100</time>
      </trkpt>
      <trkpt lat="47.24532" lon="4.96989">
        <ele>299.8801574707</ele>
        <time>2018-03-08T11:15:05+0100</time>
      </trkpt>
      <trkpt lat="47.24535" lon="4.96991">
        <ele>300.14181518555</ele>
        <time>2018-03-08T11:15:08+0100</time>
      </trkpt>
      <trkpt lat="47.24537" lon="4.96993">
        <ele>300.38772583008</ele>
        <time>2018-03-08T11:15:11+0100</time>
      </trkpt>
      <trkpt lat="47.24541" lon="4.96995">
        <ele>300.63858032227</ele>
        <time>2018-03-08T11:15:14+0100</time>
      </trkpt>
      <trkpt lat="47.24543" lon="4.96996">
        <ele>300.78662109375</ele>
        <time>2018-03-08T11:15:17+0100</time>
      </trkpt>
      <trkpt lat="47.24546" lon="4.96998">
        <ele>300.99380493164</ele>
        <time>2018-03-08T11:15:20+0100</time>
      </trkpt>
      <trkpt lat="47.24552" lon="4.96997">
        <ele>301.17523193359</ele>
        <time>2018-03-08T11:15:23+0100</time>
      </trkpt>
      <trkpt lat="47.24556" lon="4.96997">
        <ele>301.36447143555</ele>
        <time>2018-03-08T11:15:26+0100</time>
      </trkpt>
      <trkpt lat="47.24558" lon="4.96998">
        <ele>301.48358154297</ele>
        <time>2018-03-08T11:15:29+0100</time>
      </trkpt>
      <trkpt lat="47.2456" lon="4.96998">
        <ele>301.46170043945</ele>
        <time>2018-03-08T11:15:32+0100</time>
      </trkpt>
      <trkpt lat="47.24561" lon="4.96999">
        <ele>301.40377807617</ele>
        <time>2018-03-08T11:15:35+0100</time>
      </trkpt>
      <trkpt lat="47.24562" lon="4.97">
        <ele>301.32281494141</ele>
        <time>2018-03-08T11:15:39+0100</time>
      </trkpt>
      <trkpt lat="47.24561" lon="4.97002">
        <ele>301.29956054688</ele>
        <time>2018-03-08T11:15:42+0100</time>
      </trkpt>
      <trkpt lat="47.24562" lon="4.97002">
        <ele>301.31094360352</ele>
        <time>2018-03-08T11:15:45+0100</time>
      </trkpt>
      <trkpt lat="47.24566" lon="4.97003">
        <ele>301.38314819336</ele>
        <time>2018-03-08T11:15:48+0100</time>
      </trkpt>
      <trkpt lat="47.24569" lon="4.97004">
        <ele>301.50299072266</ele>
        <time>2018-03-08T11:15:51+0100</time>
      </trkpt>
      <trkpt lat="47.24571" lon="4.97005">
        <ele>301.59451293945</ele>
        <time>2018-03-08T11:15:54+0100</time>
      </trkpt>
      <trkpt lat="47.24574" lon="4.97004">
        <ele>301.64682006836</ele>
        <time>2018-03-08T11:15:57+0100</time>
      </trkpt>
      <trkpt lat="47.24576" lon="4.97002">
        <ele>301.69747924805</ele>
        <time>2018-03-08T11:16:00+0100</time>
      </trkpt>
      <trkpt lat="47.24577" lon="4.97">
        <ele>301.75646972656</ele>
        <time>2018-03-08T11:16:03+0100</time>
      </trkpt>
      <trkpt lat="47.24579" lon="4.96997">
        <ele>301.83166503906</ele>
        <time>2018-03-08T11:16:06+0100</time>
      </trkpt>
      <trkpt lat="47.24581" lon="4.96993">
        <ele>301.95736694336</ele>
        <time>2018-03-08T11:16:09+0100</time>
      </trkpt>
      <trkpt lat="47.24583" lon="4.96988">
        <ele>302.12600708008</ele>
        <time>2018-03-08T11:16:12+0100</time>
      </trkpt>
      <trkpt lat="47.24585" lon="4.96983">
        <ele>302.36392211914</ele>
        <time>2018-03-08T11:16:15+0100</time>
      </trkpt>
      <trkpt lat="47.24587" lon="4.9698">
        <ele>302.59396362305</ele>
        <time>2018-03-08T11:16:18+0100</time>
      </trkpt>
      <trkpt lat="47.24587" lon="4.9698">
        <ele>302.78686523438</ele>
        <time>2018-03-08T11:16:21+0100</time>
      </trkpt>
      <trkpt lat="47.24588" lon="4.96976">
        <ele>302.98046875</ele>
        <time>2018-03-08T11:16:24+0100</time>
      </trkpt>
      <trkpt lat="47.2459" lon="4.96972">
        <ele>303.14630126953</ele>
        <time>2018-03-08T11:16:27+0100</time>
      </trkpt>
      <trkpt lat="47.24591" lon="4.9697">
        <ele>303.25329589844</ele>
        <time>2018-03-08T11:16:30+0100</time>
      </trkpt>
      <trkpt lat="47.24591" lon="4.96968">
        <ele>303.37554931641</ele>
        <time>2018-03-08T11:16:33+0100</time>
      </trkpt>
      <trkpt lat="47.24592" lon="4.96966">
        <ele>303.45211791992</ele>
        <time>2018-03-08T11:16:36+0100</time>
      </trkpt>
      <trkpt lat="47.24592" lon="4.96965">
        <ele>303.49905395508</ele>
        <time>2018-03-08T11:16:39+0100</time>
      </trkpt>
      <trkpt lat="47.24593" lon="4.96962">
        <ele>303.54965209961</ele>
        <time>2018-03-08T11:16:42+0100</time>
      </trkpt>
      <trkpt lat="47.24594" lon="4.9696">
        <ele>303.63455200195</ele>
        <time>2018-03-08T11:16:45+0100</time>
      </trkpt>
      <trkpt lat="47.24595" lon="4.96957">
        <ele>303.82235717773</ele>
        <time>2018-03-08T11:16:48+0100</time>
      </trkpt>
      <trkpt lat="47.24597" lon="4.96955">
        <ele>304.07244873047</ele>
        <time>2018-03-08T11:16:51+0100</time>
      </trkpt>
      <trkpt lat="47.24598" lon="4.96954">
        <ele>304.39517211914</ele>
        <time>2018-03-08T11:16:54+0100</time>
      </trkpt>
      <trkpt lat="47.246" lon="4.96953">
        <ele>304.72616577148</ele>
        <time>2018-03-08T11:16:57+0100</time>
      </trkpt>
      <trkpt lat="47.24601" lon="4.9695">
        <ele>305.04840087891</ele>
        <time>2018-03-08T11:17:00+0100</time>
      </trkpt>
      <trkpt lat="47.24602" lon="4.96947">
        <ele>305.40377807617</ele>
        <time>2018-03-08T11:17:03+0100</time>
      </trkpt>
      <trkpt lat="47.24604" lon="4.96943">
        <ele>305.74813842773</ele>
        <time>2018-03-08T11:17:06+0100</time>
      </trkpt>
      <trkpt lat="47.24605" lon="4.9694">
        <ele>306.12466430664</ele>
        <time>2018-03-08T11:17:09+0100</time>
      </trkpt>
      <trkpt lat="47.24609" lon="4.96931">
        <ele>306.60540771484</ele>
        <time>2018-03-08T11:17:12+0100</time>
      </trkpt>
      <trkpt lat="47.2461" lon="4.96927">
        <ele>307.07257080078</ele>
        <time>2018-03-08T11:17:15+0100</time>
      </trkpt>
      <trkpt lat="47.24611" lon="4.96924">
        <ele>307.54144287109</ele>
        <time>2018-03-08T11:17:18+0100</time>
      </trkpt>
      <trkpt lat="47.24612" lon="4.9692">
        <ele>308.02026367188</ele>
        <time>2018-03-08T11:17:21+0100</time>
      </trkpt>
      <trkpt lat="47.24614" lon="4.96914">
        <ele>308.48275756836</ele>
        <time>2018-03-08T11:17:24+0100</time>
      </trkpt>
      <trkpt lat="47.24615" lon="4.9691">
        <ele>308.8857421875</ele>
        <time>2018-03-08T11:17:27+0100</time>
      </trkpt>
      <trkpt lat="47.24614" lon="4.96908">
        <ele>309.17626953125</ele>
        <time>2018-03-08T11:17:30+0100</time>
      </trkpt>
      <trkpt lat="47.24615" lon="4.96905">
        <ele>309.40795898438</ele>
        <time>2018-03-08T11:17:33+0100</time>
      </trkpt>
      <trkpt lat="47.24616" lon="4.969">
        <ele>309.58084106445</ele>
        <time>2018-03-08T11:17:36+0100</time>
      </trkpt>
      <trkpt lat="47.24616" lon="4.96901">
        <ele>309.67547607422</ele>
        <time>2018-03-08T11:17:39+0100</time>
      </trkpt>
      <trkpt lat="47.24616" lon="4.969">
        <ele>309.81494140625</ele>
        <time>2018-03-08T11:17:42+0100</time>
      </trkpt>
      <trkpt lat="47.24617" lon="4.96899">
        <ele>309.95007324219</ele>
        <time>2018-03-08T11:17:45+0100</time>
      </trkpt>
      <trkpt lat="47.2462" lon="4.96895">
        <ele>310.07046508789</ele>
        <time>2018-03-08T11:17:48+0100</time>
      </trkpt>
      <trkpt lat="47.24626" lon="4.9689">
        <ele>310.1223449707</ele>
        <time>2018-03-08T11:17:51+0100</time>
      </trkpt>
      <trkpt lat="47.24628" lon="4.96887">
        <ele>310.10842895508</ele>
        <time>2018-03-08T11:17:54+0100</time>
      </trkpt>
      <trkpt lat="47.24632" lon="4.96884">
        <ele>310.07305908203</ele>
        <time>2018-03-08T11:17:57+0100</time>
      </trkpt>
      <trkpt lat="47.24634" lon="4.96883">
        <ele>310.00476074219</ele>
        <time>2018-03-08T11:18:00+0100</time>
      </trkpt>
      <trkpt lat="47.24638" lon="4.96882">
        <ele>309.92303466797</ele>
        <time>2018-03-08T11:18:03+0100</time>
      </trkpt>
      <trkpt lat="47.2464" lon="4.96881">
        <ele>309.81536865234</ele>
        <time>2018-03-08T11:18:06+0100</time>
      </trkpt>
      <trkpt lat="47.24644" lon="4.9688">
        <ele>309.68014526367</ele>
        <time>2018-03-08T11:18:09+0100</time>
      </trkpt>
      <trkpt lat="47.24647" lon="4.96879">
        <ele>309.54174804688</ele>
        <time>2018-03-08T11:18:12+0100</time>
      </trkpt>
      <trkpt lat="47.24649" lon="4.96878">
        <ele>309.35757446289</ele>
        <time>2018-03-08T11:18:15+0100</time>
      </trkpt>
      <trkpt lat="47.24652" lon="4.96876">
        <ele>309.12860107422</ele>
        <time>2018-03-08T11:18:18+0100</time>
      </trkpt>
      <trkpt lat="47.24654" lon="4.96874">
        <ele>308.92477416992</ele>
        <time>2018-03-08T11:18:21+0100</time>
      </trkpt>
      <trkpt lat="47.24655" lon="4.96873">
        <ele>308.72177124023</ele>
        <time>2018-03-08T11:18:24+0100</time>
      </trkpt>
      <trkpt lat="47.24656" lon="4.96872">
        <ele>308.50942993164</ele>
        <time>2018-03-08T11:18:27+0100</time>
      </trkpt>
      <trkpt lat="47.24658" lon="4.96871">
        <ele>308.27261352539</ele>
        <time>2018-03-08T11:18:30+0100</time>
      </trkpt>
      <trkpt lat="47.2466" lon="4.96869">
        <ele>308.06066894531</ele>
        <time>2018-03-08T11:18:33+0100</time>
      </trkpt>
      <trkpt lat="47.24662" lon="4.96867">
        <ele>307.89251708984</ele>
        <time>2018-03-08T11:18:36+0100</time>
      </trkpt>
      <trkpt lat="47.24664" lon="4.96865">
        <ele>307.76181030273</ele>
        <time>2018-03-08T11:18:39+0100</time>
      </trkpt>
      <trkpt lat="47.24666" lon="4.96861">
        <ele>307.67626953125</ele>
        <time>2018-03-08T11:18:42+0100</time>
      </trkpt>
      <trkpt lat="47.24669" lon="4.96857">
        <ele>307.64920043945</ele>
        <time>2018-03-08T11:18:45+0100</time>
      </trkpt>
      <trkpt lat="47.24671" lon="4.96853">
        <ele>307.62637329102</ele>
        <time>2018-03-08T11:18:48+0100</time>
      </trkpt>
      <trkpt lat="47.24674" lon="4.9685">
        <ele>307.63107299805</ele>
        <time>2018-03-08T11:18:51+0100</time>
      </trkpt>
      <trkpt lat="47.24676" lon="4.96847">
        <ele>307.60076904297</ele>
        <time>2018-03-08T11:18:54+0100</time>
      </trkpt>
      <trkpt lat="47.24678" lon="4.96845">
        <ele>307.54425048828</ele>
        <time>2018-03-08T11:18:57+0100</time>
      </trkpt>
      <trkpt lat="47.2468" lon="4.96841">
        <ele>307.50708007812</ele>
        <time>2018-03-08T11:19:00+0100</time>
      </trkpt>
      <trkpt lat="47.24682" lon="4.96837">
        <ele>307.47866821289</ele>
        <time>2018-03-08T11:19:03+0100</time>
      </trkpt>
      <trkpt lat="47.24684" lon="4.96834">
        <ele>307.44577026367</ele>
        <time>2018-03-08T11:19:06+0100</time>
      </trkpt>
      <trkpt lat="47.24686" lon="4.96833">
        <ele>307.3610534668</ele>
        <time>2018-03-08T11:19:09+0100</time>
      </trkpt>
      <trkpt lat="47.24687" lon="4.9683">
        <ele>307.27307128906</ele>
        <time>2018-03-08T11:19:12+0100</time>
      </trkpt>
      <trkpt lat="47.2469" lon="4.96827">
        <ele>307.21029663086</ele>
        <time>2018-03-08T11:19:15+0100</time>
      </trkpt>
      <trkpt lat="47.24692" lon="4.96824">
        <ele>307.18658447266</ele>
        <time>2018-03-08T11:19:18+0100</time>
      </trkpt>
      <trkpt lat="47.24695" lon="4.9682">
        <ele>307.20690917969</ele>
        <time>2018-03-08T11:19:21+0100</time>
      </trkpt>
      <trkpt lat="47.24698" lon="4.96817">
        <ele>307.24383544922</ele>
        <time>2018-03-08T11:19:24+0100</time>
      </trkpt>
      <trkpt lat="47.247" lon="4.96814">
        <ele>307.3059387207</ele>
        <time>2018-03-08T11:19:27+0100</time>
      </trkpt>
      <trkpt lat="47.24701" lon="4.96812">
        <ele>307.3825378418</ele>
        <time>2018-03-08T11:19:30+0100</time>
      </trkpt>
      <trkpt lat="47.24705" lon="4.96808">
        <ele>307.46292114258</ele>
        <time>2018-03-08T11:19:33+0100</time>
      </trkpt>
      <trkpt lat="47.24709" lon="4.96804">
        <ele>307.58004760742</ele>
        <time>2018-03-08T11:19:36+0100</time>
      </trkpt>
      <trkpt lat="47.24712" lon="4.96802">
        <ele>307.69958496094</ele>
        <time>2018-03-08T11:19:39+0100</time>
      </trkpt>
      <trkpt lat="47.24715" lon="4.968">
        <ele>307.81457519531</ele>
        <time>2018-03-08T11:19:42+0100</time>
      </trkpt>
      <trkpt lat="47.24718" lon="4.96798">
        <ele>307.90588378906</ele>
        <time>2018-03-08T11:19:45+0100</time>
      </trkpt>
      <trkpt lat="47.2472" lon="4.96797">
        <ele>307.97445678711</ele>
        <time>2018-03-08T11:19:48+0100</time>
      </trkpt>
      <trkpt lat="47.24723" lon="4.96795">
        <ele>308.03979492188</ele>
        <time>2018-03-08T11:19:51+0100</time>
      </trkpt>
      <trkpt lat="47.24725" lon="4.96794">
        <ele>308.08807373047</ele>
        <time>2018-03-08T11:19:54+0100</time>
      </trkpt>
      <trkpt lat="47.24727" lon="4.96792">
        <ele>308.12350463867</ele>
        <time>2018-03-08T11:19:57+0100</time>
      </trkpt>
      <trkpt lat="47.24729" lon="4.96791">
        <ele>308.16983032227</ele>
        <time>2018-03-08T11:20:00+0100</time>
      </trkpt>
      <trkpt lat="47.24731" lon="4.9679">
        <ele>308.21350097656</ele>
        <time>2018-03-08T11:20:03+0100</time>
      </trkpt>
      <trkpt lat="47.24733" lon="4.96788">
        <ele>308.26571655273</ele>
        <time>2018-03-08T11:20:06+0100</time>
      </trkpt>
      <trkpt lat="47.24735" lon="4.96787">
        <ele>308.31286621094</ele>
        <time>2018-03-08T11:20:09+0100</time>
      </trkpt>
      <trkpt lat="47.24738" lon="4.96785">
        <ele>308.38055419922</ele>
        <time>2018-03-08T11:20:12+0100</time>
      </trkpt>
      <trkpt lat="47.2474" lon="4.96785">
        <ele>308.47354125977</ele>
        <time>2018-03-08T11:20:15+0100</time>
      </trkpt>
      <trkpt lat="47.24741" lon="4.96785">
        <ele>308.51092529297</ele>
        <time>2018-03-08T11:20:18+0100</time>
      </trkpt>
      <trkpt lat="47.24743" lon="4.96785">
        <ele>308.43063354492</ele>
        <time>2018-03-08T11:20:21+0100</time>
      </trkpt>
      <trkpt lat="47.24746" lon="4.96785">
        <ele>308.38690185547</ele>
        <time>2018-03-08T11:20:24+0100</time>
      </trkpt>
      <trkpt lat="47.24747" lon="4.96785">
        <ele>308.29574584961</ele>
        <time>2018-03-08T11:20:27+0100</time>
      </trkpt>
      <trkpt lat="47.2475" lon="4.96786">
        <ele>308.17431640625</ele>
        <time>2018-03-08T11:20:30+0100</time>
      </trkpt>
      <trkpt lat="47.24752" lon="4.96786">
        <ele>308.02264404297</ele>
        <time>2018-03-08T11:20:33+0100</time>
      </trkpt>
      <trkpt lat="47.24754" lon="4.96787">
        <ele>307.85369873047</ele>
        <time>2018-03-08T11:20:36+0100</time>
      </trkpt>
      <trkpt lat="47.24757" lon="4.96788">
        <ele>307.7258605957</ele>
        <time>2018-03-08T11:20:39+0100</time>
      </trkpt>
      <trkpt lat="47.2476" lon="4.96789">
        <ele>307.64944458008</ele>
        <time>2018-03-08T11:20:42+0100</time>
      </trkpt>
      <trkpt lat="47.24762" lon="4.9679">
        <ele>307.62155151367</ele>
        <time>2018-03-08T11:20:45+0100</time>
      </trkpt>
      <trkpt lat="47.24765" lon="4.96792">
        <ele>307.61547851562</ele>
        <time>2018-03-08T11:20:48+0100</time>
      </trkpt>
      <trkpt lat="47.24767" lon="4.96793">
        <ele>307.60766601562</ele>
        <time>2018-03-08T11:20:51+0100</time>
      </trkpt>
      <trkpt lat="47.2477" lon="4.96795">
        <ele>307.63241577148</ele>
        <time>2018-03-08T11:20:54+0100</time>
      </trkpt>
      <trkpt lat="47.24772" lon="4.96797">
        <ele>307.67260742188</ele>
        <time>2018-03-08T11:20:57+0100</time>
      </trkpt>
      <trkpt lat="47.24774" lon="4.96798">
        <ele>307.69424438477</ele>
        <time>2018-03-08T11:21:00+0100</time>
      </trkpt>
      <trkpt lat="47.24775" lon="4.968">
        <ele>307.67965698242</ele>
        <time>2018-03-08T11:21:03+0100</time>
      </trkpt>
      <trkpt lat="47.24778" lon="4.96801">
        <ele>307.64901733398</ele>
        <time>2018-03-08T11:21:06+0100</time>
      </trkpt>
      <trkpt lat="47.2478" lon="4.96803">
        <ele>307.65026855469</ele>
        <time>2018-03-08T11:21:09+0100</time>
      </trkpt>
      <trkpt lat="47.24783" lon="4.96805">
        <ele>307.6399230957</ele>
        <time>2018-03-08T11:21:12+0100</time>
      </trkpt>
      <trkpt lat="47.24785" lon="4.96807">
        <ele>307.66119384766</ele>
        <time>2018-03-08T11:21:15+0100</time>
      </trkpt>
      <trkpt lat="47.24787" lon="4.96808">
        <ele>307.67440795898</ele>
        <time>2018-03-08T11:21:18+0100</time>
      </trkpt>
      <trkpt lat="47.24788" lon="4.96808">
        <ele>307.65322875977</ele>
        <time>2018-03-08T11:21:21+0100</time>
      </trkpt>
      <trkpt lat="47.2479" lon="4.96809">
        <ele>307.59140014648</ele>
        <time>2018-03-08T11:21:24+0100</time>
      </trkpt>
      <trkpt lat="47.24793" lon="4.96811">
        <ele>307.55947875977</ele>
        <time>2018-03-08T11:21:27+0100</time>
      </trkpt>
      <trkpt lat="47.24795" lon="4.96812">
        <ele>307.50241088867</ele>
        <time>2018-03-08T11:21:30+0100</time>
      </trkpt>
      <trkpt lat="47.24795" lon="4.96812">
        <ele>307.32186889648</ele>
        <time>2018-03-08T11:21:33+0100</time>
      </trkpt>
      <trkpt lat="47.24797" lon="4.96813">
        <ele>307.12185668945</ele>
        <time>2018-03-08T11:21:36+0100</time>
      </trkpt>
      <trkpt lat="47.248" lon="4.96814">
        <ele>307.01379394531</ele>
        <time>2018-03-08T11:21:39+0100</time>
      </trkpt>
      <trkpt lat="47.24802" lon="4.96815">
        <ele>306.88461303711</ele>
        <time>2018-03-08T11:21:42+0100</time>
      </trkpt>
      <trkpt lat="47.24805" lon="4.96816">
        <ele>306.84768676758</ele>
        <time>2018-03-08T11:21:45+0100</time>
      </trkpt>
      <trkpt lat="47.24808" lon="4.96817">
        <ele>306.89099121094</ele>
        <time>2018-03-08T11:21:48+0100</time>
      </trkpt>
      <trkpt lat="47.24811" lon="4.96819">
        <ele>307.001953125</ele>
        <time>2018-03-08T11:21:51+0100</time>
      </trkpt>
      <trkpt lat="47.24814" lon="4.96819">
        <ele>307.15225219727</ele>
        <time>2018-03-08T11:21:54+0100</time>
      </trkpt>
      <trkpt lat="47.24815" lon="4.96819">
        <ele>307.30679321289</ele>
        <time>2018-03-08T11:21:57+0100</time>
      </trkpt>
      <trkpt lat="47.24816" lon="4.96819">
        <ele>307.39105224609</ele>
        <time>2018-03-08T11:22:00+0100</time>
      </trkpt>
      <trkpt lat="47.24818" lon="4.96819">
        <ele>307.4169921875</ele>
        <time>2018-03-08T11:22:03+0100</time>
      </trkpt>
      <trkpt lat="47.2482" lon="4.96819">
        <ele>307.49508666992</ele>
        <time>2018-03-08T11:22:06+0100</time>
      </trkpt>
      <trkpt lat="47.24823" lon="4.9682">
        <ele>307.58319091797</ele>
        <time>2018-03-08T11:22:09+0100</time>
      </trkpt>
      <trkpt lat="47.24825" lon="4.96819">
        <ele>307.63778686523</ele>
        <time>2018-03-08T11:22:12+0100</time>
      </trkpt>
      <trkpt lat="47.24827" lon="4.96819">
        <ele>307.68511962891</ele>
        <time>2018-03-08T11:22:15+0100</time>
      </trkpt>
      <trkpt lat="47.24829" lon="4.96819">
        <ele>307.70877075195</ele>
        <time>2018-03-08T11:22:18+0100</time>
      </trkpt>
      <trkpt lat="47.24831" lon="4.96819">
        <ele>307.73968505859</ele>
        <time>2018-03-08T11:22:21+0100</time>
      </trkpt>
      <trkpt lat="47.24834" lon="4.96819">
        <ele>307.78332519531</ele>
        <time>2018-03-08T11:22:24+0100</time>
      </trkpt>
      <trkpt lat="47.24836" lon="4.9682">
        <ele>307.81631469727</ele>
        <time>2018-03-08T11:22:27+0100</time>
      </trkpt>
      <trkpt lat="47.24838" lon="4.96821">
        <ele>307.87326049805</ele>
        <time>2018-03-08T11:22:30+0100</time>
      </trkpt>
      <trkpt lat="47.2484" lon="4.96821">
        <ele>307.91781616211</ele>
        <time>2018-03-08T11:22:33+0100</time>
      </trkpt>
      <trkpt lat="47.24841" lon="4.96821">
        <ele>307.89889526367</ele>
        <time>2018-03-08T11:22:36+0100</time>
      </trkpt>
      <trkpt lat="47.24844" lon="4.96822">
        <ele>307.84973144531</ele>
        <time>2018-03-08T11:22:39+0100</time>
      </trkpt>
      <trkpt lat="47.24846" lon="4.96823">
        <ele>307.79705810547</ele>
        <time>2018-03-08T11:22:42+0100</time>
      </trkpt>
      <trkpt lat="47.24848" lon="4.96825">
        <ele>307.77008056641</ele>
        <time>2018-03-08T11:22:45+0100</time>
      </trkpt>
      <trkpt lat="47.24851" lon="4.96826">
        <ele>307.74975585938</ele>
        <time>2018-03-08T11:22:48+0100</time>
      </trkpt>
      <trkpt lat="47.24854" lon="4.96828">
        <ele>307.77590942383</ele>
        <time>2018-03-08T11:22:51+0100</time>
      </trkpt>
      <trkpt lat="47.24856" lon="4.96831">
        <ele>307.82476806641</ele>
        <time>2018-03-08T11:22:54+0100</time>
      </trkpt>
      <trkpt lat="47.24858" lon="4.96833">
        <ele>307.8928527832</ele>
        <time>2018-03-08T11:22:57+0100</time>
      </trkpt>
      <trkpt lat="47.24861" lon="4.96836">
        <ele>308.01336669922</ele>
        <time>2018-03-08T11:23:00+0100</time>
      </trkpt>
      <trkpt lat="47.24862" lon="4.96838">
        <ele>308.17828369141</ele>
        <time>2018-03-08T11:23:03+0100</time>
      </trkpt>
      <trkpt lat="47.24863" lon="4.96842">
        <ele>308.36505126953</ele>
        <time>2018-03-08T11:23:06+0100</time>
      </trkpt>
      <trkpt lat="47.24865" lon="4.96845">
        <ele>308.58068847656</ele>
        <time>2018-03-08T11:23:09+0100</time>
      </trkpt>
      <trkpt lat="47.24867" lon="4.96848">
        <ele>308.81167602539</ele>
        <time>2018-03-08T11:23:12+0100</time>
      </trkpt>
      <trkpt lat="47.2487" lon="4.9685">
        <ele>309.0403137207</ele>
        <time>2018-03-08T11:23:15+0100</time>
      </trkpt>
      <trkpt lat="47.24872" lon="4.96853">
        <ele>309.23364257812</ele>
        <time>2018-03-08T11:23:18+0100</time>
      </trkpt>
      <trkpt lat="47.24873" lon="4.96855">
        <ele>309.4255065918</ele>
        <time>2018-03-08T11:23:21+0100</time>
      </trkpt>
      <trkpt lat="47.24874" lon="4.96857">
        <ele>309.62164306641</ele>
        <time>2018-03-08T11:23:24+0100</time>
      </trkpt>
      <trkpt lat="47.24875" lon="4.96857">
        <ele>309.76409912109</ele>
        <time>2018-03-08T11:23:27+0100</time>
      </trkpt>
      <trkpt lat="47.24878" lon="4.96858">
        <ele>309.88040161133</ele>
        <time>2018-03-08T11:23:30+0100</time>
      </trkpt>
      <trkpt lat="47.2488" lon="4.9686">
        <ele>309.99908447266</ele>
        <time>2018-03-08T11:23:33+0100</time>
      </trkpt>
      <trkpt lat="47.24884" lon="4.96861">
        <ele>310.15048217773</ele>
        <time>2018-03-08T11:23:36+0100</time>
      </trkpt>
      <trkpt lat="47.24887" lon="4.96862">
        <ele>310.31512451172</ele>
        <time>2018-03-08T11:23:39+0100</time>
      </trkpt>
      <trkpt lat="47.24888" lon="4.96862">
        <ele>310.50177001953</ele>
        <time>2018-03-08T11:23:42+0100</time>
      </trkpt>
      <trkpt lat="47.24891" lon="4.96863">
        <ele>310.8747253418</ele>
        <time>2018-03-08T11:23:45+0100</time>
      </trkpt>
      <trkpt lat="47.24895" lon="4.96866">
        <ele>311.39984130859</ele>
        <time>2018-03-08T11:23:48+0100</time>
      </trkpt>
      <trkpt lat="47.24899" lon="4.96867">
        <ele>312.05279541016</ele>
        <time>2018-03-08T11:23:51+0100</time>
      </trkpt>
      <trkpt lat="47.24902" lon="4.96869">
        <ele>312.69744873047</ele>
        <time>2018-03-08T11:23:54+0100</time>
      </trkpt>
      <trkpt lat="47.24904" lon="4.9687">
        <ele>313.14212036133</ele>
        <time>2018-03-08T11:23:57+0100</time>
      </trkpt>
      <trkpt lat="47.24905" lon="4.9687">
        <ele>313.41229248047</ele>
        <time>2018-03-08T11:24:00+0100</time>
      </trkpt>
      <trkpt lat="47.24907" lon="4.9687">
        <ele>313.50985717773</ele>
        <time>2018-03-08T11:24:03+0100</time>
      </trkpt>
      <trkpt lat="47.24908" lon="4.9687">
        <ele>313.52688598633</ele>
        <time>2018-03-08T11:24:06+0100</time>
      </trkpt>
      <trkpt lat="47.2491" lon="4.96871">
        <ele>313.59283447266</ele>
        <time>2018-03-08T11:24:09+0100</time>
      </trkpt>
      <trkpt lat="47.24914" lon="4.96871">
        <ele>313.69674682617</ele>
        <time>2018-03-08T11:24:12+0100</time>
      </trkpt>
      <trkpt lat="47.24917" lon="4.96871">
        <ele>313.76644897461</ele>
        <time>2018-03-08T11:24:15+0100</time>
      </trkpt>
      <trkpt lat="47.24917" lon="4.96871">
        <ele>313.59832763672</ele>
        <time>2018-03-08T11:24:18+0100</time>
      </trkpt>
      <trkpt lat="47.24919" lon="4.9687">
        <ele>313.15408325195</ele>
        <time>2018-03-08T11:24:21+0100</time>
      </trkpt>
      <trkpt lat="47.24922" lon="4.96871">
        <ele>312.73559570312</ele>
        <time>2018-03-08T11:24:24+0100</time>
      </trkpt>
      <trkpt lat="47.24925" lon="4.96872">
        <ele>312.43478393555</ele>
        <time>2018-03-08T11:24:27+0100</time>
      </trkpt>
      <trkpt lat="47.24928" lon="4.96873">
        <ele>312.27346801758</ele>
        <time>2018-03-08T11:24:30+0100</time>
      </trkpt>
      <trkpt lat="47.24931" lon="4.96875">
        <ele>312.38327026367</ele>
        <time>2018-03-08T11:24:33+0100</time>
      </trkpt>
      <trkpt lat="47.24934" lon="4.96877">
        <ele>312.68215942383</ele>
        <time>2018-03-08T11:24:36+0100</time>
      </trkpt>
      <trkpt lat="47.24937" lon="4.96879">
        <ele>313.1296081543</ele>
        <time>2018-03-08T11:24:39+0100</time>
      </trkpt>
      <trkpt lat="47.2494" lon="4.96881">
        <ele>313.6955871582</ele>
        <time>2018-03-08T11:24:42+0100</time>
      </trkpt>
      <trkpt lat="47.24943" lon="4.96882">
        <ele>314.27532958984</ele>
        <time>2018-03-08T11:24:45+0100</time>
      </trkpt>
      <trkpt lat="47.24945" lon="4.96883">
        <ele>314.96444702148</ele>
        <time>2018-03-08T11:24:48+0100</time>
      </trkpt>
      <trkpt lat="47.24947" lon="4.96884">
        <ele>315.68994140625</ele>
        <time>2018-03-08T11:24:51+0100</time>
      </trkpt>
      <trkpt lat="47.24949" lon="4.96883">
        <ele>316.51303100586</ele>
        <time>2018-03-08T11:24:54+0100</time>
      </trkpt>
      <trkpt lat="47.24952" lon="4.96884">
        <ele>317.36380004883</ele>
        <time>2018-03-08T11:24:57+0100</time>
      </trkpt>
      <trkpt lat="47.24956" lon="4.96886">
        <ele>318.18667602539</ele>
        <time>2018-03-08T11:25:00+0100</time>
      </trkpt>
      <trkpt lat="47.24958" lon="4.96889">
        <ele>318.90811157227</ele>
        <time>2018-03-08T11:25:03+0100</time>
      </trkpt>
      <trkpt lat="47.2496" lon="4.96889">
        <ele>319.48364257812</ele>
        <time>2018-03-08T11:25:06+0100</time>
      </trkpt>
      <trkpt lat="47.24963" lon="4.9689">
        <ele>320.0524597168</ele>
        <time>2018-03-08T11:25:09+0100</time>
      </trkpt>
      <trkpt lat="47.24965" lon="4.96892">
        <ele>320.61117553711</ele>
        <time>2018-03-08T11:25:12+0100</time>
      </trkpt>
      <trkpt lat="47.24968" lon="4.96893">
        <ele>321.12954711914</ele>
        <time>2018-03-08T11:25:15+0100</time>
      </trkpt>
      <trkpt lat="47.24971" lon="4.96893">
        <ele>321.68487548828</ele>
        <time>2018-03-08T11:25:18+0100</time>
      </trkpt>
      <trkpt lat="47.24973" lon="4.96894">
        <ele>322.22192382812</ele>
        <time>2018-03-08T11:25:21+0100</time>
      </trkpt>
      <trkpt lat="47.24976" lon="4.96895">
        <ele>322.75289916992</ele>
        <time>2018-03-08T11:25:24+0100</time>
      </trkpt>
      <trkpt lat="47.2498" lon="4.96896">
        <ele>323.32046508789</ele>
        <time>2018-03-08T11:25:27+0100</time>
      </trkpt>
      <trkpt lat="47.24982" lon="4.96897">
        <ele>323.90621948242</ele>
        <time>2018-03-08T11:25:30+0100</time>
      </trkpt>
      <trkpt lat="47.24985" lon="4.96897">
        <ele>324.41143798828</ele>
        <time>2018-03-08T11:25:33+0100</time>
      </trkpt>
      <trkpt lat="47.24986" lon="4.96898">
        <ele>324.8083190918</ele>
        <time>2018-03-08T11:25:36+0100</time>
      </trkpt>
      <trkpt lat="47.24987" lon="4.969">
        <ele>325.15902709961</ele>
        <time>2018-03-08T11:25:39+0100</time>
      </trkpt>
      <trkpt lat="47.24989" lon="4.96901">
        <ele>325.52069091797</ele>
        <time>2018-03-08T11:25:42+0100</time>
      </trkpt>
      <trkpt lat="47.2499" lon="4.96902">
        <ele>325.87155151367</ele>
        <time>2018-03-08T11:25:45+0100</time>
      </trkpt>
      <trkpt lat="47.24992" lon="4.96903">
        <ele>326.13528442383</ele>
        <time>2018-03-08T11:25:48+0100</time>
      </trkpt>
      <trkpt lat="47.24994" lon="4.96905">
        <ele>326.40765380859</ele>
        <time>2018-03-08T11:25:51+0100</time>
      </trkpt>
      <trkpt lat="47.24993" lon="4.96907">
        <ele>326.43127441406</ele>
        <time>2018-03-08T11:25:54+0100</time>
      </trkpt>
      <trkpt lat="47.24993" lon="4.96907">
        <ele>326.4485168457</ele>
        <time>2018-03-08T11:25:57+0100</time>
      </trkpt>
      <trkpt lat="47.24993" lon="4.96908">
        <ele>326.45034790039</ele>
        <time>2018-03-08T11:26:00+0100</time>
      </trkpt>
      <trkpt lat="47.24993" lon="4.96908">
        <ele>326.43551635742</ele>
        <time>2018-03-08T11:26:03+0100</time>
      </trkpt>
      <trkpt lat="47.24993" lon="4.96908">
        <ele>326.4296875</ele>
        <time>2018-03-08T11:26:06+0100</time>
      </trkpt>
      <trkpt lat="47.24992" lon="4.96908">
        <ele>326.40747070312</ele>
        <time>2018-03-08T11:26:09+0100</time>
      </trkpt>
      <trkpt lat="47.24992" lon="4.96908">
        <ele>326.36605834961</ele>
        <time>2018-03-08T11:26:12+0100</time>
      </trkpt>
      <trkpt lat="47.24992" lon="4.96908">
        <ele>326.32080078125</ele>
        <time>2018-03-08T11:26:15+0100</time>
      </trkpt>
      <trkpt lat="47.24992" lon="4.96908">
        <ele>326.28823852539</ele>
        <time>2018-03-08T11:26:18+0100</time>
      </trkpt>
      <trkpt lat="47.24992" lon="4.96908">
        <ele>326.04489135742</ele>
        <time>2018-03-08T11:26:21+0100</time>
      </trkpt>
      <trkpt lat="47.24992" lon="4.96909">
        <ele>325.88479614258</ele>
        <time>2018-03-08T11:26:24+0100</time>
      </trkpt>
      <trkpt lat="47.24991" lon="4.9691">
        <ele>325.41094970703</ele>
        <time>2018-03-08T11:26:27+0100</time>
      </trkpt>
      <trkpt lat="47.24991" lon="4.9691">
        <ele>325.37442016602</ele>
        <time>2018-03-08T11:26:30+0100</time>
      </trkpt>
      <trkpt lat="47.24995" lon="4.96903">
        <ele>325.21463012695</ele>
        <time>2018-03-08T11:26:33+0100</time>
      </trkpt>
      <trkpt lat="47.24996" lon="4.969">
        <ele>325.13897705078</ele>
        <time>2018-03-08T11:26:36+0100</time>
      </trkpt>
      <trkpt lat="47.24996" lon="4.96899">
        <ele>325.12493896484</ele>
        <time>2018-03-08T11:26:39+0100</time>
      </trkpt>
      <trkpt lat="47.24996" lon="4.96899">
        <ele>325.10900878906</ele>
        <time>2018-03-08T11:26:42+0100</time>
      </trkpt>
      <trkpt lat="47.24997" lon="4.96898">
        <ele>325.08654785156</ele>
        <time>2018-03-08T11:26:45+0100</time>
      </trkpt>
      <trkpt lat="47.24998" lon="4.96898">
        <ele>324.99526977539</ele>
        <time>2018-03-08T11:26:48+0100</time>
      </trkpt>
      <trkpt lat="47.24997" lon="4.96896">
        <ele>324.97500610352</ele>
        <time>2018-03-08T11:26:51+0100</time>
      </trkpt>
      <trkpt lat="47.24996" lon="4.96895">
        <ele>324.96051025391</ele>
        <time>2018-03-08T11:26:54+0100</time>
      </trkpt>
      <trkpt lat="47.24996" lon="4.96895">
        <ele>324.94793701172</ele>
        <time>2018-03-08T11:26:57+0100</time>
      </trkpt>
      <trkpt lat="47.24996" lon="4.96895">
        <ele>324.93731689453</ele>
        <time>2018-03-08T11:27:00+0100</time>
      </trkpt>
      <trkpt lat="47.24996" lon="4.96896">
        <ele>324.92657470703</ele>
        <time>2018-03-08T11:27:03+0100</time>
      </trkpt>
      <trkpt lat="47.24996" lon="4.96896">
        <ele>324.91021728516</ele>
        <time>2018-03-08T11:27:06+0100</time>
      </trkpt>
      <trkpt lat="47.24996" lon="4.96896">
        <ele>324.88873291016</ele>
        <time>2018-03-08T11:27:09+0100</time>
      </trkpt>
      <trkpt lat="47.24996" lon="4.96896">
        <ele>324.86276245117</ele>
        <time>2018-03-08T11:27:12+0100</time>
      </trkpt>
      <trkpt lat="47.24996" lon="4.96896">
        <ele>324.83532714844</ele>
        <time>2018-03-08T11:27:15+0100</time>
      </trkpt>
      <trkpt lat="47.24996" lon="4.96896">
        <ele>324.80850219727</ele>
        <time>2018-03-08T11:27:18+0100</time>
      </trkpt>
      <trkpt lat="47.24996" lon="4.96896">
        <ele>324.78604125977</ele>
        <time>2018-03-08T11:27:21+0100</time>
      </trkpt>
      <trkpt lat="47.24996" lon="4.96896">
        <ele>324.76940917969</ele>
        <time>2018-03-08T11:27:24+0100</time>
      </trkpt>
      <trkpt lat="47.24996" lon="4.96896">
        <ele>324.75506591797</ele>
        <time>2018-03-08T11:27:27+0100</time>
      </trkpt>
      <trkpt lat="47.24996" lon="4.96896">
        <ele>324.73529052734</ele>
        <time>2018-03-08T11:27:30+0100</time>
      </trkpt>
      <trkpt lat="47.24996" lon="4.96897">
        <ele>324.70852661133</ele>
        <time>2018-03-08T11:27:33+0100</time>
      </trkpt>
      <trkpt lat="47.24996" lon="4.96897">
        <ele>324.677734375</ele>
        <time>2018-03-08T11:27:36+0100</time>
      </trkpt>
      <trkpt lat="47.24996" lon="4.96897">
        <ele>324.64346313477</ele>
        <time>2018-03-08T11:27:39+0100</time>
      </trkpt>
      <trkpt lat="47.24996" lon="4.96897">
        <ele>324.59329223633</ele>
        <time>2018-03-08T11:27:41+0100</time>
      </trkpt>
      <trkpt lat="47.24996" lon="4.96897">
        <ele>324.52868652344</ele>
        <time>2018-03-08T11:27:44+0100</time>
      </trkpt>
      <trkpt lat="47.24996" lon="4.96897">
        <ele>324.45831298828</ele>
        <time>2018-03-08T11:27:47+0100</time>
      </trkpt>
      <trkpt lat="47.24996" lon="4.96897">
        <ele>324.38595581055</ele>
        <time>2018-03-08T11:27:50+0100</time>
      </trkpt>
      <trkpt lat="47.24997" lon="4.96897">
        <ele>324.31292724609</ele>
        <time>2018-03-08T11:27:53+0100</time>
      </trkpt>
      <trkpt lat="47.24997" lon="4.96897">
        <ele>324.24102783203</ele>
        <time>2018-03-08T11:27:56+0100</time>
      </trkpt>
      <trkpt lat="47.24997" lon="4.96897">
        <ele>324.17050170898</ele>
        <time>2018-03-08T11:27:59+0100</time>
      </trkpt>
      <trkpt lat="47.24997" lon="4.96897">
        <ele>324.10177612305</ele>
        <time>2018-03-08T11:28:02+0100</time>
      </trkpt>
      <trkpt lat="47.24997" lon="4.96897">
        <ele>324.03408813477</ele>
        <time>2018-03-08T11:28:05+0100</time>
      </trkpt>
      <trkpt lat="47.24997" lon="4.96897">
        <ele>323.96734619141</ele>
        <time>2018-03-08T11:28:08+0100</time>
      </trkpt>
      <trkpt lat="47.24997" lon="4.96897">
        <ele>323.90020751953</ele>
        <time>2018-03-08T11:28:11+0100</time>
      </trkpt>
      <trkpt lat="47.24997" lon="4.96897">
        <ele>323.8332824707</ele>
        <time>2018-03-08T11:28:14+0100</time>
      </trkpt>
      <trkpt lat="47.24997" lon="4.96897">
        <ele>323.76837158203</ele>
        <time>2018-03-08T11:28:17+0100</time>
      </trkpt>
      <trkpt lat="47.24997" lon="4.96897">
        <ele>323.70715332031</ele>
        <time>2018-03-08T11:28:20+0100</time>
      </trkpt>
      <trkpt lat="47.24997" lon="4.96897">
        <ele>323.65551757812</ele>
        <time>2018-03-08T11:28:23+0100</time>
      </trkpt>
      <trkpt lat="47.24997" lon="4.96897">
        <ele>323.60739135742</ele>
        <time>2018-03-08T11:28:26+0100</time>
      </trkpt>
      <trkpt lat="47.24997" lon="4.96897">
        <ele>323.5578918457</ele>
        <time>2018-03-08T11:28:29+0100</time>
      </trkpt>
      <trkpt lat="47.24997" lon="4.96897">
        <ele>323.50726318359</ele>
        <time>2018-03-08T11:28:32+0100</time>
      </trkpt>
      <trkpt lat="47.24997" lon="4.96897">
        <ele>323.455078125</ele>
        <time>2018-03-08T11:28:35+0100</time>
      </trkpt>
      <trkpt lat="47.24997" lon="4.96897">
        <ele>323.39978027344</ele>
        <time>2018-03-08T11:28:38+0100</time>
      </trkpt>
      <trkpt lat="47.24997" lon="4.96897">
        <ele>323.34042358398</ele>
        <time>2018-03-08T11:28:41+0100</time>
      </trkpt>
      <trkpt lat="47.24997" lon="4.96897">
        <ele>323.27886962891</ele>
        <time>2018-03-08T11:28:44+0100</time>
      </trkpt>
      <trkpt lat="47.24997" lon="4.96897">
        <ele>323.21572875977</ele>
        <time>2018-03-08T11:28:47+0100</time>
      </trkpt>
      <trkpt lat="47.24997" lon="4.96897">
        <ele>323.14993286133</ele>
        <time>2018-03-08T11:28:50+0100</time>
      </trkpt>
      <trkpt lat="47.24997" lon="4.96897">
        <ele>323.08428955078</ele>
        <time>2018-03-08T11:28:53+0100</time>
      </trkpt>
      <trkpt lat="47.24997" lon="4.96897">
        <ele>323.02102661133</ele>
        <time>2018-03-08T11:28:56+0100</time>
      </trkpt>
      <trkpt lat="47.24997" lon="4.96897">
        <ele>322.95941162109</ele>
        <time>2018-03-08T11:28:59+0100</time>
      </trkpt>
      <trkpt lat="47.24997" lon="4.96897">
        <ele>322.89859008789</ele>
        <time>2018-03-08T11:29:02+0100</time>
      </trkpt>
      <trkpt lat="47.24997" lon="4.96897">
        <ele>322.83871459961</ele>
        <time>2018-03-08T11:29:05+0100</time>
      </trkpt>
      <trkpt lat="47.24997" lon="4.96897">
        <ele>322.77624511719</ele>
        <time>2018-03-08T11:29:08+0100</time>
      </trkpt>
      <trkpt lat="47.24997" lon="4.96897">
        <ele>322.71697998047</ele>
        <time>2018-03-08T11:29:11+0100</time>
      </trkpt>
      <trkpt lat="47.24997" lon="4.96897">
        <ele>322.65667724609</ele>
        <time>2018-03-08T11:29:14+0100</time>
      </trkpt>
      <trkpt lat="47.24997" lon="4.96897">
        <ele>322.58862304688</ele>
        <time>2018-03-08T11:29:17+0100</time>
      </trkpt>
      <trkpt lat="47.24997" lon="4.96897">
        <ele>322.51309204102</ele>
        <time>2018-03-08T11:29:20+0100</time>
      </trkpt>
      <trkpt lat="47.24997" lon="4.96897">
        <ele>322.42779541016</ele>
        <time>2018-03-08T11:29:23+0100</time>
      </trkpt>
      <trkpt lat="47.24997" lon="4.96897">
        <ele>322.33786010742</ele>
        <time>2018-03-08T11:29:26+0100</time>
      </trkpt>
      <trkpt lat="47.24997" lon="4.96897">
        <ele>322.24615478516</ele>
        <time>2018-03-08T11:29:29+0100</time>
      </trkpt>
      <trkpt lat="47.24997" lon="4.96897">
        <ele>322.15222167969</ele>
        <time>2018-03-08T11:29:32+0100</time>
      </trkpt>
      <trkpt lat="47.24997" lon="4.96897">
        <ele>322.05764770508</ele>
        <time>2018-03-08T11:29:35+0100</time>
      </trkpt>
      <trkpt lat="47.24997" lon="4.96897">
        <ele>321.96270751953</ele>
        <time>2018-03-08T11:29:38+0100</time>
      </trkpt>
      <trkpt lat="47.24997" lon="4.96897">
        <ele>321.86737060547</ele>
        <time>2018-03-08T11:29:41+0100</time>
      </trkpt>
      <trkpt lat="47.24997" lon="4.96897">
        <ele>321.77243041992</ele>
        <time>2018-03-08T11:29:44+0100</time>
      </trkpt>
      <trkpt lat="47.24997" lon="4.96897">
        <ele>321.67797851562</ele>
        <time>2018-03-08T11:29:47+0100</time>
      </trkpt>
      <trkpt lat="47.24997" lon="4.96897">
        <ele>321.58404541016</ele>
        <time>2018-03-08T11:29:50+0100</time>
      </trkpt>
      <trkpt lat="47.24997" lon="4.96897">
        <ele>321.4905090332</ele>
        <time>2018-03-08T11:29:53+0100</time>
      </trkpt>
      <trkpt lat="47.24997" lon="4.96897">
        <ele>321.3971862793</ele>
        <time>2018-03-08T11:29:56+0100</time>
      </trkpt>
      <trkpt lat="47.24997" lon="4.96897">
        <ele>321.30401611328</ele>
        <time>2018-03-08T11:29:59+0100</time>
      </trkpt>
      <trkpt lat="47.24997" lon="4.96897">
        <ele>321.21130371094</ele>
        <time>2018-03-08T11:30:02+0100</time>
      </trkpt>
      <trkpt lat="47.24997" lon="4.96897">
        <ele>321.11953735352</ele>
        <time>2018-03-08T11:30:05+0100</time>
      </trkpt>
      <trkpt lat="47.24997" lon="4.96897">
        <ele>321.02883911133</ele>
        <time>2018-03-08T11:30:08+0100</time>
      </trkpt>
      <trkpt lat="47.24997" lon="4.96897">
        <ele>320.9397277832</ele>
        <time>2018-03-08T11:30:11+0100</time>
      </trkpt>
      <trkpt lat="47.24997" lon="4.96897">
        <ele>320.85339355469</ele>
        <time>2018-03-08T11:30:14+0100</time>
      </trkpt>
      <trkpt lat="47.24997" lon="4.96897">
        <ele>320.76922607422</ele>
        <time>2018-03-08T11:30:17+0100</time>
      </trkpt>
      <trkpt lat="47.24997" lon="4.96898">
        <ele>320.68664550781</ele>
        <time>2018-03-08T11:30:20+0100</time>
      </trkpt>
      <trkpt lat="47.24997" lon="4.96898">
        <ele>320.60604858398</ele>
        <time>2018-03-08T11:30:23+0100</time>
      </trkpt>
      <trkpt lat="47.24997" lon="4.96897">
        <ele>320.53079223633</ele>
        <time>2018-03-08T11:30:26+0100</time>
      </trkpt>
      <trkpt lat="47.24997" lon="4.96897">
        <ele>320.46145629883</ele>
        <time>2018-03-08T11:30:29+0100</time>
      </trkpt>
      <trkpt lat="47.24997" lon="4.96897">
        <ele>320.39736938477</ele>
        <time>2018-03-08T11:30:32+0100</time>
      </trkpt>
      <trkpt lat="47.24997" lon="4.96897">
        <ele>320.3337097168</ele>
        <time>2018-03-08T11:30:35+0100</time>
      </trkpt>
      <trkpt lat="47.24997" lon="4.96897">
        <ele>320.27041625977</ele>
        <time>2018-03-08T11:30:38+0100</time>
      </trkpt>
      <trkpt lat="47.24996" lon="4.96897">
        <ele>320.20584106445</ele>
        <time>2018-03-08T11:30:41+0100</time>
      </trkpt>
      <trkpt lat="47.24996" lon="4.96897">
        <ele>320.13885498047</ele>
        <time>2018-03-08T11:30:44+0100</time>
      </trkpt>
      <trkpt lat="47.24996" lon="4.96897">
        <ele>320.07083129883</ele>
        <time>2018-03-08T11:30:47+0100</time>
      </trkpt>
      <trkpt lat="47.24996" lon="4.96897">
        <ele>320.00158691406</ele>
        <time>2018-03-08T11:30:50+0100</time>
      </trkpt>
      <trkpt lat="47.24996" lon="4.96897">
        <ele>319.93090820312</ele>
        <time>2018-03-08T11:30:53+0100</time>
      </trkpt>
      <trkpt lat="47.24996" lon="4.96897">
        <ele>319.8591003418</ele>
        <time>2018-03-08T11:30:56+0100</time>
      </trkpt>
      <trkpt lat="47.24996" lon="4.96897">
        <ele>319.78723144531</ele>
        <time>2018-03-08T11:30:59+0100</time>
      </trkpt>
      <trkpt lat="47.24996" lon="4.96897">
        <ele>319.71606445312</ele>
        <time>2018-03-08T11:31:02+0100</time>
      </trkpt>
      <trkpt lat="47.24996" lon="4.96897">
        <ele>319.6457824707</ele>
        <time>2018-03-08T11:31:05+0100</time>
      </trkpt>
      <trkpt lat="47.24996" lon="4.96897">
        <ele>319.58389282227</ele>
        <time>2018-03-08T11:31:08+0100</time>
      </trkpt>
      <trkpt lat="47.24996" lon="4.96897">
        <ele>319.53115844727</ele>
        <time>2018-03-08T11:31:11+0100</time>
      </trkpt>
      <trkpt lat="47.24996" lon="4.96897">
        <ele>319.48190307617</ele>
        <time>2018-03-08T11:31:14+0100</time>
      </trkpt>
      <trkpt lat="47.24996" lon="4.96897">
        <ele>319.43389892578</ele>
        <time>2018-03-08T11:31:17+0100</time>
      </trkpt>
      <trkpt lat="47.24996" lon="4.96897">
        <ele>319.39157104492</ele>
        <time>2018-03-08T11:31:20+0100</time>
      </trkpt>
      <trkpt lat="47.24996" lon="4.96897">
        <ele>319.10433959961</ele>
        <time>2018-03-08T11:31:23+0100</time>
      </trkpt>
      <trkpt lat="47.24997" lon="4.96897">
        <ele>318.95608520508</ele>
        <time>2018-03-08T11:31:26+0100</time>
      </trkpt>
    </trkseg>
  </trk>
</gpx>